<?xml version="1.0" encoding="UTF-8" standalone="no" ?>
<gpx xmlns="http://www.topografix.com/GPX/1/1" xmlns:xsi="http://www.w3.org/2001/XMLSchema-instance" xsi:schemaLocation="http://www.topografix.com/GPX/1/1 http://www.topografix.com/GPX/1/1/gpx.xsd" version="1.1" creator="VisuGPX - https://www.visugpx.com">
  <metadata>
    <name>sortie du 25/09/2016</name>
    <desc><![CDATA[Sortie vtt à Vernon (ancienne rando des feuilles mortes)]]></desc>
  </metadata>
  <trk>
    <name><![CDATA[sortie du 25/09/2016_1]]></name>
    <trkseg>
      <trkpt lat="49.09844" lon="1.48819">
        <ele>20.30436706543</ele>
        <time>2016-09-25T06:28:07.000Z</time>
      </trkpt>
      <trkpt lat="49.09844" lon="1.48829">
        <ele>20.466033935547</ele>
        <time>2016-09-25T06:28:10.000Z</time>
      </trkpt>
      <trkpt lat="49.09841" lon="1.48838">
        <ele>20.563262939453</ele>
        <time>2016-09-25T06:28:13.000Z</time>
      </trkpt>
      <trkpt lat="49.09836" lon="1.4885">
        <ele>20.605659484863</ele>
        <time>2016-09-25T06:28:16.000Z</time>
      </trkpt>
      <trkpt lat="49.09833" lon="1.48858">
        <ele>20.625028610229</ele>
        <time>2016-09-25T06:28:18.000Z</time>
      </trkpt>
      <trkpt lat="49.0983" lon="1.48864">
        <ele>20.683483123779</ele>
        <time>2016-09-25T06:28:20.000Z</time>
      </trkpt>
      <trkpt lat="49.09824" lon="1.48872">
        <ele>20.651523590088</ele>
        <time>2016-09-25T06:28:23.000Z</time>
      </trkpt>
      <trkpt lat="49.09816" lon="1.48875">
        <ele>20.57950592041</ele>
        <time>2016-09-25T06:28:26.000Z</time>
      </trkpt>
      <trkpt lat="49.09815" lon="1.48877">
        <ele>20.509210586548</ele>
        <time>2016-09-25T06:28:28.000Z</time>
      </trkpt>
      <trkpt lat="49.09816" lon="1.4888">
        <ele>20.444032669067</ele>
        <time>2016-09-25T06:28:30.000Z</time>
      </trkpt>
      <trkpt lat="49.09818" lon="1.48881">
        <ele>20.399936676025</ele>
        <time>2016-09-25T06:28:33.000Z</time>
      </trkpt>
      <trkpt lat="49.09822" lon="1.48882">
        <ele>20.383195877075</ele>
        <time>2016-09-25T06:28:35.000Z</time>
      </trkpt>
      <trkpt lat="49.09824" lon="1.48884">
        <ele>20.377351760864</ele>
        <time>2016-09-25T06:28:42.000Z</time>
      </trkpt>
      <trkpt lat="49.09822" lon="1.48886">
        <ele>20.371717453003</ele>
        <time>2016-09-25T06:28:50.000Z</time>
      </trkpt>
      <trkpt lat="49.09815" lon="1.48894">
        <ele>20.358972549438</ele>
        <time>2016-09-25T06:28:53.000Z</time>
      </trkpt>
      <trkpt lat="49.09807" lon="1.48904">
        <ele>20.348928451538</ele>
        <time>2016-09-25T06:28:56.000Z</time>
      </trkpt>
      <trkpt lat="49.098" lon="1.48907">
        <ele>20.34846496582</ele>
        <time>2016-09-25T06:28:58.000Z</time>
      </trkpt>
      <trkpt lat="49.09787" lon="1.4891">
        <ele>20.375131607056</ele>
        <time>2016-09-25T06:29:01.000Z</time>
      </trkpt>
      <trkpt lat="49.0978" lon="1.48912">
        <ele>20.422409057617</ele>
        <time>2016-09-25T06:29:03.000Z</time>
      </trkpt>
      <trkpt lat="49.09769" lon="1.48915">
        <ele>20.508117675781</ele>
        <time>2016-09-25T06:29:06.000Z</time>
      </trkpt>
      <trkpt lat="49.09762" lon="1.48917">
        <ele>20.611743927002</ele>
        <time>2016-09-25T06:29:08.000Z</time>
      </trkpt>
      <trkpt lat="49.09755" lon="1.4892">
        <ele>20.715349197388</ele>
        <time>2016-09-25T06:29:10.000Z</time>
      </trkpt>
      <trkpt lat="49.09744" lon="1.48924">
        <ele>20.713577270508</ele>
        <time>2016-09-25T06:29:13.000Z</time>
      </trkpt>
      <trkpt lat="49.09733" lon="1.48929">
        <ele>20.52924156189</ele>
        <time>2016-09-25T06:29:16.000Z</time>
      </trkpt>
      <trkpt lat="49.09727" lon="1.48927">
        <ele>20.243549346924</ele>
        <time>2016-09-25T06:29:19.000Z</time>
      </trkpt>
      <trkpt lat="49.09726" lon="1.48921">
        <ele>19.921232223511</ele>
        <time>2016-09-25T06:29:22.000Z</time>
      </trkpt>
      <trkpt lat="49.09724" lon="1.48914">
        <ele>19.549295425415</ele>
        <time>2016-09-25T06:29:24.000Z</time>
      </trkpt>
      <trkpt lat="49.0972" lon="1.48907">
        <ele>19.161926269531</ele>
        <time>2016-09-25T06:29:27.000Z</time>
      </trkpt>
      <trkpt lat="49.09713" lon="1.48898">
        <ele>18.796131134033</ele>
        <time>2016-09-25T06:29:29.000Z</time>
      </trkpt>
      <trkpt lat="49.09704" lon="1.48894">
        <ele>18.334941864014</ele>
        <time>2016-09-25T06:29:31.000Z</time>
      </trkpt>
      <trkpt lat="49.09695" lon="1.48894">
        <ele>17.761455535889</ele>
        <time>2016-09-25T06:29:33.000Z</time>
      </trkpt>
      <trkpt lat="49.09684" lon="1.48895">
        <ele>17.054515838623</ele>
        <time>2016-09-25T06:29:36.000Z</time>
      </trkpt>
      <trkpt lat="49.09677" lon="1.48895">
        <ele>16.338354110718</ele>
        <time>2016-09-25T06:29:38.000Z</time>
      </trkpt>
      <trkpt lat="49.0967" lon="1.48891">
        <ele>15.640390396118</ele>
        <time>2016-09-25T06:29:41.000Z</time>
      </trkpt>
      <trkpt lat="49.09663" lon="1.48879">
        <ele>14.953152656555</ele>
        <time>2016-09-25T06:29:44.000Z</time>
      </trkpt>
      <trkpt lat="49.09653" lon="1.48866">
        <ele>14.263005256653</ele>
        <time>2016-09-25T06:29:47.000Z</time>
      </trkpt>
      <trkpt lat="49.09647" lon="1.48857">
        <ele>13.649057388306</ele>
        <time>2016-09-25T06:29:49.000Z</time>
      </trkpt>
      <trkpt lat="49.09642" lon="1.48848">
        <ele>13.046905517578</ele>
        <time>2016-09-25T06:29:51.000Z</time>
      </trkpt>
      <trkpt lat="49.09633" lon="1.48835">
        <ele>12.429738044739</ele>
        <time>2016-09-25T06:29:54.000Z</time>
      </trkpt>
      <trkpt lat="49.09627" lon="1.48826">
        <ele>11.906747817993</ele>
        <time>2016-09-25T06:29:56.000Z</time>
      </trkpt>
      <trkpt lat="49.09621" lon="1.48817">
        <ele>11.468789100647</ele>
        <time>2016-09-25T06:29:58.000Z</time>
      </trkpt>
      <trkpt lat="49.09611" lon="1.48803">
        <ele>11.066179275513</ele>
        <time>2016-09-25T06:30:01.000Z</time>
      </trkpt>
      <trkpt lat="49.09605" lon="1.48794">
        <ele>10.726780891418</ele>
        <time>2016-09-25T06:30:03.000Z</time>
      </trkpt>
      <trkpt lat="49.09595" lon="1.4878">
        <ele>10.495399475098</ele>
        <time>2016-09-25T06:30:06.000Z</time>
      </trkpt>
      <trkpt lat="49.09586" lon="1.48767">
        <ele>10.306567192078</ele>
        <time>2016-09-25T06:30:09.000Z</time>
      </trkpt>
      <trkpt lat="49.09577" lon="1.48753">
        <ele>10.204472541809</ele>
        <time>2016-09-25T06:30:12.000Z</time>
      </trkpt>
      <trkpt lat="49.09568" lon="1.4874">
        <ele>10.271200180054</ele>
        <time>2016-09-25T06:30:15.000Z</time>
      </trkpt>
      <trkpt lat="49.09562" lon="1.48731">
        <ele>10.455871582031</ele>
        <time>2016-09-25T06:30:17.000Z</time>
      </trkpt>
      <trkpt lat="49.09555" lon="1.48723">
        <ele>10.768056869507</ele>
        <time>2016-09-25T06:30:19.000Z</time>
      </trkpt>
      <trkpt lat="49.09549" lon="1.48714">
        <ele>11.202743530273</ele>
        <time>2016-09-25T06:30:21.000Z</time>
      </trkpt>
      <trkpt lat="49.09539" lon="1.48701">
        <ele>11.779553413391</ele>
        <time>2016-09-25T06:30:24.000Z</time>
      </trkpt>
      <trkpt lat="49.09529" lon="1.48687">
        <ele>12.460566520691</ele>
        <time>2016-09-25T06:30:27.000Z</time>
      </trkpt>
      <trkpt lat="49.09518" lon="1.48671">
        <ele>13.323205947876</ele>
        <time>2016-09-25T06:30:30.000Z</time>
      </trkpt>
      <trkpt lat="49.09508" lon="1.48656">
        <ele>14.350875854492</ele>
        <time>2016-09-25T06:30:33.000Z</time>
      </trkpt>
      <trkpt lat="49.095" lon="1.48642">
        <ele>15.488412857056</ele>
        <time>2016-09-25T06:30:36.000Z</time>
      </trkpt>
      <trkpt lat="49.09493" lon="1.48629">
        <ele>16.574579238892</ele>
        <time>2016-09-25T06:30:39.000Z</time>
      </trkpt>
      <trkpt lat="49.09494" lon="1.48618">
        <ele>17.520278930664</ele>
        <time>2016-09-25T06:30:41.000Z</time>
      </trkpt>
      <trkpt lat="49.09499" lon="1.48601">
        <ele>18.291976928711</ele>
        <time>2016-09-25T06:30:44.000Z</time>
      </trkpt>
      <trkpt lat="49.09507" lon="1.48593">
        <ele>18.777591705322</ele>
        <time>2016-09-25T06:30:46.000Z</time>
      </trkpt>
      <trkpt lat="49.09513" lon="1.48584">
        <ele>19.039167404175</ele>
        <time>2016-09-25T06:30:48.000Z</time>
      </trkpt>
      <trkpt lat="49.09521" lon="1.48572">
        <ele>19.082576751709</ele>
        <time>2016-09-25T06:30:51.000Z</time>
      </trkpt>
      <trkpt lat="49.09528" lon="1.48564">
        <ele>18.984127044678</ele>
        <time>2016-09-25T06:30:53.000Z</time>
      </trkpt>
      <trkpt lat="49.09537" lon="1.48557">
        <ele>18.695999145508</ele>
        <time>2016-09-25T06:30:56.000Z</time>
      </trkpt>
      <trkpt lat="49.09545" lon="1.48561">
        <ele>18.34200668335</ele>
        <time>2016-09-25T06:30:58.000Z</time>
      </trkpt>
      <trkpt lat="49.09554" lon="1.48561">
        <ele>17.897369384766</ele>
        <time>2016-09-25T06:31:00.000Z</time>
      </trkpt>
      <trkpt lat="49.09562" lon="1.48541">
        <ele>17.487049102783</ele>
        <time>2016-09-25T06:31:03.000Z</time>
      </trkpt>
      <trkpt lat="49.09568" lon="1.48519">
        <ele>17.123836517334</ele>
        <time>2016-09-25T06:31:06.000Z</time>
      </trkpt>
      <trkpt lat="49.09575" lon="1.48498">
        <ele>16.833293914795</ele>
        <time>2016-09-25T06:31:09.000Z</time>
      </trkpt>
      <trkpt lat="49.09581" lon="1.48477">
        <ele>16.673511505127</ele>
        <time>2016-09-25T06:31:12.000Z</time>
      </trkpt>
      <trkpt lat="49.09584" lon="1.48463">
        <ele>16.646270751953</ele>
        <time>2016-09-25T06:31:14.000Z</time>
      </trkpt>
      <trkpt lat="49.09587" lon="1.48452">
        <ele>16.689594268799</ele>
        <time>2016-09-25T06:31:16.000Z</time>
      </trkpt>
      <trkpt lat="49.09589" lon="1.48444">
        <ele>16.765663146973</ele>
        <time>2016-09-25T06:31:18.000Z</time>
      </trkpt>
      <trkpt lat="49.09593" lon="1.48436">
        <ele>16.842618942261</ele>
        <time>2016-09-25T06:31:21.000Z</time>
      </trkpt>
      <trkpt lat="49.09598" lon="1.4843">
        <ele>16.834716796875</ele>
        <time>2016-09-25T06:31:24.000Z</time>
      </trkpt>
      <trkpt lat="49.09609" lon="1.4842">
        <ele>16.678405761719</ele>
        <time>2016-09-25T06:31:27.000Z</time>
      </trkpt>
      <trkpt lat="49.09617" lon="1.48413">
        <ele>16.423545837402</ele>
        <time>2016-09-25T06:31:30.000Z</time>
      </trkpt>
      <trkpt lat="49.09618" lon="1.4841">
        <ele>16.152973175049</ele>
        <time>2016-09-25T06:31:32.000Z</time>
      </trkpt>
      <trkpt lat="49.09618" lon="1.48411">
        <ele>15.895474433899</ele>
        <time>2016-09-25T06:31:36.000Z</time>
      </trkpt>
      <trkpt lat="49.09613" lon="1.48422">
        <ele>15.714688301086</ele>
        <time>2016-09-25T06:31:39.000Z</time>
      </trkpt>
      <trkpt lat="49.09604" lon="1.4844">
        <ele>15.696743965149</ele>
        <time>2016-09-25T06:31:42.000Z</time>
      </trkpt>
      <trkpt lat="49.096" lon="1.48454">
        <ele>15.756597518921</ele>
        <time>2016-09-25T06:31:44.000Z</time>
      </trkpt>
      <trkpt lat="49.09593" lon="1.48477">
        <ele>15.805918693542</ele>
        <time>2016-09-25T06:31:47.000Z</time>
      </trkpt>
      <trkpt lat="49.09588" lon="1.48487">
        <ele>15.891296386719</ele>
        <time>2016-09-25T06:31:49.000Z</time>
      </trkpt>
      <trkpt lat="49.09583" lon="1.48503">
        <ele>15.944361686707</ele>
        <time>2016-09-25T06:31:51.000Z</time>
      </trkpt>
      <trkpt lat="49.09574" lon="1.48531">
        <ele>15.982675552368</ele>
        <time>2016-09-25T06:31:54.000Z</time>
      </trkpt>
      <trkpt lat="49.09568" lon="1.48546">
        <ele>16.053821563721</ele>
        <time>2016-09-25T06:31:56.000Z</time>
      </trkpt>
      <trkpt lat="49.0956" lon="1.48571">
        <ele>16.186901092529</ele>
        <time>2016-09-25T06:31:59.000Z</time>
      </trkpt>
      <trkpt lat="49.09551" lon="1.48594">
        <ele>16.280750274658</ele>
        <time>2016-09-25T06:32:02.000Z</time>
      </trkpt>
      <trkpt lat="49.09546" lon="1.48609">
        <ele>16.322240829468</ele>
        <time>2016-09-25T06:32:04.000Z</time>
      </trkpt>
      <trkpt lat="49.09536" lon="1.48628">
        <ele>16.296352386475</ele>
        <time>2016-09-25T06:32:07.000Z</time>
      </trkpt>
      <trkpt lat="49.09528" lon="1.48641">
        <ele>16.244298934937</ele>
        <time>2016-09-25T06:32:09.000Z</time>
      </trkpt>
      <trkpt lat="49.0952" lon="1.48654">
        <ele>16.15634727478</ele>
        <time>2016-09-25T06:32:11.000Z</time>
      </trkpt>
      <trkpt lat="49.09508" lon="1.48671">
        <ele>16.11473274231</ele>
        <time>2016-09-25T06:32:14.000Z</time>
      </trkpt>
      <trkpt lat="49.095" lon="1.48681">
        <ele>16.137363433838</ele>
        <time>2016-09-25T06:32:16.000Z</time>
      </trkpt>
      <trkpt lat="49.09491" lon="1.487">
        <ele>16.069067001343</ele>
        <time>2016-09-25T06:32:19.000Z</time>
      </trkpt>
      <trkpt lat="49.0948" lon="1.48718">
        <ele>15.926277160645</ele>
        <time>2016-09-25T06:32:22.000Z</time>
      </trkpt>
      <trkpt lat="49.09471" lon="1.48727">
        <ele>15.770471572876</ele>
        <time>2016-09-25T06:32:24.000Z</time>
      </trkpt>
      <trkpt lat="49.09458" lon="1.4874">
        <ele>15.591728210449</ele>
        <time>2016-09-25T06:32:27.000Z</time>
      </trkpt>
      <trkpt lat="49.09447" lon="1.48749">
        <ele>15.442794799805</ele>
        <time>2016-09-25T06:32:30.000Z</time>
      </trkpt>
      <trkpt lat="49.09442" lon="1.48754">
        <ele>15.471224784851</ele>
        <time>2016-09-25T06:32:32.000Z</time>
      </trkpt>
      <trkpt lat="49.09438" lon="1.48766">
        <ele>15.638857841492</ele>
        <time>2016-09-25T06:32:35.000Z</time>
      </trkpt>
      <trkpt lat="49.09439" lon="1.48787">
        <ele>15.842379570007</ele>
        <time>2016-09-25T06:32:38.000Z</time>
      </trkpt>
      <trkpt lat="49.09433" lon="1.48808">
        <ele>16.180004119873</ele>
        <time>2016-09-25T06:32:41.000Z</time>
      </trkpt>
      <trkpt lat="49.09422" lon="1.48829">
        <ele>16.748706817627</ele>
        <time>2016-09-25T06:32:44.000Z</time>
      </trkpt>
      <trkpt lat="49.09409" lon="1.48841">
        <ele>17.229801177979</ele>
        <time>2016-09-25T06:32:47.000Z</time>
      </trkpt>
      <trkpt lat="49.09394" lon="1.48844">
        <ele>17.578845977783</ele>
        <time>2016-09-25T06:32:50.000Z</time>
      </trkpt>
      <trkpt lat="49.09387" lon="1.48847">
        <ele>17.848369598389</ele>
        <time>2016-09-25T06:32:52.000Z</time>
      </trkpt>
      <trkpt lat="49.09379" lon="1.48848">
        <ele>17.954336166382</ele>
        <time>2016-09-25T06:32:54.000Z</time>
      </trkpt>
      <trkpt lat="49.09367" lon="1.48856">
        <ele>17.746593475342</ele>
        <time>2016-09-25T06:32:57.000Z</time>
      </trkpt>
      <trkpt lat="49.09356" lon="1.48856">
        <ele>17.587642669678</ele>
        <time>2016-09-25T06:33:00.000Z</time>
      </trkpt>
      <trkpt lat="49.09345" lon="1.48865">
        <ele>17.519496917725</ele>
        <time>2016-09-25T06:33:02.000Z</time>
      </trkpt>
      <trkpt lat="49.09336" lon="1.48873">
        <ele>17.565462112427</ele>
        <time>2016-09-25T06:33:04.000Z</time>
      </trkpt>
      <trkpt lat="49.09328" lon="1.48881">
        <ele>17.667181015015</ele>
        <time>2016-09-25T06:33:06.000Z</time>
      </trkpt>
      <trkpt lat="49.09314" lon="1.48889">
        <ele>17.799066543579</ele>
        <time>2016-09-25T06:33:09.000Z</time>
      </trkpt>
      <trkpt lat="49.09309" lon="1.48893">
        <ele>17.909118652344</ele>
        <time>2016-09-25T06:33:11.000Z</time>
      </trkpt>
      <trkpt lat="49.09303" lon="1.489">
        <ele>17.97346496582</ele>
        <time>2016-09-25T06:33:13.000Z</time>
      </trkpt>
      <trkpt lat="49.09299" lon="1.48905">
        <ele>17.950206756592</ele>
        <time>2016-09-25T06:33:15.000Z</time>
      </trkpt>
      <trkpt lat="49.09293" lon="1.48912">
        <ele>17.848770141602</ele>
        <time>2016-09-25T06:33:18.000Z</time>
      </trkpt>
      <trkpt lat="49.09283" lon="1.48925">
        <ele>17.646137237549</ele>
        <time>2016-09-25T06:33:21.000Z</time>
      </trkpt>
      <trkpt lat="49.09273" lon="1.48937">
        <ele>17.36315536499</ele>
        <time>2016-09-25T06:33:24.000Z</time>
      </trkpt>
      <trkpt lat="49.09261" lon="1.48945">
        <ele>17.03218460083</ele>
        <time>2016-09-25T06:33:27.000Z</time>
      </trkpt>
      <trkpt lat="49.09252" lon="1.48949">
        <ele>16.68180847168</ele>
        <time>2016-09-25T06:33:29.000Z</time>
      </trkpt>
      <trkpt lat="49.09239" lon="1.48958">
        <ele>16.470687866211</ele>
        <time>2016-09-25T06:33:32.000Z</time>
      </trkpt>
      <trkpt lat="49.0923" lon="1.48967">
        <ele>16.452821731567</ele>
        <time>2016-09-25T06:33:35.000Z</time>
      </trkpt>
      <trkpt lat="49.09223" lon="1.48976">
        <ele>16.573955535889</ele>
        <time>2016-09-25T06:33:37.000Z</time>
      </trkpt>
      <trkpt lat="49.09215" lon="1.48987">
        <ele>16.806247711182</ele>
        <time>2016-09-25T06:33:40.000Z</time>
      </trkpt>
      <trkpt lat="49.09208" lon="1.48998">
        <ele>17.107234954834</ele>
        <time>2016-09-25T06:33:42.000Z</time>
      </trkpt>
      <trkpt lat="49.09194" lon="1.49012">
        <ele>17.359203338623</ele>
        <time>2016-09-25T06:33:45.000Z</time>
      </trkpt>
      <trkpt lat="49.09183" lon="1.49019">
        <ele>17.612865447998</ele>
        <time>2016-09-25T06:33:48.000Z</time>
      </trkpt>
      <trkpt lat="49.09167" lon="1.49041">
        <ele>17.969259262085</ele>
        <time>2016-09-25T06:33:51.000Z</time>
      </trkpt>
      <trkpt lat="49.0916" lon="1.49056">
        <ele>18.285797119141</ele>
        <time>2016-09-25T06:33:53.000Z</time>
      </trkpt>
      <trkpt lat="49.09149" lon="1.49074">
        <ele>18.545679092407</ele>
        <time>2016-09-25T06:33:56.000Z</time>
      </trkpt>
      <trkpt lat="49.09136" lon="1.49083">
        <ele>18.715450286865</ele>
        <time>2016-09-25T06:33:59.000Z</time>
      </trkpt>
      <trkpt lat="49.09121" lon="1.49109">
        <ele>18.578708648682</ele>
        <time>2016-09-25T06:34:02.000Z</time>
      </trkpt>
      <trkpt lat="49.09109" lon="1.49126">
        <ele>18.270153045654</ele>
        <time>2016-09-25T06:34:05.000Z</time>
      </trkpt>
      <trkpt lat="49.09103" lon="1.49136">
        <ele>17.977621078491</ele>
        <time>2016-09-25T06:34:07.000Z</time>
      </trkpt>
      <trkpt lat="49.09097" lon="1.49147">
        <ele>17.775671005249</ele>
        <time>2016-09-25T06:34:09.000Z</time>
      </trkpt>
      <trkpt lat="49.09088" lon="1.49157">
        <ele>17.745903015137</ele>
        <time>2016-09-25T06:34:11.000Z</time>
      </trkpt>
      <trkpt lat="49.09077" lon="1.49174">
        <ele>17.991363525391</ele>
        <time>2016-09-25T06:34:14.000Z</time>
      </trkpt>
      <trkpt lat="49.09067" lon="1.49191">
        <ele>18.149171829224</ele>
        <time>2016-09-25T06:34:17.000Z</time>
      </trkpt>
      <trkpt lat="49.09063" lon="1.49208">
        <ele>18.173393249512</ele>
        <time>2016-09-25T06:34:19.000Z</time>
      </trkpt>
      <trkpt lat="49.09055" lon="1.49237">
        <ele>17.973136901855</ele>
        <time>2016-09-25T06:34:22.000Z</time>
      </trkpt>
      <trkpt lat="49.09047" lon="1.49263">
        <ele>17.584066390991</ele>
        <time>2016-09-25T06:34:25.000Z</time>
      </trkpt>
      <trkpt lat="49.09038" lon="1.49289">
        <ele>17.192819595337</ele>
        <time>2016-09-25T06:34:28.000Z</time>
      </trkpt>
      <trkpt lat="49.09025" lon="1.49317">
        <ele>17.08106803894</ele>
        <time>2016-09-25T06:34:31.000Z</time>
      </trkpt>
      <trkpt lat="49.09014" lon="1.49339">
        <ele>17.280191421509</ele>
        <time>2016-09-25T06:34:34.000Z</time>
      </trkpt>
      <trkpt lat="49.09003" lon="1.49366">
        <ele>17.859140396118</ele>
        <time>2016-09-25T06:34:37.000Z</time>
      </trkpt>
      <trkpt lat="49.08993" lon="1.49387">
        <ele>18.556972503662</ele>
        <time>2016-09-25T06:34:40.000Z</time>
      </trkpt>
      <trkpt lat="49.08986" lon="1.49402">
        <ele>19.206720352173</ele>
        <time>2016-09-25T06:34:42.000Z</time>
      </trkpt>
      <trkpt lat="49.08974" lon="1.49426">
        <ele>19.563247680664</ele>
        <time>2016-09-25T06:34:45.000Z</time>
      </trkpt>
      <trkpt lat="49.08967" lon="1.4944">
        <ele>19.540409088135</ele>
        <time>2016-09-25T06:34:47.000Z</time>
      </trkpt>
      <trkpt lat="49.08953" lon="1.49465">
        <ele>19.035226821899</ele>
        <time>2016-09-25T06:34:50.000Z</time>
      </trkpt>
      <trkpt lat="49.08942" lon="1.49485">
        <ele>18.271425247192</ele>
        <time>2016-09-25T06:34:53.000Z</time>
      </trkpt>
      <trkpt lat="49.08931" lon="1.49506">
        <ele>17.364280700684</ele>
        <time>2016-09-25T06:34:56.000Z</time>
      </trkpt>
      <trkpt lat="49.0892" lon="1.49528">
        <ele>16.526182174683</ele>
        <time>2016-09-25T06:34:59.000Z</time>
      </trkpt>
      <trkpt lat="49.08914" lon="1.49541">
        <ele>15.851588249207</ele>
        <time>2016-09-25T06:35:01.000Z</time>
      </trkpt>
      <trkpt lat="49.08908" lon="1.49553">
        <ele>15.437601089478</ele>
        <time>2016-09-25T06:35:03.000Z</time>
      </trkpt>
      <trkpt lat="49.08899" lon="1.49568">
        <ele>15.230484008789</ele>
        <time>2016-09-25T06:35:05.000Z</time>
      </trkpt>
      <trkpt lat="49.08893" lon="1.49578">
        <ele>15.17951965332</ele>
        <time>2016-09-25T06:35:08.000Z</time>
      </trkpt>
      <trkpt lat="49.08865" lon="1.49627">
        <ele>15.219955444336</ele>
        <time>2016-09-25T06:35:13.000Z</time>
      </trkpt>
      <trkpt lat="49.08857" lon="1.4964">
        <ele>15.294672966003</ele>
        <time>2016-09-25T06:35:15.000Z</time>
      </trkpt>
      <trkpt lat="49.0885" lon="1.49652">
        <ele>15.384188652039</ele>
        <time>2016-09-25T06:35:17.000Z</time>
      </trkpt>
      <trkpt lat="49.08839" lon="1.4967">
        <ele>15.480158805847</ele>
        <time>2016-09-25T06:35:20.000Z</time>
      </trkpt>
      <trkpt lat="49.08831" lon="1.49683">
        <ele>15.565755844116</ele>
        <time>2016-09-25T06:35:23.000Z</time>
      </trkpt>
      <trkpt lat="49.0882" lon="1.49702">
        <ele>15.603060722351</ele>
        <time>2016-09-25T06:35:26.000Z</time>
      </trkpt>
      <trkpt lat="49.08814" lon="1.49712">
        <ele>15.628295898438</ele>
        <time>2016-09-25T06:35:28.000Z</time>
      </trkpt>
      <trkpt lat="49.08803" lon="1.4973">
        <ele>15.664972305298</ele>
        <time>2016-09-25T06:35:31.000Z</time>
      </trkpt>
      <trkpt lat="49.08798" lon="1.49739">
        <ele>15.703239440918</ele>
        <time>2016-09-25T06:35:33.000Z</time>
      </trkpt>
      <trkpt lat="49.08794" lon="1.49746">
        <ele>15.758799552917</ele>
        <time>2016-09-25T06:35:36.000Z</time>
      </trkpt>
      <trkpt lat="49.08757" lon="1.49793">
        <ele>15.86710357666</ele>
        <time>2016-09-25T06:35:42.000Z</time>
      </trkpt>
      <trkpt lat="49.08745" lon="1.49814">
        <ele>15.879104614258</ele>
        <time>2016-09-25T06:35:45.000Z</time>
      </trkpt>
      <trkpt lat="49.08735" lon="1.49838">
        <ele>15.709243774414</ele>
        <time>2016-09-25T06:35:48.000Z</time>
      </trkpt>
      <trkpt lat="49.08728" lon="1.49855">
        <ele>15.463064193726</ele>
        <time>2016-09-25T06:35:50.000Z</time>
      </trkpt>
      <trkpt lat="49.08716" lon="1.49878">
        <ele>15.145704269409</ele>
        <time>2016-09-25T06:35:53.000Z</time>
      </trkpt>
      <trkpt lat="49.0871" lon="1.49894">
        <ele>14.764205932617</ele>
        <time>2016-09-25T06:35:55.000Z</time>
      </trkpt>
      <trkpt lat="49.08698" lon="1.49916">
        <ele>14.477053642273</ele>
        <time>2016-09-25T06:35:58.000Z</time>
      </trkpt>
      <trkpt lat="49.08689" lon="1.49928">
        <ele>14.40709400177</ele>
        <time>2016-09-25T06:36:00.000Z</time>
      </trkpt>
      <trkpt lat="49.08681" lon="1.4994">
        <ele>14.481805801392</ele>
        <time>2016-09-25T06:36:02.000Z</time>
      </trkpt>
      <trkpt lat="49.08671" lon="1.49956">
        <ele>14.757060050964</ele>
        <time>2016-09-25T06:36:04.000Z</time>
      </trkpt>
      <trkpt lat="49.08658" lon="1.49975">
        <ele>15.178182601929</ele>
        <time>2016-09-25T06:36:07.000Z</time>
      </trkpt>
      <trkpt lat="49.08651" lon="1.49987">
        <ele>15.638913154602</ele>
        <time>2016-09-25T06:36:09.000Z</time>
      </trkpt>
      <trkpt lat="49.0864" lon="1.50007">
        <ele>16.019729614258</ele>
        <time>2016-09-25T06:36:12.000Z</time>
      </trkpt>
      <trkpt lat="49.08629" lon="1.50028">
        <ele>16.186695098877</ele>
        <time>2016-09-25T06:36:15.000Z</time>
      </trkpt>
      <trkpt lat="49.08622" lon="1.5004">
        <ele>16.156269073486</ele>
        <time>2016-09-25T06:36:17.000Z</time>
      </trkpt>
      <trkpt lat="49.08609" lon="1.50056">
        <ele>15.980793952942</ele>
        <time>2016-09-25T06:36:20.000Z</time>
      </trkpt>
      <trkpt lat="49.08599" lon="1.50073">
        <ele>15.774133682251</ele>
        <time>2016-09-25T06:36:23.000Z</time>
      </trkpt>
      <trkpt lat="49.08591" lon="1.50089">
        <ele>15.641611099243</ele>
        <time>2016-09-25T06:36:26.000Z</time>
      </trkpt>
      <trkpt lat="49.08584" lon="1.501">
        <ele>15.708505630493</ele>
        <time>2016-09-25T06:36:28.000Z</time>
      </trkpt>
      <trkpt lat="49.08576" lon="1.50117">
        <ele>15.876708984375</ele>
        <time>2016-09-25T06:36:31.000Z</time>
      </trkpt>
      <trkpt lat="49.08567" lon="1.50134">
        <ele>16.094274520874</ele>
        <time>2016-09-25T06:36:34.000Z</time>
      </trkpt>
      <trkpt lat="49.0856" lon="1.50146">
        <ele>16.310350418091</ele>
        <time>2016-09-25T06:36:36.000Z</time>
      </trkpt>
      <trkpt lat="49.08549" lon="1.50163">
        <ele>16.46653175354</ele>
        <time>2016-09-25T06:36:39.000Z</time>
      </trkpt>
      <trkpt lat="49.08541" lon="1.50174">
        <ele>16.475217819214</ele>
        <time>2016-09-25T06:36:41.000Z</time>
      </trkpt>
      <trkpt lat="49.08527" lon="1.50193">
        <ele>16.288873672485</ele>
        <time>2016-09-25T06:36:44.000Z</time>
      </trkpt>
      <trkpt lat="49.08519" lon="1.50203">
        <ele>16.032257080078</ele>
        <time>2016-09-25T06:36:46.000Z</time>
      </trkpt>
      <trkpt lat="49.08507" lon="1.50217">
        <ele>15.753423690796</ele>
        <time>2016-09-25T06:36:49.000Z</time>
      </trkpt>
      <trkpt lat="49.08496" lon="1.50232">
        <ele>15.4823179245</ele>
        <time>2016-09-25T06:36:52.000Z</time>
      </trkpt>
      <trkpt lat="49.08483" lon="1.50245">
        <ele>15.254269599915</ele>
        <time>2016-09-25T06:36:55.000Z</time>
      </trkpt>
      <trkpt lat="49.08476" lon="1.50253">
        <ele>15.140867233276</ele>
        <time>2016-09-25T06:36:57.000Z</time>
      </trkpt>
      <trkpt lat="49.08463" lon="1.50269">
        <ele>15.028386116028</ele>
        <time>2016-09-25T06:37:00.000Z</time>
      </trkpt>
      <trkpt lat="49.08451" lon="1.50283">
        <ele>14.935369491577</ele>
        <time>2016-09-25T06:37:03.000Z</time>
      </trkpt>
      <trkpt lat="49.08439" lon="1.50296">
        <ele>14.884805679321</ele>
        <time>2016-09-25T06:37:06.000Z</time>
      </trkpt>
      <trkpt lat="49.08426" lon="1.5031">
        <ele>14.95202922821</ele>
        <time>2016-09-25T06:37:09.000Z</time>
      </trkpt>
      <trkpt lat="49.08417" lon="1.5032">
        <ele>15.133807182312</ele>
        <time>2016-09-25T06:37:11.000Z</time>
      </trkpt>
      <trkpt lat="49.08404" lon="1.50334">
        <ele>15.473576545715</ele>
        <time>2016-09-25T06:37:14.000Z</time>
      </trkpt>
      <trkpt lat="49.08397" lon="1.50343">
        <ele>15.801562309265</ele>
        <time>2016-09-25T06:37:16.000Z</time>
      </trkpt>
      <trkpt lat="49.08384" lon="1.50356">
        <ele>16.103631973267</ele>
        <time>2016-09-25T06:37:19.000Z</time>
      </trkpt>
      <trkpt lat="49.0837" lon="1.50369">
        <ele>16.352478027344</ele>
        <time>2016-09-25T06:37:22.000Z</time>
      </trkpt>
      <trkpt lat="49.08361" lon="1.50376">
        <ele>16.545558929443</ele>
        <time>2016-09-25T06:37:24.000Z</time>
      </trkpt>
      <trkpt lat="49.08348" lon="1.50389">
        <ele>16.668346405029</ele>
        <time>2016-09-25T06:37:27.000Z</time>
      </trkpt>
      <trkpt lat="49.08339" lon="1.50399">
        <ele>16.82447052002</ele>
        <time>2016-09-25T06:37:29.000Z</time>
      </trkpt>
      <trkpt lat="49.08326" lon="1.5041">
        <ele>16.97709274292</ele>
        <time>2016-09-25T06:37:32.000Z</time>
      </trkpt>
      <trkpt lat="49.08318" lon="1.50417">
        <ele>17.087547302246</ele>
        <time>2016-09-25T06:37:34.000Z</time>
      </trkpt>
      <trkpt lat="49.08308" lon="1.50426">
        <ele>17.078567504883</ele>
        <time>2016-09-25T06:37:37.000Z</time>
      </trkpt>
      <trkpt lat="49.08298" lon="1.50436">
        <ele>16.950876235962</ele>
        <time>2016-09-25T06:37:39.000Z</time>
      </trkpt>
      <trkpt lat="49.08288" lon="1.50445">
        <ele>16.775192260742</ele>
        <time>2016-09-25T06:37:41.000Z</time>
      </trkpt>
      <trkpt lat="49.08277" lon="1.50456">
        <ele>16.585571289062</ele>
        <time>2016-09-25T06:37:43.000Z</time>
      </trkpt>
      <trkpt lat="49.08269" lon="1.50462">
        <ele>16.447841644287</ele>
        <time>2016-09-25T06:37:45.000Z</time>
      </trkpt>
      <trkpt lat="49.08261" lon="1.50468">
        <ele>16.452363967896</ele>
        <time>2016-09-25T06:37:47.000Z</time>
      </trkpt>
      <trkpt lat="49.0825" lon="1.50475">
        <ele>16.628530502319</ele>
        <time>2016-09-25T06:37:50.000Z</time>
      </trkpt>
      <trkpt lat="49.08237" lon="1.50484">
        <ele>16.813795089722</ele>
        <time>2016-09-25T06:37:53.000Z</time>
      </trkpt>
      <trkpt lat="49.08228" lon="1.50494">
        <ele>16.974193572998</ele>
        <time>2016-09-25T06:37:56.000Z</time>
      </trkpt>
      <trkpt lat="49.08218" lon="1.50502">
        <ele>17.050277709961</ele>
        <time>2016-09-25T06:37:59.000Z</time>
      </trkpt>
      <trkpt lat="49.08212" lon="1.50509">
        <ele>17.019311904907</ele>
        <time>2016-09-25T06:38:01.000Z</time>
      </trkpt>
      <trkpt lat="49.08205" lon="1.50516">
        <ele>16.837390899658</ele>
        <time>2016-09-25T06:38:03.000Z</time>
      </trkpt>
      <trkpt lat="49.08198" lon="1.50524">
        <ele>16.629360198975</ele>
        <time>2016-09-25T06:38:05.000Z</time>
      </trkpt>
      <trkpt lat="49.08188" lon="1.50535">
        <ele>16.421440124512</ele>
        <time>2016-09-25T06:38:08.000Z</time>
      </trkpt>
      <trkpt lat="49.08181" lon="1.50541">
        <ele>16.257493972778</ele>
        <time>2016-09-25T06:38:10.000Z</time>
      </trkpt>
      <trkpt lat="49.08173" lon="1.50547">
        <ele>16.179424285889</ele>
        <time>2016-09-25T06:38:13.000Z</time>
      </trkpt>
      <trkpt lat="49.08168" lon="1.50549">
        <ele>16.180713653564</ele>
        <time>2016-09-25T06:38:15.000Z</time>
      </trkpt>
      <trkpt lat="49.0816" lon="1.50559">
        <ele>16.25101852417</ele>
        <time>2016-09-25T06:38:18.000Z</time>
      </trkpt>
      <trkpt lat="49.08151" lon="1.50571">
        <ele>16.382480621338</ele>
        <time>2016-09-25T06:38:21.000Z</time>
      </trkpt>
      <trkpt lat="49.08144" lon="1.50579">
        <ele>16.543344497681</ele>
        <time>2016-09-25T06:38:23.000Z</time>
      </trkpt>
      <trkpt lat="49.08137" lon="1.50585">
        <ele>16.695512771606</ele>
        <time>2016-09-25T06:38:25.000Z</time>
      </trkpt>
      <trkpt lat="49.0813" lon="1.50591">
        <ele>16.836620330811</ele>
        <time>2016-09-25T06:38:27.000Z</time>
      </trkpt>
      <trkpt lat="49.08124" lon="1.50596">
        <ele>16.97774887085</ele>
        <time>2016-09-25T06:38:30.000Z</time>
      </trkpt>
      <trkpt lat="49.08124" lon="1.50597">
        <ele>17.082250595093</ele>
        <time>2016-09-25T06:38:32.000Z</time>
      </trkpt>
      <trkpt lat="49.08123" lon="1.50598">
        <ele>17.153518676758</ele>
        <time>2016-09-25T06:38:35.000Z</time>
      </trkpt>
      <trkpt lat="49.0812" lon="1.50604">
        <ele>17.210363388062</ele>
        <time>2016-09-25T06:38:41.000Z</time>
      </trkpt>
      <trkpt lat="49.08116" lon="1.50607">
        <ele>17.293949127197</ele>
        <time>2016-09-25T06:38:43.000Z</time>
      </trkpt>
      <trkpt lat="49.08107" lon="1.50615">
        <ele>17.459377288818</ele>
        <time>2016-09-25T06:38:46.000Z</time>
      </trkpt>
      <trkpt lat="49.08099" lon="1.50624">
        <ele>17.748390197754</ele>
        <time>2016-09-25T06:38:48.000Z</time>
      </trkpt>
      <trkpt lat="49.08084" lon="1.50638">
        <ele>18.346035003662</ele>
        <time>2016-09-25T06:38:51.000Z</time>
      </trkpt>
      <trkpt lat="49.08075" lon="1.50649">
        <ele>18.962184906006</ele>
        <time>2016-09-25T06:38:53.000Z</time>
      </trkpt>
      <trkpt lat="49.08057" lon="1.50663">
        <ele>19.463888168335</ele>
        <time>2016-09-25T06:38:56.000Z</time>
      </trkpt>
      <trkpt lat="49.08039" lon="1.50679">
        <ele>19.677936553955</ele>
        <time>2016-09-25T06:38:59.000Z</time>
      </trkpt>
      <trkpt lat="49.0803" lon="1.50692">
        <ele>19.667091369629</ele>
        <time>2016-09-25T06:39:01.000Z</time>
      </trkpt>
      <trkpt lat="49.08013" lon="1.5071">
        <ele>19.252836227417</ele>
        <time>2016-09-25T06:39:04.000Z</time>
      </trkpt>
      <trkpt lat="49.08004" lon="1.50721">
        <ele>18.785205841064</ele>
        <time>2016-09-25T06:39:06.000Z</time>
      </trkpt>
      <trkpt lat="49.07993" lon="1.50731">
        <ele>18.415460586548</ele>
        <time>2016-09-25T06:39:08.000Z</time>
      </trkpt>
      <trkpt lat="49.07978" lon="1.50748">
        <ele>18.244213104248</ele>
        <time>2016-09-25T06:39:11.000Z</time>
      </trkpt>
      <trkpt lat="49.07969" lon="1.50762">
        <ele>18.150588989258</ele>
        <time>2016-09-25T06:39:13.000Z</time>
      </trkpt>
      <trkpt lat="49.0796" lon="1.50773">
        <ele>18.157434463501</ele>
        <time>2016-09-25T06:39:15.000Z</time>
      </trkpt>
      <trkpt lat="49.07953" lon="1.5078">
        <ele>18.210956573486</ele>
        <time>2016-09-25T06:39:17.000Z</time>
      </trkpt>
      <trkpt lat="49.07938" lon="1.50797">
        <ele>18.327484130859</ele>
        <time>2016-09-25T06:39:20.000Z</time>
      </trkpt>
      <trkpt lat="49.0793" lon="1.50807">
        <ele>18.484004974365</ele>
        <time>2016-09-25T06:39:22.000Z</time>
      </trkpt>
      <trkpt lat="49.0792" lon="1.50821">
        <ele>18.784294128418</ele>
        <time>2016-09-25T06:39:25.000Z</time>
      </trkpt>
      <trkpt lat="49.07911" lon="1.50835">
        <ele>19.151531219482</ele>
        <time>2016-09-25T06:39:28.000Z</time>
      </trkpt>
      <trkpt lat="49.07902" lon="1.50849">
        <ele>19.3205909729</ele>
        <time>2016-09-25T06:39:31.000Z</time>
      </trkpt>
      <trkpt lat="49.07893" lon="1.50859">
        <ele>19.28882598877</ele>
        <time>2016-09-25T06:39:34.000Z</time>
      </trkpt>
      <trkpt lat="49.07884" lon="1.50868">
        <ele>19.11555480957</ele>
        <time>2016-09-25T06:39:37.000Z</time>
      </trkpt>
      <trkpt lat="49.0788" lon="1.50875">
        <ele>18.746580123901</ele>
        <time>2016-09-25T06:39:39.000Z</time>
      </trkpt>
      <trkpt lat="49.07875" lon="1.50882">
        <ele>18.236410140991</ele>
        <time>2016-09-25T06:39:41.000Z</time>
      </trkpt>
      <trkpt lat="49.07867" lon="1.50891">
        <ele>17.840312957764</ele>
        <time>2016-09-25T06:39:44.000Z</time>
      </trkpt>
      <trkpt lat="49.0786" lon="1.50898">
        <ele>17.519090652466</ele>
        <time>2016-09-25T06:39:46.000Z</time>
      </trkpt>
      <trkpt lat="49.07851" lon="1.50908">
        <ele>17.222337722778</ele>
        <time>2016-09-25T06:39:49.000Z</time>
      </trkpt>
      <trkpt lat="49.07841" lon="1.5092">
        <ele>16.941320419312</ele>
        <time>2016-09-25T06:39:52.000Z</time>
      </trkpt>
      <trkpt lat="49.07835" lon="1.50928">
        <ele>16.670391082764</ele>
        <time>2016-09-25T06:39:54.000Z</time>
      </trkpt>
      <trkpt lat="49.07825" lon="1.5094">
        <ele>16.384254455566</ele>
        <time>2016-09-25T06:39:57.000Z</time>
      </trkpt>
      <trkpt lat="49.07818" lon="1.50947">
        <ele>16.087429046631</ele>
        <time>2016-09-25T06:39:59.000Z</time>
      </trkpt>
      <trkpt lat="49.07808" lon="1.50961">
        <ele>15.755828857422</ele>
        <time>2016-09-25T06:40:02.000Z</time>
      </trkpt>
      <trkpt lat="49.07799" lon="1.50973">
        <ele>15.42663860321</ele>
        <time>2016-09-25T06:40:05.000Z</time>
      </trkpt>
      <trkpt lat="49.0779" lon="1.50983">
        <ele>15.134714126587</ele>
        <time>2016-09-25T06:40:08.000Z</time>
      </trkpt>
      <trkpt lat="49.07781" lon="1.50992">
        <ele>14.91032409668</ele>
        <time>2016-09-25T06:40:11.000Z</time>
      </trkpt>
      <trkpt lat="49.07776" lon="1.50997">
        <ele>14.73811340332</ele>
        <time>2016-09-25T06:40:13.000Z</time>
      </trkpt>
      <trkpt lat="49.07769" lon="1.51004">
        <ele>14.656976699829</ele>
        <time>2016-09-25T06:40:16.000Z</time>
      </trkpt>
      <trkpt lat="49.07765" lon="1.51009">
        <ele>14.634907722473</ele>
        <time>2016-09-25T06:40:18.000Z</time>
      </trkpt>
      <trkpt lat="49.07759" lon="1.51009">
        <ele>14.689916610718</ele>
        <time>2016-09-25T06:40:20.000Z</time>
      </trkpt>
      <trkpt lat="49.07752" lon="1.51002">
        <ele>14.928544998169</ele>
        <time>2016-09-25T06:40:23.000Z</time>
      </trkpt>
      <trkpt lat="49.07746" lon="1.50992">
        <ele>15.314268112183</ele>
        <time>2016-09-25T06:40:26.000Z</time>
      </trkpt>
      <trkpt lat="49.07742" lon="1.50983">
        <ele>15.822158813477</ele>
        <time>2016-09-25T06:40:29.000Z</time>
      </trkpt>
      <trkpt lat="49.07737" lon="1.50974">
        <ele>16.453834533691</ele>
        <time>2016-09-25T06:40:32.000Z</time>
      </trkpt>
      <trkpt lat="49.07732" lon="1.50963">
        <ele>17.160268783569</ele>
        <time>2016-09-25T06:40:35.000Z</time>
      </trkpt>
      <trkpt lat="49.07729" lon="1.50956">
        <ele>17.774110794067</ele>
        <time>2016-09-25T06:40:37.000Z</time>
      </trkpt>
      <trkpt lat="49.07724" lon="1.50946">
        <ele>18.351757049561</ele>
        <time>2016-09-25T06:40:40.000Z</time>
      </trkpt>
      <trkpt lat="49.0772" lon="1.50935">
        <ele>18.912492752075</ele>
        <time>2016-09-25T06:40:43.000Z</time>
      </trkpt>
      <trkpt lat="49.07716" lon="1.50926">
        <ele>19.439708709717</ele>
        <time>2016-09-25T06:40:46.000Z</time>
      </trkpt>
      <trkpt lat="49.07713" lon="1.50919">
        <ele>19.908946990967</ele>
        <time>2016-09-25T06:40:49.000Z</time>
      </trkpt>
      <trkpt lat="49.0771" lon="1.5091">
        <ele>20.482906341553</ele>
        <time>2016-09-25T06:40:52.000Z</time>
      </trkpt>
      <trkpt lat="49.07706" lon="1.50902">
        <ele>21.143224716187</ele>
        <time>2016-09-25T06:40:54.000Z</time>
      </trkpt>
      <trkpt lat="49.07701" lon="1.50894">
        <ele>21.921237945557</ele>
        <time>2016-09-25T06:40:57.000Z</time>
      </trkpt>
      <trkpt lat="49.07697" lon="1.50889">
        <ele>22.743131637573</ele>
        <time>2016-09-25T06:41:00.000Z</time>
      </trkpt>
      <trkpt lat="49.07693" lon="1.50885">
        <ele>23.607452392578</ele>
        <time>2016-09-25T06:41:02.000Z</time>
      </trkpt>
      <trkpt lat="49.0769" lon="1.50882">
        <ele>24.386888504028</ele>
        <time>2016-09-25T06:41:04.000Z</time>
      </trkpt>
      <trkpt lat="49.07686" lon="1.50877">
        <ele>25.136684417725</ele>
        <time>2016-09-25T06:41:07.000Z</time>
      </trkpt>
      <trkpt lat="49.07683" lon="1.50872">
        <ele>25.804683685303</ele>
        <time>2016-09-25T06:41:09.000Z</time>
      </trkpt>
      <trkpt lat="49.07679" lon="1.50866">
        <ele>26.527074813843</ele>
        <time>2016-09-25T06:41:12.000Z</time>
      </trkpt>
      <trkpt lat="49.07676" lon="1.50858">
        <ele>27.349243164062</ele>
        <time>2016-09-25T06:41:15.000Z</time>
      </trkpt>
      <trkpt lat="49.07674" lon="1.50853">
        <ele>28.234142303467</ele>
        <time>2016-09-25T06:41:17.000Z</time>
      </trkpt>
      <trkpt lat="49.07671" lon="1.50848">
        <ele>29.112339019775</ele>
        <time>2016-09-25T06:41:19.000Z</time>
      </trkpt>
      <trkpt lat="49.07666" lon="1.5084">
        <ele>30.132543563843</ele>
        <time>2016-09-25T06:41:22.000Z</time>
      </trkpt>
      <trkpt lat="49.07663" lon="1.50835">
        <ele>31.163589477539</ele>
        <time>2016-09-25T06:41:24.000Z</time>
      </trkpt>
      <trkpt lat="49.0766" lon="1.5083">
        <ele>32.201454162598</ele>
        <time>2016-09-25T06:41:26.000Z</time>
      </trkpt>
      <trkpt lat="49.07656" lon="1.50824">
        <ele>33.363349914551</ele>
        <time>2016-09-25T06:41:29.000Z</time>
      </trkpt>
      <trkpt lat="49.07653" lon="1.50819">
        <ele>34.547149658203</ele>
        <time>2016-09-25T06:41:31.000Z</time>
      </trkpt>
      <trkpt lat="49.07649" lon="1.50814">
        <ele>35.661762237549</ele>
        <time>2016-09-25T06:41:34.000Z</time>
      </trkpt>
      <trkpt lat="49.07646" lon="1.50811">
        <ele>36.722290039062</ele>
        <time>2016-09-25T06:41:36.000Z</time>
      </trkpt>
      <trkpt lat="49.07641" lon="1.50804">
        <ele>37.768207550049</ele>
        <time>2016-09-25T06:41:39.000Z</time>
      </trkpt>
      <trkpt lat="49.07639" lon="1.50801">
        <ele>38.639457702637</ele>
        <time>2016-09-25T06:41:41.000Z</time>
      </trkpt>
      <trkpt lat="49.07635" lon="1.50797">
        <ele>39.419300079346</ele>
        <time>2016-09-25T06:41:43.000Z</time>
      </trkpt>
      <trkpt lat="49.07631" lon="1.50794">
        <ele>40.067077636719</ele>
        <time>2016-09-25T06:41:45.000Z</time>
      </trkpt>
      <trkpt lat="49.07626" lon="1.50789">
        <ele>40.672164916992</ele>
        <time>2016-09-25T06:41:48.000Z</time>
      </trkpt>
      <trkpt lat="49.07623" lon="1.50786">
        <ele>41.122287750244</ele>
        <time>2016-09-25T06:41:50.000Z</time>
      </trkpt>
      <trkpt lat="49.07619" lon="1.50782">
        <ele>41.512104034424</ele>
        <time>2016-09-25T06:41:53.000Z</time>
      </trkpt>
      <trkpt lat="49.07615" lon="1.50778">
        <ele>41.839862823486</ele>
        <time>2016-09-25T06:41:56.000Z</time>
      </trkpt>
      <trkpt lat="49.0761" lon="1.50775">
        <ele>42.091743469238</ele>
        <time>2016-09-25T06:41:59.000Z</time>
      </trkpt>
      <trkpt lat="49.07606" lon="1.50773">
        <ele>42.237701416016</ele>
        <time>2016-09-25T06:42:01.000Z</time>
      </trkpt>
      <trkpt lat="49.076" lon="1.5077">
        <ele>42.311939239502</ele>
        <time>2016-09-25T06:42:04.000Z</time>
      </trkpt>
      <trkpt lat="49.07593" lon="1.5077">
        <ele>42.284400939941</ele>
        <time>2016-09-25T06:42:07.000Z</time>
      </trkpt>
      <trkpt lat="49.07587" lon="1.5077">
        <ele>42.186149597168</ele>
        <time>2016-09-25T06:42:09.000Z</time>
      </trkpt>
      <trkpt lat="49.0758" lon="1.50767">
        <ele>42.07808303833</ele>
        <time>2016-09-25T06:42:12.000Z</time>
      </trkpt>
      <trkpt lat="49.07572" lon="1.50764">
        <ele>42.082271575928</ele>
        <time>2016-09-25T06:42:15.000Z</time>
      </trkpt>
      <trkpt lat="49.07567" lon="1.50762">
        <ele>42.17211151123</ele>
        <time>2016-09-25T06:42:17.000Z</time>
      </trkpt>
      <trkpt lat="49.07563" lon="1.50763">
        <ele>42.369995117188</ele>
        <time>2016-09-25T06:42:19.000Z</time>
      </trkpt>
      <trkpt lat="49.0756" lon="1.50764">
        <ele>42.664756774902</ele>
        <time>2016-09-25T06:42:21.000Z</time>
      </trkpt>
      <trkpt lat="49.07554" lon="1.50764">
        <ele>43.048488616943</ele>
        <time>2016-09-25T06:42:24.000Z</time>
      </trkpt>
      <trkpt lat="49.07548" lon="1.50764">
        <ele>43.415702819824</ele>
        <time>2016-09-25T06:42:27.000Z</time>
      </trkpt>
      <trkpt lat="49.07543" lon="1.50764">
        <ele>43.807327270508</ele>
        <time>2016-09-25T06:42:30.000Z</time>
      </trkpt>
      <trkpt lat="49.07537" lon="1.50764">
        <ele>44.23669052124</ele>
        <time>2016-09-25T06:42:33.000Z</time>
      </trkpt>
      <trkpt lat="49.07533" lon="1.50763">
        <ele>44.657829284668</ele>
        <time>2016-09-25T06:42:35.000Z</time>
      </trkpt>
      <trkpt lat="49.07526" lon="1.50763">
        <ele>45.075775146484</ele>
        <time>2016-09-25T06:42:38.000Z</time>
      </trkpt>
      <trkpt lat="49.0752" lon="1.50762">
        <ele>45.499458312988</ele>
        <time>2016-09-25T06:42:41.000Z</time>
      </trkpt>
      <trkpt lat="49.07512" lon="1.50762">
        <ele>45.952117919922</ele>
        <time>2016-09-25T06:42:44.000Z</time>
      </trkpt>
      <trkpt lat="49.07505" lon="1.50761">
        <ele>46.392112731934</ele>
        <time>2016-09-25T06:42:47.000Z</time>
      </trkpt>
      <trkpt lat="49.07501" lon="1.50761">
        <ele>46.845359802246</ele>
        <time>2016-09-25T06:42:49.000Z</time>
      </trkpt>
      <trkpt lat="49.07497" lon="1.50761">
        <ele>47.268028259277</ele>
        <time>2016-09-25T06:42:51.000Z</time>
      </trkpt>
      <trkpt lat="49.07493" lon="1.50762">
        <ele>47.652839660645</ele>
        <time>2016-09-25T06:42:53.000Z</time>
      </trkpt>
      <trkpt lat="49.07488" lon="1.50764">
        <ele>48.019065856934</ele>
        <time>2016-09-25T06:42:56.000Z</time>
      </trkpt>
      <trkpt lat="49.07485" lon="1.50764">
        <ele>48.341526031494</ele>
        <time>2016-09-25T06:42:58.000Z</time>
      </trkpt>
      <trkpt lat="49.07481" lon="1.50764">
        <ele>48.652820587158</ele>
        <time>2016-09-25T06:43:00.000Z</time>
      </trkpt>
      <trkpt lat="49.07477" lon="1.50765">
        <ele>48.964622497559</ele>
        <time>2016-09-25T06:43:02.000Z</time>
      </trkpt>
      <trkpt lat="49.07471" lon="1.50768">
        <ele>49.329261779785</ele>
        <time>2016-09-25T06:43:05.000Z</time>
      </trkpt>
      <trkpt lat="49.07467" lon="1.50768">
        <ele>49.649433135986</ele>
        <time>2016-09-25T06:43:07.000Z</time>
      </trkpt>
      <trkpt lat="49.07463" lon="1.50769">
        <ele>49.98624420166</ele>
        <time>2016-09-25T06:43:09.000Z</time>
      </trkpt>
      <trkpt lat="49.07458" lon="1.5077">
        <ele>50.33765411377</ele>
        <time>2016-09-25T06:43:12.000Z</time>
      </trkpt>
      <trkpt lat="49.07454" lon="1.5077">
        <ele>50.672142028809</ele>
        <time>2016-09-25T06:43:14.000Z</time>
      </trkpt>
      <trkpt lat="49.07448" lon="1.50767">
        <ele>50.9407081604</ele>
        <time>2016-09-25T06:43:17.000Z</time>
      </trkpt>
      <trkpt lat="49.07444" lon="1.50766">
        <ele>51.194385528564</ele>
        <time>2016-09-25T06:43:19.000Z</time>
      </trkpt>
      <trkpt lat="49.07442" lon="1.50767">
        <ele>51.434104919434</ele>
        <time>2016-09-25T06:43:21.000Z</time>
      </trkpt>
      <trkpt lat="49.07437" lon="1.50769">
        <ele>51.676200866699</ele>
        <time>2016-09-25T06:43:24.000Z</time>
      </trkpt>
      <trkpt lat="49.07434" lon="1.5077">
        <ele>51.917186737061</ele>
        <time>2016-09-25T06:43:26.000Z</time>
      </trkpt>
      <trkpt lat="49.0743" lon="1.5077">
        <ele>52.165519714355</ele>
        <time>2016-09-25T06:43:29.000Z</time>
      </trkpt>
      <trkpt lat="49.07427" lon="1.50769">
        <ele>52.397041320801</ele>
        <time>2016-09-25T06:43:31.000Z</time>
      </trkpt>
      <trkpt lat="49.07423" lon="1.50766">
        <ele>52.617839813232</ele>
        <time>2016-09-25T06:43:34.000Z</time>
      </trkpt>
      <trkpt lat="49.0742" lon="1.50763">
        <ele>52.801414489746</ele>
        <time>2016-09-25T06:43:36.000Z</time>
      </trkpt>
      <trkpt lat="49.07416" lon="1.5076">
        <ele>53.000427246094</ele>
        <time>2016-09-25T06:43:38.000Z</time>
      </trkpt>
      <trkpt lat="49.07413" lon="1.50756">
        <ele>53.239189147949</ele>
        <time>2016-09-25T06:43:40.000Z</time>
      </trkpt>
      <trkpt lat="49.07407" lon="1.5075">
        <ele>53.665058135986</ele>
        <time>2016-09-25T06:43:43.000Z</time>
      </trkpt>
      <trkpt lat="49.07404" lon="1.50747">
        <ele>54.242992401123</ele>
        <time>2016-09-25T06:43:45.000Z</time>
      </trkpt>
      <trkpt lat="49.074" lon="1.50742">
        <ele>55.037086486816</ele>
        <time>2016-09-25T06:43:48.000Z</time>
      </trkpt>
      <trkpt lat="49.07398" lon="1.5074">
        <ele>55.921379089355</ele>
        <time>2016-09-25T06:43:50.000Z</time>
      </trkpt>
      <trkpt lat="49.07396" lon="1.50738">
        <ele>56.831993103027</ele>
        <time>2016-09-25T06:43:52.000Z</time>
      </trkpt>
      <trkpt lat="49.07394" lon="1.50735">
        <ele>57.642314910889</ele>
        <time>2016-09-25T06:43:54.000Z</time>
      </trkpt>
      <trkpt lat="49.07392" lon="1.50732">
        <ele>58.415870666504</ele>
        <time>2016-09-25T06:43:56.000Z</time>
      </trkpt>
      <trkpt lat="49.07388" lon="1.50729">
        <ele>59.143627166748</ele>
        <time>2016-09-25T06:43:59.000Z</time>
      </trkpt>
      <trkpt lat="49.07384" lon="1.50726">
        <ele>59.951805114746</ele>
        <time>2016-09-25T06:44:02.000Z</time>
      </trkpt>
      <trkpt lat="49.07381" lon="1.50724">
        <ele>60.751281738281</ele>
        <time>2016-09-25T06:44:04.000Z</time>
      </trkpt>
      <trkpt lat="49.07379" lon="1.50722">
        <ele>61.576591491699</ele>
        <time>2016-09-25T06:44:07.000Z</time>
      </trkpt>
      <trkpt lat="49.07378" lon="1.5072">
        <ele>62.333606719971</ele>
        <time>2016-09-25T06:44:09.000Z</time>
      </trkpt>
      <trkpt lat="49.07374" lon="1.50718">
        <ele>63.059120178223</ele>
        <time>2016-09-25T06:44:12.000Z</time>
      </trkpt>
      <trkpt lat="49.0737" lon="1.50713">
        <ele>63.774879455566</ele>
        <time>2016-09-25T06:44:15.000Z</time>
      </trkpt>
      <trkpt lat="49.07367" lon="1.5071">
        <ele>64.550354003906</ele>
        <time>2016-09-25T06:44:17.000Z</time>
      </trkpt>
      <trkpt lat="49.07364" lon="1.50707">
        <ele>65.335472106934</ele>
        <time>2016-09-25T06:44:19.000Z</time>
      </trkpt>
      <trkpt lat="49.07361" lon="1.50705">
        <ele>66.197639465332</ele>
        <time>2016-09-25T06:44:21.000Z</time>
      </trkpt>
      <trkpt lat="49.07357" lon="1.50701">
        <ele>67.065994262695</ele>
        <time>2016-09-25T06:44:24.000Z</time>
      </trkpt>
      <trkpt lat="49.07354" lon="1.50699">
        <ele>67.856559753418</ele>
        <time>2016-09-25T06:44:26.000Z</time>
      </trkpt>
      <trkpt lat="49.07352" lon="1.50697">
        <ele>68.59162902832</ele>
        <time>2016-09-25T06:44:28.000Z</time>
      </trkpt>
      <trkpt lat="49.07349" lon="1.50692">
        <ele>69.353439331055</ele>
        <time>2016-09-25T06:44:31.000Z</time>
      </trkpt>
      <trkpt lat="49.07346" lon="1.50688">
        <ele>70.099548339844</ele>
        <time>2016-09-25T06:44:34.000Z</time>
      </trkpt>
      <trkpt lat="49.07344" lon="1.50686">
        <ele>70.75439453125</ele>
        <time>2016-09-25T06:44:36.000Z</time>
      </trkpt>
      <trkpt lat="49.07341" lon="1.50682">
        <ele>71.459014892578</ele>
        <time>2016-09-25T06:44:39.000Z</time>
      </trkpt>
      <trkpt lat="49.07338" lon="1.50679">
        <ele>72.144638061523</ele>
        <time>2016-09-25T06:44:41.000Z</time>
      </trkpt>
      <trkpt lat="49.07336" lon="1.50676">
        <ele>72.77214050293</ele>
        <time>2016-09-25T06:44:43.000Z</time>
      </trkpt>
      <trkpt lat="49.07331" lon="1.50673">
        <ele>73.441970825195</ele>
        <time>2016-09-25T06:44:46.000Z</time>
      </trkpt>
      <trkpt lat="49.07328" lon="1.50669">
        <ele>74.181777954102</ele>
        <time>2016-09-25T06:44:49.000Z</time>
      </trkpt>
      <trkpt lat="49.07327" lon="1.50666">
        <ele>74.842552185059</ele>
        <time>2016-09-25T06:44:51.000Z</time>
      </trkpt>
      <trkpt lat="49.07325" lon="1.50663">
        <ele>75.54988861084</ele>
        <time>2016-09-25T06:44:53.000Z</time>
      </trkpt>
      <trkpt lat="49.07321" lon="1.5066">
        <ele>76.35001373291</ele>
        <time>2016-09-25T06:44:56.000Z</time>
      </trkpt>
      <trkpt lat="49.07317" lon="1.50656">
        <ele>77.16039276123</ele>
        <time>2016-09-25T06:44:59.000Z</time>
      </trkpt>
      <trkpt lat="49.07316" lon="1.50654">
        <ele>77.925186157227</ele>
        <time>2016-09-25T06:45:01.000Z</time>
      </trkpt>
      <trkpt lat="49.07314" lon="1.50651">
        <ele>78.68839263916</ele>
        <time>2016-09-25T06:45:03.000Z</time>
      </trkpt>
      <trkpt lat="49.0731" lon="1.50647">
        <ele>79.531066894531</ele>
        <time>2016-09-25T06:45:06.000Z</time>
      </trkpt>
      <trkpt lat="49.07306" lon="1.50647">
        <ele>80.271850585938</ele>
        <time>2016-09-25T06:45:09.000Z</time>
      </trkpt>
      <trkpt lat="49.07302" lon="1.50649">
        <ele>80.871528625488</ele>
        <time>2016-09-25T06:45:11.000Z</time>
      </trkpt>
      <trkpt lat="49.073" lon="1.50651">
        <ele>81.402992248535</ele>
        <time>2016-09-25T06:45:14.000Z</time>
      </trkpt>
      <trkpt lat="49.07298" lon="1.50653">
        <ele>81.839584350586</ele>
        <time>2016-09-25T06:45:17.000Z</time>
      </trkpt>
      <trkpt lat="49.07297" lon="1.50654">
        <ele>82.073486328125</ele>
        <time>2016-09-25T06:45:20.000Z</time>
      </trkpt>
      <trkpt lat="49.07295" lon="1.50653">
        <ele>82.253021240234</ele>
        <time>2016-09-25T06:45:23.000Z</time>
      </trkpt>
      <trkpt lat="49.07294" lon="1.50653">
        <ele>82.425689697266</ele>
        <time>2016-09-25T06:45:25.000Z</time>
      </trkpt>
      <trkpt lat="49.07291" lon="1.50655">
        <ele>82.615074157715</ele>
        <time>2016-09-25T06:45:28.000Z</time>
      </trkpt>
      <trkpt lat="49.07286" lon="1.50657">
        <ele>82.888320922852</ele>
        <time>2016-09-25T06:45:31.000Z</time>
      </trkpt>
      <trkpt lat="49.07282" lon="1.50658">
        <ele>83.272071838379</ele>
        <time>2016-09-25T06:45:34.000Z</time>
      </trkpt>
      <trkpt lat="49.07279" lon="1.50658">
        <ele>83.695007324219</ele>
        <time>2016-09-25T06:45:36.000Z</time>
      </trkpt>
      <trkpt lat="49.07276" lon="1.50659">
        <ele>84.159004211426</ele>
        <time>2016-09-25T06:45:39.000Z</time>
      </trkpt>
      <trkpt lat="49.07272" lon="1.50662">
        <ele>84.654830932617</ele>
        <time>2016-09-25T06:45:42.000Z</time>
      </trkpt>
      <trkpt lat="49.07268" lon="1.50664">
        <ele>85.160095214844</ele>
        <time>2016-09-25T06:45:44.000Z</time>
      </trkpt>
      <trkpt lat="49.07266" lon="1.50664">
        <ele>85.598838806152</ele>
        <time>2016-09-25T06:45:46.000Z</time>
      </trkpt>
      <trkpt lat="49.07261" lon="1.50663">
        <ele>86.116989135742</ele>
        <time>2016-09-25T06:45:49.000Z</time>
      </trkpt>
      <trkpt lat="49.07259" lon="1.50662">
        <ele>86.621467590332</ele>
        <time>2016-09-25T06:45:51.000Z</time>
      </trkpt>
      <trkpt lat="49.07256" lon="1.50663">
        <ele>87.131637573242</ele>
        <time>2016-09-25T06:45:53.000Z</time>
      </trkpt>
      <trkpt lat="49.07251" lon="1.50665">
        <ele>87.670875549316</ele>
        <time>2016-09-25T06:45:56.000Z</time>
      </trkpt>
      <trkpt lat="49.07248" lon="1.50664">
        <ele>88.193504333496</ele>
        <time>2016-09-25T06:45:58.000Z</time>
      </trkpt>
      <trkpt lat="49.07244" lon="1.50663">
        <ele>88.555068969727</ele>
        <time>2016-09-25T06:46:00.000Z</time>
      </trkpt>
      <trkpt lat="49.0724" lon="1.50664">
        <ele>88.841300964355</ele>
        <time>2016-09-25T06:46:02.000Z</time>
      </trkpt>
      <trkpt lat="49.07233" lon="1.50667">
        <ele>89.01057434082</ele>
        <time>2016-09-25T06:46:05.000Z</time>
      </trkpt>
      <trkpt lat="49.0723" lon="1.50669">
        <ele>89.005752563477</ele>
        <time>2016-09-25T06:46:07.000Z</time>
      </trkpt>
      <trkpt lat="49.07228" lon="1.5067">
        <ele>88.918449401855</ele>
        <time>2016-09-25T06:46:09.000Z</time>
      </trkpt>
      <trkpt lat="49.07223" lon="1.50673">
        <ele>88.759452819824</ele>
        <time>2016-09-25T06:46:12.000Z</time>
      </trkpt>
      <trkpt lat="49.07215" lon="1.50674">
        <ele>88.560829162598</ele>
        <time>2016-09-25T06:46:15.000Z</time>
      </trkpt>
      <trkpt lat="49.07209" lon="1.50673">
        <ele>88.397193908691</ele>
        <time>2016-09-25T06:46:17.000Z</time>
      </trkpt>
      <trkpt lat="49.07203" lon="1.50672">
        <ele>88.293083190918</ele>
        <time>2016-09-25T06:46:20.000Z</time>
      </trkpt>
      <trkpt lat="49.07198" lon="1.50671">
        <ele>88.237045288086</ele>
        <time>2016-09-25T06:46:23.000Z</time>
      </trkpt>
      <trkpt lat="49.07192" lon="1.50669">
        <ele>88.301910400391</ele>
        <time>2016-09-25T06:46:26.000Z</time>
      </trkpt>
      <trkpt lat="49.07185" lon="1.50669">
        <ele>88.401382446289</ele>
        <time>2016-09-25T06:46:28.000Z</time>
      </trkpt>
      <trkpt lat="49.07175" lon="1.5067">
        <ele>88.471725463867</ele>
        <time>2016-09-25T06:46:31.000Z</time>
      </trkpt>
      <trkpt lat="49.07166" lon="1.50669">
        <ele>88.523941040039</ele>
        <time>2016-09-25T06:46:34.000Z</time>
      </trkpt>
      <trkpt lat="49.07154" lon="1.50668">
        <ele>88.678855895996</ele>
        <time>2016-09-25T06:46:37.000Z</time>
      </trkpt>
      <trkpt lat="49.07147" lon="1.50666">
        <ele>88.854209899902</ele>
        <time>2016-09-25T06:46:39.000Z</time>
      </trkpt>
      <trkpt lat="49.0714" lon="1.50667">
        <ele>89.067512512207</ele>
        <time>2016-09-25T06:46:41.000Z</time>
      </trkpt>
      <trkpt lat="49.07128" lon="1.50666">
        <ele>89.36483001709</ele>
        <time>2016-09-25T06:46:44.000Z</time>
      </trkpt>
      <trkpt lat="49.07122" lon="1.50666">
        <ele>89.685150146484</ele>
        <time>2016-09-25T06:46:46.000Z</time>
      </trkpt>
      <trkpt lat="49.07116" lon="1.50668">
        <ele>89.865768432617</ele>
        <time>2016-09-25T06:46:48.000Z</time>
      </trkpt>
      <trkpt lat="49.07109" lon="1.50668">
        <ele>89.971061706543</ele>
        <time>2016-09-25T06:46:51.000Z</time>
      </trkpt>
      <trkpt lat="49.07103" lon="1.50668">
        <ele>90.105751037598</ele>
        <time>2016-09-25T06:46:54.000Z</time>
      </trkpt>
      <trkpt lat="49.07096" lon="1.50668">
        <ele>90.188583374023</ele>
        <time>2016-09-25T06:46:56.000Z</time>
      </trkpt>
      <trkpt lat="49.07088" lon="1.50667">
        <ele>90.343132019043</ele>
        <time>2016-09-25T06:46:58.000Z</time>
      </trkpt>
      <trkpt lat="49.07076" lon="1.50664">
        <ele>90.645553588867</ele>
        <time>2016-09-25T06:47:01.000Z</time>
      </trkpt>
      <trkpt lat="49.07068" lon="1.50661">
        <ele>91.061294555664</ele>
        <time>2016-09-25T06:47:04.000Z</time>
      </trkpt>
      <trkpt lat="49.0706" lon="1.5066">
        <ele>91.48649597168</ele>
        <time>2016-09-25T06:47:07.000Z</time>
      </trkpt>
      <trkpt lat="49.07053" lon="1.50657">
        <ele>92.026161193848</ele>
        <time>2016-09-25T06:47:10.000Z</time>
      </trkpt>
      <trkpt lat="49.07045" lon="1.50654">
        <ele>92.60572052002</ele>
        <time>2016-09-25T06:47:12.000Z</time>
      </trkpt>
      <trkpt lat="49.0704" lon="1.50653">
        <ele>93.129028320312</ele>
        <time>2016-09-25T06:47:14.000Z</time>
      </trkpt>
      <trkpt lat="49.07033" lon="1.50652">
        <ele>93.615882873535</ele>
        <time>2016-09-25T06:47:17.000Z</time>
      </trkpt>
      <trkpt lat="49.07027" lon="1.5065">
        <ele>94.139198303223</ele>
        <time>2016-09-25T06:47:20.000Z</time>
      </trkpt>
      <trkpt lat="49.07021" lon="1.50649">
        <ele>94.593101501465</ele>
        <time>2016-09-25T06:47:23.000Z</time>
      </trkpt>
      <trkpt lat="49.07018" lon="1.50649">
        <ele>94.954490661621</ele>
        <time>2016-09-25T06:47:25.000Z</time>
      </trkpt>
      <trkpt lat="49.07011" lon="1.50645">
        <ele>95.415260314941</ele>
        <time>2016-09-25T06:47:28.000Z</time>
      </trkpt>
      <trkpt lat="49.07" lon="1.50641">
        <ele>96.015419006348</ele>
        <time>2016-09-25T06:47:31.000Z</time>
      </trkpt>
      <trkpt lat="49.0699" lon="1.5064">
        <ele>96.557472229004</ele>
        <time>2016-09-25T06:47:33.000Z</time>
      </trkpt>
      <trkpt lat="49.06982" lon="1.50639">
        <ele>97.094711303711</ele>
        <time>2016-09-25T06:47:35.000Z</time>
      </trkpt>
      <trkpt lat="49.06974" lon="1.50637">
        <ele>97.649459838867</ele>
        <time>2016-09-25T06:47:37.000Z</time>
      </trkpt>
      <trkpt lat="49.06963" lon="1.50636">
        <ele>98.112693786621</ele>
        <time>2016-09-25T06:47:40.000Z</time>
      </trkpt>
      <trkpt lat="49.06955" lon="1.50634">
        <ele>98.44457244873</ele>
        <time>2016-09-25T06:47:42.000Z</time>
      </trkpt>
      <trkpt lat="49.06944" lon="1.50632">
        <ele>98.810523986816</ele>
        <time>2016-09-25T06:47:45.000Z</time>
      </trkpt>
      <trkpt lat="49.06931" lon="1.5063">
        <ele>99.238319396973</ele>
        <time>2016-09-25T06:47:48.000Z</time>
      </trkpt>
      <trkpt lat="49.06919" lon="1.50628">
        <ele>99.730361938477</ele>
        <time>2016-09-25T06:47:51.000Z</time>
      </trkpt>
      <trkpt lat="49.06906" lon="1.50626">
        <ele>100.20780944824</ele>
        <time>2016-09-25T06:47:54.000Z</time>
      </trkpt>
      <trkpt lat="49.06895" lon="1.50627">
        <ele>100.56107330322</ele>
        <time>2016-09-25T06:47:57.000Z</time>
      </trkpt>
      <trkpt lat="49.06889" lon="1.50628">
        <ele>100.79418945312</ele>
        <time>2016-09-25T06:47:59.000Z</time>
      </trkpt>
      <trkpt lat="49.06883" lon="1.50627">
        <ele>100.95406341553</ele>
        <time>2016-09-25T06:48:01.000Z</time>
      </trkpt>
      <trkpt lat="49.06874" lon="1.50623">
        <ele>101.20812988281</ele>
        <time>2016-09-25T06:48:04.000Z</time>
      </trkpt>
      <trkpt lat="49.06867" lon="1.50622">
        <ele>101.46096038818</ele>
        <time>2016-09-25T06:48:06.000Z</time>
      </trkpt>
      <trkpt lat="49.06858" lon="1.5062">
        <ele>101.84384918213</ele>
        <time>2016-09-25T06:48:09.000Z</time>
      </trkpt>
      <trkpt lat="49.06848" lon="1.50619">
        <ele>102.34757995605</ele>
        <time>2016-09-25T06:48:12.000Z</time>
      </trkpt>
      <trkpt lat="49.06836" lon="1.50619">
        <ele>102.79026794434</ele>
        <time>2016-09-25T06:48:15.000Z</time>
      </trkpt>
      <trkpt lat="49.06826" lon="1.50621">
        <ele>103.08884429932</ele>
        <time>2016-09-25T06:48:18.000Z</time>
      </trkpt>
      <trkpt lat="49.06818" lon="1.50622">
        <ele>103.44093322754</ele>
        <time>2016-09-25T06:48:20.000Z</time>
      </trkpt>
      <trkpt lat="49.06806" lon="1.50625">
        <ele>103.78424072266</ele>
        <time>2016-09-25T06:48:23.000Z</time>
      </trkpt>
      <trkpt lat="49.06794" lon="1.50627">
        <ele>104.12438964844</ele>
        <time>2016-09-25T06:48:26.000Z</time>
      </trkpt>
      <trkpt lat="49.06787" lon="1.50629">
        <ele>104.54833984375</ele>
        <time>2016-09-25T06:48:28.000Z</time>
      </trkpt>
      <trkpt lat="49.06776" lon="1.50631">
        <ele>105.01075744629</ele>
        <time>2016-09-25T06:48:31.000Z</time>
      </trkpt>
      <trkpt lat="49.06768" lon="1.50631">
        <ele>105.51393890381</ele>
        <time>2016-09-25T06:48:33.000Z</time>
      </trkpt>
      <trkpt lat="49.06758" lon="1.50633">
        <ele>106.08679199219</ele>
        <time>2016-09-25T06:48:36.000Z</time>
      </trkpt>
      <trkpt lat="49.06749" lon="1.50635">
        <ele>106.64179992676</ele>
        <time>2016-09-25T06:48:39.000Z</time>
      </trkpt>
      <trkpt lat="49.06742" lon="1.50636">
        <ele>107.03936767578</ele>
        <time>2016-09-25T06:48:41.000Z</time>
      </trkpt>
      <trkpt lat="49.06732" lon="1.50637">
        <ele>107.27258300781</ele>
        <time>2016-09-25T06:48:44.000Z</time>
      </trkpt>
      <trkpt lat="49.06725" lon="1.50636">
        <ele>107.44332122803</ele>
        <time>2016-09-25T06:48:47.000Z</time>
      </trkpt>
      <trkpt lat="49.06715" lon="1.50633">
        <ele>107.5919342041</ele>
        <time>2016-09-25T06:48:50.000Z</time>
      </trkpt>
      <trkpt lat="49.06707" lon="1.50632">
        <ele>107.74591064453</ele>
        <time>2016-09-25T06:48:52.000Z</time>
      </trkpt>
      <trkpt lat="49.06691" lon="1.50635">
        <ele>107.79438781738</ele>
        <time>2016-09-25T06:48:55.000Z</time>
      </trkpt>
      <trkpt lat="49.06683" lon="1.50637">
        <ele>107.81290435791</ele>
        <time>2016-09-25T06:48:57.000Z</time>
      </trkpt>
      <trkpt lat="49.0667" lon="1.50638">
        <ele>107.65538024902</ele>
        <time>2016-09-25T06:49:00.000Z</time>
      </trkpt>
      <trkpt lat="49.06663" lon="1.50639">
        <ele>107.30049133301</ele>
        <time>2016-09-25T06:49:03.000Z</time>
      </trkpt>
      <trkpt lat="49.06654" lon="1.50635">
        <ele>106.88730621338</ele>
        <time>2016-09-25T06:49:06.000Z</time>
      </trkpt>
      <trkpt lat="49.06643" lon="1.50633">
        <ele>106.57230377197</ele>
        <time>2016-09-25T06:49:09.000Z</time>
      </trkpt>
      <trkpt lat="49.06633" lon="1.50632">
        <ele>106.21640777588</ele>
        <time>2016-09-25T06:49:12.000Z</time>
      </trkpt>
      <trkpt lat="49.06626" lon="1.50628">
        <ele>105.96577453613</ele>
        <time>2016-09-25T06:49:14.000Z</time>
      </trkpt>
      <trkpt lat="49.06618" lon="1.50625">
        <ele>105.8278427124</ele>
        <time>2016-09-25T06:49:16.000Z</time>
      </trkpt>
      <trkpt lat="49.06608" lon="1.5062">
        <ele>105.71073913574</ele>
        <time>2016-09-25T06:49:19.000Z</time>
      </trkpt>
      <trkpt lat="49.06597" lon="1.50613">
        <ele>105.80069732666</ele>
        <time>2016-09-25T06:49:22.000Z</time>
      </trkpt>
      <trkpt lat="49.0659" lon="1.5061">
        <ele>106.01808166504</ele>
        <time>2016-09-25T06:49:24.000Z</time>
      </trkpt>
      <trkpt lat="49.06584" lon="1.50607">
        <ele>106.26123046875</ele>
        <time>2016-09-25T06:49:26.000Z</time>
      </trkpt>
      <trkpt lat="49.06571" lon="1.50596">
        <ele>106.51361083984</ele>
        <time>2016-09-25T06:49:30.000Z</time>
      </trkpt>
      <trkpt lat="49.06564" lon="1.50588">
        <ele>106.85372161865</ele>
        <time>2016-09-25T06:49:33.000Z</time>
      </trkpt>
      <trkpt lat="49.06554" lon="1.5058">
        <ele>107.03210449219</ele>
        <time>2016-09-25T06:49:36.000Z</time>
      </trkpt>
      <trkpt lat="49.06543" lon="1.50569">
        <ele>107.2306060791</ele>
        <time>2016-09-25T06:49:39.000Z</time>
      </trkpt>
      <trkpt lat="49.06536" lon="1.50562">
        <ele>107.42240905762</ele>
        <time>2016-09-25T06:49:41.000Z</time>
      </trkpt>
      <trkpt lat="49.06532" lon="1.50557">
        <ele>107.5905380249</ele>
        <time>2016-09-25T06:49:43.000Z</time>
      </trkpt>
      <trkpt lat="49.06525" lon="1.50548">
        <ele>107.77949523926</ele>
        <time>2016-09-25T06:49:46.000Z</time>
      </trkpt>
      <trkpt lat="49.06516" lon="1.50539">
        <ele>108.07029724121</ele>
        <time>2016-09-25T06:49:49.000Z</time>
      </trkpt>
      <trkpt lat="49.0651" lon="1.50534">
        <ele>108.33316802979</ele>
        <time>2016-09-25T06:49:51.000Z</time>
      </trkpt>
      <trkpt lat="49.065" lon="1.50525">
        <ele>108.56215667725</ele>
        <time>2016-09-25T06:49:54.000Z</time>
      </trkpt>
      <trkpt lat="49.06491" lon="1.50521">
        <ele>108.75164794922</ele>
        <time>2016-09-25T06:49:56.000Z</time>
      </trkpt>
      <trkpt lat="49.06477" lon="1.50516">
        <ele>108.79388427734</ele>
        <time>2016-09-25T06:49:59.000Z</time>
      </trkpt>
      <trkpt lat="49.06466" lon="1.5051">
        <ele>108.82405853271</ele>
        <time>2016-09-25T06:50:01.000Z</time>
      </trkpt>
      <trkpt lat="49.06453" lon="1.50505">
        <ele>108.85090637207</ele>
        <time>2016-09-25T06:50:03.000Z</time>
      </trkpt>
      <trkpt lat="49.06443" lon="1.505">
        <ele>108.91633605957</ele>
        <time>2016-09-25T06:50:06.000Z</time>
      </trkpt>
      <trkpt lat="49.06436" lon="1.50496">
        <ele>109.03192138672</ele>
        <time>2016-09-25T06:50:08.000Z</time>
      </trkpt>
      <trkpt lat="49.06424" lon="1.50489">
        <ele>109.19521331787</ele>
        <time>2016-09-25T06:50:11.000Z</time>
      </trkpt>
      <trkpt lat="49.06416" lon="1.50485">
        <ele>109.33227539062</ele>
        <time>2016-09-25T06:50:13.000Z</time>
      </trkpt>
      <trkpt lat="49.06404" lon="1.50482">
        <ele>109.13606262207</ele>
        <time>2016-09-25T06:50:16.000Z</time>
      </trkpt>
      <trkpt lat="49.06395" lon="1.50481">
        <ele>108.60639953613</ele>
        <time>2016-09-25T06:50:18.000Z</time>
      </trkpt>
      <trkpt lat="49.06385" lon="1.50479">
        <ele>107.78233337402</ele>
        <time>2016-09-25T06:50:21.000Z</time>
      </trkpt>
      <trkpt lat="49.06376" lon="1.50472">
        <ele>106.88842773438</ele>
        <time>2016-09-25T06:50:24.000Z</time>
      </trkpt>
      <trkpt lat="49.06365" lon="1.50461">
        <ele>106.11067199707</ele>
        <time>2016-09-25T06:50:27.000Z</time>
      </trkpt>
      <trkpt lat="49.06353" lon="1.50453">
        <ele>105.708984375</ele>
        <time>2016-09-25T06:50:30.000Z</time>
      </trkpt>
      <trkpt lat="49.06342" lon="1.50443">
        <ele>105.69673919678</ele>
        <time>2016-09-25T06:50:33.000Z</time>
      </trkpt>
      <trkpt lat="49.06333" lon="1.50437">
        <ele>105.97998046875</ele>
        <time>2016-09-25T06:50:35.000Z</time>
      </trkpt>
      <trkpt lat="49.06326" lon="1.5043">
        <ele>106.31282043457</ele>
        <time>2016-09-25T06:50:37.000Z</time>
      </trkpt>
      <trkpt lat="49.06319" lon="1.5042">
        <ele>106.63832855225</ele>
        <time>2016-09-25T06:50:39.000Z</time>
      </trkpt>
      <trkpt lat="49.06311" lon="1.50405">
        <ele>107.01438903809</ele>
        <time>2016-09-25T06:50:42.000Z</time>
      </trkpt>
      <trkpt lat="49.06306" lon="1.50395">
        <ele>107.35632324219</ele>
        <time>2016-09-25T06:50:45.000Z</time>
      </trkpt>
      <trkpt lat="49.06304" lon="1.50388">
        <ele>107.744140625</ele>
        <time>2016-09-25T06:50:46.000Z</time>
      </trkpt>
      <trkpt lat="49.06295" lon="1.50375">
        <ele>108.11143493652</ele>
        <time>2016-09-25T06:50:49.000Z</time>
      </trkpt>
      <trkpt lat="49.06286" lon="1.50364">
        <ele>108.30084228516</ele>
        <time>2016-09-25T06:50:52.000Z</time>
      </trkpt>
      <trkpt lat="49.06279" lon="1.50354">
        <ele>108.4440536499</ele>
        <time>2016-09-25T06:50:54.000Z</time>
      </trkpt>
      <trkpt lat="49.0627" lon="1.50341">
        <ele>108.6159286499</ele>
        <time>2016-09-25T06:50:57.000Z</time>
      </trkpt>
      <trkpt lat="49.06265" lon="1.50334">
        <ele>108.73722839355</ele>
        <time>2016-09-25T06:50:59.000Z</time>
      </trkpt>
      <trkpt lat="49.0626" lon="1.50325">
        <ele>108.89088439941</ele>
        <time>2016-09-25T06:51:01.000Z</time>
      </trkpt>
      <trkpt lat="49.06253" lon="1.50315">
        <ele>109.14182281494</ele>
        <time>2016-09-25T06:51:03.000Z</time>
      </trkpt>
      <trkpt lat="49.06244" lon="1.50306">
        <ele>109.22509765625</ele>
        <time>2016-09-25T06:51:06.000Z</time>
      </trkpt>
      <trkpt lat="49.06233" lon="1.50294">
        <ele>109.12998962402</ele>
        <time>2016-09-25T06:51:09.000Z</time>
      </trkpt>
      <trkpt lat="49.06222" lon="1.50277">
        <ele>109.08113861084</ele>
        <time>2016-09-25T06:51:12.000Z</time>
      </trkpt>
      <trkpt lat="49.06212" lon="1.50259">
        <ele>109.22529602051</ele>
        <time>2016-09-25T06:51:15.000Z</time>
      </trkpt>
      <trkpt lat="49.06201" lon="1.50244">
        <ele>109.38854980469</ele>
        <time>2016-09-25T06:51:18.000Z</time>
      </trkpt>
      <trkpt lat="49.06191" lon="1.50229">
        <ele>109.8037109375</ele>
        <time>2016-09-25T06:51:21.000Z</time>
      </trkpt>
      <trkpt lat="49.06179" lon="1.50215">
        <ele>110.34910583496</ele>
        <time>2016-09-25T06:51:24.000Z</time>
      </trkpt>
      <trkpt lat="49.06169" lon="1.50203">
        <ele>110.95222473145</ele>
        <time>2016-09-25T06:51:27.000Z</time>
      </trkpt>
      <trkpt lat="49.0616" lon="1.50189">
        <ele>111.47370910645</ele>
        <time>2016-09-25T06:51:30.000Z</time>
      </trkpt>
      <trkpt lat="49.06148" lon="1.50177">
        <ele>111.79888916016</ele>
        <time>2016-09-25T06:51:33.000Z</time>
      </trkpt>
      <trkpt lat="49.06141" lon="1.5017">
        <ele>111.8154296875</ele>
        <time>2016-09-25T06:51:35.000Z</time>
      </trkpt>
      <trkpt lat="49.06131" lon="1.50163">
        <ele>111.48866271973</ele>
        <time>2016-09-25T06:51:37.000Z</time>
      </trkpt>
      <trkpt lat="49.0612" lon="1.50151">
        <ele>110.77242279053</ele>
        <time>2016-09-25T06:51:40.000Z</time>
      </trkpt>
      <trkpt lat="49.06114" lon="1.50141">
        <ele>109.89192199707</ele>
        <time>2016-09-25T06:51:42.000Z</time>
      </trkpt>
      <trkpt lat="49.06105" lon="1.50129">
        <ele>109.08139801025</ele>
        <time>2016-09-25T06:51:45.000Z</time>
      </trkpt>
      <trkpt lat="49.06098" lon="1.50118">
        <ele>108.42010498047</ele>
        <time>2016-09-25T06:51:48.000Z</time>
      </trkpt>
      <trkpt lat="49.06089" lon="1.50106">
        <ele>108.02153015137</ele>
        <time>2016-09-25T06:51:50.000Z</time>
      </trkpt>
      <trkpt lat="49.06082" lon="1.50095">
        <ele>107.88989257812</ele>
        <time>2016-09-25T06:51:52.000Z</time>
      </trkpt>
      <trkpt lat="49.06075" lon="1.50084">
        <ele>107.59836578369</ele>
        <time>2016-09-25T06:51:54.000Z</time>
      </trkpt>
      <trkpt lat="49.06069" lon="1.50076">
        <ele>107.24000549316</ele>
        <time>2016-09-25T06:51:56.000Z</time>
      </trkpt>
      <trkpt lat="49.0606" lon="1.50065">
        <ele>106.69673156738</ele>
        <time>2016-09-25T06:51:59.000Z</time>
      </trkpt>
      <trkpt lat="49.0605" lon="1.50048">
        <ele>106.05673980713</ele>
        <time>2016-09-25T06:52:02.000Z</time>
      </trkpt>
      <trkpt lat="49.06043" lon="1.50032">
        <ele>105.34550476074</ele>
        <time>2016-09-25T06:52:05.000Z</time>
      </trkpt>
      <trkpt lat="49.06036" lon="1.50014">
        <ele>104.87580871582</ele>
        <time>2016-09-25T06:52:08.000Z</time>
      </trkpt>
      <trkpt lat="49.06031" lon="1.49999">
        <ele>104.72402191162</ele>
        <time>2016-09-25T06:52:11.000Z</time>
      </trkpt>
      <trkpt lat="49.06028" lon="1.49988">
        <ele>104.69521331787</ele>
        <time>2016-09-25T06:52:13.000Z</time>
      </trkpt>
      <trkpt lat="49.06025" lon="1.49974">
        <ele>104.83103179932</ele>
        <time>2016-09-25T06:52:16.000Z</time>
      </trkpt>
      <trkpt lat="49.06024" lon="1.49961">
        <ele>105.13037109375</ele>
        <time>2016-09-25T06:52:18.000Z</time>
      </trkpt>
      <trkpt lat="49.06022" lon="1.49946">
        <ele>105.46705627441</ele>
        <time>2016-09-25T06:52:21.000Z</time>
      </trkpt>
      <trkpt lat="49.0602" lon="1.49936">
        <ele>105.68962097168</ele>
        <time>2016-09-25T06:52:23.000Z</time>
      </trkpt>
      <trkpt lat="49.06015" lon="1.49917">
        <ele>105.94986724854</ele>
        <time>2016-09-25T06:52:26.000Z</time>
      </trkpt>
      <trkpt lat="49.06014" lon="1.49901">
        <ele>106.17695617676</ele>
        <time>2016-09-25T06:52:29.000Z</time>
      </trkpt>
      <trkpt lat="49.06014" lon="1.49883">
        <ele>106.37619781494</ele>
        <time>2016-09-25T06:52:32.000Z</time>
      </trkpt>
      <trkpt lat="49.06013" lon="1.49863">
        <ele>106.51948547363</ele>
        <time>2016-09-25T06:52:35.000Z</time>
      </trkpt>
      <trkpt lat="49.06013" lon="1.49847">
        <ele>106.66689300537</ele>
        <time>2016-09-25T06:52:38.000Z</time>
      </trkpt>
      <trkpt lat="49.06012" lon="1.49831">
        <ele>106.88818359375</ele>
        <time>2016-09-25T06:52:41.000Z</time>
      </trkpt>
      <trkpt lat="49.0601" lon="1.49819">
        <ele>107.02764892578</ele>
        <time>2016-09-25T06:52:43.000Z</time>
      </trkpt>
      <trkpt lat="49.06009" lon="1.49799">
        <ele>107.08898925781</ele>
        <time>2016-09-25T06:52:46.000Z</time>
      </trkpt>
      <trkpt lat="49.06009" lon="1.4978">
        <ele>107.20245361328</ele>
        <time>2016-09-25T06:52:49.000Z</time>
      </trkpt>
      <trkpt lat="49.06009" lon="1.49768">
        <ele>107.29681396484</ele>
        <time>2016-09-25T06:52:51.000Z</time>
      </trkpt>
      <trkpt lat="49.06009" lon="1.49751">
        <ele>107.45617675781</ele>
        <time>2016-09-25T06:52:54.000Z</time>
      </trkpt>
      <trkpt lat="49.0601" lon="1.49734">
        <ele>107.92576599121</ele>
        <time>2016-09-25T06:52:57.000Z</time>
      </trkpt>
      <trkpt lat="49.06012" lon="1.49716">
        <ele>108.63736724854</ele>
        <time>2016-09-25T06:53:00.000Z</time>
      </trkpt>
      <trkpt lat="49.06011" lon="1.49704">
        <ele>109.31032562256</ele>
        <time>2016-09-25T06:53:02.000Z</time>
      </trkpt>
      <trkpt lat="49.06011" lon="1.4969">
        <ele>110.04914855957</ele>
        <time>2016-09-25T06:53:04.000Z</time>
      </trkpt>
      <trkpt lat="49.0601" lon="1.4967">
        <ele>110.80976867676</ele>
        <time>2016-09-25T06:53:07.000Z</time>
      </trkpt>
      <trkpt lat="49.0601" lon="1.49659">
        <ele>111.42102050781</ele>
        <time>2016-09-25T06:53:09.000Z</time>
      </trkpt>
      <trkpt lat="49.0601" lon="1.49641">
        <ele>111.92407226562</ele>
        <time>2016-09-25T06:53:12.000Z</time>
      </trkpt>
      <trkpt lat="49.0601" lon="1.49627">
        <ele>112.46546936035</ele>
        <time>2016-09-25T06:53:14.000Z</time>
      </trkpt>
      <trkpt lat="49.0601" lon="1.49613">
        <ele>112.99961853027</ele>
        <time>2016-09-25T06:53:17.000Z</time>
      </trkpt>
      <trkpt lat="49.0601" lon="1.49605">
        <ele>113.489112854</ele>
        <time>2016-09-25T06:53:19.000Z</time>
      </trkpt>
      <trkpt lat="49.06009" lon="1.4959">
        <ele>113.89414978027</ele>
        <time>2016-09-25T06:53:22.000Z</time>
      </trkpt>
      <trkpt lat="49.06005" lon="1.49575">
        <ele>114.19271087646</ele>
        <time>2016-09-25T06:53:25.000Z</time>
      </trkpt>
      <trkpt lat="49.06004" lon="1.49564">
        <ele>114.53926849365</ele>
        <time>2016-09-25T06:53:27.000Z</time>
      </trkpt>
      <trkpt lat="49.06" lon="1.49545">
        <ele>115.0464630127</ele>
        <time>2016-09-25T06:53:30.000Z</time>
      </trkpt>
      <trkpt lat="49.05998" lon="1.49532">
        <ele>115.6058807373</ele>
        <time>2016-09-25T06:53:32.000Z</time>
      </trkpt>
      <trkpt lat="49.05995" lon="1.49517">
        <ele>116.30690765381</ele>
        <time>2016-09-25T06:53:34.000Z</time>
      </trkpt>
      <trkpt lat="49.05988" lon="1.49493">
        <ele>116.97682189941</ele>
        <time>2016-09-25T06:53:37.000Z</time>
      </trkpt>
      <trkpt lat="49.05981" lon="1.49471">
        <ele>117.39030456543</ele>
        <time>2016-09-25T06:53:40.000Z</time>
      </trkpt>
      <trkpt lat="49.05975" lon="1.49453">
        <ele>117.35984039307</ele>
        <time>2016-09-25T06:53:43.000Z</time>
      </trkpt>
      <trkpt lat="49.05971" lon="1.49441">
        <ele>117.20190429688</ele>
        <time>2016-09-25T06:53:45.000Z</time>
      </trkpt>
      <trkpt lat="49.0597" lon="1.49432">
        <ele>116.9778213501</ele>
        <time>2016-09-25T06:53:47.000Z</time>
      </trkpt>
      <trkpt lat="49.05965" lon="1.49414">
        <ele>116.79370117188</ele>
        <time>2016-09-25T06:53:50.000Z</time>
      </trkpt>
      <trkpt lat="49.05962" lon="1.49395">
        <ele>116.70658874512</ele>
        <time>2016-09-25T06:53:53.000Z</time>
      </trkpt>
      <trkpt lat="49.05959" lon="1.49383">
        <ele>116.81774902344</ele>
        <time>2016-09-25T06:53:55.000Z</time>
      </trkpt>
      <trkpt lat="49.05955" lon="1.4937">
        <ele>116.83834075928</ele>
        <time>2016-09-25T06:53:57.000Z</time>
      </trkpt>
      <trkpt lat="49.05949" lon="1.49356">
        <ele>116.5641708374</ele>
        <time>2016-09-25T06:54:00.000Z</time>
      </trkpt>
      <trkpt lat="49.05944" lon="1.49338">
        <ele>116.22668457031</ele>
        <time>2016-09-25T06:54:03.000Z</time>
      </trkpt>
      <trkpt lat="49.05943" lon="1.49328">
        <ele>116.01594543457</ele>
        <time>2016-09-25T06:54:05.000Z</time>
      </trkpt>
      <trkpt lat="49.05942" lon="1.49312">
        <ele>115.91591644287</ele>
        <time>2016-09-25T06:54:08.000Z</time>
      </trkpt>
      <trkpt lat="49.0594" lon="1.493">
        <ele>115.98887634277</ele>
        <time>2016-09-25T06:54:10.000Z</time>
      </trkpt>
      <trkpt lat="49.05936" lon="1.49283">
        <ele>116.28438568115</ele>
        <time>2016-09-25T06:54:13.000Z</time>
      </trkpt>
      <trkpt lat="49.05931" lon="1.49265">
        <ele>116.6153717041</ele>
        <time>2016-09-25T06:54:16.000Z</time>
      </trkpt>
      <trkpt lat="49.05929" lon="1.49253">
        <ele>116.88604736328</ele>
        <time>2016-09-25T06:54:18.000Z</time>
      </trkpt>
      <trkpt lat="49.05923" lon="1.49233">
        <ele>117.07942962646</ele>
        <time>2016-09-25T06:54:21.000Z</time>
      </trkpt>
      <trkpt lat="49.05919" lon="1.49218">
        <ele>117.20528411865</ele>
        <time>2016-09-25T06:54:23.000Z</time>
      </trkpt>
      <trkpt lat="49.05914" lon="1.49206">
        <ele>117.30467224121</ele>
        <time>2016-09-25T06:54:25.000Z</time>
      </trkpt>
      <trkpt lat="49.05911" lon="1.49187">
        <ele>117.57125091553</ele>
        <time>2016-09-25T06:54:28.000Z</time>
      </trkpt>
      <trkpt lat="49.05906" lon="1.49172">
        <ele>117.70420837402</ele>
        <time>2016-09-25T06:54:31.000Z</time>
      </trkpt>
      <trkpt lat="49.05901" lon="1.4916">
        <ele>117.69387054443</ele>
        <time>2016-09-25T06:54:33.000Z</time>
      </trkpt>
      <trkpt lat="49.05898" lon="1.4915">
        <ele>117.7741317749</ele>
        <time>2016-09-25T06:54:35.000Z</time>
      </trkpt>
      <trkpt lat="49.05894" lon="1.49137">
        <ele>117.96253967285</ele>
        <time>2016-09-25T06:54:38.000Z</time>
      </trkpt>
      <trkpt lat="49.05889" lon="1.49122">
        <ele>118.0380859375</ele>
        <time>2016-09-25T06:54:41.000Z</time>
      </trkpt>
      <trkpt lat="49.05886" lon="1.49111">
        <ele>118.27516937256</ele>
        <time>2016-09-25T06:54:43.000Z</time>
      </trkpt>
      <trkpt lat="49.05882" lon="1.49096">
        <ele>118.72580718994</ele>
        <time>2016-09-25T06:54:46.000Z</time>
      </trkpt>
      <trkpt lat="49.05877" lon="1.49083">
        <ele>119.14024353027</ele>
        <time>2016-09-25T06:54:49.000Z</time>
      </trkpt>
      <trkpt lat="49.05873" lon="1.49073">
        <ele>119.47066497803</ele>
        <time>2016-09-25T06:54:51.000Z</time>
      </trkpt>
      <trkpt lat="49.05868" lon="1.4906">
        <ele>119.68314361572</ele>
        <time>2016-09-25T06:54:54.000Z</time>
      </trkpt>
      <trkpt lat="49.05864" lon="1.49052">
        <ele>119.77191162109</ele>
        <time>2016-09-25T06:54:56.000Z</time>
      </trkpt>
      <trkpt lat="49.05859" lon="1.49043">
        <ele>119.67655944824</ele>
        <time>2016-09-25T06:54:59.000Z</time>
      </trkpt>
      <trkpt lat="49.05853" lon="1.4903">
        <ele>119.49578857422</ele>
        <time>2016-09-25T06:55:02.000Z</time>
      </trkpt>
      <trkpt lat="49.05848" lon="1.49016">
        <ele>119.38082122803</ele>
        <time>2016-09-25T06:55:04.000Z</time>
      </trkpt>
      <trkpt lat="49.05844" lon="1.49005">
        <ele>119.38399505615</ele>
        <time>2016-09-25T06:55:06.000Z</time>
      </trkpt>
      <trkpt lat="49.05839" lon="1.48987">
        <ele>119.7850112915</ele>
        <time>2016-09-25T06:55:09.000Z</time>
      </trkpt>
      <trkpt lat="49.0583" lon="1.4897">
        <ele>120.43039703369</ele>
        <time>2016-09-25T06:55:12.000Z</time>
      </trkpt>
      <trkpt lat="49.05821" lon="1.48959">
        <ele>121.06065368652</ele>
        <time>2016-09-25T06:55:15.000Z</time>
      </trkpt>
      <trkpt lat="49.05814" lon="1.48953">
        <ele>121.45394134521</ele>
        <time>2016-09-25T06:55:17.000Z</time>
      </trkpt>
      <trkpt lat="49.05804" lon="1.48939">
        <ele>121.81147766113</ele>
        <time>2016-09-25T06:55:20.000Z</time>
      </trkpt>
      <trkpt lat="49.05798" lon="1.48924">
        <ele>122.06980895996</ele>
        <time>2016-09-25T06:55:23.000Z</time>
      </trkpt>
      <trkpt lat="49.05788" lon="1.48908">
        <ele>122.18699645996</ele>
        <time>2016-09-25T06:55:26.000Z</time>
      </trkpt>
      <trkpt lat="49.05779" lon="1.48891">
        <ele>122.46683502197</ele>
        <time>2016-09-25T06:55:29.000Z</time>
      </trkpt>
      <trkpt lat="49.05771" lon="1.48875">
        <ele>123.07153320312</ele>
        <time>2016-09-25T06:55:32.000Z</time>
      </trkpt>
      <trkpt lat="49.05764" lon="1.48857">
        <ele>123.99289703369</ele>
        <time>2016-09-25T06:55:35.000Z</time>
      </trkpt>
      <trkpt lat="49.05759" lon="1.48842">
        <ele>125.05479431152</ele>
        <time>2016-09-25T06:55:38.000Z</time>
      </trkpt>
      <trkpt lat="49.05752" lon="1.48828">
        <ele>126.26161956787</ele>
        <time>2016-09-25T06:55:41.000Z</time>
      </trkpt>
      <trkpt lat="49.05744" lon="1.48815">
        <ele>127.25693511963</ele>
        <time>2016-09-25T06:55:44.000Z</time>
      </trkpt>
      <trkpt lat="49.05737" lon="1.48808">
        <ele>127.89064788818</ele>
        <time>2016-09-25T06:55:46.000Z</time>
      </trkpt>
      <trkpt lat="49.05727" lon="1.48795">
        <ele>128.05200195312</ele>
        <time>2016-09-25T06:55:49.000Z</time>
      </trkpt>
      <trkpt lat="49.05719" lon="1.48783">
        <ele>127.84610748291</ele>
        <time>2016-09-25T06:55:52.000Z</time>
      </trkpt>
      <trkpt lat="49.05714" lon="1.48776">
        <ele>127.45124816895</ele>
        <time>2016-09-25T06:55:54.000Z</time>
      </trkpt>
      <trkpt lat="49.05704" lon="1.48765">
        <ele>127.09603118896</ele>
        <time>2016-09-25T06:55:57.000Z</time>
      </trkpt>
      <trkpt lat="49.05696" lon="1.48755">
        <ele>127.04602050781</ele>
        <time>2016-09-25T06:56:00.000Z</time>
      </trkpt>
      <trkpt lat="49.05692" lon="1.48749">
        <ele>127.19288635254</ele>
        <time>2016-09-25T06:56:02.000Z</time>
      </trkpt>
      <trkpt lat="49.05682" lon="1.48738">
        <ele>127.21153259277</ele>
        <time>2016-09-25T06:56:05.000Z</time>
      </trkpt>
      <trkpt lat="49.05672" lon="1.48724">
        <ele>127.24058532715</ele>
        <time>2016-09-25T06:56:08.000Z</time>
      </trkpt>
      <trkpt lat="49.05665" lon="1.48715">
        <ele>127.32550048828</ele>
        <time>2016-09-25T06:56:10.000Z</time>
      </trkpt>
      <trkpt lat="49.0566" lon="1.48707">
        <ele>127.30625152588</ele>
        <time>2016-09-25T06:56:12.000Z</time>
      </trkpt>
      <trkpt lat="49.05653" lon="1.48694">
        <ele>127.22365570068</ele>
        <time>2016-09-25T06:56:15.000Z</time>
      </trkpt>
      <trkpt lat="49.05647" lon="1.48684">
        <ele>127.3172454834</ele>
        <time>2016-09-25T06:56:17.000Z</time>
      </trkpt>
      <trkpt lat="49.05642" lon="1.48674">
        <ele>127.45802307129</ele>
        <time>2016-09-25T06:56:19.000Z</time>
      </trkpt>
      <trkpt lat="49.05632" lon="1.4866">
        <ele>127.47267150879</ele>
        <time>2016-09-25T06:56:22.000Z</time>
      </trkpt>
      <trkpt lat="49.05626" lon="1.48654">
        <ele>127.36116027832</ele>
        <time>2016-09-25T06:56:24.000Z</time>
      </trkpt>
      <trkpt lat="49.05618" lon="1.48642">
        <ele>127.17779541016</ele>
        <time>2016-09-25T06:56:27.000Z</time>
      </trkpt>
      <trkpt lat="49.05612" lon="1.48635">
        <ele>126.87237548828</ele>
        <time>2016-09-25T06:56:29.000Z</time>
      </trkpt>
      <trkpt lat="49.05607" lon="1.48628">
        <ele>126.49570465088</ele>
        <time>2016-09-25T06:56:31.000Z</time>
      </trkpt>
      <trkpt lat="49.05599" lon="1.48619">
        <ele>126.23579406738</ele>
        <time>2016-09-25T06:56:34.000Z</time>
      </trkpt>
      <trkpt lat="49.05593" lon="1.48611">
        <ele>126.1551361084</ele>
        <time>2016-09-25T06:56:36.000Z</time>
      </trkpt>
      <trkpt lat="49.05585" lon="1.48599">
        <ele>126.28871917725</ele>
        <time>2016-09-25T06:56:39.000Z</time>
      </trkpt>
      <trkpt lat="49.05579" lon="1.48586">
        <ele>126.76171875</ele>
        <time>2016-09-25T06:56:42.000Z</time>
      </trkpt>
      <trkpt lat="49.05574" lon="1.48577">
        <ele>127.36486816406</ele>
        <time>2016-09-25T06:56:44.000Z</time>
      </trkpt>
      <trkpt lat="49.05564" lon="1.48562">
        <ele>128.10734558105</ele>
        <time>2016-09-25T06:56:47.000Z</time>
      </trkpt>
      <trkpt lat="49.05556" lon="1.4855">
        <ele>128.92582702637</ele>
        <time>2016-09-25T06:56:50.000Z</time>
      </trkpt>
      <trkpt lat="49.05547" lon="1.48533">
        <ele>129.79264831543</ele>
        <time>2016-09-25T06:56:53.000Z</time>
      </trkpt>
      <trkpt lat="49.05541" lon="1.48516">
        <ele>130.58500671387</ele>
        <time>2016-09-25T06:56:56.000Z</time>
      </trkpt>
      <trkpt lat="49.05537" lon="1.48505">
        <ele>131.40386962891</ele>
        <time>2016-09-25T06:56:58.000Z</time>
      </trkpt>
      <trkpt lat="49.05532" lon="1.48489">
        <ele>132.13076782227</ele>
        <time>2016-09-25T06:57:01.000Z</time>
      </trkpt>
      <trkpt lat="49.05528" lon="1.48477">
        <ele>132.68696594238</ele>
        <time>2016-09-25T06:57:03.000Z</time>
      </trkpt>
      <trkpt lat="49.0552" lon="1.48467">
        <ele>132.99061584473</ele>
        <time>2016-09-25T06:57:06.000Z</time>
      </trkpt>
      <trkpt lat="49.05515" lon="1.48458">
        <ele>133.02160644531</ele>
        <time>2016-09-25T06:57:08.000Z</time>
      </trkpt>
      <trkpt lat="49.0551" lon="1.48437">
        <ele>132.75910949707</ele>
        <time>2016-09-25T06:57:11.000Z</time>
      </trkpt>
      <trkpt lat="49.05507" lon="1.48425">
        <ele>132.37568664551</ele>
        <time>2016-09-25T06:57:13.000Z</time>
      </trkpt>
      <trkpt lat="49.055" lon="1.48406">
        <ele>131.85214233398</ele>
        <time>2016-09-25T06:57:16.000Z</time>
      </trkpt>
      <trkpt lat="49.05495" lon="1.48389">
        <ele>131.10740661621</ele>
        <time>2016-09-25T06:57:19.000Z</time>
      </trkpt>
      <trkpt lat="49.05494" lon="1.48377">
        <ele>130.27029418945</ele>
        <time>2016-09-25T06:57:21.000Z</time>
      </trkpt>
      <trkpt lat="49.05487" lon="1.48362">
        <ele>129.2621307373</ele>
        <time>2016-09-25T06:57:24.000Z</time>
      </trkpt>
      <trkpt lat="49.05484" lon="1.48351">
        <ele>128.13478088379</ele>
        <time>2016-09-25T06:57:26.000Z</time>
      </trkpt>
      <trkpt lat="49.05482" lon="1.4834">
        <ele>127.03674316406</ele>
        <time>2016-09-25T06:57:28.000Z</time>
      </trkpt>
      <trkpt lat="49.05481" lon="1.4832">
        <ele>126.07808685303</ele>
        <time>2016-09-25T06:57:31.000Z</time>
      </trkpt>
      <trkpt lat="49.0548" lon="1.48304">
        <ele>125.1775970459</ele>
        <time>2016-09-25T06:57:33.000Z</time>
      </trkpt>
      <trkpt lat="49.05473" lon="1.48271">
        <ele>124.29390716553</ele>
        <time>2016-09-25T06:57:36.000Z</time>
      </trkpt>
      <trkpt lat="49.05474" lon="1.48249">
        <ele>123.58209228516</ele>
        <time>2016-09-25T06:57:39.000Z</time>
      </trkpt>
      <trkpt lat="49.05475" lon="1.48234">
        <ele>123.01876068115</ele>
        <time>2016-09-25T06:57:41.000Z</time>
      </trkpt>
      <trkpt lat="49.05476" lon="1.48218">
        <ele>122.59454345703</ele>
        <time>2016-09-25T06:57:43.000Z</time>
      </trkpt>
      <trkpt lat="49.05477" lon="1.482">
        <ele>122.24382019043</ele>
        <time>2016-09-25T06:57:46.000Z</time>
      </trkpt>
      <trkpt lat="49.0548" lon="1.4819">
        <ele>122.24395751953</ele>
        <time>2016-09-25T06:57:48.000Z</time>
      </trkpt>
      <trkpt lat="49.05486" lon="1.48171">
        <ele>122.38409423828</ele>
        <time>2016-09-25T06:57:51.000Z</time>
      </trkpt>
      <trkpt lat="49.05489" lon="1.48157">
        <ele>122.56019592285</ele>
        <time>2016-09-25T06:57:53.000Z</time>
      </trkpt>
      <trkpt lat="49.05494" lon="1.48146">
        <ele>122.77353668213</ele>
        <time>2016-09-25T06:57:55.000Z</time>
      </trkpt>
      <trkpt lat="49.05501" lon="1.48104">
        <ele>122.93105316162</ele>
        <time>2016-09-25T06:57:59.000Z</time>
      </trkpt>
      <trkpt lat="49.05505" lon="1.4809">
        <ele>123.01438140869</ele>
        <time>2016-09-25T06:58:02.000Z</time>
      </trkpt>
      <trkpt lat="49.05509" lon="1.4808">
        <ele>122.98571777344</ele>
        <time>2016-09-25T06:58:04.000Z</time>
      </trkpt>
      <trkpt lat="49.05512" lon="1.48069">
        <ele>122.81833648682</ele>
        <time>2016-09-25T06:58:06.000Z</time>
      </trkpt>
      <trkpt lat="49.05515" lon="1.4806">
        <ele>122.53472900391</ele>
        <time>2016-09-25T06:58:08.000Z</time>
      </trkpt>
      <trkpt lat="49.05521" lon="1.48051">
        <ele>122.34773254395</ele>
        <time>2016-09-25T06:58:11.000Z</time>
      </trkpt>
      <trkpt lat="49.05531" lon="1.48037">
        <ele>122.22121429443</ele>
        <time>2016-09-25T06:58:14.000Z</time>
      </trkpt>
      <trkpt lat="49.05537" lon="1.48027">
        <ele>122.12944030762</ele>
        <time>2016-09-25T06:58:16.000Z</time>
      </trkpt>
      <trkpt lat="49.05546" lon="1.48014">
        <ele>122.23812103271</ele>
        <time>2016-09-25T06:58:19.000Z</time>
      </trkpt>
      <trkpt lat="49.05554" lon="1.48002">
        <ele>122.51905822754</ele>
        <time>2016-09-25T06:58:21.000Z</time>
      </trkpt>
      <trkpt lat="49.05564" lon="1.47986">
        <ele>122.74312591553</ele>
        <time>2016-09-25T06:58:24.000Z</time>
      </trkpt>
      <trkpt lat="49.05573" lon="1.47971">
        <ele>122.86421203613</ele>
        <time>2016-09-25T06:58:27.000Z</time>
      </trkpt>
      <trkpt lat="49.05582" lon="1.47957">
        <ele>122.91562652588</ele>
        <time>2016-09-25T06:58:30.000Z</time>
      </trkpt>
      <trkpt lat="49.05593" lon="1.47942">
        <ele>122.78533935547</ele>
        <time>2016-09-25T06:58:33.000Z</time>
      </trkpt>
      <trkpt lat="49.05603" lon="1.47927">
        <ele>122.48358154297</ele>
        <time>2016-09-25T06:58:36.000Z</time>
      </trkpt>
      <trkpt lat="49.05614" lon="1.47915">
        <ele>122.22546386719</ele>
        <time>2016-09-25T06:58:39.000Z</time>
      </trkpt>
      <trkpt lat="49.05626" lon="1.47902">
        <ele>121.97709655762</ele>
        <time>2016-09-25T06:58:42.000Z</time>
      </trkpt>
      <trkpt lat="49.05637" lon="1.47891">
        <ele>121.70944976807</ele>
        <time>2016-09-25T06:58:45.000Z</time>
      </trkpt>
      <trkpt lat="49.05644" lon="1.47884">
        <ele>121.52632141113</ele>
        <time>2016-09-25T06:58:47.000Z</time>
      </trkpt>
      <trkpt lat="49.05654" lon="1.47874">
        <ele>121.4052734375</ele>
        <time>2016-09-25T06:58:50.000Z</time>
      </trkpt>
      <trkpt lat="49.05666" lon="1.47864">
        <ele>121.30236816406</ele>
        <time>2016-09-25T06:58:53.000Z</time>
      </trkpt>
      <trkpt lat="49.05677" lon="1.47854">
        <ele>121.22132873535</ele>
        <time>2016-09-25T06:58:56.000Z</time>
      </trkpt>
      <trkpt lat="49.05685" lon="1.47848">
        <ele>121.18482971191</ele>
        <time>2016-09-25T06:58:58.000Z</time>
      </trkpt>
      <trkpt lat="49.05693" lon="1.47842">
        <ele>121.18381500244</ele>
        <time>2016-09-25T06:59:00.000Z</time>
      </trkpt>
      <trkpt lat="49.05704" lon="1.47834">
        <ele>121.27684020996</ele>
        <time>2016-09-25T06:59:03.000Z</time>
      </trkpt>
      <trkpt lat="49.05717" lon="1.47827">
        <ele>121.47001647949</ele>
        <time>2016-09-25T06:59:06.000Z</time>
      </trkpt>
      <trkpt lat="49.05727" lon="1.4782">
        <ele>121.77555847168</ele>
        <time>2016-09-25T06:59:09.000Z</time>
      </trkpt>
      <trkpt lat="49.05737" lon="1.47814">
        <ele>122.13056945801</ele>
        <time>2016-09-25T06:59:12.000Z</time>
      </trkpt>
      <trkpt lat="49.05743" lon="1.4781">
        <ele>122.52347564697</ele>
        <time>2016-09-25T06:59:14.000Z</time>
      </trkpt>
      <trkpt lat="49.05753" lon="1.47807">
        <ele>122.955078125</ele>
        <time>2016-09-25T06:59:17.000Z</time>
      </trkpt>
      <trkpt lat="49.0576" lon="1.47802">
        <ele>123.28039550781</ele>
        <time>2016-09-25T06:59:19.000Z</time>
      </trkpt>
      <trkpt lat="49.05768" lon="1.47796">
        <ele>123.55118560791</ele>
        <time>2016-09-25T06:59:21.000Z</time>
      </trkpt>
      <trkpt lat="49.05778" lon="1.47794">
        <ele>123.92730712891</ele>
        <time>2016-09-25T06:59:24.000Z</time>
      </trkpt>
      <trkpt lat="49.05786" lon="1.47789">
        <ele>124.29109191895</ele>
        <time>2016-09-25T06:59:26.000Z</time>
      </trkpt>
      <trkpt lat="49.05795" lon="1.47782">
        <ele>124.52299499512</ele>
        <time>2016-09-25T06:59:28.000Z</time>
      </trkpt>
      <trkpt lat="49.05802" lon="1.47776">
        <ele>124.69753265381</ele>
        <time>2016-09-25T06:59:30.000Z</time>
      </trkpt>
      <trkpt lat="49.05809" lon="1.47769">
        <ele>124.78430175781</ele>
        <time>2016-09-25T06:59:32.000Z</time>
      </trkpt>
      <trkpt lat="49.05823" lon="1.47753">
        <ele>124.51969909668</ele>
        <time>2016-09-25T06:59:35.000Z</time>
      </trkpt>
      <trkpt lat="49.05834" lon="1.4774">
        <ele>124.13102722168</ele>
        <time>2016-09-25T06:59:38.000Z</time>
      </trkpt>
      <trkpt lat="49.05844" lon="1.47727">
        <ele>123.68491363525</ele>
        <time>2016-09-25T06:59:41.000Z</time>
      </trkpt>
      <trkpt lat="49.05851" lon="1.47717">
        <ele>123.20644378662</ele>
        <time>2016-09-25T06:59:43.000Z</time>
      </trkpt>
      <trkpt lat="49.05861" lon="1.47703">
        <ele>122.700340271</ele>
        <time>2016-09-25T06:59:46.000Z</time>
      </trkpt>
      <trkpt lat="49.05869" lon="1.47688">
        <ele>122.26961517334</ele>
        <time>2016-09-25T06:59:49.000Z</time>
      </trkpt>
      <trkpt lat="49.05874" lon="1.47678">
        <ele>121.85947418213</ele>
        <time>2016-09-25T06:59:51.000Z</time>
      </trkpt>
      <trkpt lat="49.0588" lon="1.47669">
        <ele>121.46099853516</ele>
        <time>2016-09-25T06:59:53.000Z</time>
      </trkpt>
      <trkpt lat="49.05886" lon="1.47658">
        <ele>121.21028900146</ele>
        <time>2016-09-25T06:59:56.000Z</time>
      </trkpt>
      <trkpt lat="49.0589" lon="1.47646">
        <ele>121.11518859863</ele>
        <time>2016-09-25T06:59:59.000Z</time>
      </trkpt>
      <trkpt lat="49.05896" lon="1.47636">
        <ele>121.25673675537</ele>
        <time>2016-09-25T07:00:02.000Z</time>
      </trkpt>
      <trkpt lat="49.05899" lon="1.47628">
        <ele>121.52351379395</ele>
        <time>2016-09-25T07:00:05.000Z</time>
      </trkpt>
      <trkpt lat="49.05901" lon="1.47622">
        <ele>121.8828125</ele>
        <time>2016-09-25T07:00:07.000Z</time>
      </trkpt>
      <trkpt lat="49.05904" lon="1.47612">
        <ele>122.2109375</ele>
        <time>2016-09-25T07:00:10.000Z</time>
      </trkpt>
      <trkpt lat="49.05906" lon="1.47606">
        <ele>122.5</ele>
        <time>2016-09-25T07:00:12.000Z</time>
      </trkpt>
      <trkpt lat="49.05909" lon="1.47603">
        <ele>122.7578125</ele>
        <time>2016-09-25T07:00:15.000Z</time>
      </trkpt>
      <trkpt lat="49.05912" lon="1.47603">
        <ele>123.0078125</ele>
        <time>2016-09-25T07:00:17.000Z</time>
      </trkpt>
      <trkpt lat="49.05915" lon="1.47603">
        <ele>123.28125</ele>
        <time>2016-09-25T07:00:19.000Z</time>
      </trkpt>
      <trkpt lat="49.05918" lon="1.47604">
        <ele>123.5609588623</ele>
        <time>2016-09-25T07:00:21.000Z</time>
      </trkpt>
      <trkpt lat="49.0592" lon="1.47602">
        <ele>123.8670501709</ele>
        <time>2016-09-25T07:00:24.000Z</time>
      </trkpt>
      <trkpt lat="49.05922" lon="1.476">
        <ele>124.1403427124</ele>
        <time>2016-09-25T07:00:27.000Z</time>
      </trkpt>
      <trkpt lat="49.05921" lon="1.47603">
        <ele>124.32383728027</ele>
        <time>2016-09-25T07:00:29.000Z</time>
      </trkpt>
      <trkpt lat="49.05918" lon="1.47605">
        <ele>124.36726379395</ele>
        <time>2016-09-25T07:00:31.000Z</time>
      </trkpt>
      <trkpt lat="49.05914" lon="1.47602">
        <ele>124.27504730225</ele>
        <time>2016-09-25T07:00:34.000Z</time>
      </trkpt>
      <trkpt lat="49.05915" lon="1.47599">
        <ele>124.14864349365</ele>
        <time>2016-09-25T07:00:36.000Z</time>
      </trkpt>
      <trkpt lat="49.05917" lon="1.47597">
        <ele>124.03356933594</ele>
        <time>2016-09-25T07:00:41.000Z</time>
      </trkpt>
      <trkpt lat="49.05917" lon="1.47597">
        <ele>124.03356933594</ele>
        <time>2016-09-25T07:00:51.000Z</time>
      </trkpt>
      <trkpt lat="49.05919" lon="1.47597">
        <ele>123.97397613525</ele>
        <time>2016-09-25T07:00:59.000Z</time>
      </trkpt>
      <trkpt lat="49.05922" lon="1.47595">
        <ele>124.07539367676</ele>
        <time>2016-09-25T07:01:02.000Z</time>
      </trkpt>
      <trkpt lat="49.05926" lon="1.47591">
        <ele>124.34824371338</ele>
        <time>2016-09-25T07:01:05.000Z</time>
      </trkpt>
      <trkpt lat="49.05928" lon="1.47587">
        <ele>124.63826751709</ele>
        <time>2016-09-25T07:01:08.000Z</time>
      </trkpt>
      <trkpt lat="49.05929" lon="1.47585">
        <ele>124.89456939697</ele>
        <time>2016-09-25T07:01:11.000Z</time>
      </trkpt>
      <trkpt lat="49.05925" lon="1.47585">
        <ele>125.02563476562</ele>
        <time>2016-09-25T07:01:14.000Z</time>
      </trkpt>
      <trkpt lat="49.05922" lon="1.47591">
        <ele>125.02339935303</ele>
        <time>2016-09-25T07:01:16.000Z</time>
      </trkpt>
      <trkpt lat="49.05917" lon="1.47598">
        <ele>124.81337738037</ele>
        <time>2016-09-25T07:01:19.000Z</time>
      </trkpt>
      <trkpt lat="49.05912" lon="1.476">
        <ele>124.46083831787</ele>
        <time>2016-09-25T07:01:21.000Z</time>
      </trkpt>
      <trkpt lat="49.05904" lon="1.47597">
        <ele>123.95259094238</ele>
        <time>2016-09-25T07:01:24.000Z</time>
      </trkpt>
      <trkpt lat="49.05897" lon="1.47595">
        <ele>123.40074157715</ele>
        <time>2016-09-25T07:01:27.000Z</time>
      </trkpt>
      <trkpt lat="49.0589" lon="1.47592">
        <ele>122.76595306396</ele>
        <time>2016-09-25T07:01:29.000Z</time>
      </trkpt>
      <trkpt lat="49.05883" lon="1.47591">
        <ele>122.1171875</ele>
        <time>2016-09-25T07:01:31.000Z</time>
      </trkpt>
      <trkpt lat="49.05877" lon="1.47596">
        <ele>121.453125</ele>
        <time>2016-09-25T07:01:33.000Z</time>
      </trkpt>
      <trkpt lat="49.05871" lon="1.47609">
        <ele>120.8125</ele>
        <time>2016-09-25T07:01:36.000Z</time>
      </trkpt>
      <trkpt lat="49.05865" lon="1.47625">
        <ele>120.203125</ele>
        <time>2016-09-25T07:01:39.000Z</time>
      </trkpt>
      <trkpt lat="49.05862" lon="1.4764">
        <ele>119.6640625</ele>
        <time>2016-09-25T07:01:42.000Z</time>
      </trkpt>
      <trkpt lat="49.05858" lon="1.47648">
        <ele>119.1796875</ele>
        <time>2016-09-25T07:01:44.000Z</time>
      </trkpt>
      <trkpt lat="49.05851" lon="1.47658">
        <ele>118.671875</ele>
        <time>2016-09-25T07:01:47.000Z</time>
      </trkpt>
      <trkpt lat="49.05833" lon="1.47664">
        <ele>117.94730377197</ele>
        <time>2016-09-25T07:01:50.000Z</time>
      </trkpt>
      <trkpt lat="49.05816" lon="1.47666">
        <ele>117.08620452881</ele>
        <time>2016-09-25T07:01:53.000Z</time>
      </trkpt>
      <trkpt lat="49.05804" lon="1.47668">
        <ele>116.13356018066</ele>
        <time>2016-09-25T07:01:55.000Z</time>
      </trkpt>
      <trkpt lat="49.05785" lon="1.4768">
        <ele>115.184425354</ele>
        <time>2016-09-25T07:01:58.000Z</time>
      </trkpt>
      <trkpt lat="49.05765" lon="1.47691">
        <ele>114.23985290527</ele>
        <time>2016-09-25T07:02:01.000Z</time>
      </trkpt>
      <trkpt lat="49.05751" lon="1.47697">
        <ele>113.49269866943</ele>
        <time>2016-09-25T07:02:03.000Z</time>
      </trkpt>
      <trkpt lat="49.05731" lon="1.4771">
        <ele>112.89204406738</ele>
        <time>2016-09-25T07:02:06.000Z</time>
      </trkpt>
      <trkpt lat="49.05718" lon="1.4772">
        <ele>112.36777496338</ele>
        <time>2016-09-25T07:02:08.000Z</time>
      </trkpt>
      <trkpt lat="49.05692" lon="1.47726">
        <ele>111.55401611328</ele>
        <time>2016-09-25T07:02:11.000Z</time>
      </trkpt>
      <trkpt lat="49.05669" lon="1.47738">
        <ele>110.55410003662</ele>
        <time>2016-09-25T07:02:14.000Z</time>
      </trkpt>
      <trkpt lat="49.05657" lon="1.47748">
        <ele>109.49326324463</ele>
        <time>2016-09-25T07:02:16.000Z</time>
      </trkpt>
      <trkpt lat="49.05638" lon="1.47768">
        <ele>108.48945617676</ele>
        <time>2016-09-25T07:02:19.000Z</time>
      </trkpt>
      <trkpt lat="49.05617" lon="1.47784">
        <ele>107.39381408691</ele>
        <time>2016-09-25T07:02:22.000Z</time>
      </trkpt>
      <trkpt lat="49.05596" lon="1.47802">
        <ele>106.46839904785</ele>
        <time>2016-09-25T07:02:25.000Z</time>
      </trkpt>
      <trkpt lat="49.05578" lon="1.47823">
        <ele>105.80456542969</ele>
        <time>2016-09-25T07:02:28.000Z</time>
      </trkpt>
      <trkpt lat="49.0556" lon="1.47834">
        <ele>105.16986083984</ele>
        <time>2016-09-25T07:02:31.000Z</time>
      </trkpt>
      <trkpt lat="49.05548" lon="1.47841">
        <ele>104.53160095215</ele>
        <time>2016-09-25T07:02:33.000Z</time>
      </trkpt>
      <trkpt lat="49.05533" lon="1.47855">
        <ele>104.02470397949</ele>
        <time>2016-09-25T07:02:36.000Z</time>
      </trkpt>
      <trkpt lat="49.05521" lon="1.47862">
        <ele>103.56097412109</ele>
        <time>2016-09-25T07:02:38.000Z</time>
      </trkpt>
      <trkpt lat="49.05502" lon="1.47877">
        <ele>102.92515563965</ele>
        <time>2016-09-25T07:02:41.000Z</time>
      </trkpt>
      <trkpt lat="49.05492" lon="1.47887">
        <ele>102.35720825195</ele>
        <time>2016-09-25T07:02:43.000Z</time>
      </trkpt>
      <trkpt lat="49.0548" lon="1.479">
        <ele>101.73197937012</ele>
        <time>2016-09-25T07:02:45.000Z</time>
      </trkpt>
      <trkpt lat="49.05465" lon="1.47918">
        <ele>100.95343017578</ele>
        <time>2016-09-25T07:02:48.000Z</time>
      </trkpt>
      <trkpt lat="49.05445" lon="1.47934">
        <ele>100.10306549072</ele>
        <time>2016-09-25T07:02:51.000Z</time>
      </trkpt>
      <trkpt lat="49.05429" lon="1.4794">
        <ele>99.166580200195</ele>
        <time>2016-09-25T07:02:53.000Z</time>
      </trkpt>
      <trkpt lat="49.05409" lon="1.4795">
        <ele>97.949325561523</ele>
        <time>2016-09-25T07:02:56.000Z</time>
      </trkpt>
      <trkpt lat="49.05397" lon="1.47958">
        <ele>96.662742614746</ele>
        <time>2016-09-25T07:02:58.000Z</time>
      </trkpt>
      <trkpt lat="49.05386" lon="1.47969">
        <ele>95.371688842773</ele>
        <time>2016-09-25T07:03:00.000Z</time>
      </trkpt>
      <trkpt lat="49.05361" lon="1.47988">
        <ele>93.663467407227</ele>
        <time>2016-09-25T07:03:03.000Z</time>
      </trkpt>
      <trkpt lat="49.05334" lon="1.48009">
        <ele>91.494705200195</ele>
        <time>2016-09-25T07:03:06.000Z</time>
      </trkpt>
      <trkpt lat="49.05307" lon="1.48029">
        <ele>89.391143798828</ele>
        <time>2016-09-25T07:03:09.000Z</time>
      </trkpt>
      <trkpt lat="49.05291" lon="1.48039">
        <ele>87.20524597168</ele>
        <time>2016-09-25T07:03:11.000Z</time>
      </trkpt>
      <trkpt lat="49.05268" lon="1.48047">
        <ele>84.706924438477</ele>
        <time>2016-09-25T07:03:14.000Z</time>
      </trkpt>
      <trkpt lat="49.05237" lon="1.4805">
        <ele>82.308860778809</ele>
        <time>2016-09-25T07:03:17.000Z</time>
      </trkpt>
      <trkpt lat="49.05214" lon="1.48047">
        <ele>80.535957336426</ele>
        <time>2016-09-25T07:03:19.000Z</time>
      </trkpt>
      <trkpt lat="49.05188" lon="1.48029">
        <ele>78.865905761719</ele>
        <time>2016-09-25T07:03:22.000Z</time>
      </trkpt>
      <trkpt lat="49.05172" lon="1.48018">
        <ele>77.332847595215</ele>
        <time>2016-09-25T07:03:24.000Z</time>
      </trkpt>
      <trkpt lat="49.05149" lon="1.47993">
        <ele>76.41577911377</ele>
        <time>2016-09-25T07:03:27.000Z</time>
      </trkpt>
      <trkpt lat="49.0514" lon="1.47981">
        <ele>76.153945922852</ele>
        <time>2016-09-25T07:03:29.000Z</time>
      </trkpt>
      <trkpt lat="49.05133" lon="1.47966">
        <ele>76.15266418457</ele>
        <time>2016-09-25T07:03:32.000Z</time>
      </trkpt>
      <trkpt lat="49.05128" lon="1.47956">
        <ele>76.436157226562</ele>
        <time>2016-09-25T07:03:34.000Z</time>
      </trkpt>
      <trkpt lat="49.05122" lon="1.47948">
        <ele>76.913848876953</ele>
        <time>2016-09-25T07:03:36.000Z</time>
      </trkpt>
      <trkpt lat="49.05116" lon="1.4794">
        <ele>77.366546630859</ele>
        <time>2016-09-25T07:03:39.000Z</time>
      </trkpt>
      <trkpt lat="49.05107" lon="1.47937">
        <ele>77.797180175781</ele>
        <time>2016-09-25T07:03:42.000Z</time>
      </trkpt>
      <trkpt lat="49.05099" lon="1.47941">
        <ele>78.186096191406</ele>
        <time>2016-09-25T07:03:45.000Z</time>
      </trkpt>
      <trkpt lat="49.05095" lon="1.47951">
        <ele>78.516723632812</ele>
        <time>2016-09-25T07:03:47.000Z</time>
      </trkpt>
      <trkpt lat="49.0509" lon="1.4797">
        <ele>78.768737792969</ele>
        <time>2016-09-25T07:03:50.000Z</time>
      </trkpt>
      <trkpt lat="49.05084" lon="1.47986">
        <ele>78.961669921875</ele>
        <time>2016-09-25T07:03:53.000Z</time>
      </trkpt>
      <trkpt lat="49.05079" lon="1.47997">
        <ele>79.10319519043</ele>
        <time>2016-09-25T07:03:55.000Z</time>
      </trkpt>
      <trkpt lat="49.05074" lon="1.48006">
        <ele>79.216781616211</ele>
        <time>2016-09-25T07:03:57.000Z</time>
      </trkpt>
      <trkpt lat="49.05069" lon="1.48015">
        <ele>79.353096008301</ele>
        <time>2016-09-25T07:03:59.000Z</time>
      </trkpt>
      <trkpt lat="49.05064" lon="1.48027">
        <ele>79.529708862305</ele>
        <time>2016-09-25T07:04:01.000Z</time>
      </trkpt>
      <trkpt lat="49.05061" lon="1.48052">
        <ele>79.647613525391</ele>
        <time>2016-09-25T07:04:04.000Z</time>
      </trkpt>
      <trkpt lat="49.05063" lon="1.48067">
        <ele>79.624496459961</ele>
        <time>2016-09-25T07:04:06.000Z</time>
      </trkpt>
      <trkpt lat="49.05066" lon="1.48082">
        <ele>79.463188171387</ele>
        <time>2016-09-25T07:04:08.000Z</time>
      </trkpt>
      <trkpt lat="49.0507" lon="1.48105">
        <ele>79.219200134277</ele>
        <time>2016-09-25T07:04:11.000Z</time>
      </trkpt>
      <trkpt lat="49.05074" lon="1.48119">
        <ele>78.885452270508</ele>
        <time>2016-09-25T07:04:13.000Z</time>
      </trkpt>
      <trkpt lat="49.05079" lon="1.48133">
        <ele>78.535995483398</ele>
        <time>2016-09-25T07:04:16.000Z</time>
      </trkpt>
      <trkpt lat="49.05085" lon="1.48152">
        <ele>78.240821838379</ele>
        <time>2016-09-25T07:04:18.000Z</time>
      </trkpt>
      <trkpt lat="49.05089" lon="1.48165">
        <ele>78.052124023438</ele>
        <time>2016-09-25T07:04:20.000Z</time>
      </trkpt>
      <trkpt lat="49.05094" lon="1.48183">
        <ele>78.018981933594</ele>
        <time>2016-09-25T07:04:23.000Z</time>
      </trkpt>
      <trkpt lat="49.05098" lon="1.48195">
        <ele>78.096122741699</ele>
        <time>2016-09-25T07:04:25.000Z</time>
      </trkpt>
      <trkpt lat="49.05103" lon="1.48208">
        <ele>78.278419494629</ele>
        <time>2016-09-25T07:04:27.000Z</time>
      </trkpt>
      <trkpt lat="49.05111" lon="1.48227">
        <ele>78.557594299316</ele>
        <time>2016-09-25T07:04:30.000Z</time>
      </trkpt>
      <trkpt lat="49.05121" lon="1.48248">
        <ele>78.846603393555</ele>
        <time>2016-09-25T07:04:33.000Z</time>
      </trkpt>
      <trkpt lat="49.0513" lon="1.48272">
        <ele>79.013076782227</ele>
        <time>2016-09-25T07:04:36.000Z</time>
      </trkpt>
      <trkpt lat="49.05132" lon="1.48296">
        <ele>79.203994750977</ele>
        <time>2016-09-25T07:04:39.000Z</time>
      </trkpt>
      <trkpt lat="49.05133" lon="1.48315">
        <ele>79.380294799805</ele>
        <time>2016-09-25T07:04:41.000Z</time>
      </trkpt>
      <trkpt lat="49.05134" lon="1.48334">
        <ele>79.574325561523</ele>
        <time>2016-09-25T07:04:43.000Z</time>
      </trkpt>
      <trkpt lat="49.05135" lon="1.48355">
        <ele>79.870826721191</ele>
        <time>2016-09-25T07:04:45.000Z</time>
      </trkpt>
      <trkpt lat="49.05135" lon="1.48375">
        <ele>80.322319030762</ele>
        <time>2016-09-25T07:04:47.000Z</time>
      </trkpt>
      <trkpt lat="49.05138" lon="1.48422">
        <ele>80.870803833008</ele>
        <time>2016-09-25T07:04:51.000Z</time>
      </trkpt>
      <trkpt lat="49.05141" lon="1.48457">
        <ele>81.551063537598</ele>
        <time>2016-09-25T07:04:54.000Z</time>
      </trkpt>
      <trkpt lat="49.05144" lon="1.48483">
        <ele>82.346557617188</ele>
        <time>2016-09-25T07:04:56.000Z</time>
      </trkpt>
      <trkpt lat="49.05145" lon="1.48509">
        <ele>83.204704284668</ele>
        <time>2016-09-25T07:04:58.000Z</time>
      </trkpt>
      <trkpt lat="49.05147" lon="1.48551">
        <ele>83.915969848633</ele>
        <time>2016-09-25T07:05:01.000Z</time>
      </trkpt>
      <trkpt lat="49.05148" lon="1.48593">
        <ele>84.411010742188</ele>
        <time>2016-09-25T07:05:04.000Z</time>
      </trkpt>
      <trkpt lat="49.05148" lon="1.48632">
        <ele>84.496963500977</ele>
        <time>2016-09-25T07:05:07.000Z</time>
      </trkpt>
      <trkpt lat="49.05149" lon="1.48659">
        <ele>84.170669555664</ele>
        <time>2016-09-25T07:05:09.000Z</time>
      </trkpt>
      <trkpt lat="49.05154" lon="1.48694">
        <ele>82.983627319336</ele>
        <time>2016-09-25T07:05:12.000Z</time>
      </trkpt>
      <trkpt lat="49.05157" lon="1.48715">
        <ele>81.389549255371</ele>
        <time>2016-09-25T07:05:14.000Z</time>
      </trkpt>
      <trkpt lat="49.0518" lon="1.48732">
        <ele>78.951309204102</ele>
        <time>2016-09-25T07:05:17.000Z</time>
      </trkpt>
      <trkpt lat="49.05201" lon="1.48744">
        <ele>76.283348083496</ele>
        <time>2016-09-25T07:05:20.000Z</time>
      </trkpt>
      <trkpt lat="49.05221" lon="1.48756">
        <ele>73.379981994629</ele>
        <time>2016-09-25T07:05:23.000Z</time>
      </trkpt>
      <trkpt lat="49.05238" lon="1.48769">
        <ele>70.852523803711</ele>
        <time>2016-09-25T07:05:26.000Z</time>
      </trkpt>
      <trkpt lat="49.05243" lon="1.48787">
        <ele>68.577896118164</ele>
        <time>2016-09-25T07:05:29.000Z</time>
      </trkpt>
      <trkpt lat="49.05239" lon="1.48797">
        <ele>67.184661865234</ele>
        <time>2016-09-25T07:05:31.000Z</time>
      </trkpt>
      <trkpt lat="49.05234" lon="1.48813">
        <ele>66.26513671875</ele>
        <time>2016-09-25T07:05:34.000Z</time>
      </trkpt>
      <trkpt lat="49.05227" lon="1.48826">
        <ele>65.831848144531</ele>
        <time>2016-09-25T07:05:37.000Z</time>
      </trkpt>
      <trkpt lat="49.05222" lon="1.48833">
        <ele>65.749816894531</ele>
        <time>2016-09-25T07:05:39.000Z</time>
      </trkpt>
      <trkpt lat="49.05216" lon="1.48846">
        <ele>66.095008850098</ele>
        <time>2016-09-25T07:05:42.000Z</time>
      </trkpt>
      <trkpt lat="49.05213" lon="1.48857">
        <ele>66.639175415039</ele>
        <time>2016-09-25T07:05:44.000Z</time>
      </trkpt>
      <trkpt lat="49.0521" lon="1.48874">
        <ele>67.46549987793</ele>
        <time>2016-09-25T07:05:47.000Z</time>
      </trkpt>
      <trkpt lat="49.05209" lon="1.48884">
        <ele>68.433738708496</ele>
        <time>2016-09-25T07:05:49.000Z</time>
      </trkpt>
      <trkpt lat="49.05204" lon="1.48897">
        <ele>69.615661621094</ele>
        <time>2016-09-25T07:05:52.000Z</time>
      </trkpt>
      <trkpt lat="49.05197" lon="1.48904">
        <ele>70.718505859375</ele>
        <time>2016-09-25T07:05:55.000Z</time>
      </trkpt>
      <trkpt lat="49.05191" lon="1.48905">
        <ele>71.7314453125</ele>
        <time>2016-09-25T07:05:57.000Z</time>
      </trkpt>
      <trkpt lat="49.05186" lon="1.48907">
        <ele>72.557434082031</ele>
        <time>2016-09-25T07:05:59.000Z</time>
      </trkpt>
      <trkpt lat="49.05178" lon="1.48909">
        <ele>73.345886230469</ele>
        <time>2016-09-25T07:06:02.000Z</time>
      </trkpt>
      <trkpt lat="49.05172" lon="1.48912">
        <ele>74.001953125</ele>
        <time>2016-09-25T07:06:05.000Z</time>
      </trkpt>
      <trkpt lat="49.05167" lon="1.48913">
        <ele>74.572692871094</ele>
        <time>2016-09-25T07:06:07.000Z</time>
      </trkpt>
      <trkpt lat="49.0516" lon="1.48914">
        <ele>75.234596252441</ele>
        <time>2016-09-25T07:06:10.000Z</time>
      </trkpt>
      <trkpt lat="49.05153" lon="1.48914">
        <ele>75.974769592285</ele>
        <time>2016-09-25T07:06:13.000Z</time>
      </trkpt>
      <trkpt lat="49.05148" lon="1.48915">
        <ele>76.738418579102</ele>
        <time>2016-09-25T07:06:16.000Z</time>
      </trkpt>
      <trkpt lat="49.05146" lon="1.48915">
        <ele>77.440444946289</ele>
        <time>2016-09-25T07:06:18.000Z</time>
      </trkpt>
      <trkpt lat="49.05142" lon="1.48914">
        <ele>78.117965698242</ele>
        <time>2016-09-25T07:06:20.000Z</time>
      </trkpt>
      <trkpt lat="49.05137" lon="1.48913">
        <ele>78.727989196777</ele>
        <time>2016-09-25T07:06:23.000Z</time>
      </trkpt>
      <trkpt lat="49.05132" lon="1.48911">
        <ele>79.298156738281</ele>
        <time>2016-09-25T07:06:25.000Z</time>
      </trkpt>
      <trkpt lat="49.05125" lon="1.48911">
        <ele>79.908332824707</ele>
        <time>2016-09-25T07:06:28.000Z</time>
      </trkpt>
      <trkpt lat="49.0512" lon="1.48911">
        <ele>80.578201293945</ele>
        <time>2016-09-25T07:06:30.000Z</time>
      </trkpt>
      <trkpt lat="49.05116" lon="1.48912">
        <ele>81.283531188965</ele>
        <time>2016-09-25T07:06:32.000Z</time>
      </trkpt>
      <trkpt lat="49.0511" lon="1.48913">
        <ele>82.022071838379</ele>
        <time>2016-09-25T07:06:35.000Z</time>
      </trkpt>
      <trkpt lat="49.05107" lon="1.48914">
        <ele>82.719871520996</ele>
        <time>2016-09-25T07:06:37.000Z</time>
      </trkpt>
      <trkpt lat="49.05102" lon="1.48913">
        <ele>83.348815917969</ele>
        <time>2016-09-25T07:06:40.000Z</time>
      </trkpt>
      <trkpt lat="49.05097" lon="1.48914">
        <ele>83.984657287598</ele>
        <time>2016-09-25T07:06:42.000Z</time>
      </trkpt>
      <trkpt lat="49.05092" lon="1.48915">
        <ele>84.632965087891</ele>
        <time>2016-09-25T07:06:44.000Z</time>
      </trkpt>
      <trkpt lat="49.05085" lon="1.48914">
        <ele>85.304382324219</ele>
        <time>2016-09-25T07:06:47.000Z</time>
      </trkpt>
      <trkpt lat="49.05079" lon="1.48912">
        <ele>86.04866027832</ele>
        <time>2016-09-25T07:06:50.000Z</time>
      </trkpt>
      <trkpt lat="49.05077" lon="1.48911">
        <ele>86.755836486816</ele>
        <time>2016-09-25T07:06:52.000Z</time>
      </trkpt>
      <trkpt lat="49.05073" lon="1.48909">
        <ele>87.436477661133</ele>
        <time>2016-09-25T07:06:54.000Z</time>
      </trkpt>
      <trkpt lat="49.0507" lon="1.48907">
        <ele>88.08935546875</ele>
        <time>2016-09-25T07:06:56.000Z</time>
      </trkpt>
      <trkpt lat="49.05068" lon="1.48907">
        <ele>88.601150512695</ele>
        <time>2016-09-25T07:06:58.000Z</time>
      </trkpt>
      <trkpt lat="49.05066" lon="1.48906">
        <ele>89.00959777832</ele>
        <time>2016-09-25T07:07:01.000Z</time>
      </trkpt>
      <trkpt lat="49.05064" lon="1.48905">
        <ele>89.382904052734</ele>
        <time>2016-09-25T07:07:03.000Z</time>
      </trkpt>
      <trkpt lat="49.0506" lon="1.48905">
        <ele>89.738464355469</ele>
        <time>2016-09-25T07:07:06.000Z</time>
      </trkpt>
      <trkpt lat="49.05058" lon="1.48907">
        <ele>90.044143676758</ele>
        <time>2016-09-25T07:07:08.000Z</time>
      </trkpt>
      <trkpt lat="49.05053" lon="1.4891">
        <ele>90.383819580078</ele>
        <time>2016-09-25T07:07:11.000Z</time>
      </trkpt>
      <trkpt lat="49.05047" lon="1.48913">
        <ele>90.752059936523</ele>
        <time>2016-09-25T07:07:14.000Z</time>
      </trkpt>
      <trkpt lat="49.05045" lon="1.48914">
        <ele>91.118728637695</ele>
        <time>2016-09-25T07:07:16.000Z</time>
      </trkpt>
      <trkpt lat="49.0504" lon="1.48915">
        <ele>91.487365722656</ele>
        <time>2016-09-25T07:07:19.000Z</time>
      </trkpt>
      <trkpt lat="49.05038" lon="1.48916">
        <ele>91.839965820312</ele>
        <time>2016-09-25T07:07:21.000Z</time>
      </trkpt>
      <trkpt lat="49.05035" lon="1.48918">
        <ele>92.255310058594</ele>
        <time>2016-09-25T07:07:23.000Z</time>
      </trkpt>
      <trkpt lat="49.05032" lon="1.48921">
        <ele>92.738815307617</ele>
        <time>2016-09-25T07:07:25.000Z</time>
      </trkpt>
      <trkpt lat="49.05028" lon="1.48922">
        <ele>93.328903198242</ele>
        <time>2016-09-25T07:07:27.000Z</time>
      </trkpt>
      <trkpt lat="49.05022" lon="1.48924">
        <ele>94.013687133789</ele>
        <time>2016-09-25T07:07:30.000Z</time>
      </trkpt>
      <trkpt lat="49.05019" lon="1.48924">
        <ele>94.754730224609</ele>
        <time>2016-09-25T07:07:32.000Z</time>
      </trkpt>
      <trkpt lat="49.05015" lon="1.48925">
        <ele>95.468795776367</ele>
        <time>2016-09-25T07:07:34.000Z</time>
      </trkpt>
      <trkpt lat="49.0501" lon="1.48925">
        <ele>96.136322021484</ele>
        <time>2016-09-25T07:07:37.000Z</time>
      </trkpt>
      <trkpt lat="49.05005" lon="1.48927">
        <ele>96.827133178711</ele>
        <time>2016-09-25T07:07:40.000Z</time>
      </trkpt>
      <trkpt lat="49.04999" lon="1.48928">
        <ele>97.515502929688</ele>
        <time>2016-09-25T07:07:43.000Z</time>
      </trkpt>
      <trkpt lat="49.04994" lon="1.48927">
        <ele>98.121299743652</ele>
        <time>2016-09-25T07:07:45.000Z</time>
      </trkpt>
      <trkpt lat="49.04988" lon="1.48924">
        <ele>98.568778991699</ele>
        <time>2016-09-25T07:07:48.000Z</time>
      </trkpt>
      <trkpt lat="49.04984" lon="1.48924">
        <ele>98.915130615234</ele>
        <time>2016-09-25T07:07:50.000Z</time>
      </trkpt>
      <trkpt lat="49.04977" lon="1.4892">
        <ele>99.048316955566</ele>
        <time>2016-09-25T07:07:53.000Z</time>
      </trkpt>
      <trkpt lat="49.04972" lon="1.48919">
        <ele>99.022003173828</ele>
        <time>2016-09-25T07:07:55.000Z</time>
      </trkpt>
      <trkpt lat="49.04966" lon="1.4892">
        <ele>99.077697753906</ele>
        <time>2016-09-25T07:07:58.000Z</time>
      </trkpt>
      <trkpt lat="49.04963" lon="1.48924">
        <ele>99.312461853027</ele>
        <time>2016-09-25T07:08:00.000Z</time>
      </trkpt>
      <trkpt lat="49.04958" lon="1.48928">
        <ele>99.680961608887</ele>
        <time>2016-09-25T07:08:03.000Z</time>
      </trkpt>
      <trkpt lat="49.04953" lon="1.48929">
        <ele>100.1568145752</ele>
        <time>2016-09-25T07:08:05.000Z</time>
      </trkpt>
      <trkpt lat="49.04948" lon="1.48931">
        <ele>100.69969177246</ele>
        <time>2016-09-25T07:08:08.000Z</time>
      </trkpt>
      <trkpt lat="49.04942" lon="1.48931">
        <ele>101.21357727051</ele>
        <time>2016-09-25T07:08:11.000Z</time>
      </trkpt>
      <trkpt lat="49.04935" lon="1.48934">
        <ele>101.69081878662</ele>
        <time>2016-09-25T07:08:14.000Z</time>
      </trkpt>
      <trkpt lat="49.0493" lon="1.48938">
        <ele>102.12598419189</ele>
        <time>2016-09-25T07:08:17.000Z</time>
      </trkpt>
      <trkpt lat="49.04926" lon="1.48939">
        <ele>102.52927398682</ele>
        <time>2016-09-25T07:08:20.000Z</time>
      </trkpt>
      <trkpt lat="49.04922" lon="1.48937">
        <ele>102.84599304199</ele>
        <time>2016-09-25T07:08:22.000Z</time>
      </trkpt>
      <trkpt lat="49.04918" lon="1.4894">
        <ele>103.17216491699</ele>
        <time>2016-09-25T07:08:25.000Z</time>
      </trkpt>
      <trkpt lat="49.04916" lon="1.48943">
        <ele>103.44792175293</ele>
        <time>2016-09-25T07:08:27.000Z</time>
      </trkpt>
      <trkpt lat="49.04913" lon="1.48946">
        <ele>103.71405029297</ele>
        <time>2016-09-25T07:08:30.000Z</time>
      </trkpt>
      <trkpt lat="49.04908" lon="1.48951">
        <ele>104.06658935547</ele>
        <time>2016-09-25T07:08:33.000Z</time>
      </trkpt>
      <trkpt lat="49.04907" lon="1.48956">
        <ele>104.49069976807</ele>
        <time>2016-09-25T07:08:35.000Z</time>
      </trkpt>
      <trkpt lat="49.04904" lon="1.4896">
        <ele>104.93040466309</ele>
        <time>2016-09-25T07:08:37.000Z</time>
      </trkpt>
      <trkpt lat="49.049" lon="1.48965">
        <ele>105.41841125488</ele>
        <time>2016-09-25T07:08:40.000Z</time>
      </trkpt>
      <trkpt lat="49.04896" lon="1.48968">
        <ele>105.87117767334</ele>
        <time>2016-09-25T07:08:42.000Z</time>
      </trkpt>
      <trkpt lat="49.04891" lon="1.48972">
        <ele>106.28409576416</ele>
        <time>2016-09-25T07:08:45.000Z</time>
      </trkpt>
      <trkpt lat="49.04888" lon="1.48976">
        <ele>106.68306732178</ele>
        <time>2016-09-25T07:08:47.000Z</time>
      </trkpt>
      <trkpt lat="49.04885" lon="1.48981">
        <ele>107.05001068115</ele>
        <time>2016-09-25T07:08:49.000Z</time>
      </trkpt>
      <trkpt lat="49.04882" lon="1.48988">
        <ele>107.3849029541</ele>
        <time>2016-09-25T07:08:52.000Z</time>
      </trkpt>
      <trkpt lat="49.0488" lon="1.48994">
        <ele>107.70506286621</ele>
        <time>2016-09-25T07:08:55.000Z</time>
      </trkpt>
      <trkpt lat="49.04877" lon="1.49">
        <ele>107.98728942871</ele>
        <time>2016-09-25T07:08:58.000Z</time>
      </trkpt>
      <trkpt lat="49.04875" lon="1.49004">
        <ele>108.30949401855</ele>
        <time>2016-09-25T07:09:00.000Z</time>
      </trkpt>
      <trkpt lat="49.04873" lon="1.49011">
        <ele>108.73099517822</ele>
        <time>2016-09-25T07:09:02.000Z</time>
      </trkpt>
      <trkpt lat="49.04871" lon="1.49021">
        <ele>109.31007385254</ele>
        <time>2016-09-25T07:09:05.000Z</time>
      </trkpt>
      <trkpt lat="49.0487" lon="1.49027">
        <ele>109.97133636475</ele>
        <time>2016-09-25T07:09:07.000Z</time>
      </trkpt>
      <trkpt lat="49.04867" lon="1.49034">
        <ele>110.71624755859</ele>
        <time>2016-09-25T07:09:10.000Z</time>
      </trkpt>
      <trkpt lat="49.04865" lon="1.49037">
        <ele>111.39987945557</ele>
        <time>2016-09-25T07:09:12.000Z</time>
      </trkpt>
      <trkpt lat="49.04861" lon="1.49044">
        <ele>112.01435852051</ele>
        <time>2016-09-25T07:09:15.000Z</time>
      </trkpt>
      <trkpt lat="49.04858" lon="1.49048">
        <ele>112.42653656006</ele>
        <time>2016-09-25T07:09:17.000Z</time>
      </trkpt>
      <trkpt lat="49.04853" lon="1.4905">
        <ele>112.68308258057</ele>
        <time>2016-09-25T07:09:20.000Z</time>
      </trkpt>
      <trkpt lat="49.04847" lon="1.49059">
        <ele>112.84394836426</ele>
        <time>2016-09-25T07:09:23.000Z</time>
      </trkpt>
      <trkpt lat="49.04845" lon="1.49065">
        <ele>113.02425384521</ele>
        <time>2016-09-25T07:09:25.000Z</time>
      </trkpt>
      <trkpt lat="49.0484" lon="1.49074">
        <ele>113.11381530762</ele>
        <time>2016-09-25T07:09:28.000Z</time>
      </trkpt>
      <trkpt lat="49.04836" lon="1.49078">
        <ele>113.1446762085</ele>
        <time>2016-09-25T07:09:30.000Z</time>
      </trkpt>
      <trkpt lat="49.04832" lon="1.49085">
        <ele>113.22440338135</ele>
        <time>2016-09-25T07:09:33.000Z</time>
      </trkpt>
      <trkpt lat="49.04829" lon="1.4909">
        <ele>113.39345550537</ele>
        <time>2016-09-25T07:09:35.000Z</time>
      </trkpt>
      <trkpt lat="49.04826" lon="1.49095">
        <ele>113.62302398682</ele>
        <time>2016-09-25T07:09:37.000Z</time>
      </trkpt>
      <trkpt lat="49.04822" lon="1.49097">
        <ele>113.92407226562</ele>
        <time>2016-09-25T07:09:39.000Z</time>
      </trkpt>
      <trkpt lat="49.04818" lon="1.49101">
        <ele>114.35739898682</ele>
        <time>2016-09-25T07:09:42.000Z</time>
      </trkpt>
      <trkpt lat="49.04816" lon="1.49105">
        <ele>114.84091949463</ele>
        <time>2016-09-25T07:09:44.000Z</time>
      </trkpt>
      <trkpt lat="49.0481" lon="1.4911">
        <ele>115.30214691162</ele>
        <time>2016-09-25T07:09:47.000Z</time>
      </trkpt>
      <trkpt lat="49.04806" lon="1.49119">
        <ele>115.74919128418</ele>
        <time>2016-09-25T07:09:50.000Z</time>
      </trkpt>
      <trkpt lat="49.04805" lon="1.49127">
        <ele>116.19828033447</ele>
        <time>2016-09-25T07:09:52.000Z</time>
      </trkpt>
      <trkpt lat="49.04807" lon="1.49134">
        <ele>116.60526275635</ele>
        <time>2016-09-25T07:09:54.000Z</time>
      </trkpt>
      <trkpt lat="49.04808" lon="1.49139">
        <ele>116.98414611816</ele>
        <time>2016-09-25T07:09:56.000Z</time>
      </trkpt>
      <trkpt lat="49.04808" lon="1.49147">
        <ele>117.32939147949</ele>
        <time>2016-09-25T07:09:59.000Z</time>
      </trkpt>
      <trkpt lat="49.04808" lon="1.49152">
        <ele>117.614112854</ele>
        <time>2016-09-25T07:10:02.000Z</time>
      </trkpt>
      <trkpt lat="49.04808" lon="1.49154">
        <ele>117.85221862793</ele>
        <time>2016-09-25T07:10:04.000Z</time>
      </trkpt>
      <trkpt lat="49.04809" lon="1.4916">
        <ele>118.08464050293</ele>
        <time>2016-09-25T07:10:07.000Z</time>
      </trkpt>
      <trkpt lat="49.0481" lon="1.49165">
        <ele>118.32695007324</ele>
        <time>2016-09-25T07:10:10.000Z</time>
      </trkpt>
      <trkpt lat="49.0481" lon="1.49168">
        <ele>118.54197692871</ele>
        <time>2016-09-25T07:10:12.000Z</time>
      </trkpt>
      <trkpt lat="49.04811" lon="1.49172">
        <ele>118.80085754395</ele>
        <time>2016-09-25T07:10:14.000Z</time>
      </trkpt>
      <trkpt lat="49.04813" lon="1.49177">
        <ele>119.15313720703</ele>
        <time>2016-09-25T07:10:17.000Z</time>
      </trkpt>
      <trkpt lat="49.04814" lon="1.49181">
        <ele>119.54074859619</ele>
        <time>2016-09-25T07:10:19.000Z</time>
      </trkpt>
      <trkpt lat="49.04815" lon="1.49185">
        <ele>119.95108795166</ele>
        <time>2016-09-25T07:10:21.000Z</time>
      </trkpt>
      <trkpt lat="49.04814" lon="1.49192">
        <ele>120.43743896484</ele>
        <time>2016-09-25T07:10:24.000Z</time>
      </trkpt>
      <trkpt lat="49.04815" lon="1.49199">
        <ele>120.97119140625</ele>
        <time>2016-09-25T07:10:27.000Z</time>
      </trkpt>
      <trkpt lat="49.04813" lon="1.49204">
        <ele>121.47283935547</ele>
        <time>2016-09-25T07:10:30.000Z</time>
      </trkpt>
      <trkpt lat="49.04812" lon="1.49207">
        <ele>121.92582702637</ele>
        <time>2016-09-25T07:10:32.000Z</time>
      </trkpt>
      <trkpt lat="49.04811" lon="1.49211">
        <ele>122.36730957031</ele>
        <time>2016-09-25T07:10:35.000Z</time>
      </trkpt>
      <trkpt lat="49.04811" lon="1.49214">
        <ele>122.75283050537</ele>
        <time>2016-09-25T07:10:37.000Z</time>
      </trkpt>
      <trkpt lat="49.04812" lon="1.49219">
        <ele>123.09861755371</ele>
        <time>2016-09-25T07:10:39.000Z</time>
      </trkpt>
      <trkpt lat="49.04813" lon="1.49225">
        <ele>123.49317932129</ele>
        <time>2016-09-25T07:10:42.000Z</time>
      </trkpt>
      <trkpt lat="49.04815" lon="1.49232">
        <ele>124.00213623047</ele>
        <time>2016-09-25T07:10:45.000Z</time>
      </trkpt>
      <trkpt lat="49.04818" lon="1.49238">
        <ele>124.59879302979</ele>
        <time>2016-09-25T07:10:48.000Z</time>
      </trkpt>
      <trkpt lat="49.04819" lon="1.49243">
        <ele>125.22158050537</ele>
        <time>2016-09-25T07:10:50.000Z</time>
      </trkpt>
      <trkpt lat="49.04821" lon="1.49248">
        <ele>125.8649520874</ele>
        <time>2016-09-25T07:10:53.000Z</time>
      </trkpt>
      <trkpt lat="49.04824" lon="1.49251">
        <ele>126.45831298828</ele>
        <time>2016-09-25T07:10:55.000Z</time>
      </trkpt>
      <trkpt lat="49.04827" lon="1.49254">
        <ele>126.96781921387</ele>
        <time>2016-09-25T07:10:58.000Z</time>
      </trkpt>
      <trkpt lat="49.0483" lon="1.49258">
        <ele>127.38425445557</ele>
        <time>2016-09-25T07:11:01.000Z</time>
      </trkpt>
      <trkpt lat="49.04831" lon="1.4926">
        <ele>127.73748779297</ele>
        <time>2016-09-25T07:11:03.000Z</time>
      </trkpt>
      <trkpt lat="49.04833" lon="1.49264">
        <ele>128.0168762207</ele>
        <time>2016-09-25T07:11:05.000Z</time>
      </trkpt>
      <trkpt lat="49.04835" lon="1.49269">
        <ele>128.27807617188</ele>
        <time>2016-09-25T07:11:08.000Z</time>
      </trkpt>
      <trkpt lat="49.04836" lon="1.49273">
        <ele>128.5083770752</ele>
        <time>2016-09-25T07:11:11.000Z</time>
      </trkpt>
      <trkpt lat="49.04836" lon="1.49278">
        <ele>128.71878051758</ele>
        <time>2016-09-25T07:11:14.000Z</time>
      </trkpt>
      <trkpt lat="49.04837" lon="1.49282">
        <ele>128.93740844727</ele>
        <time>2016-09-25T07:11:17.000Z</time>
      </trkpt>
      <trkpt lat="49.04839" lon="1.49285">
        <ele>129.14263916016</ele>
        <time>2016-09-25T07:11:19.000Z</time>
      </trkpt>
      <trkpt lat="49.0484" lon="1.49289">
        <ele>129.32354736328</ele>
        <time>2016-09-25T07:11:21.000Z</time>
      </trkpt>
      <trkpt lat="49.0484" lon="1.49295">
        <ele>129.51455688477</ele>
        <time>2016-09-25T07:11:24.000Z</time>
      </trkpt>
      <trkpt lat="49.04842" lon="1.49301">
        <ele>129.71249389648</ele>
        <time>2016-09-25T07:11:27.000Z</time>
      </trkpt>
      <trkpt lat="49.04842" lon="1.49307">
        <ele>129.92202758789</ele>
        <time>2016-09-25T07:11:30.000Z</time>
      </trkpt>
      <trkpt lat="49.04842" lon="1.49311">
        <ele>130.12437438965</ele>
        <time>2016-09-25T07:11:32.000Z</time>
      </trkpt>
      <trkpt lat="49.04841" lon="1.49315">
        <ele>130.3045501709</ele>
        <time>2016-09-25T07:11:35.000Z</time>
      </trkpt>
      <trkpt lat="49.04841" lon="1.49319">
        <ele>130.46566772461</ele>
        <time>2016-09-25T07:11:38.000Z</time>
      </trkpt>
      <trkpt lat="49.04844" lon="1.49325">
        <ele>130.63363647461</ele>
        <time>2016-09-25T07:11:41.000Z</time>
      </trkpt>
      <trkpt lat="49.04846" lon="1.49329">
        <ele>130.7906036377</ele>
        <time>2016-09-25T07:11:43.000Z</time>
      </trkpt>
      <trkpt lat="49.04848" lon="1.49336">
        <ele>130.96882629395</ele>
        <time>2016-09-25T07:11:46.000Z</time>
      </trkpt>
      <trkpt lat="49.04848" lon="1.49342">
        <ele>131.16014099121</ele>
        <time>2016-09-25T07:11:49.000Z</time>
      </trkpt>
      <trkpt lat="49.04853" lon="1.49348">
        <ele>131.3674621582</ele>
        <time>2016-09-25T07:11:52.000Z</time>
      </trkpt>
      <trkpt lat="49.04856" lon="1.49352">
        <ele>131.54385375977</ele>
        <time>2016-09-25T07:11:54.000Z</time>
      </trkpt>
      <trkpt lat="49.0486" lon="1.49358">
        <ele>131.716796875</ele>
        <time>2016-09-25T07:11:57.000Z</time>
      </trkpt>
      <trkpt lat="49.04861" lon="1.49364">
        <ele>131.87223815918</ele>
        <time>2016-09-25T07:12:00.000Z</time>
      </trkpt>
      <trkpt lat="49.04865" lon="1.49369">
        <ele>132.02177429199</ele>
        <time>2016-09-25T07:12:03.000Z</time>
      </trkpt>
      <trkpt lat="49.04868" lon="1.49369">
        <ele>132.13784790039</ele>
        <time>2016-09-25T07:12:06.000Z</time>
      </trkpt>
      <trkpt lat="49.04869" lon="1.49371">
        <ele>132.23616027832</ele>
        <time>2016-09-25T07:12:09.000Z</time>
      </trkpt>
      <trkpt lat="49.04869" lon="1.49371">
        <ele>132.23616027832</ele>
        <time>2016-09-25T07:12:19.000Z</time>
      </trkpt>
      <trkpt lat="49.04871" lon="1.49373">
        <ele>132.31217956543</ele>
        <time>2016-09-25T07:12:42.000Z</time>
      </trkpt>
      <trkpt lat="49.04872" lon="1.49374">
        <ele>132.3680267334</ele>
        <time>2016-09-25T07:12:45.000Z</time>
      </trkpt>
      <trkpt lat="49.04873" lon="1.49374">
        <ele>132.40617370605</ele>
        <time>2016-09-25T07:12:48.000Z</time>
      </trkpt>
      <trkpt lat="49.04872" lon="1.49373">
        <ele>132.43045043945</ele>
        <time>2016-09-25T07:12:51.000Z</time>
      </trkpt>
      <trkpt lat="49.04871" lon="1.49373">
        <ele>132.44253540039</ele>
        <time>2016-09-25T07:12:54.000Z</time>
      </trkpt>
      <trkpt lat="49.04869" lon="1.49375">
        <ele>132.44259643555</ele>
        <time>2016-09-25T07:12:57.000Z</time>
      </trkpt>
      <trkpt lat="49.04869" lon="1.49372">
        <ele>132.43008422852</ele>
        <time>2016-09-25T07:13:03.000Z</time>
      </trkpt>
      <trkpt lat="49.04872" lon="1.49371">
        <ele>132.41969299316</ele>
        <time>2016-09-25T07:13:05.000Z</time>
      </trkpt>
      <trkpt lat="49.04874" lon="1.49371">
        <ele>132.41751098633</ele>
        <time>2016-09-25T07:13:12.000Z</time>
      </trkpt>
      <trkpt lat="49.04876" lon="1.49371">
        <ele>132.42471313477</ele>
        <time>2016-09-25T07:13:14.000Z</time>
      </trkpt>
      <trkpt lat="49.04878" lon="1.49371">
        <ele>132.43865966797</ele>
        <time>2016-09-25T07:13:17.000Z</time>
      </trkpt>
      <trkpt lat="49.04876" lon="1.49372">
        <ele>132.45832824707</ele>
        <time>2016-09-25T07:13:21.000Z</time>
      </trkpt>
      <trkpt lat="49.04876" lon="1.49372">
        <ele>132.45832824707</ele>
        <time>2016-09-25T07:13:31.000Z</time>
      </trkpt>
      <trkpt lat="49.04877" lon="1.49373">
        <ele>132.47750854492</ele>
        <time>2016-09-25T07:14:05.000Z</time>
      </trkpt>
      <trkpt lat="49.04879" lon="1.49373">
        <ele>132.49673461914</ele>
        <time>2016-09-25T07:14:08.000Z</time>
      </trkpt>
      <trkpt lat="49.04882" lon="1.49375">
        <ele>132.52040100098</ele>
        <time>2016-09-25T07:14:11.000Z</time>
      </trkpt>
      <trkpt lat="49.04885" lon="1.49377">
        <ele>132.55158996582</ele>
        <time>2016-09-25T07:14:13.000Z</time>
      </trkpt>
      <trkpt lat="49.0489" lon="1.49379">
        <ele>132.59759521484</ele>
        <time>2016-09-25T07:14:16.000Z</time>
      </trkpt>
      <trkpt lat="49.04893" lon="1.49381">
        <ele>132.64761352539</ele>
        <time>2016-09-25T07:14:18.000Z</time>
      </trkpt>
      <trkpt lat="49.04901" lon="1.49385">
        <ele>132.71159362793</ele>
        <time>2016-09-25T07:14:21.000Z</time>
      </trkpt>
      <trkpt lat="49.04909" lon="1.49387">
        <ele>132.78240966797</ele>
        <time>2016-09-25T07:14:24.000Z</time>
      </trkpt>
      <trkpt lat="49.04914" lon="1.49388">
        <ele>132.85012817383</ele>
        <time>2016-09-25T07:14:26.000Z</time>
      </trkpt>
      <trkpt lat="49.04923" lon="1.4939">
        <ele>132.9475402832</ele>
        <time>2016-09-25T07:14:29.000Z</time>
      </trkpt>
      <trkpt lat="49.0493" lon="1.49392">
        <ele>133.07534790039</ele>
        <time>2016-09-25T07:14:31.000Z</time>
      </trkpt>
      <trkpt lat="49.0494" lon="1.49394">
        <ele>133.2483215332</ele>
        <time>2016-09-25T07:14:34.000Z</time>
      </trkpt>
      <trkpt lat="49.04947" lon="1.49393">
        <ele>133.44902038574</ele>
        <time>2016-09-25T07:14:36.000Z</time>
      </trkpt>
      <trkpt lat="49.04955" lon="1.49397">
        <ele>133.68209838867</ele>
        <time>2016-09-25T07:14:39.000Z</time>
      </trkpt>
      <trkpt lat="49.04961" lon="1.49402">
        <ele>133.88827514648</ele>
        <time>2016-09-25T07:14:41.000Z</time>
      </trkpt>
      <trkpt lat="49.04966" lon="1.49407">
        <ele>134.07209777832</ele>
        <time>2016-09-25T07:14:43.000Z</time>
      </trkpt>
      <trkpt lat="49.04977" lon="1.4941">
        <ele>134.24075317383</ele>
        <time>2016-09-25T07:14:46.000Z</time>
      </trkpt>
      <trkpt lat="49.04986" lon="1.49413">
        <ele>134.40245056152</ele>
        <time>2016-09-25T07:14:49.000Z</time>
      </trkpt>
      <trkpt lat="49.04995" lon="1.49414">
        <ele>134.5583190918</ele>
        <time>2016-09-25T07:14:52.000Z</time>
      </trkpt>
      <trkpt lat="49.05" lon="1.49416">
        <ele>134.71586608887</ele>
        <time>2016-09-25T07:14:54.000Z</time>
      </trkpt>
      <trkpt lat="49.0501" lon="1.49421">
        <ele>134.90570068359</ele>
        <time>2016-09-25T07:14:57.000Z</time>
      </trkpt>
      <trkpt lat="49.0502" lon="1.49427">
        <ele>135.09521484375</ele>
        <time>2016-09-25T07:15:00.000Z</time>
      </trkpt>
      <trkpt lat="49.05026" lon="1.4943">
        <ele>135.28045654297</ele>
        <time>2016-09-25T07:15:02.000Z</time>
      </trkpt>
      <trkpt lat="49.05035" lon="1.49434">
        <ele>135.48399353027</ele>
        <time>2016-09-25T07:15:05.000Z</time>
      </trkpt>
      <trkpt lat="49.05044" lon="1.49438">
        <ele>135.72512817383</ele>
        <time>2016-09-25T07:15:08.000Z</time>
      </trkpt>
      <trkpt lat="49.0505" lon="1.4944">
        <ele>135.95707702637</ele>
        <time>2016-09-25T07:15:10.000Z</time>
      </trkpt>
      <trkpt lat="49.05059" lon="1.49442">
        <ele>136.20472717285</ele>
        <time>2016-09-25T07:15:13.000Z</time>
      </trkpt>
      <trkpt lat="49.05069" lon="1.49444">
        <ele>136.48794555664</ele>
        <time>2016-09-25T07:15:16.000Z</time>
      </trkpt>
      <trkpt lat="49.05079" lon="1.49445">
        <ele>136.7921295166</ele>
        <time>2016-09-25T07:15:19.000Z</time>
      </trkpt>
      <trkpt lat="49.05088" lon="1.49448">
        <ele>137.07974243164</ele>
        <time>2016-09-25T07:15:22.000Z</time>
      </trkpt>
      <trkpt lat="49.05098" lon="1.49453">
        <ele>137.32553100586</ele>
        <time>2016-09-25T07:15:25.000Z</time>
      </trkpt>
      <trkpt lat="49.05104" lon="1.49458">
        <ele>137.50198364258</ele>
        <time>2016-09-25T07:15:27.000Z</time>
      </trkpt>
      <trkpt lat="49.0511" lon="1.49462">
        <ele>137.60432434082</ele>
        <time>2016-09-25T07:15:29.000Z</time>
      </trkpt>
      <trkpt lat="49.0512" lon="1.49468">
        <ele>137.62251281738</ele>
        <time>2016-09-25T07:15:32.000Z</time>
      </trkpt>
      <trkpt lat="49.05127" lon="1.49471">
        <ele>137.59477233887</ele>
        <time>2016-09-25T07:15:34.000Z</time>
      </trkpt>
      <trkpt lat="49.05135" lon="1.49474">
        <ele>137.56436157227</ele>
        <time>2016-09-25T07:15:36.000Z</time>
      </trkpt>
      <trkpt lat="49.05145" lon="1.49477">
        <ele>137.53463745117</ele>
        <time>2016-09-25T07:15:39.000Z</time>
      </trkpt>
      <trkpt lat="49.05156" lon="1.49481">
        <ele>137.49839782715</ele>
        <time>2016-09-25T07:15:42.000Z</time>
      </trkpt>
      <trkpt lat="49.05163" lon="1.49484">
        <ele>137.46214294434</ele>
        <time>2016-09-25T07:15:44.000Z</time>
      </trkpt>
      <trkpt lat="49.05173" lon="1.49489">
        <ele>137.42459106445</ele>
        <time>2016-09-25T07:15:47.000Z</time>
      </trkpt>
      <trkpt lat="49.0518" lon="1.49493">
        <ele>137.3879699707</ele>
        <time>2016-09-25T07:15:49.000Z</time>
      </trkpt>
      <trkpt lat="49.05186" lon="1.49498">
        <ele>137.3454284668</ele>
        <time>2016-09-25T07:15:51.000Z</time>
      </trkpt>
      <trkpt lat="49.05191" lon="1.49504">
        <ele>137.30673217773</ele>
        <time>2016-09-25T07:15:53.000Z</time>
      </trkpt>
      <trkpt lat="49.05201" lon="1.49513">
        <ele>137.27542114258</ele>
        <time>2016-09-25T07:15:56.000Z</time>
      </trkpt>
      <trkpt lat="49.05206" lon="1.49521">
        <ele>137.24862670898</ele>
        <time>2016-09-25T07:15:58.000Z</time>
      </trkpt>
      <trkpt lat="49.05214" lon="1.49533">
        <ele>137.22778320312</ele>
        <time>2016-09-25T07:16:01.000Z</time>
      </trkpt>
      <trkpt lat="49.05219" lon="1.4954">
        <ele>137.22932434082</ele>
        <time>2016-09-25T07:16:03.000Z</time>
      </trkpt>
      <trkpt lat="49.05227" lon="1.49551">
        <ele>137.26092529297</ele>
        <time>2016-09-25T07:16:06.000Z</time>
      </trkpt>
      <trkpt lat="49.05232" lon="1.49558">
        <ele>137.31344604492</ele>
        <time>2016-09-25T07:16:08.000Z</time>
      </trkpt>
      <trkpt lat="49.0524" lon="1.49569">
        <ele>137.40921020508</ele>
        <time>2016-09-25T07:16:11.000Z</time>
      </trkpt>
      <trkpt lat="49.05244" lon="1.49576">
        <ele>137.52847290039</ele>
        <time>2016-09-25T07:16:13.000Z</time>
      </trkpt>
      <trkpt lat="49.05249" lon="1.49582">
        <ele>137.66647338867</ele>
        <time>2016-09-25T07:16:15.000Z</time>
      </trkpt>
      <trkpt lat="49.05256" lon="1.4959">
        <ele>137.85305786133</ele>
        <time>2016-09-25T07:16:18.000Z</time>
      </trkpt>
      <trkpt lat="49.05261" lon="1.49601">
        <ele>138.10844421387</ele>
        <time>2016-09-25T07:16:21.000Z</time>
      </trkpt>
      <trkpt lat="49.05263" lon="1.49613">
        <ele>138.39945983887</ele>
        <time>2016-09-25T07:16:24.000Z</time>
      </trkpt>
      <trkpt lat="49.05264" lon="1.49621">
        <ele>138.71255493164</ele>
        <time>2016-09-25T07:16:26.000Z</time>
      </trkpt>
      <trkpt lat="49.05263" lon="1.49633">
        <ele>139.05583190918</ele>
        <time>2016-09-25T07:16:29.000Z</time>
      </trkpt>
      <trkpt lat="49.05261" lon="1.49641">
        <ele>139.3597869873</ele>
        <time>2016-09-25T07:16:31.000Z</time>
      </trkpt>
      <trkpt lat="49.05258" lon="1.49656">
        <ele>139.62789916992</ele>
        <time>2016-09-25T07:16:34.000Z</time>
      </trkpt>
      <trkpt lat="49.05257" lon="1.49666">
        <ele>139.86297607422</ele>
        <time>2016-09-25T07:16:36.000Z</time>
      </trkpt>
      <trkpt lat="49.05254" lon="1.49681">
        <ele>140.09306335449</ele>
        <time>2016-09-25T07:16:39.000Z</time>
      </trkpt>
      <trkpt lat="49.05252" lon="1.4969">
        <ele>140.28762817383</ele>
        <time>2016-09-25T07:16:41.000Z</time>
      </trkpt>
      <trkpt lat="49.05249" lon="1.49705">
        <ele>140.49948120117</ele>
        <time>2016-09-25T07:16:44.000Z</time>
      </trkpt>
      <trkpt lat="49.05248" lon="1.49716">
        <ele>140.69380187988</ele>
        <time>2016-09-25T07:16:46.000Z</time>
      </trkpt>
      <trkpt lat="49.05246" lon="1.49727">
        <ele>140.87362670898</ele>
        <time>2016-09-25T07:16:48.000Z</time>
      </trkpt>
      <trkpt lat="49.05243" lon="1.49743">
        <ele>141.05238342285</ele>
        <time>2016-09-25T07:16:51.000Z</time>
      </trkpt>
      <trkpt lat="49.0524" lon="1.49758">
        <ele>141.15188598633</ele>
        <time>2016-09-25T07:16:54.000Z</time>
      </trkpt>
      <trkpt lat="49.05238" lon="1.49767">
        <ele>141.12406921387</ele>
        <time>2016-09-25T07:16:56.000Z</time>
      </trkpt>
      <trkpt lat="49.05235" lon="1.49781">
        <ele>140.94760131836</ele>
        <time>2016-09-25T07:16:59.000Z</time>
      </trkpt>
      <trkpt lat="49.05232" lon="1.4979">
        <ele>140.66650390625</ele>
        <time>2016-09-25T07:17:01.000Z</time>
      </trkpt>
      <trkpt lat="49.0523" lon="1.49799">
        <ele>140.2702331543</ele>
        <time>2016-09-25T07:17:03.000Z</time>
      </trkpt>
      <trkpt lat="49.05226" lon="1.49813">
        <ele>139.8251953125</ele>
        <time>2016-09-25T07:17:06.000Z</time>
      </trkpt>
      <trkpt lat="49.05223" lon="1.49822">
        <ele>139.39710998535</ele>
        <time>2016-09-25T07:17:08.000Z</time>
      </trkpt>
      <trkpt lat="49.05221" lon="1.49831">
        <ele>139.03317260742</ele>
        <time>2016-09-25T07:17:10.000Z</time>
      </trkpt>
      <trkpt lat="49.05218" lon="1.49844">
        <ele>138.67623901367</ele>
        <time>2016-09-25T07:17:13.000Z</time>
      </trkpt>
      <trkpt lat="49.05219" lon="1.49854">
        <ele>138.35412597656</ele>
        <time>2016-09-25T07:17:15.000Z</time>
      </trkpt>
      <trkpt lat="49.05225" lon="1.49871">
        <ele>138.09429931641</ele>
        <time>2016-09-25T07:17:18.000Z</time>
      </trkpt>
      <trkpt lat="49.05237" lon="1.49885">
        <ele>137.87698364258</ele>
        <time>2016-09-25T07:17:21.000Z</time>
      </trkpt>
      <trkpt lat="49.05243" lon="1.49895">
        <ele>137.68380737305</ele>
        <time>2016-09-25T07:17:23.000Z</time>
      </trkpt>
      <trkpt lat="49.05251" lon="1.4991">
        <ele>137.50894165039</ele>
        <time>2016-09-25T07:17:26.000Z</time>
      </trkpt>
      <trkpt lat="49.05256" lon="1.4992">
        <ele>137.34243774414</ele>
        <time>2016-09-25T07:17:28.000Z</time>
      </trkpt>
      <trkpt lat="49.0526" lon="1.4993">
        <ele>137.21688842773</ele>
        <time>2016-09-25T07:17:30.000Z</time>
      </trkpt>
      <trkpt lat="49.05265" lon="1.49942">
        <ele>137.11050415039</ele>
        <time>2016-09-25T07:17:32.000Z</time>
      </trkpt>
      <trkpt lat="49.05274" lon="1.49957">
        <ele>137.02987670898</ele>
        <time>2016-09-25T07:17:35.000Z</time>
      </trkpt>
      <trkpt lat="49.05281" lon="1.49973">
        <ele>137</ele>
        <time>2016-09-25T07:17:38.000Z</time>
      </trkpt>
      <trkpt lat="49.0529" lon="1.49989">
        <ele>137</ele>
        <time>2016-09-25T07:17:41.000Z</time>
      </trkpt>
      <trkpt lat="49.05296" lon="1.5">
        <ele>137</ele>
        <time>2016-09-25T07:17:43.000Z</time>
      </trkpt>
      <trkpt lat="49.05303" lon="1.50017">
        <ele>137.01080322266</ele>
        <time>2016-09-25T07:17:46.000Z</time>
      </trkpt>
      <trkpt lat="49.0531" lon="1.50034">
        <ele>137.04739379883</ele>
        <time>2016-09-25T07:17:49.000Z</time>
      </trkpt>
      <trkpt lat="49.05319" lon="1.50049">
        <ele>137.12385559082</ele>
        <time>2016-09-25T07:17:52.000Z</time>
      </trkpt>
      <trkpt lat="49.05324" lon="1.50058">
        <ele>137.23332214355</ele>
        <time>2016-09-25T07:17:54.000Z</time>
      </trkpt>
      <trkpt lat="49.0533" lon="1.50073">
        <ele>137.39253234863</ele>
        <time>2016-09-25T07:17:57.000Z</time>
      </trkpt>
      <trkpt lat="49.05334" lon="1.50083">
        <ele>137.58358764648</ele>
        <time>2016-09-25T07:17:59.000Z</time>
      </trkpt>
      <trkpt lat="49.05338" lon="1.50092">
        <ele>137.82736206055</ele>
        <time>2016-09-25T07:18:01.000Z</time>
      </trkpt>
      <trkpt lat="49.05343" lon="1.50105">
        <ele>138.12702941895</ele>
        <time>2016-09-25T07:18:04.000Z</time>
      </trkpt>
      <trkpt lat="49.05348" lon="1.50116">
        <ele>138.45919799805</ele>
        <time>2016-09-25T07:18:07.000Z</time>
      </trkpt>
      <trkpt lat="49.0535" lon="1.50126">
        <ele>138.78115844727</ele>
        <time>2016-09-25T07:18:10.000Z</time>
      </trkpt>
      <trkpt lat="49.05346" lon="1.50136">
        <ele>139.07708740234</ele>
        <time>2016-09-25T07:18:13.000Z</time>
      </trkpt>
      <trkpt lat="49.05338" lon="1.50145">
        <ele>139.30499267578</ele>
        <time>2016-09-25T07:18:16.000Z</time>
      </trkpt>
      <trkpt lat="49.05327" lon="1.50157">
        <ele>139.46640014648</ele>
        <time>2016-09-25T07:18:19.000Z</time>
      </trkpt>
      <trkpt lat="49.05321" lon="1.50164">
        <ele>139.58364868164</ele>
        <time>2016-09-25T07:18:21.000Z</time>
      </trkpt>
      <trkpt lat="49.05309" lon="1.50174">
        <ele>139.63723754883</ele>
        <time>2016-09-25T07:18:24.000Z</time>
      </trkpt>
      <trkpt lat="49.05302" lon="1.50185">
        <ele>139.65400695801</ele>
        <time>2016-09-25T07:18:26.000Z</time>
      </trkpt>
      <trkpt lat="49.05293" lon="1.50198">
        <ele>139.6467590332</ele>
        <time>2016-09-25T07:18:29.000Z</time>
      </trkpt>
      <trkpt lat="49.05282" lon="1.50208">
        <ele>139.60897827148</ele>
        <time>2016-09-25T07:18:32.000Z</time>
      </trkpt>
      <trkpt lat="49.05271" lon="1.50218">
        <ele>139.56210327148</ele>
        <time>2016-09-25T07:18:35.000Z</time>
      </trkpt>
      <trkpt lat="49.0526" lon="1.50231">
        <ele>139.56922912598</ele>
        <time>2016-09-25T07:18:38.000Z</time>
      </trkpt>
      <trkpt lat="49.05251" lon="1.50243">
        <ele>139.63589477539</ele>
        <time>2016-09-25T07:18:41.000Z</time>
      </trkpt>
      <trkpt lat="49.05244" lon="1.50251">
        <ele>139.70890808105</ele>
        <time>2016-09-25T07:18:43.000Z</time>
      </trkpt>
      <trkpt lat="49.05236" lon="1.5026">
        <ele>139.74417114258</ele>
        <time>2016-09-25T07:18:45.000Z</time>
      </trkpt>
      <trkpt lat="49.05225" lon="1.50268">
        <ele>139.72372436523</ele>
        <time>2016-09-25T07:18:48.000Z</time>
      </trkpt>
      <trkpt lat="49.05219" lon="1.50277">
        <ele>139.6549987793</ele>
        <time>2016-09-25T07:18:50.000Z</time>
      </trkpt>
      <trkpt lat="49.05207" lon="1.50284">
        <ele>139.51026916504</ele>
        <time>2016-09-25T07:18:53.000Z</time>
      </trkpt>
      <trkpt lat="49.05199" lon="1.50301">
        <ele>139.36483764648</ele>
        <time>2016-09-25T07:18:56.000Z</time>
      </trkpt>
      <trkpt lat="49.0519" lon="1.50306">
        <ele>139.23934936523</ele>
        <time>2016-09-25T07:18:58.000Z</time>
      </trkpt>
      <trkpt lat="49.05175" lon="1.50315">
        <ele>139.12889099121</ele>
        <time>2016-09-25T07:19:01.000Z</time>
      </trkpt>
      <trkpt lat="49.05167" lon="1.50321">
        <ele>139.02885437012</ele>
        <time>2016-09-25T07:19:03.000Z</time>
      </trkpt>
      <trkpt lat="49.05156" lon="1.50329">
        <ele>138.90327453613</ele>
        <time>2016-09-25T07:19:06.000Z</time>
      </trkpt>
      <trkpt lat="49.0515" lon="1.50338">
        <ele>138.74478149414</ele>
        <time>2016-09-25T07:19:08.000Z</time>
      </trkpt>
      <trkpt lat="49.05138" lon="1.50348">
        <ele>138.50604248047</ele>
        <time>2016-09-25T07:19:11.000Z</time>
      </trkpt>
      <trkpt lat="49.05125" lon="1.5036">
        <ele>138.19548034668</ele>
        <time>2016-09-25T07:19:14.000Z</time>
      </trkpt>
      <trkpt lat="49.05117" lon="1.50368">
        <ele>137.83474731445</ele>
        <time>2016-09-25T07:19:16.000Z</time>
      </trkpt>
      <trkpt lat="49.05104" lon="1.50375">
        <ele>137.44873046875</ele>
        <time>2016-09-25T07:19:19.000Z</time>
      </trkpt>
      <trkpt lat="49.05095" lon="1.50379">
        <ele>137.04859924316</ele>
        <time>2016-09-25T07:19:21.000Z</time>
      </trkpt>
      <trkpt lat="49.05087" lon="1.50383">
        <ele>136.69700622559</ele>
        <time>2016-09-25T07:19:23.000Z</time>
      </trkpt>
      <trkpt lat="49.05072" lon="1.50387">
        <ele>136.40899658203</ele>
        <time>2016-09-25T07:19:26.000Z</time>
      </trkpt>
      <trkpt lat="49.05061" lon="1.50389">
        <ele>136.16079711914</ele>
        <time>2016-09-25T07:19:28.000Z</time>
      </trkpt>
      <trkpt lat="49.0505" lon="1.50393">
        <ele>135.97952270508</ele>
        <time>2016-09-25T07:19:30.000Z</time>
      </trkpt>
      <trkpt lat="49.05039" lon="1.50395">
        <ele>135.83084106445</ele>
        <time>2016-09-25T07:19:32.000Z</time>
      </trkpt>
      <trkpt lat="49.05023" lon="1.50399">
        <ele>135.69868469238</ele>
        <time>2016-09-25T07:19:35.000Z</time>
      </trkpt>
      <trkpt lat="49.05013" lon="1.504">
        <ele>135.57933044434</ele>
        <time>2016-09-25T07:19:37.000Z</time>
      </trkpt>
      <trkpt lat="49.04996" lon="1.50403">
        <ele>135.44741821289</ele>
        <time>2016-09-25T07:19:40.000Z</time>
      </trkpt>
      <trkpt lat="49.04981" lon="1.50406">
        <ele>135.32820129395</ele>
        <time>2016-09-25T07:19:43.000Z</time>
      </trkpt>
      <trkpt lat="49.04969" lon="1.5041">
        <ele>135.22402954102</ele>
        <time>2016-09-25T07:19:45.000Z</time>
      </trkpt>
      <trkpt lat="49.04952" lon="1.50416">
        <ele>135.13882446289</ele>
        <time>2016-09-25T07:19:48.000Z</time>
      </trkpt>
      <trkpt lat="49.04937" lon="1.50425">
        <ele>135.07559204102</ele>
        <time>2016-09-25T07:19:51.000Z</time>
      </trkpt>
      <trkpt lat="49.04922" lon="1.50434">
        <ele>135.04339599609</ele>
        <time>2016-09-25T07:19:54.000Z</time>
      </trkpt>
      <trkpt lat="49.04913" lon="1.50441">
        <ele>135.02322387695</ele>
        <time>2016-09-25T07:19:56.000Z</time>
      </trkpt>
      <trkpt lat="49.04898" lon="1.5045">
        <ele>135.01510620117</ele>
        <time>2016-09-25T07:19:59.000Z</time>
      </trkpt>
      <trkpt lat="49.04883" lon="1.50461">
        <ele>135.00877380371</ele>
        <time>2016-09-25T07:20:02.000Z</time>
      </trkpt>
      <trkpt lat="49.04868" lon="1.50469">
        <ele>134.97741699219</ele>
        <time>2016-09-25T07:20:05.000Z</time>
      </trkpt>
      <trkpt lat="49.04858" lon="1.50475">
        <ele>134.91938781738</ele>
        <time>2016-09-25T07:20:07.000Z</time>
      </trkpt>
      <trkpt lat="49.04848" lon="1.50481">
        <ele>134.82455444336</ele>
        <time>2016-09-25T07:20:09.000Z</time>
      </trkpt>
      <trkpt lat="49.04833" lon="1.50491">
        <ele>134.65957641602</ele>
        <time>2016-09-25T07:20:12.000Z</time>
      </trkpt>
      <trkpt lat="49.04824" lon="1.50497">
        <ele>134.52415466309</ele>
        <time>2016-09-25T07:20:14.000Z</time>
      </trkpt>
      <trkpt lat="49.04808" lon="1.50502">
        <ele>134.48071289062</ele>
        <time>2016-09-25T07:20:17.000Z</time>
      </trkpt>
      <trkpt lat="49.04794" lon="1.50509">
        <ele>134.53793334961</ele>
        <time>2016-09-25T07:20:20.000Z</time>
      </trkpt>
      <trkpt lat="49.04779" lon="1.50512">
        <ele>134.69717407227</ele>
        <time>2016-09-25T07:20:23.000Z</time>
      </trkpt>
      <trkpt lat="49.04763" lon="1.50513">
        <ele>134.99473571777</ele>
        <time>2016-09-25T07:20:26.000Z</time>
      </trkpt>
      <trkpt lat="49.04752" lon="1.50511">
        <ele>135.32656860352</ele>
        <time>2016-09-25T07:20:28.000Z</time>
      </trkpt>
      <trkpt lat="49.04736" lon="1.50509">
        <ele>135.66352844238</ele>
        <time>2016-09-25T07:20:31.000Z</time>
      </trkpt>
      <trkpt lat="49.04723" lon="1.50509">
        <ele>135.98739624023</ele>
        <time>2016-09-25T07:20:34.000Z</time>
      </trkpt>
      <trkpt lat="49.04709" lon="1.5051">
        <ele>136.30575561523</ele>
        <time>2016-09-25T07:20:37.000Z</time>
      </trkpt>
      <trkpt lat="49.04699" lon="1.5051">
        <ele>136.5922088623</ele>
        <time>2016-09-25T07:20:39.000Z</time>
      </trkpt>
      <trkpt lat="49.04685" lon="1.50512">
        <ele>136.89071655273</ele>
        <time>2016-09-25T07:20:42.000Z</time>
      </trkpt>
      <trkpt lat="49.04675" lon="1.50514">
        <ele>137.15707397461</ele>
        <time>2016-09-25T07:20:44.000Z</time>
      </trkpt>
      <trkpt lat="49.04661" lon="1.50518">
        <ele>137.37498474121</ele>
        <time>2016-09-25T07:20:47.000Z</time>
      </trkpt>
      <trkpt lat="49.04647" lon="1.50522">
        <ele>137.47595214844</ele>
        <time>2016-09-25T07:20:50.000Z</time>
      </trkpt>
      <trkpt lat="49.04637" lon="1.50524">
        <ele>137.49725341797</ele>
        <time>2016-09-25T07:20:52.000Z</time>
      </trkpt>
      <trkpt lat="49.04628" lon="1.50527">
        <ele>137.41873168945</ele>
        <time>2016-09-25T07:20:54.000Z</time>
      </trkpt>
      <trkpt lat="49.04614" lon="1.50531">
        <ele>137.24067687988</ele>
        <time>2016-09-25T07:20:57.000Z</time>
      </trkpt>
      <trkpt lat="49.046" lon="1.50537">
        <ele>136.97959899902</ele>
        <time>2016-09-25T07:21:00.000Z</time>
      </trkpt>
      <trkpt lat="49.04585" lon="1.50543">
        <ele>136.69149780273</ele>
        <time>2016-09-25T07:21:03.000Z</time>
      </trkpt>
      <trkpt lat="49.04575" lon="1.50547">
        <ele>136.43655395508</ele>
        <time>2016-09-25T07:21:05.000Z</time>
      </trkpt>
      <trkpt lat="49.04561" lon="1.50554">
        <ele>136.22004699707</ele>
        <time>2016-09-25T07:21:08.000Z</time>
      </trkpt>
      <trkpt lat="49.04546" lon="1.50559">
        <ele>136.07643127441</ele>
        <time>2016-09-25T07:21:11.000Z</time>
      </trkpt>
      <trkpt lat="49.04535" lon="1.50563">
        <ele>136.0126953125</ele>
        <time>2016-09-25T07:21:13.000Z</time>
      </trkpt>
      <trkpt lat="49.04519" lon="1.50568">
        <ele>136.04028320312</ele>
        <time>2016-09-25T07:21:16.000Z</time>
      </trkpt>
      <trkpt lat="49.04509" lon="1.50571">
        <ele>136.08538818359</ele>
        <time>2016-09-25T07:21:18.000Z</time>
      </trkpt>
      <trkpt lat="49.04493" lon="1.50577">
        <ele>136.10496520996</ele>
        <time>2016-09-25T07:21:21.000Z</time>
      </trkpt>
      <trkpt lat="49.04484" lon="1.50581">
        <ele>136.06898498535</ele>
        <time>2016-09-25T07:21:23.000Z</time>
      </trkpt>
      <trkpt lat="49.04469" lon="1.50587">
        <ele>135.96263122559</ele>
        <time>2016-09-25T07:21:26.000Z</time>
      </trkpt>
      <trkpt lat="49.04459" lon="1.5059">
        <ele>135.80221557617</ele>
        <time>2016-09-25T07:21:28.000Z</time>
      </trkpt>
      <trkpt lat="49.04449" lon="1.50594">
        <ele>135.59191894531</ele>
        <time>2016-09-25T07:21:30.000Z</time>
      </trkpt>
      <trkpt lat="49.04435" lon="1.50598">
        <ele>135.34867858887</ele>
        <time>2016-09-25T07:21:33.000Z</time>
      </trkpt>
      <trkpt lat="49.04425" lon="1.506">
        <ele>135.11785888672</ele>
        <time>2016-09-25T07:21:35.000Z</time>
      </trkpt>
      <trkpt lat="49.0441" lon="1.50605">
        <ele>134.91831970215</ele>
        <time>2016-09-25T07:21:38.000Z</time>
      </trkpt>
      <trkpt lat="49.04394" lon="1.50612">
        <ele>134.76748657227</ele>
        <time>2016-09-25T07:21:41.000Z</time>
      </trkpt>
      <trkpt lat="49.0438" lon="1.50624">
        <ele>134.63046264648</ele>
        <time>2016-09-25T07:21:44.000Z</time>
      </trkpt>
      <trkpt lat="49.04366" lon="1.50636">
        <ele>134.53016662598</ele>
        <time>2016-09-25T07:21:47.000Z</time>
      </trkpt>
      <trkpt lat="49.04356" lon="1.50642">
        <ele>134.4541015625</ele>
        <time>2016-09-25T07:21:50.000Z</time>
      </trkpt>
      <trkpt lat="49.0435" lon="1.50647">
        <ele>134.39886474609</ele>
        <time>2016-09-25T07:21:52.000Z</time>
      </trkpt>
      <trkpt lat="49.04342" lon="1.50654">
        <ele>134.32366943359</ele>
        <time>2016-09-25T07:21:55.000Z</time>
      </trkpt>
      <trkpt lat="49.04336" lon="1.50658">
        <ele>134.26611328125</ele>
        <time>2016-09-25T07:21:57.000Z</time>
      </trkpt>
      <trkpt lat="49.0433" lon="1.50662">
        <ele>134.22952270508</ele>
        <time>2016-09-25T07:21:59.000Z</time>
      </trkpt>
      <trkpt lat="49.04322" lon="1.50669">
        <ele>134.2127532959</ele>
        <time>2016-09-25T07:22:02.000Z</time>
      </trkpt>
      <trkpt lat="49.04316" lon="1.50674">
        <ele>134.22077941895</ele>
        <time>2016-09-25T07:22:04.000Z</time>
      </trkpt>
      <trkpt lat="49.04306" lon="1.5068">
        <ele>134.27059936523</ele>
        <time>2016-09-25T07:22:07.000Z</time>
      </trkpt>
      <trkpt lat="49.04296" lon="1.50686">
        <ele>134.34750366211</ele>
        <time>2016-09-25T07:22:10.000Z</time>
      </trkpt>
      <trkpt lat="49.04287" lon="1.50694">
        <ele>134.43576049805</ele>
        <time>2016-09-25T07:22:13.000Z</time>
      </trkpt>
      <trkpt lat="49.0428" lon="1.50698">
        <ele>134.51818847656</ele>
        <time>2016-09-25T07:22:15.000Z</time>
      </trkpt>
      <trkpt lat="49.04271" lon="1.50705">
        <ele>134.59384155273</ele>
        <time>2016-09-25T07:22:18.000Z</time>
      </trkpt>
      <trkpt lat="49.04265" lon="1.50709">
        <ele>134.64498901367</ele>
        <time>2016-09-25T07:22:20.000Z</time>
      </trkpt>
      <trkpt lat="49.04259" lon="1.50714">
        <ele>134.67602539062</ele>
        <time>2016-09-25T07:22:22.000Z</time>
      </trkpt>
      <trkpt lat="49.0425" lon="1.50721">
        <ele>134.69396972656</ele>
        <time>2016-09-25T07:22:25.000Z</time>
      </trkpt>
      <trkpt lat="49.0424" lon="1.50728">
        <ele>134.68768310547</ele>
        <time>2016-09-25T07:22:28.000Z</time>
      </trkpt>
      <trkpt lat="49.04234" lon="1.50732">
        <ele>134.66380310059</ele>
        <time>2016-09-25T07:22:30.000Z</time>
      </trkpt>
      <trkpt lat="49.04225" lon="1.50739">
        <ele>134.6277923584</ele>
        <time>2016-09-25T07:22:33.000Z</time>
      </trkpt>
      <trkpt lat="49.04219" lon="1.50743">
        <ele>134.58686828613</ele>
        <time>2016-09-25T07:22:35.000Z</time>
      </trkpt>
      <trkpt lat="49.04213" lon="1.50747">
        <ele>134.54541015625</ele>
        <time>2016-09-25T07:22:37.000Z</time>
      </trkpt>
      <trkpt lat="49.04207" lon="1.50752">
        <ele>134.52139282227</ele>
        <time>2016-09-25T07:22:39.000Z</time>
      </trkpt>
      <trkpt lat="49.04201" lon="1.50755">
        <ele>134.51051330566</ele>
        <time>2016-09-25T07:22:41.000Z</time>
      </trkpt>
      <trkpt lat="49.04193" lon="1.5076">
        <ele>134.51522827148</ele>
        <time>2016-09-25T07:22:44.000Z</time>
      </trkpt>
      <trkpt lat="49.04186" lon="1.50766">
        <ele>134.53039550781</ele>
        <time>2016-09-25T07:22:47.000Z</time>
      </trkpt>
      <trkpt lat="49.04181" lon="1.50769">
        <ele>134.54925537109</ele>
        <time>2016-09-25T07:22:49.000Z</time>
      </trkpt>
      <trkpt lat="49.04174" lon="1.50775">
        <ele>134.57431030273</ele>
        <time>2016-09-25T07:22:52.000Z</time>
      </trkpt>
      <trkpt lat="49.04169" lon="1.50778">
        <ele>134.5979309082</ele>
        <time>2016-09-25T07:22:54.000Z</time>
      </trkpt>
      <trkpt lat="49.04161" lon="1.50784">
        <ele>134.60681152344</ele>
        <time>2016-09-25T07:22:57.000Z</time>
      </trkpt>
      <trkpt lat="49.04156" lon="1.50787">
        <ele>134.6022644043</ele>
        <time>2016-09-25T07:22:59.000Z</time>
      </trkpt>
      <trkpt lat="49.04151" lon="1.5079">
        <ele>134.587890625</ele>
        <time>2016-09-25T07:23:01.000Z</time>
      </trkpt>
      <trkpt lat="49.04142" lon="1.50795">
        <ele>134.5544128418</ele>
        <time>2016-09-25T07:23:04.000Z</time>
      </trkpt>
      <trkpt lat="49.04136" lon="1.50799">
        <ele>134.50900268555</ele>
        <time>2016-09-25T07:23:06.000Z</time>
      </trkpt>
      <trkpt lat="49.04127" lon="1.50805">
        <ele>134.4580078125</ele>
        <time>2016-09-25T07:23:09.000Z</time>
      </trkpt>
      <trkpt lat="49.04121" lon="1.50809">
        <ele>134.40507507324</ele>
        <time>2016-09-25T07:23:11.000Z</time>
      </trkpt>
      <trkpt lat="49.04112" lon="1.50815">
        <ele>134.34553527832</ele>
        <time>2016-09-25T07:23:14.000Z</time>
      </trkpt>
      <trkpt lat="49.04106" lon="1.50819">
        <ele>134.28857421875</ele>
        <time>2016-09-25T07:23:16.000Z</time>
      </trkpt>
      <trkpt lat="49.04096" lon="1.50826">
        <ele>134.22497558594</ele>
        <time>2016-09-25T07:23:19.000Z</time>
      </trkpt>
      <trkpt lat="49.04087" lon="1.50832">
        <ele>134.15951538086</ele>
        <time>2016-09-25T07:23:22.000Z</time>
      </trkpt>
      <trkpt lat="49.04078" lon="1.50839">
        <ele>134.08770751953</ele>
        <time>2016-09-25T07:23:25.000Z</time>
      </trkpt>
      <trkpt lat="49.04073" lon="1.50842">
        <ele>134.02157592773</ele>
        <time>2016-09-25T07:23:27.000Z</time>
      </trkpt>
      <trkpt lat="49.04063" lon="1.50849">
        <ele>133.94979858398</ele>
        <time>2016-09-25T07:23:30.000Z</time>
      </trkpt>
      <trkpt lat="49.04053" lon="1.50856">
        <ele>133.8765411377</ele>
        <time>2016-09-25T07:23:33.000Z</time>
      </trkpt>
      <trkpt lat="49.04044" lon="1.50863">
        <ele>133.80319213867</ele>
        <time>2016-09-25T07:23:36.000Z</time>
      </trkpt>
      <trkpt lat="49.04037" lon="1.50867">
        <ele>133.7350769043</ele>
        <time>2016-09-25T07:23:38.000Z</time>
      </trkpt>
      <trkpt lat="49.0403" lon="1.50872">
        <ele>133.66439819336</ele>
        <time>2016-09-25T07:23:40.000Z</time>
      </trkpt>
      <trkpt lat="49.0402" lon="1.50879">
        <ele>133.59301757812</ele>
        <time>2016-09-25T07:23:43.000Z</time>
      </trkpt>
      <trkpt lat="49.04014" lon="1.50884">
        <ele>133.52676391602</ele>
        <time>2016-09-25T07:23:45.000Z</time>
      </trkpt>
      <trkpt lat="49.04004" lon="1.50891">
        <ele>133.45861816406</ele>
        <time>2016-09-25T07:23:48.000Z</time>
      </trkpt>
      <trkpt lat="49.03995" lon="1.50898">
        <ele>133.39172363281</ele>
        <time>2016-09-25T07:23:51.000Z</time>
      </trkpt>
      <trkpt lat="49.0399" lon="1.50902">
        <ele>133.33581542969</ele>
        <time>2016-09-25T07:23:53.000Z</time>
      </trkpt>
      <trkpt lat="49.03981" lon="1.50909">
        <ele>133.3000793457</ele>
        <time>2016-09-25T07:23:56.000Z</time>
      </trkpt>
      <trkpt lat="49.03976" lon="1.50914">
        <ele>133.28060913086</ele>
        <time>2016-09-25T07:23:58.000Z</time>
      </trkpt>
      <trkpt lat="49.03973" lon="1.50929">
        <ele>133.34317016602</ele>
        <time>2016-09-25T07:24:01.000Z</time>
      </trkpt>
      <trkpt lat="49.03974" lon="1.50943">
        <ele>133.48092651367</ele>
        <time>2016-09-25T07:24:04.000Z</time>
      </trkpt>
      <trkpt lat="49.03975" lon="1.50951">
        <ele>133.65377807617</ele>
        <time>2016-09-25T07:24:06.000Z</time>
      </trkpt>
      <trkpt lat="49.03974" lon="1.50957">
        <ele>133.85522460938</ele>
        <time>2016-09-25T07:24:08.000Z</time>
      </trkpt>
      <trkpt lat="49.03972" lon="1.50967">
        <ele>134.10638427734</ele>
        <time>2016-09-25T07:24:11.000Z</time>
      </trkpt>
      <trkpt lat="49.03969" lon="1.50978">
        <ele>134.35003662109</ele>
        <time>2016-09-25T07:24:14.000Z</time>
      </trkpt>
      <trkpt lat="49.03967" lon="1.50985">
        <ele>134.56597900391</ele>
        <time>2016-09-25T07:24:16.000Z</time>
      </trkpt>
      <trkpt lat="49.03965" lon="1.50991">
        <ele>134.78393554688</ele>
        <time>2016-09-25T07:24:18.000Z</time>
      </trkpt>
      <trkpt lat="49.03962" lon="1.51002">
        <ele>135.02458190918</ele>
        <time>2016-09-25T07:24:21.000Z</time>
      </trkpt>
      <trkpt lat="49.0396" lon="1.51009">
        <ele>135.24130249023</ele>
        <time>2016-09-25T07:24:23.000Z</time>
      </trkpt>
      <trkpt lat="49.03958" lon="1.51016">
        <ele>135.43127441406</ele>
        <time>2016-09-25T07:24:25.000Z</time>
      </trkpt>
      <trkpt lat="49.03955" lon="1.51027">
        <ele>135.6251373291</ele>
        <time>2016-09-25T07:24:28.000Z</time>
      </trkpt>
      <trkpt lat="49.03953" lon="1.51037">
        <ele>135.82275390625</ele>
        <time>2016-09-25T07:24:31.000Z</time>
      </trkpt>
      <trkpt lat="49.03951" lon="1.51044">
        <ele>135.99266052246</ele>
        <time>2016-09-25T07:24:33.000Z</time>
      </trkpt>
      <trkpt lat="49.03947" lon="1.51054">
        <ele>136.16999816895</ele>
        <time>2016-09-25T07:24:36.000Z</time>
      </trkpt>
      <trkpt lat="49.03944" lon="1.51065">
        <ele>136.35339355469</ele>
        <time>2016-09-25T07:24:39.000Z</time>
      </trkpt>
      <trkpt lat="49.03941" lon="1.51075">
        <ele>136.52897644043</ele>
        <time>2016-09-25T07:24:42.000Z</time>
      </trkpt>
      <trkpt lat="49.03938" lon="1.51086">
        <ele>136.69219970703</ele>
        <time>2016-09-25T07:24:45.000Z</time>
      </trkpt>
      <trkpt lat="49.03935" lon="1.51094">
        <ele>136.83932495117</ele>
        <time>2016-09-25T07:24:47.000Z</time>
      </trkpt>
      <trkpt lat="49.03932" lon="1.51104">
        <ele>136.96626281738</ele>
        <time>2016-09-25T07:24:50.000Z</time>
      </trkpt>
      <trkpt lat="49.03928" lon="1.51115">
        <ele>137.07968139648</ele>
        <time>2016-09-25T07:24:53.000Z</time>
      </trkpt>
      <trkpt lat="49.03925" lon="1.51126">
        <ele>137.18649291992</ele>
        <time>2016-09-25T07:24:56.000Z</time>
      </trkpt>
      <trkpt lat="49.03922" lon="1.51138">
        <ele>137.29914855957</ele>
        <time>2016-09-25T07:24:59.000Z</time>
      </trkpt>
      <trkpt lat="49.03919" lon="1.51147">
        <ele>137.42741394043</ele>
        <time>2016-09-25T07:25:01.000Z</time>
      </trkpt>
      <trkpt lat="49.03915" lon="1.51159">
        <ele>137.58110046387</ele>
        <time>2016-09-25T07:25:04.000Z</time>
      </trkpt>
      <trkpt lat="49.03913" lon="1.51168">
        <ele>137.74096679688</ele>
        <time>2016-09-25T07:25:06.000Z</time>
      </trkpt>
      <trkpt lat="49.0391" lon="1.51176">
        <ele>137.91934204102</ele>
        <time>2016-09-25T07:25:08.000Z</time>
      </trkpt>
      <trkpt lat="49.03907" lon="1.51184">
        <ele>138.11022949219</ele>
        <time>2016-09-25T07:25:10.000Z</time>
      </trkpt>
      <trkpt lat="49.03905" lon="1.51193">
        <ele>138.32154846191</ele>
        <time>2016-09-25T07:25:12.000Z</time>
      </trkpt>
      <trkpt lat="49.03901" lon="1.51204">
        <ele>138.55438232422</ele>
        <time>2016-09-25T07:25:15.000Z</time>
      </trkpt>
      <trkpt lat="49.03898" lon="1.51212">
        <ele>138.80065917969</ele>
        <time>2016-09-25T07:25:17.000Z</time>
      </trkpt>
      <trkpt lat="49.03894" lon="1.51218">
        <ele>139.03961181641</ele>
        <time>2016-09-25T07:25:19.000Z</time>
      </trkpt>
      <trkpt lat="49.03891" lon="1.51224">
        <ele>139.27111816406</ele>
        <time>2016-09-25T07:25:21.000Z</time>
      </trkpt>
      <trkpt lat="49.03885" lon="1.51233">
        <ele>139.51318359375</ele>
        <time>2016-09-25T07:25:24.000Z</time>
      </trkpt>
      <trkpt lat="49.03878" lon="1.51244">
        <ele>139.75836181641</ele>
        <time>2016-09-25T07:25:27.000Z</time>
      </trkpt>
      <trkpt lat="49.03873" lon="1.51255">
        <ele>139.99563598633</ele>
        <time>2016-09-25T07:25:30.000Z</time>
      </trkpt>
      <trkpt lat="49.03871" lon="1.51264">
        <ele>140.18940734863</ele>
        <time>2016-09-25T07:25:32.000Z</time>
      </trkpt>
      <trkpt lat="49.0387" lon="1.51273">
        <ele>140.33708190918</ele>
        <time>2016-09-25T07:25:34.000Z</time>
      </trkpt>
      <trkpt lat="49.03871" lon="1.51281">
        <ele>140.41716003418</ele>
        <time>2016-09-25T07:25:36.000Z</time>
      </trkpt>
      <trkpt lat="49.03874" lon="1.51295">
        <ele>140.40463256836</ele>
        <time>2016-09-25T07:25:39.000Z</time>
      </trkpt>
      <trkpt lat="49.03875" lon="1.51304">
        <ele>140.3420715332</ele>
        <time>2016-09-25T07:25:41.000Z</time>
      </trkpt>
      <trkpt lat="49.03877" lon="1.5132">
        <ele>140.25436401367</ele>
        <time>2016-09-25T07:25:44.000Z</time>
      </trkpt>
      <trkpt lat="49.0388" lon="1.51335">
        <ele>140.14514160156</ele>
        <time>2016-09-25T07:25:47.000Z</time>
      </trkpt>
      <trkpt lat="49.03881" lon="1.51346">
        <ele>140.04220581055</ele>
        <time>2016-09-25T07:25:49.000Z</time>
      </trkpt>
      <trkpt lat="49.03883" lon="1.51358">
        <ele>139.95463562012</ele>
        <time>2016-09-25T07:25:51.000Z</time>
      </trkpt>
      <trkpt lat="49.03884" lon="1.51369">
        <ele>139.87466430664</ele>
        <time>2016-09-25T07:25:53.000Z</time>
      </trkpt>
      <trkpt lat="49.03878" lon="1.5138">
        <ele>139.8515625</ele>
        <time>2016-09-25T07:25:56.000Z</time>
      </trkpt>
      <trkpt lat="49.0387" lon="1.51386">
        <ele>139.900390625</ele>
        <time>2016-09-25T07:25:58.000Z</time>
      </trkpt>
      <trkpt lat="49.03857" lon="1.51394">
        <ele>140.013671875</ele>
        <time>2016-09-25T07:26:01.000Z</time>
      </trkpt>
      <trkpt lat="49.03844" lon="1.51403">
        <ele>140.19921875</ele>
        <time>2016-09-25T07:26:04.000Z</time>
      </trkpt>
      <trkpt lat="49.03833" lon="1.51412">
        <ele>140.44012451172</ele>
        <time>2016-09-25T07:26:07.000Z</time>
      </trkpt>
      <trkpt lat="49.03825" lon="1.51418">
        <ele>140.61863708496</ele>
        <time>2016-09-25T07:26:09.000Z</time>
      </trkpt>
      <trkpt lat="49.03815" lon="1.51428">
        <ele>140.7053527832</ele>
        <time>2016-09-25T07:26:12.000Z</time>
      </trkpt>
      <trkpt lat="49.03808" lon="1.51436">
        <ele>140.69833374023</ele>
        <time>2016-09-25T07:26:14.000Z</time>
      </trkpt>
      <trkpt lat="49.03802" lon="1.51444">
        <ele>140.59754943848</ele>
        <time>2016-09-25T07:26:16.000Z</time>
      </trkpt>
      <trkpt lat="49.03792" lon="1.51455">
        <ele>140.404296875</ele>
        <time>2016-09-25T07:26:19.000Z</time>
      </trkpt>
      <trkpt lat="49.03786" lon="1.51462">
        <ele>140.21484375</ele>
        <time>2016-09-25T07:26:21.000Z</time>
      </trkpt>
      <trkpt lat="49.03776" lon="1.51473">
        <ele>140.02734375</ele>
        <time>2016-09-25T07:26:24.000Z</time>
      </trkpt>
      <trkpt lat="49.0377" lon="1.5148">
        <ele>139.84375</ele>
        <time>2016-09-25T07:26:26.000Z</time>
      </trkpt>
      <trkpt lat="49.03764" lon="1.51486">
        <ele>139.66015625</ele>
        <time>2016-09-25T07:26:28.000Z</time>
      </trkpt>
      <trkpt lat="49.03754" lon="1.51497">
        <ele>139.478515625</ele>
        <time>2016-09-25T07:26:31.000Z</time>
      </trkpt>
      <trkpt lat="49.03745" lon="1.51507">
        <ele>139.35395812988</ele>
        <time>2016-09-25T07:26:34.000Z</time>
      </trkpt>
      <trkpt lat="49.03739" lon="1.51514">
        <ele>139.32437133789</ele>
        <time>2016-09-25T07:26:36.000Z</time>
      </trkpt>
      <trkpt lat="49.0373" lon="1.51525">
        <ele>139.39694213867</ele>
        <time>2016-09-25T07:26:39.000Z</time>
      </trkpt>
      <trkpt lat="49.03724" lon="1.51532">
        <ele>139.54753112793</ele>
        <time>2016-09-25T07:26:41.000Z</time>
      </trkpt>
      <trkpt lat="49.03714" lon="1.51542">
        <ele>139.81262207031</ele>
        <time>2016-09-25T07:26:44.000Z</time>
      </trkpt>
      <trkpt lat="49.03709" lon="1.51548">
        <ele>140.09747314453</ele>
        <time>2016-09-25T07:26:46.000Z</time>
      </trkpt>
      <trkpt lat="49.03703" lon="1.51555">
        <ele>140.38067626953</ele>
        <time>2016-09-25T07:26:48.000Z</time>
      </trkpt>
      <trkpt lat="49.03698" lon="1.51563">
        <ele>140.63946533203</ele>
        <time>2016-09-25T07:26:50.000Z</time>
      </trkpt>
      <trkpt lat="49.03692" lon="1.5157">
        <ele>140.90075683594</ele>
        <time>2016-09-25T07:26:52.000Z</time>
      </trkpt>
      <trkpt lat="49.03684" lon="1.51581">
        <ele>141.16131591797</ele>
        <time>2016-09-25T07:26:55.000Z</time>
      </trkpt>
      <trkpt lat="49.03675" lon="1.51591">
        <ele>141.40786743164</ele>
        <time>2016-09-25T07:26:58.000Z</time>
      </trkpt>
      <trkpt lat="49.03667" lon="1.51601">
        <ele>141.62886047363</ele>
        <time>2016-09-25T07:27:01.000Z</time>
      </trkpt>
      <trkpt lat="49.03658" lon="1.51611">
        <ele>141.76037597656</ele>
        <time>2016-09-25T07:27:04.000Z</time>
      </trkpt>
      <trkpt lat="49.03652" lon="1.51618">
        <ele>141.8152923584</ele>
        <time>2016-09-25T07:27:06.000Z</time>
      </trkpt>
      <trkpt lat="49.03644" lon="1.51627">
        <ele>141.75839233398</ele>
        <time>2016-09-25T07:27:09.000Z</time>
      </trkpt>
      <trkpt lat="49.03635" lon="1.51635">
        <ele>141.62890625</ele>
        <time>2016-09-25T07:27:12.000Z</time>
      </trkpt>
      <trkpt lat="49.03627" lon="1.51645">
        <ele>141.4375</ele>
        <time>2016-09-25T07:27:15.000Z</time>
      </trkpt>
      <trkpt lat="49.03621" lon="1.51652">
        <ele>141.259765625</ele>
        <time>2016-09-25T07:27:17.000Z</time>
      </trkpt>
      <trkpt lat="49.03615" lon="1.51659">
        <ele>141.08203125</ele>
        <time>2016-09-25T07:27:19.000Z</time>
      </trkpt>
      <trkpt lat="49.03606" lon="1.51669">
        <ele>140.90658569336</ele>
        <time>2016-09-25T07:27:22.000Z</time>
      </trkpt>
      <trkpt lat="49.036" lon="1.51676">
        <ele>140.75602722168</ele>
        <time>2016-09-25T07:27:24.000Z</time>
      </trkpt>
      <trkpt lat="49.03592" lon="1.51685">
        <ele>140.62814331055</ele>
        <time>2016-09-25T07:27:27.000Z</time>
      </trkpt>
      <trkpt lat="49.03585" lon="1.51691">
        <ele>140.51597595215</ele>
        <time>2016-09-25T07:27:29.000Z</time>
      </trkpt>
      <trkpt lat="49.03577" lon="1.51702">
        <ele>140.44026184082</ele>
        <time>2016-09-25T07:27:32.000Z</time>
      </trkpt>
      <trkpt lat="49.03568" lon="1.51713">
        <ele>140.41551208496</ele>
        <time>2016-09-25T07:27:35.000Z</time>
      </trkpt>
      <trkpt lat="49.03563" lon="1.51719">
        <ele>140.41160583496</ele>
        <time>2016-09-25T07:27:37.000Z</time>
      </trkpt>
      <trkpt lat="49.03554" lon="1.51729">
        <ele>140.42831420898</ele>
        <time>2016-09-25T07:27:40.000Z</time>
      </trkpt>
      <trkpt lat="49.03545" lon="1.51738">
        <ele>140.45333862305</ele>
        <time>2016-09-25T07:27:43.000Z</time>
      </trkpt>
      <trkpt lat="49.03537" lon="1.51748">
        <ele>140.46200561523</ele>
        <time>2016-09-25T07:27:46.000Z</time>
      </trkpt>
      <trkpt lat="49.03527" lon="1.51758">
        <ele>140.43132019043</ele>
        <time>2016-09-25T07:27:49.000Z</time>
      </trkpt>
      <trkpt lat="49.03521" lon="1.51764">
        <ele>140.37112426758</ele>
        <time>2016-09-25T07:27:51.000Z</time>
      </trkpt>
      <trkpt lat="49.03516" lon="1.51771">
        <ele>140.28028869629</ele>
        <time>2016-09-25T07:27:53.000Z</time>
      </trkpt>
      <trkpt lat="49.03507" lon="1.51781">
        <ele>140.14100646973</ele>
        <time>2016-09-25T07:27:56.000Z</time>
      </trkpt>
      <trkpt lat="49.03501" lon="1.51787">
        <ele>139.96917724609</ele>
        <time>2016-09-25T07:27:58.000Z</time>
      </trkpt>
      <trkpt lat="49.03496" lon="1.51794">
        <ele>139.81031799316</ele>
        <time>2016-09-25T07:28:00.000Z</time>
      </trkpt>
      <trkpt lat="49.0349" lon="1.518">
        <ele>139.66981506348</ele>
        <time>2016-09-25T07:28:02.000Z</time>
      </trkpt>
      <trkpt lat="49.03482" lon="1.5181">
        <ele>139.55142211914</ele>
        <time>2016-09-25T07:28:05.000Z</time>
      </trkpt>
      <trkpt lat="49.03476" lon="1.51816">
        <ele>139.48432922363</ele>
        <time>2016-09-25T07:28:07.000Z</time>
      </trkpt>
      <trkpt lat="49.03468" lon="1.51826">
        <ele>139.45845031738</ele>
        <time>2016-09-25T07:28:10.000Z</time>
      </trkpt>
      <trkpt lat="49.0346" lon="1.51835">
        <ele>139.45585632324</ele>
        <time>2016-09-25T07:28:13.000Z</time>
      </trkpt>
      <trkpt lat="49.03452" lon="1.51844">
        <ele>139.48901367188</ele>
        <time>2016-09-25T07:28:16.000Z</time>
      </trkpt>
      <trkpt lat="49.03443" lon="1.51852">
        <ele>139.55206298828</ele>
        <time>2016-09-25T07:28:19.000Z</time>
      </trkpt>
      <trkpt lat="49.03434" lon="1.51861">
        <ele>139.63729858398</ele>
        <time>2016-09-25T07:28:22.000Z</time>
      </trkpt>
      <trkpt lat="49.03425" lon="1.51872">
        <ele>139.73789978027</ele>
        <time>2016-09-25T07:28:25.000Z</time>
      </trkpt>
      <trkpt lat="49.03416" lon="1.51882">
        <ele>139.83836364746</ele>
        <time>2016-09-25T07:28:28.000Z</time>
      </trkpt>
      <trkpt lat="49.03407" lon="1.51892">
        <ele>139.89407348633</ele>
        <time>2016-09-25T07:28:31.000Z</time>
      </trkpt>
      <trkpt lat="49.03398" lon="1.51902">
        <ele>139.9055480957</ele>
        <time>2016-09-25T07:28:34.000Z</time>
      </trkpt>
      <trkpt lat="49.03389" lon="1.51911">
        <ele>139.8709564209</ele>
        <time>2016-09-25T07:28:37.000Z</time>
      </trkpt>
      <trkpt lat="49.0338" lon="1.51921">
        <ele>139.79763793945</ele>
        <time>2016-09-25T07:28:40.000Z</time>
      </trkpt>
      <trkpt lat="49.03374" lon="1.51928">
        <ele>139.71028137207</ele>
        <time>2016-09-25T07:28:42.000Z</time>
      </trkpt>
      <trkpt lat="49.03366" lon="1.51937">
        <ele>139.63513183594</ele>
        <time>2016-09-25T07:28:45.000Z</time>
      </trkpt>
      <trkpt lat="49.03361" lon="1.51943">
        <ele>139.5803527832</ele>
        <time>2016-09-25T07:28:47.000Z</time>
      </trkpt>
      <trkpt lat="49.03355" lon="1.51949">
        <ele>139.55160522461</ele>
        <time>2016-09-25T07:28:49.000Z</time>
      </trkpt>
      <trkpt lat="49.03347" lon="1.51958">
        <ele>139.55120849609</ele>
        <time>2016-09-25T07:28:52.000Z</time>
      </trkpt>
      <trkpt lat="49.03338" lon="1.51968">
        <ele>139.56689453125</ele>
        <time>2016-09-25T07:28:55.000Z</time>
      </trkpt>
      <trkpt lat="49.03332" lon="1.51974">
        <ele>139.59907531738</ele>
        <time>2016-09-25T07:28:57.000Z</time>
      </trkpt>
      <trkpt lat="49.03324" lon="1.51984">
        <ele>139.67265319824</ele>
        <time>2016-09-25T07:29:00.000Z</time>
      </trkpt>
      <trkpt lat="49.03315" lon="1.51994">
        <ele>139.78959655762</ele>
        <time>2016-09-25T07:29:03.000Z</time>
      </trkpt>
      <trkpt lat="49.0331" lon="1.52001">
        <ele>139.93103027344</ele>
        <time>2016-09-25T07:29:05.000Z</time>
      </trkpt>
      <trkpt lat="49.03302" lon="1.52009">
        <ele>140.10243225098</ele>
        <time>2016-09-25T07:29:08.000Z</time>
      </trkpt>
      <trkpt lat="49.03293" lon="1.52019">
        <ele>140.3059387207</ele>
        <time>2016-09-25T07:29:11.000Z</time>
      </trkpt>
      <trkpt lat="49.03287" lon="1.52026">
        <ele>140.49905395508</ele>
        <time>2016-09-25T07:29:13.000Z</time>
      </trkpt>
      <trkpt lat="49.03279" lon="1.52038">
        <ele>140.69332885742</ele>
        <time>2016-09-25T07:29:16.000Z</time>
      </trkpt>
      <trkpt lat="49.03276" lon="1.52047">
        <ele>140.88887023926</ele>
        <time>2016-09-25T07:29:18.000Z</time>
      </trkpt>
      <trkpt lat="49.03274" lon="1.52066">
        <ele>141.09140014648</ele>
        <time>2016-09-25T07:29:21.000Z</time>
      </trkpt>
      <trkpt lat="49.03273" lon="1.52079">
        <ele>141.28092956543</ele>
        <time>2016-09-25T07:29:23.000Z</time>
      </trkpt>
      <trkpt lat="49.03273" lon="1.52098">
        <ele>141.41436767578</ele>
        <time>2016-09-25T07:29:26.000Z</time>
      </trkpt>
      <trkpt lat="49.03273" lon="1.52111">
        <ele>141.47128295898</ele>
        <time>2016-09-25T07:29:28.000Z</time>
      </trkpt>
      <trkpt lat="49.03272" lon="1.52131">
        <ele>141.4501953125</ele>
        <time>2016-09-25T07:29:31.000Z</time>
      </trkpt>
      <trkpt lat="49.03272" lon="1.52144">
        <ele>141.35021972656</ele>
        <time>2016-09-25T07:29:33.000Z</time>
      </trkpt>
      <trkpt lat="49.03271" lon="1.52163">
        <ele>141.17465209961</ele>
        <time>2016-09-25T07:29:36.000Z</time>
      </trkpt>
      <trkpt lat="49.03271" lon="1.5218">
        <ele>141.0475769043</ele>
        <time>2016-09-25T07:29:39.000Z</time>
      </trkpt>
      <trkpt lat="49.0327" lon="1.52198">
        <ele>140.99580383301</ele>
        <time>2016-09-25T07:29:42.000Z</time>
      </trkpt>
      <trkpt lat="49.0327" lon="1.5221">
        <ele>141.0205078125</ele>
        <time>2016-09-25T07:29:44.000Z</time>
      </trkpt>
      <trkpt lat="49.03269" lon="1.52221">
        <ele>141.10470581055</ele>
        <time>2016-09-25T07:29:46.000Z</time>
      </trkpt>
      <trkpt lat="49.03269" lon="1.52238">
        <ele>141.27294921875</ele>
        <time>2016-09-25T07:29:49.000Z</time>
      </trkpt>
      <trkpt lat="49.03269" lon="1.52248">
        <ele>141.4430847168</ele>
        <time>2016-09-25T07:29:51.000Z</time>
      </trkpt>
      <trkpt lat="49.03269" lon="1.52257">
        <ele>141.56889343262</ele>
        <time>2016-09-25T07:29:53.000Z</time>
      </trkpt>
      <trkpt lat="49.03269" lon="1.52263">
        <ele>141.65969848633</ele>
        <time>2016-09-25T07:29:55.000Z</time>
      </trkpt>
      <trkpt lat="49.0327" lon="1.52269">
        <ele>141.71769714355</ele>
        <time>2016-09-25T07:29:58.000Z</time>
      </trkpt>
      <trkpt lat="49.0327" lon="1.52269">
        <ele>141.71769714355</ele>
        <time>2016-09-25T07:30:08.000Z</time>
      </trkpt>
      <trkpt lat="49.0327" lon="1.52267">
        <ele>141.73329162598</ele>
        <time>2016-09-25T07:30:10.000Z</time>
      </trkpt>
      <trkpt lat="49.0327" lon="1.52267">
        <ele>141.73329162598</ele>
        <time>2016-09-25T07:30:20.000Z</time>
      </trkpt>
      <trkpt lat="49.0327" lon="1.52268">
        <ele>141.72579956055</ele>
        <time>2016-09-25T07:31:15.000Z</time>
      </trkpt>
      <trkpt lat="49.03268" lon="1.52268">
        <ele>141.72105407715</ele>
        <time>2016-09-25T07:31:29.000Z</time>
      </trkpt>
      <trkpt lat="49.03268" lon="1.52268">
        <ele>141.72105407715</ele>
        <time>2016-09-25T07:31:49.000Z</time>
      </trkpt>
      <trkpt lat="49.0327" lon="1.5227">
        <ele>141.71485900879</ele>
        <time>2016-09-25T07:32:57.000Z</time>
      </trkpt>
      <trkpt lat="49.03269" lon="1.52271">
        <ele>141.71614074707</ele>
        <time>2016-09-25T07:33:04.000Z</time>
      </trkpt>
      <trkpt lat="49.03268" lon="1.52272">
        <ele>141.71963500977</ele>
        <time>2016-09-25T07:33:11.000Z</time>
      </trkpt>
      <trkpt lat="49.03267" lon="1.52272">
        <ele>141.72360229492</ele>
        <time>2016-09-25T07:33:18.000Z</time>
      </trkpt>
      <trkpt lat="49.03267" lon="1.52277">
        <ele>141.72262573242</ele>
        <time>2016-09-25T07:33:20.000Z</time>
      </trkpt>
      <trkpt lat="49.03267" lon="1.5229">
        <ele>141.72119140625</ele>
        <time>2016-09-25T07:33:23.000Z</time>
      </trkpt>
      <trkpt lat="49.03269" lon="1.52305">
        <ele>141.70292663574</ele>
        <time>2016-09-25T07:33:26.000Z</time>
      </trkpt>
      <trkpt lat="49.03271" lon="1.52317">
        <ele>141.66897583008</ele>
        <time>2016-09-25T07:33:28.000Z</time>
      </trkpt>
      <trkpt lat="49.03274" lon="1.52335">
        <ele>141.60209655762</ele>
        <time>2016-09-25T07:33:31.000Z</time>
      </trkpt>
      <trkpt lat="49.03276" lon="1.52348">
        <ele>141.49819946289</ele>
        <time>2016-09-25T07:33:33.000Z</time>
      </trkpt>
      <trkpt lat="49.03279" lon="1.52369">
        <ele>141.33027648926</ele>
        <time>2016-09-25T07:33:36.000Z</time>
      </trkpt>
      <trkpt lat="49.03281" lon="1.52382">
        <ele>141.13972473145</ele>
        <time>2016-09-25T07:33:38.000Z</time>
      </trkpt>
      <trkpt lat="49.03282" lon="1.52397">
        <ele>140.92321777344</ele>
        <time>2016-09-25T07:33:40.000Z</time>
      </trkpt>
      <trkpt lat="49.03283" lon="1.52414">
        <ele>140.6909942627</ele>
        <time>2016-09-25T07:33:43.000Z</time>
      </trkpt>
      <trkpt lat="49.03283" lon="1.52427">
        <ele>140.44834899902</ele>
        <time>2016-09-25T07:33:45.000Z</time>
      </trkpt>
      <trkpt lat="49.03282" lon="1.52438">
        <ele>140.2269744873</ele>
        <time>2016-09-25T07:33:47.000Z</time>
      </trkpt>
      <trkpt lat="49.03281" lon="1.52452">
        <ele>139.9826965332</ele>
        <time>2016-09-25T07:33:50.000Z</time>
      </trkpt>
      <trkpt lat="49.03279" lon="1.52462">
        <ele>139.73538208008</ele>
        <time>2016-09-25T07:33:52.000Z</time>
      </trkpt>
      <trkpt lat="49.03279" lon="1.52478">
        <ele>139.45997619629</ele>
        <time>2016-09-25T07:33:55.000Z</time>
      </trkpt>
      <trkpt lat="49.03279" lon="1.52494">
        <ele>139.15866088867</ele>
        <time>2016-09-25T07:33:58.000Z</time>
      </trkpt>
      <trkpt lat="49.03279" lon="1.52504">
        <ele>138.87657165527</ele>
        <time>2016-09-25T07:34:00.000Z</time>
      </trkpt>
      <trkpt lat="49.03279" lon="1.52516">
        <ele>138.64225769043</ele>
        <time>2016-09-25T07:34:03.000Z</time>
      </trkpt>
      <trkpt lat="49.03278" lon="1.52531">
        <ele>138.43832397461</ele>
        <time>2016-09-25T07:34:06.000Z</time>
      </trkpt>
      <trkpt lat="49.03277" lon="1.52549">
        <ele>138.29217529297</ele>
        <time>2016-09-25T07:34:09.000Z</time>
      </trkpt>
      <trkpt lat="49.03276" lon="1.5256">
        <ele>138.2116394043</ele>
        <time>2016-09-25T07:34:11.000Z</time>
      </trkpt>
      <trkpt lat="49.03275" lon="1.5257">
        <ele>138.1530456543</ele>
        <time>2016-09-25T07:34:13.000Z</time>
      </trkpt>
      <trkpt lat="49.03274" lon="1.5258">
        <ele>138.09823608398</ele>
        <time>2016-09-25T07:34:15.000Z</time>
      </trkpt>
      <trkpt lat="49.03272" lon="1.52592">
        <ele>138.02903747559</ele>
        <time>2016-09-25T07:34:17.000Z</time>
      </trkpt>
      <trkpt lat="49.03269" lon="1.52611">
        <ele>137.92211914062</ele>
        <time>2016-09-25T07:34:20.000Z</time>
      </trkpt>
      <trkpt lat="49.03266" lon="1.52629">
        <ele>137.77420043945</ele>
        <time>2016-09-25T07:34:23.000Z</time>
      </trkpt>
      <trkpt lat="49.03264" lon="1.52641">
        <ele>137.60330200195</ele>
        <time>2016-09-25T07:34:25.000Z</time>
      </trkpt>
      <trkpt lat="49.03262" lon="1.52654">
        <ele>137.40811157227</ele>
        <time>2016-09-25T07:34:27.000Z</time>
      </trkpt>
      <trkpt lat="49.03258" lon="1.52674">
        <ele>137.18316650391</ele>
        <time>2016-09-25T07:34:30.000Z</time>
      </trkpt>
      <trkpt lat="49.03255" lon="1.52688">
        <ele>136.95053100586</ele>
        <time>2016-09-25T07:34:32.000Z</time>
      </trkpt>
      <trkpt lat="49.03252" lon="1.52708">
        <ele>136.67851257324</ele>
        <time>2016-09-25T07:34:35.000Z</time>
      </trkpt>
      <trkpt lat="49.0325" lon="1.52721">
        <ele>136.37854003906</ele>
        <time>2016-09-25T07:34:37.000Z</time>
      </trkpt>
      <trkpt lat="49.03247" lon="1.52742">
        <ele>136.01164245605</ele>
        <time>2016-09-25T07:34:40.000Z</time>
      </trkpt>
      <trkpt lat="49.03245" lon="1.52755">
        <ele>135.62350463867</ele>
        <time>2016-09-25T07:34:42.000Z</time>
      </trkpt>
      <trkpt lat="49.03242" lon="1.5277">
        <ele>135.19111633301</ele>
        <time>2016-09-25T07:34:44.000Z</time>
      </trkpt>
      <trkpt lat="49.03239" lon="1.52791">
        <ele>134.6975402832</ele>
        <time>2016-09-25T07:34:47.000Z</time>
      </trkpt>
      <trkpt lat="49.03237" lon="1.52805">
        <ele>134.16000366211</ele>
        <time>2016-09-25T07:34:49.000Z</time>
      </trkpt>
      <trkpt lat="49.03234" lon="1.52819">
        <ele>133.62322998047</ele>
        <time>2016-09-25T07:34:51.000Z</time>
      </trkpt>
      <trkpt lat="49.03231" lon="1.52839">
        <ele>133.04248046875</ele>
        <time>2016-09-25T07:34:54.000Z</time>
      </trkpt>
      <trkpt lat="49.03228" lon="1.52853">
        <ele>132.51754760742</ele>
        <time>2016-09-25T07:34:56.000Z</time>
      </trkpt>
      <trkpt lat="49.03222" lon="1.52876">
        <ele>132.07865905762</ele>
        <time>2016-09-25T07:34:59.000Z</time>
      </trkpt>
      <trkpt lat="49.03218" lon="1.52891">
        <ele>131.70510864258</ele>
        <time>2016-09-25T07:35:01.000Z</time>
      </trkpt>
      <trkpt lat="49.03212" lon="1.52915">
        <ele>131.39068603516</ele>
        <time>2016-09-25T07:35:04.000Z</time>
      </trkpt>
      <trkpt lat="49.03204" lon="1.52936">
        <ele>131.22543334961</ele>
        <time>2016-09-25T07:35:07.000Z</time>
      </trkpt>
      <trkpt lat="49.03196" lon="1.52956">
        <ele>131.12670898438</ele>
        <time>2016-09-25T07:35:10.000Z</time>
      </trkpt>
      <trkpt lat="49.03191" lon="1.52969">
        <ele>131.0938873291</ele>
        <time>2016-09-25T07:35:12.000Z</time>
      </trkpt>
      <trkpt lat="49.03183" lon="1.52989">
        <ele>131.08296203613</ele>
        <time>2016-09-25T07:35:15.000Z</time>
      </trkpt>
      <trkpt lat="49.03175" lon="1.53007">
        <ele>131.07661437988</ele>
        <time>2016-09-25T07:35:18.000Z</time>
      </trkpt>
      <trkpt lat="49.0317" lon="1.5302">
        <ele>131.01309204102</ele>
        <time>2016-09-25T07:35:20.000Z</time>
      </trkpt>
      <trkpt lat="49.03165" lon="1.53031">
        <ele>130.9132232666</ele>
        <time>2016-09-25T07:35:22.000Z</time>
      </trkpt>
      <trkpt lat="49.03158" lon="1.53048">
        <ele>130.79806518555</ele>
        <time>2016-09-25T07:35:25.000Z</time>
      </trkpt>
      <trkpt lat="49.03153" lon="1.5306">
        <ele>130.69438171387</ele>
        <time>2016-09-25T07:35:28.000Z</time>
      </trkpt>
      <trkpt lat="49.03151" lon="1.53066">
        <ele>130.6222076416</ele>
        <time>2016-09-25T07:35:30.000Z</time>
      </trkpt>
      <trkpt lat="49.03148" lon="1.53071">
        <ele>130.58195495605</ele>
        <time>2016-09-25T07:35:32.000Z</time>
      </trkpt>
      <trkpt lat="49.03144" lon="1.53082">
        <ele>130.56204223633</ele>
        <time>2016-09-25T07:35:35.000Z</time>
      </trkpt>
      <trkpt lat="49.03138" lon="1.53094">
        <ele>130.5904083252</ele>
        <time>2016-09-25T07:35:38.000Z</time>
      </trkpt>
      <trkpt lat="49.0313" lon="1.53105">
        <ele>130.65884399414</ele>
        <time>2016-09-25T07:35:41.000Z</time>
      </trkpt>
      <trkpt lat="49.03125" lon="1.53113">
        <ele>130.74993896484</ele>
        <time>2016-09-25T07:35:43.000Z</time>
      </trkpt>
      <trkpt lat="49.03119" lon="1.53121">
        <ele>130.85382080078</ele>
        <time>2016-09-25T07:35:45.000Z</time>
      </trkpt>
      <trkpt lat="49.03114" lon="1.53129">
        <ele>130.96711730957</ele>
        <time>2016-09-25T07:35:47.000Z</time>
      </trkpt>
      <trkpt lat="49.03108" lon="1.53138">
        <ele>131.05053710938</ele>
        <time>2016-09-25T07:35:49.000Z</time>
      </trkpt>
      <trkpt lat="49.03099" lon="1.53151">
        <ele>131.09371948242</ele>
        <time>2016-09-25T07:35:52.000Z</time>
      </trkpt>
      <trkpt lat="49.0309" lon="1.53165">
        <ele>131.09657287598</ele>
        <time>2016-09-25T07:35:55.000Z</time>
      </trkpt>
      <trkpt lat="49.03083" lon="1.53174">
        <ele>131.04611206055</ele>
        <time>2016-09-25T07:35:57.000Z</time>
      </trkpt>
      <trkpt lat="49.03074" lon="1.53188">
        <ele>130.92436218262</ele>
        <time>2016-09-25T07:36:00.000Z</time>
      </trkpt>
      <trkpt lat="49.03064" lon="1.53203">
        <ele>130.74270629883</ele>
        <time>2016-09-25T07:36:03.000Z</time>
      </trkpt>
      <trkpt lat="49.03054" lon="1.53216">
        <ele>130.52346801758</ele>
        <time>2016-09-25T07:36:06.000Z</time>
      </trkpt>
      <trkpt lat="49.03045" lon="1.53229">
        <ele>130.28987121582</ele>
        <time>2016-09-25T07:36:09.000Z</time>
      </trkpt>
      <trkpt lat="49.03035" lon="1.53241">
        <ele>130.07131958008</ele>
        <time>2016-09-25T07:36:12.000Z</time>
      </trkpt>
      <trkpt lat="49.03026" lon="1.53253">
        <ele>129.90371704102</ele>
        <time>2016-09-25T07:36:15.000Z</time>
      </trkpt>
      <trkpt lat="49.0302" lon="1.53261">
        <ele>129.8031463623</ele>
        <time>2016-09-25T07:36:17.000Z</time>
      </trkpt>
      <trkpt lat="49.03014" lon="1.5327">
        <ele>129.7575378418</ele>
        <time>2016-09-25T07:36:19.000Z</time>
      </trkpt>
      <trkpt lat="49.03007" lon="1.53279">
        <ele>129.76431274414</ele>
        <time>2016-09-25T07:36:21.000Z</time>
      </trkpt>
      <trkpt lat="49.03001" lon="1.53288">
        <ele>129.81533813477</ele>
        <time>2016-09-25T07:36:23.000Z</time>
      </trkpt>
      <trkpt lat="49.02992" lon="1.533">
        <ele>129.88751220703</ele>
        <time>2016-09-25T07:36:26.000Z</time>
      </trkpt>
      <trkpt lat="49.02984" lon="1.53311">
        <ele>129.95149230957</ele>
        <time>2016-09-25T07:36:29.000Z</time>
      </trkpt>
      <trkpt lat="49.02979" lon="1.53318">
        <ele>130.00137329102</ele>
        <time>2016-09-25T07:36:31.000Z</time>
      </trkpt>
      <trkpt lat="49.02973" lon="1.53325">
        <ele>130.03038024902</ele>
        <time>2016-09-25T07:36:33.000Z</time>
      </trkpt>
      <trkpt lat="49.02965" lon="1.53336">
        <ele>130.02610778809</ele>
        <time>2016-09-25T07:36:36.000Z</time>
      </trkpt>
      <trkpt lat="49.02957" lon="1.53347">
        <ele>129.9875793457</ele>
        <time>2016-09-25T07:36:39.000Z</time>
      </trkpt>
      <trkpt lat="49.02951" lon="1.53354">
        <ele>129.93649291992</ele>
        <time>2016-09-25T07:36:41.000Z</time>
      </trkpt>
      <trkpt lat="49.02943" lon="1.53364">
        <ele>129.87936401367</ele>
        <time>2016-09-25T07:36:44.000Z</time>
      </trkpt>
      <trkpt lat="49.02938" lon="1.53371">
        <ele>129.82629394531</ele>
        <time>2016-09-25T07:36:46.000Z</time>
      </trkpt>
      <trkpt lat="49.0293" lon="1.53381">
        <ele>129.79556274414</ele>
        <time>2016-09-25T07:36:49.000Z</time>
      </trkpt>
      <trkpt lat="49.02923" lon="1.53392">
        <ele>129.80491638184</ele>
        <time>2016-09-25T07:36:52.000Z</time>
      </trkpt>
      <trkpt lat="49.02916" lon="1.53402">
        <ele>129.84945678711</ele>
        <time>2016-09-25T07:36:55.000Z</time>
      </trkpt>
      <trkpt lat="49.02911" lon="1.53409">
        <ele>129.92245483398</ele>
        <time>2016-09-25T07:36:57.000Z</time>
      </trkpt>
      <trkpt lat="49.02907" lon="1.53415">
        <ele>130.01611328125</ele>
        <time>2016-09-25T07:36:59.000Z</time>
      </trkpt>
      <trkpt lat="49.02903" lon="1.5342">
        <ele>130.10134887695</ele>
        <time>2016-09-25T07:37:01.000Z</time>
      </trkpt>
      <trkpt lat="49.02899" lon="1.53426">
        <ele>130.16371154785</ele>
        <time>2016-09-25T07:37:03.000Z</time>
      </trkpt>
      <trkpt lat="49.02892" lon="1.53434">
        <ele>130.19718933105</ele>
        <time>2016-09-25T07:37:06.000Z</time>
      </trkpt>
      <trkpt lat="49.02883" lon="1.53444">
        <ele>130.20272827148</ele>
        <time>2016-09-25T07:37:09.000Z</time>
      </trkpt>
      <trkpt lat="49.02877" lon="1.53452">
        <ele>130.17651367188</ele>
        <time>2016-09-25T07:37:11.000Z</time>
      </trkpt>
      <trkpt lat="49.02868" lon="1.53466">
        <ele>130.12799072266</ele>
        <time>2016-09-25T07:37:14.000Z</time>
      </trkpt>
      <trkpt lat="49.02859" lon="1.53478">
        <ele>130.06823730469</ele>
        <time>2016-09-25T07:37:17.000Z</time>
      </trkpt>
      <trkpt lat="49.02853" lon="1.53487">
        <ele>129.99835205078</ele>
        <time>2016-09-25T07:37:19.000Z</time>
      </trkpt>
      <trkpt lat="49.02845" lon="1.53498">
        <ele>129.91986083984</ele>
        <time>2016-09-25T07:37:22.000Z</time>
      </trkpt>
      <trkpt lat="49.02837" lon="1.53507">
        <ele>129.89765930176</ele>
        <time>2016-09-25T07:37:25.000Z</time>
      </trkpt>
      <trkpt lat="49.02833" lon="1.53514">
        <ele>129.93211364746</ele>
        <time>2016-09-25T07:37:27.000Z</time>
      </trkpt>
      <trkpt lat="49.02826" lon="1.53521">
        <ele>129.99661254883</ele>
        <time>2016-09-25T07:37:30.000Z</time>
      </trkpt>
      <trkpt lat="49.0282" lon="1.53529">
        <ele>130.08755493164</ele>
        <time>2016-09-25T07:37:33.000Z</time>
      </trkpt>
      <trkpt lat="49.02822" lon="1.53535">
        <ele>130.20791625977</ele>
        <time>2016-09-25T07:37:36.000Z</time>
      </trkpt>
      <trkpt lat="49.02826" lon="1.53535">
        <ele>130.28547668457</ele>
        <time>2016-09-25T07:37:38.000Z</time>
      </trkpt>
      <trkpt lat="49.02828" lon="1.53533">
        <ele>130.32592773438</ele>
        <time>2016-09-25T07:37:40.000Z</time>
      </trkpt>
      <trkpt lat="49.02829" lon="1.5353">
        <ele>130.34878540039</ele>
        <time>2016-09-25T07:37:43.000Z</time>
      </trkpt>
      <trkpt lat="49.02829" lon="1.5353">
        <ele>130.34878540039</ele>
        <time>2016-09-25T07:38:03.000Z</time>
      </trkpt>
      <trkpt lat="49.02831" lon="1.53523">
        <ele>130.34526062012</ele>
        <time>2016-09-25T07:38:04.000Z</time>
      </trkpt>
      <trkpt lat="49.02833" lon="1.53524">
        <ele>130.33044433594</ele>
        <time>2016-09-25T07:38:06.000Z</time>
      </trkpt>
      <trkpt lat="49.02832" lon="1.53522">
        <ele>130.30706787109</ele>
        <time>2016-09-25T07:38:20.000Z</time>
      </trkpt>
      <trkpt lat="49.02832" lon="1.53521">
        <ele>130.28182983398</ele>
        <time>2016-09-25T07:38:26.000Z</time>
      </trkpt>
      <trkpt lat="49.02831" lon="1.53517">
        <ele>130.2536315918</ele>
        <time>2016-09-25T07:38:29.000Z</time>
      </trkpt>
      <trkpt lat="49.0283" lon="1.53518">
        <ele>130.23910522461</ele>
        <time>2016-09-25T07:38:38.000Z</time>
      </trkpt>
      <trkpt lat="49.02829" lon="1.5352">
        <ele>130.22640991211</ele>
        <time>2016-09-25T07:38:40.000Z</time>
      </trkpt>
      <trkpt lat="49.02829" lon="1.53526">
        <ele>130.23373413086</ele>
        <time>2016-09-25T07:38:43.000Z</time>
      </trkpt>
      <trkpt lat="49.02832" lon="1.53538">
        <ele>130.27432250977</ele>
        <time>2016-09-25T07:38:46.000Z</time>
      </trkpt>
      <trkpt lat="49.02836" lon="1.53545">
        <ele>130.32998657227</ele>
        <time>2016-09-25T07:38:48.000Z</time>
      </trkpt>
      <trkpt lat="49.02841" lon="1.53553">
        <ele>130.38056945801</ele>
        <time>2016-09-25T07:38:50.000Z</time>
      </trkpt>
      <trkpt lat="49.02847" lon="1.53565">
        <ele>130.42449951172</ele>
        <time>2016-09-25T07:38:53.000Z</time>
      </trkpt>
      <trkpt lat="49.02854" lon="1.5358">
        <ele>130.45834350586</ele>
        <time>2016-09-25T07:38:56.000Z</time>
      </trkpt>
      <trkpt lat="49.02857" lon="1.53592">
        <ele>130.45095825195</ele>
        <time>2016-09-25T07:38:58.000Z</time>
      </trkpt>
      <trkpt lat="49.0286" lon="1.53611">
        <ele>130.40808105469</ele>
        <time>2016-09-25T07:39:01.000Z</time>
      </trkpt>
      <trkpt lat="49.0286" lon="1.53633">
        <ele>130.3528137207</ele>
        <time>2016-09-25T07:39:04.000Z</time>
      </trkpt>
      <trkpt lat="49.02865" lon="1.53652">
        <ele>130.24942016602</ele>
        <time>2016-09-25T07:39:07.000Z</time>
      </trkpt>
      <trkpt lat="49.02865" lon="1.53667">
        <ele>130.1259765625</ele>
        <time>2016-09-25T07:39:09.000Z</time>
      </trkpt>
      <trkpt lat="49.02866" lon="1.53687">
        <ele>129.96260070801</ele>
        <time>2016-09-25T07:39:12.000Z</time>
      </trkpt>
      <trkpt lat="49.02866" lon="1.53696">
        <ele>129.80270385742</ele>
        <time>2016-09-25T07:39:14.000Z</time>
      </trkpt>
      <trkpt lat="49.02868" lon="1.53718">
        <ele>129.59329223633</ele>
        <time>2016-09-25T07:39:17.000Z</time>
      </trkpt>
      <trkpt lat="49.02868" lon="1.53734">
        <ele>129.40141296387</ele>
        <time>2016-09-25T07:39:19.000Z</time>
      </trkpt>
      <trkpt lat="49.02871" lon="1.53746">
        <ele>129.16775512695</ele>
        <time>2016-09-25T07:39:21.000Z</time>
      </trkpt>
      <trkpt lat="49.02874" lon="1.5376">
        <ele>128.92184448242</ele>
        <time>2016-09-25T07:39:23.000Z</time>
      </trkpt>
      <trkpt lat="49.02879" lon="1.53777">
        <ele>128.61500549316</ele>
        <time>2016-09-25T07:39:26.000Z</time>
      </trkpt>
      <trkpt lat="49.02884" lon="1.53791">
        <ele>128.30972290039</ele>
        <time>2016-09-25T07:39:28.000Z</time>
      </trkpt>
      <trkpt lat="49.02891" lon="1.53808">
        <ele>127.97319030762</ele>
        <time>2016-09-25T07:39:31.000Z</time>
      </trkpt>
      <trkpt lat="49.02898" lon="1.53827">
        <ele>127.64603424072</ele>
        <time>2016-09-25T07:39:34.000Z</time>
      </trkpt>
      <trkpt lat="49.02905" lon="1.53848">
        <ele>127.2767791748</ele>
        <time>2016-09-25T07:39:37.000Z</time>
      </trkpt>
      <trkpt lat="49.02913" lon="1.53869">
        <ele>126.83779144287</ele>
        <time>2016-09-25T07:39:40.000Z</time>
      </trkpt>
      <trkpt lat="49.02919" lon="1.53885">
        <ele>126.30790710449</ele>
        <time>2016-09-25T07:39:42.000Z</time>
      </trkpt>
      <trkpt lat="49.02928" lon="1.53904">
        <ele>125.61042785645</ele>
        <time>2016-09-25T07:39:44.000Z</time>
      </trkpt>
      <trkpt lat="49.02937" lon="1.5393">
        <ele>124.66749572754</ele>
        <time>2016-09-25T07:39:47.000Z</time>
      </trkpt>
      <trkpt lat="49.02941" lon="1.53948">
        <ele>123.66621398926</ele>
        <time>2016-09-25T07:39:49.000Z</time>
      </trkpt>
      <trkpt lat="49.02943" lon="1.53969">
        <ele>122.66989898682</ele>
        <time>2016-09-25T07:39:51.000Z</time>
      </trkpt>
      <trkpt lat="49.02944" lon="1.53988">
        <ele>121.69515228271</ele>
        <time>2016-09-25T07:39:53.000Z</time>
      </trkpt>
      <trkpt lat="49.02944" lon="1.54016">
        <ele>120.90901947021</ele>
        <time>2016-09-25T07:39:56.000Z</time>
      </trkpt>
      <trkpt lat="49.02943" lon="1.5404">
        <ele>120.48492431641</ele>
        <time>2016-09-25T07:39:59.000Z</time>
      </trkpt>
      <trkpt lat="49.0295" lon="1.54054">
        <ele>120.1732635498</ele>
        <time>2016-09-25T07:40:01.000Z</time>
      </trkpt>
      <trkpt lat="49.02961" lon="1.54074">
        <ele>119.87547302246</ele>
        <time>2016-09-25T07:40:04.000Z</time>
      </trkpt>
      <trkpt lat="49.02969" lon="1.5409">
        <ele>119.63283538818</ele>
        <time>2016-09-25T07:40:07.000Z</time>
      </trkpt>
      <trkpt lat="49.02974" lon="1.54099">
        <ele>119.41459655762</ele>
        <time>2016-09-25T07:40:09.000Z</time>
      </trkpt>
      <trkpt lat="49.02981" lon="1.54112">
        <ele>119.09438323975</ele>
        <time>2016-09-25T07:40:12.000Z</time>
      </trkpt>
      <trkpt lat="49.02983" lon="1.54116">
        <ele>118.82453918457</ele>
        <time>2016-09-25T07:40:14.000Z</time>
      </trkpt>
      <trkpt lat="49.02983" lon="1.54116">
        <ele>118.82453918457</ele>
        <time>2016-09-25T07:40:34.000Z</time>
      </trkpt>
      <trkpt lat="49.02984" lon="1.54113">
        <ele>118.65991210938</ele>
        <time>2016-09-25T07:40:53.000Z</time>
      </trkpt>
      <trkpt lat="49.02982" lon="1.5412">
        <ele>118.65029144287</ele>
        <time>2016-09-25T07:40:56.000Z</time>
      </trkpt>
      <trkpt lat="49.0298" lon="1.54128">
        <ele>118.74584960938</ele>
        <time>2016-09-25T07:40:58.000Z</time>
      </trkpt>
      <trkpt lat="49.02978" lon="1.54145">
        <ele>119.03399658203</ele>
        <time>2016-09-25T07:41:01.000Z</time>
      </trkpt>
      <trkpt lat="49.02975" lon="1.54163">
        <ele>119.50124359131</ele>
        <time>2016-09-25T07:41:04.000Z</time>
      </trkpt>
      <trkpt lat="49.02972" lon="1.54181">
        <ele>120.14691162109</ele>
        <time>2016-09-25T07:41:07.000Z</time>
      </trkpt>
      <trkpt lat="49.02967" lon="1.54199">
        <ele>120.83018493652</ele>
        <time>2016-09-25T07:41:10.000Z</time>
      </trkpt>
      <trkpt lat="49.02963" lon="1.54211">
        <ele>121.49499511719</ele>
        <time>2016-09-25T07:41:12.000Z</time>
      </trkpt>
      <trkpt lat="49.02958" lon="1.54235">
        <ele>122.06697845459</ele>
        <time>2016-09-25T07:41:15.000Z</time>
      </trkpt>
      <trkpt lat="49.02953" lon="1.54253">
        <ele>122.4861831665</ele>
        <time>2016-09-25T07:41:18.000Z</time>
      </trkpt>
      <trkpt lat="49.0295" lon="1.54263">
        <ele>122.776512146</ele>
        <time>2016-09-25T07:41:20.000Z</time>
      </trkpt>
      <trkpt lat="49.0295" lon="1.5428">
        <ele>122.98545837402</ele>
        <time>2016-09-25T07:41:23.000Z</time>
      </trkpt>
      <trkpt lat="49.02949" lon="1.5429">
        <ele>123.14454650879</ele>
        <time>2016-09-25T07:41:25.000Z</time>
      </trkpt>
      <trkpt lat="49.0295" lon="1.54304">
        <ele>123.26468658447</ele>
        <time>2016-09-25T07:41:27.000Z</time>
      </trkpt>
      <trkpt lat="49.02951" lon="1.54316">
        <ele>123.38973236084</ele>
        <time>2016-09-25T07:41:29.000Z</time>
      </trkpt>
      <trkpt lat="49.0295" lon="1.54329">
        <ele>123.51600646973</ele>
        <time>2016-09-25T07:41:32.000Z</time>
      </trkpt>
      <trkpt lat="49.02946" lon="1.54336">
        <ele>123.61257171631</ele>
        <time>2016-09-25T07:41:34.000Z</time>
      </trkpt>
      <trkpt lat="49.02937" lon="1.54335">
        <ele>123.6446762085</ele>
        <time>2016-09-25T07:41:36.000Z</time>
      </trkpt>
      <trkpt lat="49.02929" lon="1.54337">
        <ele>123.6148223877</ele>
        <time>2016-09-25T07:41:38.000Z</time>
      </trkpt>
      <trkpt lat="49.02917" lon="1.54346">
        <ele>123.54560852051</ele>
        <time>2016-09-25T07:41:41.000Z</time>
      </trkpt>
      <trkpt lat="49.02911" lon="1.54353">
        <ele>123.43235778809</ele>
        <time>2016-09-25T07:41:43.000Z</time>
      </trkpt>
      <trkpt lat="49.02901" lon="1.54366">
        <ele>123.27850341797</ele>
        <time>2016-09-25T07:41:46.000Z</time>
      </trkpt>
      <trkpt lat="49.02893" lon="1.54379">
        <ele>123.12978363037</ele>
        <time>2016-09-25T07:41:49.000Z</time>
      </trkpt>
      <trkpt lat="49.02887" lon="1.54387">
        <ele>122.98822021484</ele>
        <time>2016-09-25T07:41:51.000Z</time>
      </trkpt>
      <trkpt lat="49.02879" lon="1.54398">
        <ele>122.79714202881</ele>
        <time>2016-09-25T07:41:54.000Z</time>
      </trkpt>
      <trkpt lat="49.02871" lon="1.54409">
        <ele>122.58290863037</ele>
        <time>2016-09-25T07:41:57.000Z</time>
      </trkpt>
      <trkpt lat="49.02864" lon="1.54417">
        <ele>122.353515625</ele>
        <time>2016-09-25T07:41:59.000Z</time>
      </trkpt>
      <trkpt lat="49.02853" lon="1.54432">
        <ele>121.94923400879</ele>
        <time>2016-09-25T07:42:02.000Z</time>
      </trkpt>
      <trkpt lat="49.02841" lon="1.54446">
        <ele>121.31508636475</ele>
        <time>2016-09-25T07:42:05.000Z</time>
      </trkpt>
      <trkpt lat="49.02834" lon="1.54458">
        <ele>120.55122375488</ele>
        <time>2016-09-25T07:42:07.000Z</time>
      </trkpt>
      <trkpt lat="49.02828" lon="1.54467">
        <ele>119.68900299072</ele>
        <time>2016-09-25T07:42:09.000Z</time>
      </trkpt>
      <trkpt lat="49.02827" lon="1.54479">
        <ele>118.77131652832</ele>
        <time>2016-09-25T07:42:11.000Z</time>
      </trkpt>
      <trkpt lat="49.02832" lon="1.54501">
        <ele>117.985496521</ele>
        <time>2016-09-25T07:42:14.000Z</time>
      </trkpt>
      <trkpt lat="49.0284" lon="1.54515">
        <ele>117.40901184082</ele>
        <time>2016-09-25T07:42:16.000Z</time>
      </trkpt>
      <trkpt lat="49.0285" lon="1.54539">
        <ele>116.96221923828</ele>
        <time>2016-09-25T07:42:19.000Z</time>
      </trkpt>
      <trkpt lat="49.02855" lon="1.54552">
        <ele>116.64933013916</ele>
        <time>2016-09-25T07:42:21.000Z</time>
      </trkpt>
      <trkpt lat="49.0286" lon="1.54577">
        <ele>116.34846496582</ele>
        <time>2016-09-25T07:42:24.000Z</time>
      </trkpt>
      <trkpt lat="49.0287" lon="1.54589">
        <ele>116.35076904297</ele>
        <time>2016-09-25T07:42:26.000Z</time>
      </trkpt>
      <trkpt lat="49.02876" lon="1.54611">
        <ele>116.36653137207</ele>
        <time>2016-09-25T07:42:28.000Z</time>
      </trkpt>
      <trkpt lat="49.02886" lon="1.54634">
        <ele>116.63185882568</ele>
        <time>2016-09-25T07:42:30.000Z</time>
      </trkpt>
      <trkpt lat="49.0289" lon="1.54652">
        <ele>116.9418182373</ele>
        <time>2016-09-25T07:42:32.000Z</time>
      </trkpt>
      <trkpt lat="49.02896" lon="1.54676">
        <ele>117.4058380127</ele>
        <time>2016-09-25T07:42:35.000Z</time>
      </trkpt>
      <trkpt lat="49.02901" lon="1.547">
        <ele>117.47653961182</ele>
        <time>2016-09-25T07:42:38.000Z</time>
      </trkpt>
      <trkpt lat="49.02906" lon="1.54722">
        <ele>117.49794769287</ele>
        <time>2016-09-25T07:42:41.000Z</time>
      </trkpt>
      <trkpt lat="49.0291" lon="1.54747">
        <ele>117.09797668457</ele>
        <time>2016-09-25T07:42:44.000Z</time>
      </trkpt>
      <trkpt lat="49.0291" lon="1.54775">
        <ele>116.53883361816</ele>
        <time>2016-09-25T07:42:47.000Z</time>
      </trkpt>
      <trkpt lat="49.02911" lon="1.548">
        <ele>115.89085388184</ele>
        <time>2016-09-25T07:42:50.000Z</time>
      </trkpt>
      <trkpt lat="49.02911" lon="1.54819">
        <ele>115.33866882324</ele>
        <time>2016-09-25T07:42:52.000Z</time>
      </trkpt>
      <trkpt lat="49.0291" lon="1.54846">
        <ele>114.74876403809</ele>
        <time>2016-09-25T07:42:55.000Z</time>
      </trkpt>
      <trkpt lat="49.02914" lon="1.54865">
        <ele>114.5811920166</ele>
        <time>2016-09-25T07:42:57.000Z</time>
      </trkpt>
      <trkpt lat="49.02915" lon="1.54883">
        <ele>114.56740570068</ele>
        <time>2016-09-25T07:42:59.000Z</time>
      </trkpt>
      <trkpt lat="49.02927" lon="1.54915">
        <ele>114.86195373535</ele>
        <time>2016-09-25T07:43:02.000Z</time>
      </trkpt>
      <trkpt lat="49.02939" lon="1.5494">
        <ele>115.10807800293</ele>
        <time>2016-09-25T07:43:05.000Z</time>
      </trkpt>
      <trkpt lat="49.02949" lon="1.54956">
        <ele>115.50946044922</ele>
        <time>2016-09-25T07:43:07.000Z</time>
      </trkpt>
      <trkpt lat="49.0296" lon="1.5498">
        <ele>115.73331451416</ele>
        <time>2016-09-25T07:43:10.000Z</time>
      </trkpt>
      <trkpt lat="49.02974" lon="1.55006">
        <ele>116.09565734863</ele>
        <time>2016-09-25T07:43:13.000Z</time>
      </trkpt>
      <trkpt lat="49.02976" lon="1.55023">
        <ele>115.83058929443</ele>
        <time>2016-09-25T07:43:15.000Z</time>
      </trkpt>
      <trkpt lat="49.0298" lon="1.55041">
        <ele>115.49157714844</ele>
        <time>2016-09-25T07:43:17.000Z</time>
      </trkpt>
      <trkpt lat="49.03002" lon="1.55071">
        <ele>115.42287445068</ele>
        <time>2016-09-25T07:43:20.000Z</time>
      </trkpt>
      <trkpt lat="49.03005" lon="1.55097">
        <ele>114.85414123535</ele>
        <time>2016-09-25T07:43:22.000Z</time>
      </trkpt>
      <trkpt lat="49.03017" lon="1.55133">
        <ele>113.57237243652</ele>
        <time>2016-09-25T07:43:25.000Z</time>
      </trkpt>
      <trkpt lat="49.03022" lon="1.55152">
        <ele>112.32779693604</ele>
        <time>2016-09-25T07:43:27.000Z</time>
      </trkpt>
      <trkpt lat="49.03043" lon="1.55186">
        <ele>110.93312835693</ele>
        <time>2016-09-25T07:43:30.000Z</time>
      </trkpt>
      <trkpt lat="49.03055" lon="1.55207">
        <ele>109.07536315918</ele>
        <time>2016-09-25T07:43:32.000Z</time>
      </trkpt>
      <trkpt lat="49.03066" lon="1.55232">
        <ele>107.50881195068</ele>
        <time>2016-09-25T07:43:34.000Z</time>
      </trkpt>
      <trkpt lat="49.03091" lon="1.55268">
        <ele>106.32761383057</ele>
        <time>2016-09-25T07:43:37.000Z</time>
      </trkpt>
      <trkpt lat="49.0311" lon="1.55304">
        <ele>105.00551605225</ele>
        <time>2016-09-25T07:43:40.000Z</time>
      </trkpt>
      <trkpt lat="49.03128" lon="1.55337">
        <ele>103.76271820068</ele>
        <time>2016-09-25T07:43:43.000Z</time>
      </trkpt>
      <trkpt lat="49.0314" lon="1.55372">
        <ele>101.89814758301</ele>
        <time>2016-09-25T07:43:46.000Z</time>
      </trkpt>
      <trkpt lat="49.03145" lon="1.554">
        <ele>99.62589263916</ele>
        <time>2016-09-25T07:43:49.000Z</time>
      </trkpt>
      <trkpt lat="49.03145" lon="1.55417">
        <ele>97.068252563477</ele>
        <time>2016-09-25T07:43:51.000Z</time>
      </trkpt>
      <trkpt lat="49.0315" lon="1.55435">
        <ele>94.690780639648</ele>
        <time>2016-09-25T07:43:54.000Z</time>
      </trkpt>
      <trkpt lat="49.03154" lon="1.55452">
        <ele>92.344749450684</ele>
        <time>2016-09-25T07:43:57.000Z</time>
      </trkpt>
      <trkpt lat="49.03144" lon="1.5548">
        <ele>89.707046508789</ele>
        <time>2016-09-25T07:44:00.000Z</time>
      </trkpt>
      <trkpt lat="49.0314" lon="1.55521">
        <ele>86.573852539062</ele>
        <time>2016-09-25T07:44:03.000Z</time>
      </trkpt>
      <trkpt lat="49.03139" lon="1.55556">
        <ele>83.189270019531</ele>
        <time>2016-09-25T07:44:06.000Z</time>
      </trkpt>
      <trkpt lat="49.03146" lon="1.55585">
        <ele>79.687789916992</ele>
        <time>2016-09-25T07:44:09.000Z</time>
      </trkpt>
      <trkpt lat="49.03152" lon="1.55611">
        <ele>76.026062011719</ele>
        <time>2016-09-25T07:44:12.000Z</time>
      </trkpt>
      <trkpt lat="49.03156" lon="1.55626">
        <ele>73.189979553223</ele>
        <time>2016-09-25T07:44:14.000Z</time>
      </trkpt>
      <trkpt lat="49.03169" lon="1.55647">
        <ele>71.133895874023</ele>
        <time>2016-09-25T07:44:17.000Z</time>
      </trkpt>
      <trkpt lat="49.03178" lon="1.55659">
        <ele>69.270530700684</ele>
        <time>2016-09-25T07:44:20.000Z</time>
      </trkpt>
      <trkpt lat="49.0318" lon="1.55662">
        <ele>67.649803161621</ele>
        <time>2016-09-25T07:44:22.000Z</time>
      </trkpt>
      <trkpt lat="49.03181" lon="1.55667">
        <ele>66.313446044922</ele>
        <time>2016-09-25T07:44:25.000Z</time>
      </trkpt>
      <trkpt lat="49.03181" lon="1.55665">
        <ele>65.259262084961</ele>
        <time>2016-09-25T07:44:28.000Z</time>
      </trkpt>
      <trkpt lat="49.03184" lon="1.55665">
        <ele>64.455276489258</ele>
        <time>2016-09-25T07:44:32.000Z</time>
      </trkpt>
      <trkpt lat="49.03185" lon="1.55664">
        <ele>64.160285949707</ele>
        <time>2016-09-25T07:44:35.000Z</time>
      </trkpt>
      <trkpt lat="49.03189" lon="1.55667">
        <ele>63.825721740723</ele>
        <time>2016-09-25T07:44:45.000Z</time>
      </trkpt>
      <trkpt lat="49.03189" lon="1.55667">
        <ele>63.825721740723</ele>
        <time>2016-09-25T07:45:05.000Z</time>
      </trkpt>
      <trkpt lat="49.03193" lon="1.55669">
        <ele>63.495094299316</ele>
        <time>2016-09-25T07:45:11.000Z</time>
      </trkpt>
      <trkpt lat="49.03194" lon="1.55669">
        <ele>63.094062805176</ele>
        <time>2016-09-25T07:45:14.000Z</time>
      </trkpt>
      <trkpt lat="49.03194" lon="1.5567">
        <ele>62.737342834473</ele>
        <time>2016-09-25T07:45:17.000Z</time>
      </trkpt>
      <trkpt lat="49.03194" lon="1.55668">
        <ele>62.408752441406</ele>
        <time>2016-09-25T07:45:20.000Z</time>
      </trkpt>
      <trkpt lat="49.03195" lon="1.55662">
        <ele>62.352989196777</ele>
        <time>2016-09-25T07:45:38.000Z</time>
      </trkpt>
      <trkpt lat="49.03195" lon="1.55662">
        <ele>62.352989196777</ele>
        <time>2016-09-25T07:45:58.000Z</time>
      </trkpt>
      <trkpt lat="49.03195" lon="1.55658">
        <ele>62.478294372559</ele>
        <time>2016-09-25T07:47:19.000Z</time>
      </trkpt>
      <trkpt lat="49.03196" lon="1.55658">
        <ele>62.630180358887</ele>
        <time>2016-09-25T07:47:21.000Z</time>
      </trkpt>
      <trkpt lat="49.03196" lon="1.55658">
        <ele>62.630180358887</ele>
        <time>2016-09-25T07:47:41.000Z</time>
      </trkpt>
      <trkpt lat="49.03197" lon="1.55657">
        <ele>62.789752960205</ele>
        <time>2016-09-25T07:47:44.000Z</time>
      </trkpt>
      <trkpt lat="49.03196" lon="1.55659">
        <ele>62.924602508545</ele>
        <time>2016-09-25T07:47:47.000Z</time>
      </trkpt>
      <trkpt lat="49.03192" lon="1.55663">
        <ele>62.987438201904</ele>
        <time>2016-09-25T07:47:50.000Z</time>
      </trkpt>
      <trkpt lat="49.03188" lon="1.55668">
        <ele>63.008617401123</ele>
        <time>2016-09-25T07:47:52.000Z</time>
      </trkpt>
      <trkpt lat="49.03181" lon="1.55672">
        <ele>63.148174285889</ele>
        <time>2016-09-25T07:47:55.000Z</time>
      </trkpt>
      <trkpt lat="49.03175" lon="1.55675">
        <ele>63.416770935059</ele>
        <time>2016-09-25T07:47:58.000Z</time>
      </trkpt>
      <trkpt lat="49.0317" lon="1.55676">
        <ele>63.797966003418</ele>
        <time>2016-09-25T07:48:00.000Z</time>
      </trkpt>
      <trkpt lat="49.03164" lon="1.55677">
        <ele>64.201461791992</ele>
        <time>2016-09-25T07:48:02.000Z</time>
      </trkpt>
      <trkpt lat="49.03157" lon="1.5568">
        <ele>64.418716430664</ele>
        <time>2016-09-25T07:48:04.000Z</time>
      </trkpt>
      <trkpt lat="49.03148" lon="1.55691">
        <ele>64.197341918945</ele>
        <time>2016-09-25T07:48:07.000Z</time>
      </trkpt>
      <trkpt lat="49.03141" lon="1.5571">
        <ele>63.518585205078</ele>
        <time>2016-09-25T07:48:10.000Z</time>
      </trkpt>
      <trkpt lat="49.03138" lon="1.55725">
        <ele>62.507759094238</ele>
        <time>2016-09-25T07:48:12.000Z</time>
      </trkpt>
      <trkpt lat="49.03139" lon="1.55761">
        <ele>60.970252990723</ele>
        <time>2016-09-25T07:48:15.000Z</time>
      </trkpt>
      <trkpt lat="49.03143" lon="1.55785">
        <ele>59.196216583252</ele>
        <time>2016-09-25T07:48:17.000Z</time>
      </trkpt>
      <trkpt lat="49.03144" lon="1.55798">
        <ele>57.534385681152</ele>
        <time>2016-09-25T07:48:19.000Z</time>
      </trkpt>
      <trkpt lat="49.03144" lon="1.55805">
        <ele>56.074157714844</ele>
        <time>2016-09-25T07:48:21.000Z</time>
      </trkpt>
      <trkpt lat="49.03143" lon="1.55815">
        <ele>54.641948699951</ele>
        <time>2016-09-25T07:48:24.000Z</time>
      </trkpt>
      <trkpt lat="49.03143" lon="1.55833">
        <ele>53.370441436768</ele>
        <time>2016-09-25T07:48:27.000Z</time>
      </trkpt>
      <trkpt lat="49.03143" lon="1.55842">
        <ele>52.289562225342</ele>
        <time>2016-09-25T07:48:30.000Z</time>
      </trkpt>
      <trkpt lat="49.03143" lon="1.55843">
        <ele>51.39249420166</ele>
        <time>2016-09-25T07:48:32.000Z</time>
      </trkpt>
      <trkpt lat="49.03142" lon="1.55843">
        <ele>50.662647247314</ele>
        <time>2016-09-25T07:48:37.000Z</time>
      </trkpt>
      <trkpt lat="49.03142" lon="1.5584">
        <ele>50.169719696045</ele>
        <time>2016-09-25T07:48:42.000Z</time>
      </trkpt>
      <trkpt lat="49.03142" lon="1.55838">
        <ele>50.054344177246</ele>
        <time>2016-09-25T07:48:45.000Z</time>
      </trkpt>
      <trkpt lat="49.03138" lon="1.55842">
        <ele>50.061218261719</ele>
        <time>2016-09-25T07:48:50.000Z</time>
      </trkpt>
      <trkpt lat="49.03138" lon="1.55842">
        <ele>50.061218261719</ele>
        <time>2016-09-25T07:49:10.000Z</time>
      </trkpt>
      <trkpt lat="49.03139" lon="1.5584">
        <ele>50.141536712646</ele>
        <time>2016-09-25T07:49:20.000Z</time>
      </trkpt>
      <trkpt lat="49.03142" lon="1.55841">
        <ele>50.184265136719</ele>
        <time>2016-09-25T07:49:23.000Z</time>
      </trkpt>
      <trkpt lat="49.03146" lon="1.55845">
        <ele>50.072448730469</ele>
        <time>2016-09-25T07:49:26.000Z</time>
      </trkpt>
      <trkpt lat="49.03148" lon="1.55844">
        <ele>49.929927825928</ele>
        <time>2016-09-25T07:49:29.000Z</time>
      </trkpt>
      <trkpt lat="49.03148" lon="1.55846">
        <ele>49.820987701416</ele>
        <time>2016-09-25T07:49:33.000Z</time>
      </trkpt>
      <trkpt lat="49.03147" lon="1.55848">
        <ele>49.616374969482</ele>
        <time>2016-09-25T07:49:35.000Z</time>
      </trkpt>
      <trkpt lat="49.03143" lon="1.55846">
        <ele>49.484199523926</ele>
        <time>2016-09-25T07:49:38.000Z</time>
      </trkpt>
      <trkpt lat="49.03143" lon="1.55841">
        <ele>49.57523727417</ele>
        <time>2016-09-25T07:49:40.000Z</time>
      </trkpt>
      <trkpt lat="49.03145" lon="1.55836">
        <ele>49.777378082275</ele>
        <time>2016-09-25T07:49:42.000Z</time>
      </trkpt>
      <trkpt lat="49.03146" lon="1.55834">
        <ele>50.080535888672</ele>
        <time>2016-09-25T07:49:44.000Z</time>
      </trkpt>
      <trkpt lat="49.03147" lon="1.55831">
        <ele>50.478939056396</ele>
        <time>2016-09-25T07:49:46.000Z</time>
      </trkpt>
      <trkpt lat="49.03148" lon="1.5583">
        <ele>50.853271484375</ele>
        <time>2016-09-25T07:49:50.000Z</time>
      </trkpt>
      <trkpt lat="49.03151" lon="1.55828">
        <ele>51.141269683838</ele>
        <time>2016-09-25T07:49:52.000Z</time>
      </trkpt>
      <trkpt lat="49.03153" lon="1.5583">
        <ele>51.259666442871</ele>
        <time>2016-09-25T07:49:55.000Z</time>
      </trkpt>
      <trkpt lat="49.03151" lon="1.5583">
        <ele>51.33373260498</ele>
        <time>2016-09-25T07:49:57.000Z</time>
      </trkpt>
      <trkpt lat="49.03147" lon="1.55833">
        <ele>51.311851501465</ele>
        <time>2016-09-25T07:50:00.000Z</time>
      </trkpt>
      <trkpt lat="49.03147" lon="1.55835">
        <ele>51.212604522705</ele>
        <time>2016-09-25T07:50:03.000Z</time>
      </trkpt>
      <trkpt lat="49.03148" lon="1.55835">
        <ele>51.067058563232</ele>
        <time>2016-09-25T07:50:09.000Z</time>
      </trkpt>
      <trkpt lat="49.03149" lon="1.55839">
        <ele>50.872650146484</ele>
        <time>2016-09-25T07:50:12.000Z</time>
      </trkpt>
      <trkpt lat="49.03149" lon="1.55844">
        <ele>50.54370880127</ele>
        <time>2016-09-25T07:50:15.000Z</time>
      </trkpt>
      <trkpt lat="49.03148" lon="1.55848">
        <ele>50.186359405518</ele>
        <time>2016-09-25T07:50:17.000Z</time>
      </trkpt>
      <trkpt lat="49.03147" lon="1.5585">
        <ele>49.805809020996</ele>
        <time>2016-09-25T07:50:20.000Z</time>
      </trkpt>
      <trkpt lat="49.03145" lon="1.55847">
        <ele>49.526844024658</ele>
        <time>2016-09-25T07:50:24.000Z</time>
      </trkpt>
      <trkpt lat="49.03146" lon="1.55845">
        <ele>49.379188537598</ele>
        <time>2016-09-25T07:50:27.000Z</time>
      </trkpt>
      <trkpt lat="49.03148" lon="1.55843">
        <ele>49.411613464355</ele>
        <time>2016-09-25T07:50:33.000Z</time>
      </trkpt>
      <trkpt lat="49.03146" lon="1.55841">
        <ele>49.571746826172</ele>
        <time>2016-09-25T07:50:36.000Z</time>
      </trkpt>
      <trkpt lat="49.03146" lon="1.55839">
        <ele>49.850261688232</ele>
        <time>2016-09-25T07:50:42.000Z</time>
      </trkpt>
      <trkpt lat="49.03147" lon="1.55843">
        <ele>49.938076019287</ele>
        <time>2016-09-25T07:50:44.000Z</time>
      </trkpt>
      <trkpt lat="49.03147" lon="1.55839">
        <ele>50.073524475098</ele>
        <time>2016-09-25T07:50:48.000Z</time>
      </trkpt>
      <trkpt lat="49.03146" lon="1.5584">
        <ele>50.136116027832</ele>
        <time>2016-09-25T07:50:55.000Z</time>
      </trkpt>
      <trkpt lat="49.03143" lon="1.5585">
        <ele>49.938465118408</ele>
        <time>2016-09-25T07:50:58.000Z</time>
      </trkpt>
      <trkpt lat="49.03143" lon="1.55863">
        <ele>49.359622955322</ele>
        <time>2016-09-25T07:51:01.000Z</time>
      </trkpt>
      <trkpt lat="49.03153" lon="1.55887">
        <ele>48.27075958252</ele>
        <time>2016-09-25T07:51:04.000Z</time>
      </trkpt>
      <trkpt lat="49.03165" lon="1.55912">
        <ele>46.349063873291</ele>
        <time>2016-09-25T07:51:07.000Z</time>
      </trkpt>
      <trkpt lat="49.03174" lon="1.55932">
        <ele>44.106269836426</ele>
        <time>2016-09-25T07:51:09.000Z</time>
      </trkpt>
      <trkpt lat="49.03181" lon="1.55951">
        <ele>41.720611572266</ele>
        <time>2016-09-25T07:51:12.000Z</time>
      </trkpt>
      <trkpt lat="49.03181" lon="1.55944">
        <ele>39.819660186768</ele>
        <time>2016-09-25T07:51:15.000Z</time>
      </trkpt>
      <trkpt lat="49.03184" lon="1.55941">
        <ele>38.632236480713</ele>
        <time>2016-09-25T07:51:19.000Z</time>
      </trkpt>
      <trkpt lat="49.03188" lon="1.55948">
        <ele>38.05184173584</ele>
        <time>2016-09-25T07:51:21.000Z</time>
      </trkpt>
      <trkpt lat="49.03197" lon="1.55967">
        <ele>37.383617401123</ele>
        <time>2016-09-25T07:51:24.000Z</time>
      </trkpt>
      <trkpt lat="49.03205" lon="1.55996">
        <ele>36.269821166992</ele>
        <time>2016-09-25T07:51:27.000Z</time>
      </trkpt>
      <trkpt lat="49.0322" lon="1.56028">
        <ele>35.000175476074</ele>
        <time>2016-09-25T07:51:30.000Z</time>
      </trkpt>
      <trkpt lat="49.03233" lon="1.56048">
        <ele>33.524032592773</ele>
        <time>2016-09-25T07:51:32.000Z</time>
      </trkpt>
      <trkpt lat="49.03246" lon="1.56083">
        <ele>31.881937026978</ele>
        <time>2016-09-25T07:51:35.000Z</time>
      </trkpt>
      <trkpt lat="49.03252" lon="1.56107">
        <ele>30.960083007812</ele>
        <time>2016-09-25T07:51:37.000Z</time>
      </trkpt>
      <trkpt lat="49.03256" lon="1.56149">
        <ele>31.504501342773</ele>
        <time>2016-09-25T07:51:40.000Z</time>
      </trkpt>
      <trkpt lat="49.03252" lon="1.56196">
        <ele>32.721084594727</ele>
        <time>2016-09-25T07:51:43.000Z</time>
      </trkpt>
      <trkpt lat="49.03251" lon="1.56216">
        <ele>34.218818664551</ele>
        <time>2016-09-25T07:51:45.000Z</time>
      </trkpt>
      <trkpt lat="49.03261" lon="1.56251">
        <ele>35.795482635498</ele>
        <time>2016-09-25T07:51:48.000Z</time>
      </trkpt>
      <trkpt lat="49.03271" lon="1.56261">
        <ele>36.65864944458</ele>
        <time>2016-09-25T07:51:50.000Z</time>
      </trkpt>
      <trkpt lat="49.03282" lon="1.5627">
        <ele>36.32642364502</ele>
        <time>2016-09-25T07:51:53.000Z</time>
      </trkpt>
      <trkpt lat="49.03282" lon="1.56295">
        <ele>35.333034515381</ele>
        <time>2016-09-25T07:51:56.000Z</time>
      </trkpt>
      <trkpt lat="49.03282" lon="1.56312">
        <ele>34.157726287842</ele>
        <time>2016-09-25T07:51:58.000Z</time>
      </trkpt>
      <trkpt lat="49.03287" lon="1.56337">
        <ele>32.943119049072</ele>
        <time>2016-09-25T07:52:01.000Z</time>
      </trkpt>
      <trkpt lat="49.03288" lon="1.56367">
        <ele>32.260570526123</ele>
        <time>2016-09-25T07:52:04.000Z</time>
      </trkpt>
      <trkpt lat="49.03291" lon="1.56388">
        <ele>32.053844451904</ele>
        <time>2016-09-25T07:52:06.000Z</time>
      </trkpt>
      <trkpt lat="49.03291" lon="1.56407">
        <ele>31.905071258545</ele>
        <time>2016-09-25T07:52:08.000Z</time>
      </trkpt>
      <trkpt lat="49.03293" lon="1.5643">
        <ele>31.729644775391</ele>
        <time>2016-09-25T07:52:11.000Z</time>
      </trkpt>
      <trkpt lat="49.03295" lon="1.5645">
        <ele>31.763019561768</ele>
        <time>2016-09-25T07:52:14.000Z</time>
      </trkpt>
      <trkpt lat="49.03296" lon="1.56466">
        <ele>31.661828994751</ele>
        <time>2016-09-25T07:52:16.000Z</time>
      </trkpt>
      <trkpt lat="49.03299" lon="1.56483">
        <ele>31.521432876587</ele>
        <time>2016-09-25T07:52:18.000Z</time>
      </trkpt>
      <trkpt lat="49.03302" lon="1.56513">
        <ele>31.248134613037</ele>
        <time>2016-09-25T07:52:21.000Z</time>
      </trkpt>
      <trkpt lat="49.03304" lon="1.56534">
        <ele>30.924173355103</ele>
        <time>2016-09-25T07:52:23.000Z</time>
      </trkpt>
      <trkpt lat="49.03309" lon="1.56567">
        <ele>30.523000717163</ele>
        <time>2016-09-25T07:52:26.000Z</time>
      </trkpt>
      <trkpt lat="49.03311" lon="1.56588">
        <ele>30.114543914795</ele>
        <time>2016-09-25T07:52:28.000Z</time>
      </trkpt>
      <trkpt lat="49.03313" lon="1.56608">
        <ele>29.740158081055</ele>
        <time>2016-09-25T07:52:30.000Z</time>
      </trkpt>
      <trkpt lat="49.03316" lon="1.56628">
        <ele>29.353633880615</ele>
        <time>2016-09-25T07:52:32.000Z</time>
      </trkpt>
      <trkpt lat="49.03321" lon="1.56658">
        <ele>28.790853500366</ele>
        <time>2016-09-25T07:52:35.000Z</time>
      </trkpt>
      <trkpt lat="49.03327" lon="1.56687">
        <ele>28.185171127319</ele>
        <time>2016-09-25T07:52:38.000Z</time>
      </trkpt>
      <trkpt lat="49.0333" lon="1.56706">
        <ele>27.549057006836</ele>
        <time>2016-09-25T07:52:40.000Z</time>
      </trkpt>
      <trkpt lat="49.03336" lon="1.56737">
        <ele>26.989948272705</ele>
        <time>2016-09-25T07:52:43.000Z</time>
      </trkpt>
      <trkpt lat="49.03343" lon="1.56764">
        <ele>26.658349990845</ele>
        <time>2016-09-25T07:52:46.000Z</time>
      </trkpt>
      <trkpt lat="49.03349" lon="1.5679">
        <ele>26.699779510498</ele>
        <time>2016-09-25T07:52:49.000Z</time>
      </trkpt>
      <trkpt lat="49.03353" lon="1.56808">
        <ele>26.955923080444</ele>
        <time>2016-09-25T07:52:51.000Z</time>
      </trkpt>
      <trkpt lat="49.03358" lon="1.56835">
        <ele>27.32458114624</ele>
        <time>2016-09-25T07:52:54.000Z</time>
      </trkpt>
      <trkpt lat="49.03362" lon="1.56852">
        <ele>27.600412368774</ele>
        <time>2016-09-25T07:52:56.000Z</time>
      </trkpt>
      <trkpt lat="49.0337" lon="1.5688">
        <ele>27.473476409912</ele>
        <time>2016-09-25T07:52:59.000Z</time>
      </trkpt>
      <trkpt lat="49.03374" lon="1.56899">
        <ele>27.120630264282</ele>
        <time>2016-09-25T07:53:01.000Z</time>
      </trkpt>
      <trkpt lat="49.03381" lon="1.56925">
        <ele>26.513805389404</ele>
        <time>2016-09-25T07:53:04.000Z</time>
      </trkpt>
      <trkpt lat="49.03387" lon="1.56952">
        <ele>25.795293807983</ele>
        <time>2016-09-25T07:53:07.000Z</time>
      </trkpt>
      <trkpt lat="49.03392" lon="1.5698">
        <ele>25.142583847046</ele>
        <time>2016-09-25T07:53:10.000Z</time>
      </trkpt>
      <trkpt lat="49.03399" lon="1.57006">
        <ele>24.567548751831</ele>
        <time>2016-09-25T07:53:13.000Z</time>
      </trkpt>
      <trkpt lat="49.03405" lon="1.57032">
        <ele>24.022443771362</ele>
        <time>2016-09-25T07:53:16.000Z</time>
      </trkpt>
      <trkpt lat="49.0341" lon="1.57055">
        <ele>23.617069244385</ele>
        <time>2016-09-25T07:53:19.000Z</time>
      </trkpt>
      <trkpt lat="49.03415" lon="1.57075">
        <ele>23.149198532104</ele>
        <time>2016-09-25T07:53:22.000Z</time>
      </trkpt>
      <trkpt lat="49.03421" lon="1.57093">
        <ele>22.652446746826</ele>
        <time>2016-09-25T07:53:25.000Z</time>
      </trkpt>
      <trkpt lat="49.03429" lon="1.57114">
        <ele>22.292306900024</ele>
        <time>2016-09-25T07:53:28.000Z</time>
      </trkpt>
      <trkpt lat="49.03433" lon="1.57128">
        <ele>21.983699798584</ele>
        <time>2016-09-25T07:53:30.000Z</time>
      </trkpt>
      <trkpt lat="49.0344" lon="1.57151">
        <ele>21.684310913086</ele>
        <time>2016-09-25T07:53:33.000Z</time>
      </trkpt>
      <trkpt lat="49.0345" lon="1.57173">
        <ele>21.427631378174</ele>
        <time>2016-09-25T07:53:36.000Z</time>
      </trkpt>
      <trkpt lat="49.03459" lon="1.57197">
        <ele>21.226396560669</ele>
        <time>2016-09-25T07:53:39.000Z</time>
      </trkpt>
      <trkpt lat="49.03467" lon="1.5722">
        <ele>21.092874526978</ele>
        <time>2016-09-25T07:53:42.000Z</time>
      </trkpt>
      <trkpt lat="49.03475" lon="1.57243">
        <ele>21.035028457642</ele>
        <time>2016-09-25T07:53:45.000Z</time>
      </trkpt>
      <trkpt lat="49.03484" lon="1.57264">
        <ele>21.020227432251</ele>
        <time>2016-09-25T07:53:48.000Z</time>
      </trkpt>
      <trkpt lat="49.0349" lon="1.57278">
        <ele>21.058683395386</ele>
        <time>2016-09-25T07:53:50.000Z</time>
      </trkpt>
      <trkpt lat="49.03495" lon="1.57293">
        <ele>21.048610687256</ele>
        <time>2016-09-25T07:53:52.000Z</time>
      </trkpt>
      <trkpt lat="49.03501" lon="1.57307">
        <ele>20.972949981689</ele>
        <time>2016-09-25T07:53:54.000Z</time>
      </trkpt>
      <trkpt lat="49.03511" lon="1.57327">
        <ele>20.869634628296</ele>
        <time>2016-09-25T07:53:57.000Z</time>
      </trkpt>
      <trkpt lat="49.03518" lon="1.57341">
        <ele>20.834535598755</ele>
        <time>2016-09-25T07:53:59.000Z</time>
      </trkpt>
      <trkpt lat="49.03526" lon="1.57362">
        <ele>20.911533355713</ele>
        <time>2016-09-25T07:54:02.000Z</time>
      </trkpt>
      <trkpt lat="49.03531" lon="1.57377">
        <ele>21.079355239868</ele>
        <time>2016-09-25T07:54:04.000Z</time>
      </trkpt>
      <trkpt lat="49.03542" lon="1.57397">
        <ele>21.356761932373</ele>
        <time>2016-09-25T07:54:07.000Z</time>
      </trkpt>
      <trkpt lat="49.03546" lon="1.57412">
        <ele>21.677917480469</ele>
        <time>2016-09-25T07:54:09.000Z</time>
      </trkpt>
      <trkpt lat="49.0355" lon="1.57426">
        <ele>22.018564224243</ele>
        <time>2016-09-25T07:54:11.000Z</time>
      </trkpt>
      <trkpt lat="49.03558" lon="1.57443">
        <ele>22.345806121826</ele>
        <time>2016-09-25T07:54:14.000Z</time>
      </trkpt>
      <trkpt lat="49.03563" lon="1.57452">
        <ele>22.654117584229</ele>
        <time>2016-09-25T07:54:16.000Z</time>
      </trkpt>
      <trkpt lat="49.03568" lon="1.57461">
        <ele>22.917449951172</ele>
        <time>2016-09-25T07:54:18.000Z</time>
      </trkpt>
      <trkpt lat="49.03577" lon="1.57463">
        <ele>23.093297958374</ele>
        <time>2016-09-25T07:54:21.000Z</time>
      </trkpt>
      <trkpt lat="49.03577" lon="1.57445">
        <ele>23.118053436279</ele>
        <time>2016-09-25T07:54:24.000Z</time>
      </trkpt>
      <trkpt lat="49.03574" lon="1.57434">
        <ele>23.02250289917</ele>
        <time>2016-09-25T07:54:26.000Z</time>
      </trkpt>
      <trkpt lat="49.03571" lon="1.57423">
        <ele>22.843107223511</ele>
        <time>2016-09-25T07:54:28.000Z</time>
      </trkpt>
      <trkpt lat="49.03566" lon="1.57408">
        <ele>22.570621490479</ele>
        <time>2016-09-25T07:54:31.000Z</time>
      </trkpt>
      <trkpt lat="49.03564" lon="1.57399">
        <ele>22.287105560303</ele>
        <time>2016-09-25T07:54:33.000Z</time>
      </trkpt>
      <trkpt lat="49.0356" lon="1.57385">
        <ele>22.034009933472</ele>
        <time>2016-09-25T07:54:36.000Z</time>
      </trkpt>
      <trkpt lat="49.03557" lon="1.57375">
        <ele>21.788461685181</ele>
        <time>2016-09-25T07:54:38.000Z</time>
      </trkpt>
      <trkpt lat="49.03555" lon="1.57365">
        <ele>21.54345703125</ele>
        <time>2016-09-25T07:54:40.000Z</time>
      </trkpt>
      <trkpt lat="49.03563" lon="1.57352">
        <ele>21.282958984375</ele>
        <time>2016-09-25T07:54:43.000Z</time>
      </trkpt>
      <trkpt lat="49.03579" lon="1.57344">
        <ele>20.986572265625</ele>
        <time>2016-09-25T07:54:46.000Z</time>
      </trkpt>
      <trkpt lat="49.03593" lon="1.57334">
        <ele>20.453062057495</ele>
        <time>2016-09-25T07:54:49.000Z</time>
      </trkpt>
      <trkpt lat="49.03608" lon="1.57322">
        <ele>19.477687835693</ele>
        <time>2016-09-25T07:54:52.000Z</time>
      </trkpt>
      <trkpt lat="49.03618" lon="1.57315">
        <ele>18.267818450928</ele>
        <time>2016-09-25T07:54:54.000Z</time>
      </trkpt>
      <trkpt lat="49.03631" lon="1.57303">
        <ele>16.795864105225</ele>
        <time>2016-09-25T07:54:57.000Z</time>
      </trkpt>
      <trkpt lat="49.03639" lon="1.57297">
        <ele>15.214361190796</ele>
        <time>2016-09-25T07:54:59.000Z</time>
      </trkpt>
      <trkpt lat="49.03651" lon="1.57288">
        <ele>13.69450378418</ele>
        <time>2016-09-25T07:55:02.000Z</time>
      </trkpt>
      <trkpt lat="49.03663" lon="1.57278">
        <ele>12.460683822632</ele>
        <time>2016-09-25T07:55:05.000Z</time>
      </trkpt>
      <trkpt lat="49.03671" lon="1.57272">
        <ele>11.503889083862</ele>
        <time>2016-09-25T07:55:07.000Z</time>
      </trkpt>
      <trkpt lat="49.03683" lon="1.57262">
        <ele>11.026967048645</ele>
        <time>2016-09-25T07:55:10.000Z</time>
      </trkpt>
      <trkpt lat="49.03696" lon="1.57252">
        <ele>10.888391494751</ele>
        <time>2016-09-25T07:55:13.000Z</time>
      </trkpt>
      <trkpt lat="49.03704" lon="1.57245">
        <ele>11.095191955566</ele>
        <time>2016-09-25T07:55:15.000Z</time>
      </trkpt>
      <trkpt lat="49.03713" lon="1.57238">
        <ele>11.627802848816</ele>
        <time>2016-09-25T07:55:17.000Z</time>
      </trkpt>
      <trkpt lat="49.03722" lon="1.57232">
        <ele>12.294076919556</ele>
        <time>2016-09-25T07:55:19.000Z</time>
      </trkpt>
      <trkpt lat="49.03732" lon="1.57226">
        <ele>12.975244522095</ele>
        <time>2016-09-25T07:55:21.000Z</time>
      </trkpt>
      <trkpt lat="49.03746" lon="1.57215">
        <ele>13.734583854675</ele>
        <time>2016-09-25T07:55:24.000Z</time>
      </trkpt>
      <trkpt lat="49.03756" lon="1.57208">
        <ele>14.510807991028</ele>
        <time>2016-09-25T07:55:26.000Z</time>
      </trkpt>
      <trkpt lat="49.03765" lon="1.57201">
        <ele>15.249029159546</ele>
        <time>2016-09-25T07:55:28.000Z</time>
      </trkpt>
      <trkpt lat="49.03782" lon="1.57189">
        <ele>15.997285842896</ele>
        <time>2016-09-25T07:55:31.000Z</time>
      </trkpt>
      <trkpt lat="49.03799" lon="1.57176">
        <ele>16.729837417603</ele>
        <time>2016-09-25T07:55:34.000Z</time>
      </trkpt>
      <trkpt lat="49.03811" lon="1.57167">
        <ele>17.317226409912</ele>
        <time>2016-09-25T07:55:36.000Z</time>
      </trkpt>
      <trkpt lat="49.03823" lon="1.57158">
        <ele>17.83394241333</ele>
        <time>2016-09-25T07:55:38.000Z</time>
      </trkpt>
      <trkpt lat="49.03843" lon="1.57143">
        <ele>18.332717895508</ele>
        <time>2016-09-25T07:55:41.000Z</time>
      </trkpt>
      <trkpt lat="49.03857" lon="1.57133">
        <ele>18.725034713745</ele>
        <time>2016-09-25T07:55:43.000Z</time>
      </trkpt>
      <trkpt lat="49.03874" lon="1.57121">
        <ele>19.019399642944</ele>
        <time>2016-09-25T07:55:45.000Z</time>
      </trkpt>
      <trkpt lat="49.039" lon="1.57102">
        <ele>19.287755966187</ele>
        <time>2016-09-25T07:55:48.000Z</time>
      </trkpt>
      <trkpt lat="49.03924" lon="1.57086">
        <ele>19.483295440674</ele>
        <time>2016-09-25T07:55:51.000Z</time>
      </trkpt>
      <trkpt lat="49.03947" lon="1.57066">
        <ele>19.358867645264</ele>
        <time>2016-09-25T07:55:54.000Z</time>
      </trkpt>
      <trkpt lat="49.03965" lon="1.57051">
        <ele>18.997442245483</ele>
        <time>2016-09-25T07:55:57.000Z</time>
      </trkpt>
      <trkpt lat="49.03983" lon="1.57038">
        <ele>18.403289794922</ele>
        <time>2016-09-25T07:56:00.000Z</time>
      </trkpt>
      <trkpt lat="49.03996" lon="1.57029">
        <ele>17.616815567017</ele>
        <time>2016-09-25T07:56:02.000Z</time>
      </trkpt>
      <trkpt lat="49.04011" lon="1.57015">
        <ele>16.848575592041</ele>
        <time>2016-09-25T07:56:05.000Z</time>
      </trkpt>
      <trkpt lat="49.04019" lon="1.57008">
        <ele>16.396869659424</ele>
        <time>2016-09-25T07:56:07.000Z</time>
      </trkpt>
      <trkpt lat="49.04027" lon="1.57001">
        <ele>16.227458953857</ele>
        <time>2016-09-25T07:56:09.000Z</time>
      </trkpt>
      <trkpt lat="49.04036" lon="1.56993">
        <ele>16.371067047119</ele>
        <time>2016-09-25T07:56:11.000Z</time>
      </trkpt>
      <trkpt lat="49.04051" lon="1.56984">
        <ele>16.826404571533</ele>
        <time>2016-09-25T07:56:14.000Z</time>
      </trkpt>
      <trkpt lat="49.04066" lon="1.5699">
        <ele>17.451608657837</ele>
        <time>2016-09-25T07:56:17.000Z</time>
      </trkpt>
      <trkpt lat="49.04074" lon="1.57003">
        <ele>18.072811126709</ele>
        <time>2016-09-25T07:56:19.000Z</time>
      </trkpt>
      <trkpt lat="49.04082" lon="1.57031">
        <ele>18.511646270752</ele>
        <time>2016-09-25T07:56:22.000Z</time>
      </trkpt>
      <trkpt lat="49.04094" lon="1.5706">
        <ele>18.868032455444</ele>
        <time>2016-09-25T07:56:25.000Z</time>
      </trkpt>
      <trkpt lat="49.041" lon="1.57079">
        <ele>19.041904449463</ele>
        <time>2016-09-25T07:56:27.000Z</time>
      </trkpt>
      <trkpt lat="49.04111" lon="1.57107">
        <ele>19.138952255249</ele>
        <time>2016-09-25T07:56:30.000Z</time>
      </trkpt>
      <trkpt lat="49.04124" lon="1.57135">
        <ele>19.301176071167</ele>
        <time>2016-09-25T07:56:33.000Z</time>
      </trkpt>
      <trkpt lat="49.04134" lon="1.57152">
        <ele>19.669065475464</ele>
        <time>2016-09-25T07:56:35.000Z</time>
      </trkpt>
      <trkpt lat="49.04147" lon="1.57175">
        <ele>20.098165512085</ele>
        <time>2016-09-25T07:56:38.000Z</time>
      </trkpt>
      <trkpt lat="49.04154" lon="1.57189">
        <ele>20.550584793091</ele>
        <time>2016-09-25T07:56:40.000Z</time>
      </trkpt>
      <trkpt lat="49.04161" lon="1.572">
        <ele>20.932220458984</ele>
        <time>2016-09-25T07:56:42.000Z</time>
      </trkpt>
      <trkpt lat="49.04174" lon="1.57196">
        <ele>21.559307098389</ele>
        <time>2016-09-25T07:56:45.000Z</time>
      </trkpt>
      <trkpt lat="49.04181" lon="1.5719">
        <ele>22.404626846313</ele>
        <time>2016-09-25T07:56:47.000Z</time>
      </trkpt>
      <trkpt lat="49.04184" lon="1.57185">
        <ele>23.282485961914</ele>
        <time>2016-09-25T07:56:50.000Z</time>
      </trkpt>
      <trkpt lat="49.04188" lon="1.57182">
        <ele>24.315486907959</ele>
        <time>2016-09-25T07:56:52.000Z</time>
      </trkpt>
      <trkpt lat="49.04193" lon="1.57183">
        <ele>25.49515914917</ele>
        <time>2016-09-25T07:56:55.000Z</time>
      </trkpt>
      <trkpt lat="49.04197" lon="1.57183">
        <ele>26.435863494873</ele>
        <time>2016-09-25T07:56:57.000Z</time>
      </trkpt>
      <trkpt lat="49.042" lon="1.57184">
        <ele>27.195796966553</ele>
        <time>2016-09-25T07:56:59.000Z</time>
      </trkpt>
      <trkpt lat="49.04203" lon="1.57187">
        <ele>27.889902114868</ele>
        <time>2016-09-25T07:57:01.000Z</time>
      </trkpt>
      <trkpt lat="49.04206" lon="1.57193">
        <ele>28.452142715454</ele>
        <time>2016-09-25T07:57:04.000Z</time>
      </trkpt>
      <trkpt lat="49.04207" lon="1.57196">
        <ele>28.871639251709</ele>
        <time>2016-09-25T07:57:06.000Z</time>
      </trkpt>
      <trkpt lat="49.0421" lon="1.57198">
        <ele>29.206634521484</ele>
        <time>2016-09-25T07:57:08.000Z</time>
      </trkpt>
      <trkpt lat="49.04212" lon="1.57202">
        <ele>29.455129623413</ele>
        <time>2016-09-25T07:57:11.000Z</time>
      </trkpt>
      <trkpt lat="49.04215" lon="1.57205">
        <ele>29.716281890869</ele>
        <time>2016-09-25T07:57:14.000Z</time>
      </trkpt>
      <trkpt lat="49.04219" lon="1.57206">
        <ele>30.078052520752</ele>
        <time>2016-09-25T07:57:17.000Z</time>
      </trkpt>
      <trkpt lat="49.04222" lon="1.5721">
        <ele>30.469217300415</ele>
        <time>2016-09-25T07:57:20.000Z</time>
      </trkpt>
      <trkpt lat="49.04227" lon="1.57214">
        <ele>30.947368621826</ele>
        <time>2016-09-25T07:57:23.000Z</time>
      </trkpt>
      <trkpt lat="49.04229" lon="1.57215">
        <ele>31.430841445923</ele>
        <time>2016-09-25T07:57:25.000Z</time>
      </trkpt>
      <trkpt lat="49.04232" lon="1.57217">
        <ele>31.93408203125</ele>
        <time>2016-09-25T07:57:27.000Z</time>
      </trkpt>
      <trkpt lat="49.04234" lon="1.57219">
        <ele>32.338035583496</ele>
        <time>2016-09-25T07:57:29.000Z</time>
      </trkpt>
      <trkpt lat="49.04238" lon="1.57223">
        <ele>32.763893127441</ele>
        <time>2016-09-25T07:57:32.000Z</time>
      </trkpt>
      <trkpt lat="49.0424" lon="1.57226">
        <ele>33.074634552002</ele>
        <time>2016-09-25T07:57:34.000Z</time>
      </trkpt>
      <trkpt lat="49.04241" lon="1.57229">
        <ele>33.350494384766</ele>
        <time>2016-09-25T07:57:36.000Z</time>
      </trkpt>
      <trkpt lat="49.04243" lon="1.57232">
        <ele>33.551666259766</ele>
        <time>2016-09-25T07:57:38.000Z</time>
      </trkpt>
      <trkpt lat="49.04245" lon="1.57237">
        <ele>33.712951660156</ele>
        <time>2016-09-25T07:57:41.000Z</time>
      </trkpt>
      <trkpt lat="49.04247" lon="1.57242">
        <ele>33.813591003418</ele>
        <time>2016-09-25T07:57:44.000Z</time>
      </trkpt>
      <trkpt lat="49.0425" lon="1.57246">
        <ele>33.951522827148</ele>
        <time>2016-09-25T07:57:47.000Z</time>
      </trkpt>
      <trkpt lat="49.04252" lon="1.57249">
        <ele>34.077381134033</ele>
        <time>2016-09-25T07:57:49.000Z</time>
      </trkpt>
      <trkpt lat="49.04254" lon="1.57253">
        <ele>34.218227386475</ele>
        <time>2016-09-25T07:57:52.000Z</time>
      </trkpt>
      <trkpt lat="49.04256" lon="1.57256">
        <ele>34.368999481201</ele>
        <time>2016-09-25T07:57:54.000Z</time>
      </trkpt>
      <trkpt lat="49.04257" lon="1.5726">
        <ele>34.482757568359</ele>
        <time>2016-09-25T07:57:57.000Z</time>
      </trkpt>
      <trkpt lat="49.0426" lon="1.57264">
        <ele>34.601928710938</ele>
        <time>2016-09-25T07:58:00.000Z</time>
      </trkpt>
      <trkpt lat="49.04263" lon="1.57266">
        <ele>34.781097412109</ele>
        <time>2016-09-25T07:58:02.000Z</time>
      </trkpt>
      <trkpt lat="49.04266" lon="1.5727">
        <ele>34.993022918701</ele>
        <time>2016-09-25T07:58:05.000Z</time>
      </trkpt>
      <trkpt lat="49.0427" lon="1.57273">
        <ele>35.263271331787</ele>
        <time>2016-09-25T07:58:08.000Z</time>
      </trkpt>
      <trkpt lat="49.04274" lon="1.57277">
        <ele>35.681358337402</ele>
        <time>2016-09-25T07:58:11.000Z</time>
      </trkpt>
      <trkpt lat="49.04278" lon="1.57279">
        <ele>36.144889831543</ele>
        <time>2016-09-25T07:58:13.000Z</time>
      </trkpt>
      <trkpt lat="49.04283" lon="1.57281">
        <ele>36.700736999512</ele>
        <time>2016-09-25T07:58:16.000Z</time>
      </trkpt>
      <trkpt lat="49.04288" lon="1.57282">
        <ele>37.347793579102</ele>
        <time>2016-09-25T07:58:19.000Z</time>
      </trkpt>
      <trkpt lat="49.04291" lon="1.57283">
        <ele>38.021354675293</ele>
        <time>2016-09-25T07:58:21.000Z</time>
      </trkpt>
      <trkpt lat="49.04295" lon="1.57282">
        <ele>38.745384216309</ele>
        <time>2016-09-25T07:58:24.000Z</time>
      </trkpt>
      <trkpt lat="49.043" lon="1.5728">
        <ele>39.563575744629</ele>
        <time>2016-09-25T07:58:27.000Z</time>
      </trkpt>
      <trkpt lat="49.04303" lon="1.57278">
        <ele>40.349571228027</ele>
        <time>2016-09-25T07:58:29.000Z</time>
      </trkpt>
      <trkpt lat="49.04307" lon="1.57275">
        <ele>41.146301269531</ele>
        <time>2016-09-25T07:58:32.000Z</time>
      </trkpt>
      <trkpt lat="49.04311" lon="1.57272">
        <ele>42.050716400146</ele>
        <time>2016-09-25T07:58:35.000Z</time>
      </trkpt>
      <trkpt lat="49.04316" lon="1.57271">
        <ele>42.949836730957</ele>
        <time>2016-09-25T07:58:38.000Z</time>
      </trkpt>
      <trkpt lat="49.04319" lon="1.5727">
        <ele>43.747905731201</ele>
        <time>2016-09-25T07:58:40.000Z</time>
      </trkpt>
      <trkpt lat="49.04322" lon="1.57267">
        <ele>44.557270050049</ele>
        <time>2016-09-25T07:58:42.000Z</time>
      </trkpt>
      <trkpt lat="49.04326" lon="1.57264">
        <ele>45.38907623291</ele>
        <time>2016-09-25T07:58:45.000Z</time>
      </trkpt>
      <trkpt lat="49.04329" lon="1.57262">
        <ele>46.15364074707</ele>
        <time>2016-09-25T07:58:47.000Z</time>
      </trkpt>
      <trkpt lat="49.04332" lon="1.5726">
        <ele>46.851696014404</ele>
        <time>2016-09-25T07:58:49.000Z</time>
      </trkpt>
      <trkpt lat="49.04337" lon="1.57257">
        <ele>47.608924865723</ele>
        <time>2016-09-25T07:58:52.000Z</time>
      </trkpt>
      <trkpt lat="49.04341" lon="1.57254">
        <ele>48.365154266357</ele>
        <time>2016-09-25T07:58:55.000Z</time>
      </trkpt>
      <trkpt lat="49.04346" lon="1.57251">
        <ele>49.052906036377</ele>
        <time>2016-09-25T07:58:58.000Z</time>
      </trkpt>
      <trkpt lat="49.0435" lon="1.57249">
        <ele>49.723480224609</ele>
        <time>2016-09-25T07:59:01.000Z</time>
      </trkpt>
      <trkpt lat="49.04353" lon="1.57248">
        <ele>50.375728607178</ele>
        <time>2016-09-25T07:59:03.000Z</time>
      </trkpt>
      <trkpt lat="49.04356" lon="1.57247">
        <ele>50.945964813232</ele>
        <time>2016-09-25T07:59:05.000Z</time>
      </trkpt>
      <trkpt lat="49.0436" lon="1.57245">
        <ele>51.482715606689</ele>
        <time>2016-09-25T07:59:08.000Z</time>
      </trkpt>
      <trkpt lat="49.04364" lon="1.57243">
        <ele>52.010852813721</ele>
        <time>2016-09-25T07:59:11.000Z</time>
      </trkpt>
      <trkpt lat="49.04367" lon="1.57242">
        <ele>52.496662139893</ele>
        <time>2016-09-25T07:59:13.000Z</time>
      </trkpt>
      <trkpt lat="49.04371" lon="1.5724">
        <ele>53.019367218018</ele>
        <time>2016-09-25T07:59:16.000Z</time>
      </trkpt>
      <trkpt lat="49.04375" lon="1.57237">
        <ele>53.569061279297</ele>
        <time>2016-09-25T07:59:19.000Z</time>
      </trkpt>
      <trkpt lat="49.04378" lon="1.57237">
        <ele>54.083740234375</ele>
        <time>2016-09-25T07:59:21.000Z</time>
      </trkpt>
      <trkpt lat="49.04382" lon="1.57235">
        <ele>54.585510253906</ele>
        <time>2016-09-25T07:59:24.000Z</time>
      </trkpt>
      <trkpt lat="49.04385" lon="1.57234">
        <ele>55.091529846191</ele>
        <time>2016-09-25T07:59:26.000Z</time>
      </trkpt>
      <trkpt lat="49.04388" lon="1.57232">
        <ele>55.547752380371</ele>
        <time>2016-09-25T07:59:28.000Z</time>
      </trkpt>
      <trkpt lat="49.04391" lon="1.5723">
        <ele>55.986755371094</ele>
        <time>2016-09-25T07:59:30.000Z</time>
      </trkpt>
      <trkpt lat="49.04396" lon="1.57229">
        <ele>56.466621398926</ele>
        <time>2016-09-25T07:59:33.000Z</time>
      </trkpt>
      <trkpt lat="49.04399" lon="1.57227">
        <ele>56.915760040283</ele>
        <time>2016-09-25T07:59:35.000Z</time>
      </trkpt>
      <trkpt lat="49.04403" lon="1.57225">
        <ele>57.40372467041</ele>
        <time>2016-09-25T07:59:38.000Z</time>
      </trkpt>
      <trkpt lat="49.04406" lon="1.57223">
        <ele>57.879070281982</ele>
        <time>2016-09-25T07:59:40.000Z</time>
      </trkpt>
      <trkpt lat="49.0441" lon="1.57222">
        <ele>58.363182067871</ele>
        <time>2016-09-25T07:59:43.000Z</time>
      </trkpt>
      <trkpt lat="49.04413" lon="1.57221">
        <ele>58.796806335449</ele>
        <time>2016-09-25T07:59:45.000Z</time>
      </trkpt>
      <trkpt lat="49.04416" lon="1.5722">
        <ele>59.235004425049</ele>
        <time>2016-09-25T07:59:48.000Z</time>
      </trkpt>
      <trkpt lat="49.04419" lon="1.57219">
        <ele>59.58650970459</ele>
        <time>2016-09-25T07:59:50.000Z</time>
      </trkpt>
      <trkpt lat="49.04424" lon="1.57218">
        <ele>59.935066223145</ele>
        <time>2016-09-25T07:59:53.000Z</time>
      </trkpt>
      <trkpt lat="49.04427" lon="1.57217">
        <ele>60.23197555542</ele>
        <time>2016-09-25T07:59:55.000Z</time>
      </trkpt>
      <trkpt lat="49.04432" lon="1.57215">
        <ele>60.541748046875</ele>
        <time>2016-09-25T07:59:58.000Z</time>
      </trkpt>
      <trkpt lat="49.04436" lon="1.57213">
        <ele>60.819114685059</ele>
        <time>2016-09-25T08:00:00.000Z</time>
      </trkpt>
      <trkpt lat="49.04438" lon="1.57213">
        <ele>61.090240478516</ele>
        <time>2016-09-25T08:00:02.000Z</time>
      </trkpt>
      <trkpt lat="49.04443" lon="1.57211">
        <ele>61.354553222656</ele>
        <time>2016-09-25T08:00:05.000Z</time>
      </trkpt>
      <trkpt lat="49.04446" lon="1.5721">
        <ele>61.610656738281</ele>
        <time>2016-09-25T08:00:07.000Z</time>
      </trkpt>
      <trkpt lat="49.04451" lon="1.57209">
        <ele>61.843914031982</ele>
        <time>2016-09-25T08:00:10.000Z</time>
      </trkpt>
      <trkpt lat="49.04455" lon="1.57208">
        <ele>62.081714630127</ele>
        <time>2016-09-25T08:00:13.000Z</time>
      </trkpt>
      <trkpt lat="49.04461" lon="1.57206">
        <ele>62.3486328125</ele>
        <time>2016-09-25T08:00:16.000Z</time>
      </trkpt>
      <trkpt lat="49.04464" lon="1.57204">
        <ele>62.606414794922</ele>
        <time>2016-09-25T08:00:18.000Z</time>
      </trkpt>
      <trkpt lat="49.0447" lon="1.572">
        <ele>62.896709442139</ele>
        <time>2016-09-25T08:00:21.000Z</time>
      </trkpt>
      <trkpt lat="49.04477" lon="1.57197">
        <ele>63.202434539795</ele>
        <time>2016-09-25T08:00:24.000Z</time>
      </trkpt>
      <trkpt lat="49.04483" lon="1.57195">
        <ele>63.518909454346</ele>
        <time>2016-09-25T08:00:27.000Z</time>
      </trkpt>
      <trkpt lat="49.04486" lon="1.57194">
        <ele>63.80965423584</ele>
        <time>2016-09-25T08:00:29.000Z</time>
      </trkpt>
      <trkpt lat="49.04492" lon="1.57193">
        <ele>64.10270690918</ele>
        <time>2016-09-25T08:00:32.000Z</time>
      </trkpt>
      <trkpt lat="49.04495" lon="1.57192">
        <ele>64.356704711914</ele>
        <time>2016-09-25T08:00:34.000Z</time>
      </trkpt>
      <trkpt lat="49.04501" lon="1.57192">
        <ele>64.587753295898</ele>
        <time>2016-09-25T08:00:37.000Z</time>
      </trkpt>
      <trkpt lat="49.04504" lon="1.57191">
        <ele>64.771484375</ele>
        <time>2016-09-25T08:00:39.000Z</time>
      </trkpt>
      <trkpt lat="49.0451" lon="1.57188">
        <ele>64.94263458252</ele>
        <time>2016-09-25T08:00:42.000Z</time>
      </trkpt>
      <trkpt lat="49.04517" lon="1.57186">
        <ele>65.090507507324</ele>
        <time>2016-09-25T08:00:45.000Z</time>
      </trkpt>
      <trkpt lat="49.0452" lon="1.57186">
        <ele>65.219604492188</ele>
        <time>2016-09-25T08:00:47.000Z</time>
      </trkpt>
      <trkpt lat="49.04522" lon="1.57185">
        <ele>65.311752319336</ele>
        <time>2016-09-25T08:00:49.000Z</time>
      </trkpt>
      <trkpt lat="49.04524" lon="1.57184">
        <ele>65.398231506348</ele>
        <time>2016-09-25T08:00:52.000Z</time>
      </trkpt>
      <trkpt lat="49.04525" lon="1.57182">
        <ele>65.464218139648</ele>
        <time>2016-09-25T08:00:54.000Z</time>
      </trkpt>
      <trkpt lat="49.04523" lon="1.57179">
        <ele>65.497009277344</ele>
        <time>2016-09-25T08:00:57.000Z</time>
      </trkpt>
      <trkpt lat="49.04521" lon="1.57181">
        <ele>65.503486633301</ele>
        <time>2016-09-25T08:01:00.000Z</time>
      </trkpt>
      <trkpt lat="49.04523" lon="1.57182">
        <ele>65.50757598877</ele>
        <time>2016-09-25T08:01:04.000Z</time>
      </trkpt>
      <trkpt lat="49.04525" lon="1.57181">
        <ele>65.514823913574</ele>
        <time>2016-09-25T08:01:06.000Z</time>
      </trkpt>
      <trkpt lat="49.04529" lon="1.57179">
        <ele>65.534637451172</ele>
        <time>2016-09-25T08:01:08.000Z</time>
      </trkpt>
      <trkpt lat="49.04532" lon="1.57177">
        <ele>65.576026916504</ele>
        <time>2016-09-25T08:01:10.000Z</time>
      </trkpt>
      <trkpt lat="49.04538" lon="1.57176">
        <ele>65.654579162598</ele>
        <time>2016-09-25T08:01:13.000Z</time>
      </trkpt>
      <trkpt lat="49.04541" lon="1.57176">
        <ele>65.742774963379</ele>
        <time>2016-09-25T08:01:15.000Z</time>
      </trkpt>
      <trkpt lat="49.04545" lon="1.57175">
        <ele>65.83610534668</ele>
        <time>2016-09-25T08:01:17.000Z</time>
      </trkpt>
      <trkpt lat="49.04551" lon="1.57173">
        <ele>65.944137573242</ele>
        <time>2016-09-25T08:01:20.000Z</time>
      </trkpt>
      <trkpt lat="49.04557" lon="1.57171">
        <ele>66.067123413086</ele>
        <time>2016-09-25T08:01:23.000Z</time>
      </trkpt>
      <trkpt lat="49.04563" lon="1.5717">
        <ele>66.19278717041</ele>
        <time>2016-09-25T08:01:26.000Z</time>
      </trkpt>
      <trkpt lat="49.04569" lon="1.57169">
        <ele>66.331253051758</ele>
        <time>2016-09-25T08:01:29.000Z</time>
      </trkpt>
      <trkpt lat="49.04573" lon="1.57168">
        <ele>66.472763061523</ele>
        <time>2016-09-25T08:01:32.000Z</time>
      </trkpt>
      <trkpt lat="49.04576" lon="1.57167">
        <ele>66.601608276367</ele>
        <time>2016-09-25T08:01:34.000Z</time>
      </trkpt>
      <trkpt lat="49.0458" lon="1.57165">
        <ele>66.720565795898</ele>
        <time>2016-09-25T08:01:36.000Z</time>
      </trkpt>
      <trkpt lat="49.04588" lon="1.57162">
        <ele>66.823081970215</ele>
        <time>2016-09-25T08:01:39.000Z</time>
      </trkpt>
      <trkpt lat="49.04593" lon="1.57159">
        <ele>66.895233154297</ele>
        <time>2016-09-25T08:01:41.000Z</time>
      </trkpt>
      <trkpt lat="49.04597" lon="1.57157">
        <ele>66.944694519043</ele>
        <time>2016-09-25T08:01:43.000Z</time>
      </trkpt>
      <trkpt lat="49.04602" lon="1.57156">
        <ele>66.973762512207</ele>
        <time>2016-09-25T08:01:45.000Z</time>
      </trkpt>
      <trkpt lat="49.0461" lon="1.57154">
        <ele>66.977470397949</ele>
        <time>2016-09-25T08:01:48.000Z</time>
      </trkpt>
      <trkpt lat="49.04615" lon="1.57152">
        <ele>66.965087890625</ele>
        <time>2016-09-25T08:01:50.000Z</time>
      </trkpt>
      <trkpt lat="49.04622" lon="1.57149">
        <ele>66.947227478027</ele>
        <time>2016-09-25T08:01:53.000Z</time>
      </trkpt>
      <trkpt lat="49.04628" lon="1.57147">
        <ele>66.925521850586</ele>
        <time>2016-09-25T08:01:55.000Z</time>
      </trkpt>
      <trkpt lat="49.04636" lon="1.57143">
        <ele>66.896354675293</ele>
        <time>2016-09-25T08:01:58.000Z</time>
      </trkpt>
      <trkpt lat="49.04645" lon="1.5714">
        <ele>66.859756469727</ele>
        <time>2016-09-25T08:02:01.000Z</time>
      </trkpt>
      <trkpt lat="49.04653" lon="1.57139">
        <ele>66.816276550293</ele>
        <time>2016-09-25T08:02:04.000Z</time>
      </trkpt>
      <trkpt lat="49.04661" lon="1.57147">
        <ele>66.79328918457</ele>
        <time>2016-09-25T08:02:07.000Z</time>
      </trkpt>
      <trkpt lat="49.04665" lon="1.57165">
        <ele>66.814880371094</ele>
        <time>2016-09-25T08:02:10.000Z</time>
      </trkpt>
      <trkpt lat="49.04668" lon="1.57184">
        <ele>66.851821899414</ele>
        <time>2016-09-25T08:02:13.000Z</time>
      </trkpt>
      <trkpt lat="49.04672" lon="1.57202">
        <ele>66.909362792969</ele>
        <time>2016-09-25T08:02:16.000Z</time>
      </trkpt>
      <trkpt lat="49.04676" lon="1.57219">
        <ele>66.995262145996</ele>
        <time>2016-09-25T08:02:19.000Z</time>
      </trkpt>
      <trkpt lat="49.04681" lon="1.57234">
        <ele>67.092384338379</ele>
        <time>2016-09-25T08:02:22.000Z</time>
      </trkpt>
      <trkpt lat="49.04684" lon="1.57252">
        <ele>67.184463500977</ele>
        <time>2016-09-25T08:02:25.000Z</time>
      </trkpt>
      <trkpt lat="49.04687" lon="1.57265">
        <ele>67.306259155273</ele>
        <time>2016-09-25T08:02:27.000Z</time>
      </trkpt>
      <trkpt lat="49.04691" lon="1.57286">
        <ele>67.473731994629</ele>
        <time>2016-09-25T08:02:30.000Z</time>
      </trkpt>
      <trkpt lat="49.04696" lon="1.57299">
        <ele>67.66178894043</ele>
        <time>2016-09-25T08:02:32.000Z</time>
      </trkpt>
      <trkpt lat="49.04705" lon="1.57317">
        <ele>67.876541137695</ele>
        <time>2016-09-25T08:02:35.000Z</time>
      </trkpt>
      <trkpt lat="49.04715" lon="1.57332">
        <ele>68.102264404297</ele>
        <time>2016-09-25T08:02:38.000Z</time>
      </trkpt>
      <trkpt lat="49.04724" lon="1.57345">
        <ele>68.326194763184</ele>
        <time>2016-09-25T08:02:41.000Z</time>
      </trkpt>
      <trkpt lat="49.0473" lon="1.57353">
        <ele>68.525260925293</ele>
        <time>2016-09-25T08:02:43.000Z</time>
      </trkpt>
      <trkpt lat="49.04739" lon="1.57365">
        <ele>68.74055480957</ele>
        <time>2016-09-25T08:02:46.000Z</time>
      </trkpt>
      <trkpt lat="49.04748" lon="1.57379">
        <ele>68.971244812012</ele>
        <time>2016-09-25T08:02:49.000Z</time>
      </trkpt>
      <trkpt lat="49.04758" lon="1.57392">
        <ele>69.215591430664</ele>
        <time>2016-09-25T08:02:52.000Z</time>
      </trkpt>
      <trkpt lat="49.04767" lon="1.57405">
        <ele>69.481109619141</ele>
        <time>2016-09-25T08:02:55.000Z</time>
      </trkpt>
      <trkpt lat="49.04773" lon="1.57413">
        <ele>69.751770019531</ele>
        <time>2016-09-25T08:02:57.000Z</time>
      </trkpt>
      <trkpt lat="49.04783" lon="1.57425">
        <ele>70.010009765625</ele>
        <time>2016-09-25T08:03:00.000Z</time>
      </trkpt>
      <trkpt lat="49.04794" lon="1.57434">
        <ele>70.235717773438</ele>
        <time>2016-09-25T08:03:03.000Z</time>
      </trkpt>
      <trkpt lat="49.04805" lon="1.57443">
        <ele>70.430870056152</ele>
        <time>2016-09-25T08:03:06.000Z</time>
      </trkpt>
      <trkpt lat="49.04816" lon="1.5745">
        <ele>70.593017578125</ele>
        <time>2016-09-25T08:03:09.000Z</time>
      </trkpt>
      <trkpt lat="49.04827" lon="1.57457">
        <ele>70.73713684082</ele>
        <time>2016-09-25T08:03:12.000Z</time>
      </trkpt>
      <trkpt lat="49.04834" lon="1.57462">
        <ele>70.850082397461</ele>
        <time>2016-09-25T08:03:14.000Z</time>
      </trkpt>
      <trkpt lat="49.04845" lon="1.5747">
        <ele>70.998550415039</ele>
        <time>2016-09-25T08:03:17.000Z</time>
      </trkpt>
      <trkpt lat="49.04852" lon="1.57476">
        <ele>71.168685913086</ele>
        <time>2016-09-25T08:03:19.000Z</time>
      </trkpt>
      <trkpt lat="49.04863" lon="1.57485">
        <ele>71.390602111816</ele>
        <time>2016-09-25T08:03:22.000Z</time>
      </trkpt>
      <trkpt lat="49.04873" lon="1.57494">
        <ele>71.67707824707</ele>
        <time>2016-09-25T08:03:25.000Z</time>
      </trkpt>
      <trkpt lat="49.04881" lon="1.575">
        <ele>72.011596679688</ele>
        <time>2016-09-25T08:03:27.000Z</time>
      </trkpt>
      <trkpt lat="49.04891" lon="1.57509">
        <ele>72.355491638184</ele>
        <time>2016-09-25T08:03:30.000Z</time>
      </trkpt>
      <trkpt lat="49.04898" lon="1.57515">
        <ele>72.696701049805</ele>
        <time>2016-09-25T08:03:32.000Z</time>
      </trkpt>
      <trkpt lat="49.04904" lon="1.5752">
        <ele>73.008285522461</ele>
        <time>2016-09-25T08:03:34.000Z</time>
      </trkpt>
      <trkpt lat="49.04911" lon="1.57525">
        <ele>73.28498840332</ele>
        <time>2016-09-25T08:03:36.000Z</time>
      </trkpt>
      <trkpt lat="49.0492" lon="1.57533">
        <ele>73.566352844238</ele>
        <time>2016-09-25T08:03:39.000Z</time>
      </trkpt>
      <trkpt lat="49.04926" lon="1.57538">
        <ele>73.802673339844</ele>
        <time>2016-09-25T08:03:41.000Z</time>
      </trkpt>
      <trkpt lat="49.04931" lon="1.57544">
        <ele>74.024452209473</ele>
        <time>2016-09-25T08:03:43.000Z</time>
      </trkpt>
      <trkpt lat="49.0494" lon="1.57552">
        <ele>74.247444152832</ele>
        <time>2016-09-25T08:03:46.000Z</time>
      </trkpt>
      <trkpt lat="49.04945" lon="1.57558">
        <ele>74.449157714844</ele>
        <time>2016-09-25T08:03:48.000Z</time>
      </trkpt>
      <trkpt lat="49.04951" lon="1.57564">
        <ele>74.612258911133</ele>
        <time>2016-09-25T08:03:50.000Z</time>
      </trkpt>
      <trkpt lat="49.04959" lon="1.57572">
        <ele>74.774810791016</ele>
        <time>2016-09-25T08:03:53.000Z</time>
      </trkpt>
      <trkpt lat="49.04967" lon="1.57579">
        <ele>74.933837890625</ele>
        <time>2016-09-25T08:03:56.000Z</time>
      </trkpt>
      <trkpt lat="49.04974" lon="1.57587">
        <ele>75.086082458496</ele>
        <time>2016-09-25T08:03:59.000Z</time>
      </trkpt>
      <trkpt lat="49.04982" lon="1.57594">
        <ele>75.265869140625</ele>
        <time>2016-09-25T08:04:02.000Z</time>
      </trkpt>
      <trkpt lat="49.04987" lon="1.57599">
        <ele>75.455413818359</ele>
        <time>2016-09-25T08:04:04.000Z</time>
      </trkpt>
      <trkpt lat="49.04993" lon="1.57608">
        <ele>75.663650512695</ele>
        <time>2016-09-25T08:04:07.000Z</time>
      </trkpt>
      <trkpt lat="49.04998" lon="1.57614">
        <ele>75.87890625</ele>
        <time>2016-09-25T08:04:09.000Z</time>
      </trkpt>
      <trkpt lat="49.05004" lon="1.57623">
        <ele>76.158935546875</ele>
        <time>2016-09-25T08:04:12.000Z</time>
      </trkpt>
      <trkpt lat="49.05008" lon="1.5763">
        <ele>76.471221923828</ele>
        <time>2016-09-25T08:04:14.000Z</time>
      </trkpt>
      <trkpt lat="49.05012" lon="1.57637">
        <ele>76.832977294922</ele>
        <time>2016-09-25T08:04:16.000Z</time>
      </trkpt>
      <trkpt lat="49.05018" lon="1.57647">
        <ele>77.262237548828</ele>
        <time>2016-09-25T08:04:19.000Z</time>
      </trkpt>
      <trkpt lat="49.05023" lon="1.57657">
        <ele>77.768371582031</ele>
        <time>2016-09-25T08:04:22.000Z</time>
      </trkpt>
      <trkpt lat="49.05027" lon="1.57664">
        <ele>78.243438720703</ele>
        <time>2016-09-25T08:04:24.000Z</time>
      </trkpt>
      <trkpt lat="49.05033" lon="1.57675">
        <ele>78.76912689209</ele>
        <time>2016-09-25T08:04:27.000Z</time>
      </trkpt>
      <trkpt lat="49.05038" lon="1.57686">
        <ele>79.331642150879</ele>
        <time>2016-09-25T08:04:30.000Z</time>
      </trkpt>
      <trkpt lat="49.05042" lon="1.57694">
        <ele>79.85279083252</ele>
        <time>2016-09-25T08:04:32.000Z</time>
      </trkpt>
      <trkpt lat="49.05046" lon="1.57703">
        <ele>80.327194213867</ele>
        <time>2016-09-25T08:04:34.000Z</time>
      </trkpt>
      <trkpt lat="49.05051" lon="1.57716">
        <ele>80.808975219727</ele>
        <time>2016-09-25T08:04:37.000Z</time>
      </trkpt>
      <trkpt lat="49.05056" lon="1.5773">
        <ele>81.227249145508</ele>
        <time>2016-09-25T08:04:40.000Z</time>
      </trkpt>
      <trkpt lat="49.05062" lon="1.57744">
        <ele>81.575317382812</ele>
        <time>2016-09-25T08:04:43.000Z</time>
      </trkpt>
      <trkpt lat="49.05066" lon="1.57753">
        <ele>81.865989685059</ele>
        <time>2016-09-25T08:04:45.000Z</time>
      </trkpt>
      <trkpt lat="49.05069" lon="1.57761">
        <ele>82.097305297852</ele>
        <time>2016-09-25T08:04:47.000Z</time>
      </trkpt>
      <trkpt lat="49.05073" lon="1.57772">
        <ele>82.254211425781</ele>
        <time>2016-09-25T08:04:50.000Z</time>
      </trkpt>
      <trkpt lat="49.05075" lon="1.57778">
        <ele>82.338729858398</ele>
        <time>2016-09-25T08:04:52.000Z</time>
      </trkpt>
      <trkpt lat="49.05077" lon="1.57786">
        <ele>82.365577697754</ele>
        <time>2016-09-25T08:04:55.000Z</time>
      </trkpt>
      <trkpt lat="49.05078" lon="1.5779">
        <ele>82.368782043457</ele>
        <time>2016-09-25T08:04:57.000Z</time>
      </trkpt>
      <trkpt lat="49.0508" lon="1.57797">
        <ele>82.364418029785</ele>
        <time>2016-09-25T08:05:00.000Z</time>
      </trkpt>
      <trkpt lat="49.05082" lon="1.57802">
        <ele>82.352905273438</ele>
        <time>2016-09-25T08:05:03.000Z</time>
      </trkpt>
      <trkpt lat="49.05083" lon="1.57808">
        <ele>82.336166381836</ele>
        <time>2016-09-25T08:05:06.000Z</time>
      </trkpt>
      <trkpt lat="49.05086" lon="1.57818">
        <ele>82.313453674316</ele>
        <time>2016-09-25T08:05:09.000Z</time>
      </trkpt>
      <trkpt lat="49.05087" lon="1.57826">
        <ele>82.281517028809</ele>
        <time>2016-09-25T08:05:11.000Z</time>
      </trkpt>
      <trkpt lat="49.05089" lon="1.57832">
        <ele>82.241737365723</ele>
        <time>2016-09-25T08:05:13.000Z</time>
      </trkpt>
      <trkpt lat="49.0509" lon="1.57842">
        <ele>82.209243774414</ele>
        <time>2016-09-25T08:05:16.000Z</time>
      </trkpt>
      <trkpt lat="49.05091" lon="1.57852">
        <ele>82.187683105469</ele>
        <time>2016-09-25T08:05:19.000Z</time>
      </trkpt>
      <trkpt lat="49.05093" lon="1.57862">
        <ele>82.184028625488</ele>
        <time>2016-09-25T08:05:22.000Z</time>
      </trkpt>
      <trkpt lat="49.05093" lon="1.57873">
        <ele>82.194046020508</ele>
        <time>2016-09-25T08:05:25.000Z</time>
      </trkpt>
      <trkpt lat="49.05093" lon="1.57881">
        <ele>82.21484375</ele>
        <time>2016-09-25T08:05:27.000Z</time>
      </trkpt>
      <trkpt lat="49.05095" lon="1.57889">
        <ele>82.234375</ele>
        <time>2016-09-25T08:05:29.000Z</time>
      </trkpt>
      <trkpt lat="49.05096" lon="1.57902">
        <ele>82.25390625</ele>
        <time>2016-09-25T08:05:32.000Z</time>
      </trkpt>
      <trkpt lat="49.05097" lon="1.57911">
        <ele>82.2734375</ele>
        <time>2016-09-25T08:05:34.000Z</time>
      </trkpt>
      <trkpt lat="49.05099" lon="1.5792">
        <ele>82.288269042969</ele>
        <time>2016-09-25T08:05:36.000Z</time>
      </trkpt>
      <trkpt lat="49.05101" lon="1.57934">
        <ele>82.26057434082</ele>
        <time>2016-09-25T08:05:39.000Z</time>
      </trkpt>
      <trkpt lat="49.05104" lon="1.57948">
        <ele>82.197158813477</ele>
        <time>2016-09-25T08:05:41.000Z</time>
      </trkpt>
      <trkpt lat="49.05107" lon="1.57973">
        <ele>82.062698364258</ele>
        <time>2016-09-25T08:05:44.000Z</time>
      </trkpt>
      <trkpt lat="49.0511" lon="1.58">
        <ele>81.853530883789</ele>
        <time>2016-09-25T08:05:47.000Z</time>
      </trkpt>
      <trkpt lat="49.05111" lon="1.58018">
        <ele>81.570411682129</ele>
        <time>2016-09-25T08:05:49.000Z</time>
      </trkpt>
      <trkpt lat="49.05112" lon="1.58038">
        <ele>81.244186401367</ele>
        <time>2016-09-25T08:05:51.000Z</time>
      </trkpt>
      <trkpt lat="49.05116" lon="1.58069">
        <ele>80.834663391113</ele>
        <time>2016-09-25T08:05:54.000Z</time>
      </trkpt>
      <trkpt lat="49.05119" lon="1.58092">
        <ele>80.403648376465</ele>
        <time>2016-09-25T08:05:56.000Z</time>
      </trkpt>
      <trkpt lat="49.05123" lon="1.58114">
        <ele>79.94620513916</ele>
        <time>2016-09-25T08:05:58.000Z</time>
      </trkpt>
      <trkpt lat="49.0513" lon="1.5815">
        <ele>79.407936096191</ele>
        <time>2016-09-25T08:06:01.000Z</time>
      </trkpt>
      <trkpt lat="49.05139" lon="1.58174">
        <ele>78.885787963867</ele>
        <time>2016-09-25T08:06:03.000Z</time>
      </trkpt>
      <trkpt lat="49.0515" lon="1.58199">
        <ele>78.446151733398</ele>
        <time>2016-09-25T08:06:06.000Z</time>
      </trkpt>
      <trkpt lat="49.05158" lon="1.58211">
        <ele>78.08797454834</ele>
        <time>2016-09-25T08:06:09.000Z</time>
      </trkpt>
      <trkpt lat="49.05164" lon="1.58214">
        <ele>77.847885131836</ele>
        <time>2016-09-25T08:06:11.000Z</time>
      </trkpt>
      <trkpt lat="49.05178" lon="1.58214">
        <ele>77.771659851074</ele>
        <time>2016-09-25T08:06:14.000Z</time>
      </trkpt>
      <trkpt lat="49.05189" lon="1.58214">
        <ele>77.753898620605</ele>
        <time>2016-09-25T08:06:16.000Z</time>
      </trkpt>
      <trkpt lat="49.05201" lon="1.58215">
        <ele>77.753395080566</ele>
        <time>2016-09-25T08:06:18.000Z</time>
      </trkpt>
      <trkpt lat="49.05214" lon="1.58215">
        <ele>77.749206542969</ele>
        <time>2016-09-25T08:06:20.000Z</time>
      </trkpt>
      <trkpt lat="49.05234" lon="1.58216">
        <ele>77.697189331055</ele>
        <time>2016-09-25T08:06:23.000Z</time>
      </trkpt>
      <trkpt lat="49.05253" lon="1.58218">
        <ele>77.588645935059</ele>
        <time>2016-09-25T08:06:26.000Z</time>
      </trkpt>
      <trkpt lat="49.05273" lon="1.58222">
        <ele>77.341209411621</ele>
        <time>2016-09-25T08:06:29.000Z</time>
      </trkpt>
      <trkpt lat="49.05288" lon="1.58225">
        <ele>77.013595581055</ele>
        <time>2016-09-25T08:06:31.000Z</time>
      </trkpt>
      <trkpt lat="49.05309" lon="1.58227">
        <ele>76.577941894531</ele>
        <time>2016-09-25T08:06:34.000Z</time>
      </trkpt>
      <trkpt lat="49.0533" lon="1.5823">
        <ele>76.016731262207</ele>
        <time>2016-09-25T08:06:37.000Z</time>
      </trkpt>
      <trkpt lat="49.0535" lon="1.58235">
        <ele>75.490913391113</ele>
        <time>2016-09-25T08:06:40.000Z</time>
      </trkpt>
      <trkpt lat="49.0537" lon="1.58247">
        <ele>75.011207580566</ele>
        <time>2016-09-25T08:06:43.000Z</time>
      </trkpt>
      <trkpt lat="49.05387" lon="1.58254">
        <ele>74.603065490723</ele>
        <time>2016-09-25T08:06:46.000Z</time>
      </trkpt>
      <trkpt lat="49.05398" lon="1.58257">
        <ele>74.30924987793</ele>
        <time>2016-09-25T08:06:48.000Z</time>
      </trkpt>
      <trkpt lat="49.05408" lon="1.58259">
        <ele>74.173362731934</ele>
        <time>2016-09-25T08:06:50.000Z</time>
      </trkpt>
      <trkpt lat="49.05423" lon="1.58263">
        <ele>74.09691619873</ele>
        <time>2016-09-25T08:06:53.000Z</time>
      </trkpt>
      <trkpt lat="49.05437" lon="1.5827">
        <ele>74.187950134277</ele>
        <time>2016-09-25T08:06:56.000Z</time>
      </trkpt>
      <trkpt lat="49.05446" lon="1.58274">
        <ele>74.332412719727</ele>
        <time>2016-09-25T08:06:58.000Z</time>
      </trkpt>
      <trkpt lat="49.05458" lon="1.58281">
        <ele>74.500610351562</ele>
        <time>2016-09-25T08:07:01.000Z</time>
      </trkpt>
      <trkpt lat="49.05465" lon="1.58286">
        <ele>74.677337646484</ele>
        <time>2016-09-25T08:07:03.000Z</time>
      </trkpt>
      <trkpt lat="49.05476" lon="1.58291">
        <ele>74.847229003906</ele>
        <time>2016-09-25T08:07:06.000Z</time>
      </trkpt>
      <trkpt lat="49.05483" lon="1.58295">
        <ele>74.967712402344</ele>
        <time>2016-09-25T08:07:08.000Z</time>
      </trkpt>
      <trkpt lat="49.05492" lon="1.58302">
        <ele>75.052032470703</ele>
        <time>2016-09-25T08:07:11.000Z</time>
      </trkpt>
      <trkpt lat="49.05502" lon="1.58313">
        <ele>75.032623291016</ele>
        <time>2016-09-25T08:07:14.000Z</time>
      </trkpt>
      <trkpt lat="49.05508" lon="1.58325">
        <ele>74.819458007812</ele>
        <time>2016-09-25T08:07:16.000Z</time>
      </trkpt>
      <trkpt lat="49.05517" lon="1.58335">
        <ele>74.415306091309</ele>
        <time>2016-09-25T08:07:18.000Z</time>
      </trkpt>
      <trkpt lat="49.05527" lon="1.58338">
        <ele>73.939331054688</ele>
        <time>2016-09-25T08:07:20.000Z</time>
      </trkpt>
      <trkpt lat="49.05536" lon="1.58339">
        <ele>73.472145080566</ele>
        <time>2016-09-25T08:07:22.000Z</time>
      </trkpt>
      <trkpt lat="49.05545" lon="1.5834">
        <ele>73.082817077637</ele>
        <time>2016-09-25T08:07:24.000Z</time>
      </trkpt>
      <trkpt lat="49.05556" lon="1.58341">
        <ele>72.860687255859</ele>
        <time>2016-09-25T08:07:27.000Z</time>
      </trkpt>
      <trkpt lat="49.05568" lon="1.58342">
        <ele>72.753311157227</ele>
        <time>2016-09-25T08:07:30.000Z</time>
      </trkpt>
      <trkpt lat="49.05587" lon="1.58339">
        <ele>72.814743041992</ele>
        <time>2016-09-25T08:07:33.000Z</time>
      </trkpt>
      <trkpt lat="49.05611" lon="1.58335">
        <ele>73.055976867676</ele>
        <time>2016-09-25T08:07:36.000Z</time>
      </trkpt>
      <trkpt lat="49.05629" lon="1.58338">
        <ele>73.279861450195</ele>
        <time>2016-09-25T08:07:38.000Z</time>
      </trkpt>
      <trkpt lat="49.05647" lon="1.58344">
        <ele>73.383010864258</ele>
        <time>2016-09-25T08:07:40.000Z</time>
      </trkpt>
      <trkpt lat="49.05673" lon="1.58357">
        <ele>73.214706420898</ele>
        <time>2016-09-25T08:07:43.000Z</time>
      </trkpt>
      <trkpt lat="49.05689" lon="1.58368">
        <ele>72.724182128906</ele>
        <time>2016-09-25T08:07:45.000Z</time>
      </trkpt>
      <trkpt lat="49.05716" lon="1.58375">
        <ele>72.070846557617</ele>
        <time>2016-09-25T08:07:48.000Z</time>
      </trkpt>
      <trkpt lat="49.05736" lon="1.58379">
        <ele>71.540168762207</ele>
        <time>2016-09-25T08:07:51.000Z</time>
      </trkpt>
      <trkpt lat="49.05744" lon="1.58379">
        <ele>71.20671081543</ele>
        <time>2016-09-25T08:07:54.000Z</time>
      </trkpt>
      <trkpt lat="49.05749" lon="1.58378">
        <ele>71.22492980957</ele>
        <time>2016-09-25T08:07:57.000Z</time>
      </trkpt>
      <trkpt lat="49.05752" lon="1.5838">
        <ele>71.487365722656</ele>
        <time>2016-09-25T08:08:00.000Z</time>
      </trkpt>
      <trkpt lat="49.05752" lon="1.58384">
        <ele>71.689949035645</ele>
        <time>2016-09-25T08:08:03.000Z</time>
      </trkpt>
      <trkpt lat="49.0575" lon="1.58386">
        <ele>71.729446411133</ele>
        <time>2016-09-25T08:08:05.000Z</time>
      </trkpt>
      <trkpt lat="49.05747" lon="1.58385">
        <ele>71.68196105957</ele>
        <time>2016-09-25T08:08:07.000Z</time>
      </trkpt>
      <trkpt lat="49.05747" lon="1.5838">
        <ele>71.648292541504</ele>
        <time>2016-09-25T08:08:10.000Z</time>
      </trkpt>
      <trkpt lat="49.0575" lon="1.58378">
        <ele>71.630516052246</ele>
        <time>2016-09-25T08:08:13.000Z</time>
      </trkpt>
      <trkpt lat="49.05757" lon="1.58381">
        <ele>71.757347106934</ele>
        <time>2016-09-25T08:08:16.000Z</time>
      </trkpt>
      <trkpt lat="49.05763" lon="1.5838">
        <ele>72.08863067627</ele>
        <time>2016-09-25T08:08:19.000Z</time>
      </trkpt>
      <trkpt lat="49.05766" lon="1.58377">
        <ele>72.526191711426</ele>
        <time>2016-09-25T08:08:21.000Z</time>
      </trkpt>
      <trkpt lat="49.05772" lon="1.58375">
        <ele>73.036140441895</ele>
        <time>2016-09-25T08:08:24.000Z</time>
      </trkpt>
      <trkpt lat="49.05776" lon="1.58374">
        <ele>73.603782653809</ele>
        <time>2016-09-25T08:08:27.000Z</time>
      </trkpt>
      <trkpt lat="49.05782" lon="1.58374">
        <ele>74.175109863281</ele>
        <time>2016-09-25T08:08:30.000Z</time>
      </trkpt>
      <trkpt lat="49.05786" lon="1.58374">
        <ele>74.694831848145</ele>
        <time>2016-09-25T08:08:33.000Z</time>
      </trkpt>
      <trkpt lat="49.05789" lon="1.58373">
        <ele>75.203002929688</ele>
        <time>2016-09-25T08:08:35.000Z</time>
      </trkpt>
      <trkpt lat="49.05793" lon="1.58371">
        <ele>75.676292419434</ele>
        <time>2016-09-25T08:08:38.000Z</time>
      </trkpt>
      <trkpt lat="49.05796" lon="1.5837">
        <ele>76.09326171875</ele>
        <time>2016-09-25T08:08:40.000Z</time>
      </trkpt>
      <trkpt lat="49.058" lon="1.58369">
        <ele>76.490524291992</ele>
        <time>2016-09-25T08:08:43.000Z</time>
      </trkpt>
      <trkpt lat="49.05803" lon="1.58368">
        <ele>76.851768493652</ele>
        <time>2016-09-25T08:08:45.000Z</time>
      </trkpt>
      <trkpt lat="49.05806" lon="1.58365">
        <ele>77.23503112793</ele>
        <time>2016-09-25T08:08:48.000Z</time>
      </trkpt>
      <trkpt lat="49.05811" lon="1.58363">
        <ele>77.611671447754</ele>
        <time>2016-09-25T08:08:51.000Z</time>
      </trkpt>
      <trkpt lat="49.05813" lon="1.58363">
        <ele>77.992065429688</ele>
        <time>2016-09-25T08:08:53.000Z</time>
      </trkpt>
      <trkpt lat="49.05817" lon="1.58363">
        <ele>78.363021850586</ele>
        <time>2016-09-25T08:08:56.000Z</time>
      </trkpt>
      <trkpt lat="49.0582" lon="1.58363">
        <ele>78.72673034668</ele>
        <time>2016-09-25T08:08:58.000Z</time>
      </trkpt>
      <trkpt lat="49.05823" lon="1.58363">
        <ele>79.055999755859</ele>
        <time>2016-09-25T08:09:00.000Z</time>
      </trkpt>
      <trkpt lat="49.05827" lon="1.58365">
        <ele>79.365829467773</ele>
        <time>2016-09-25T08:09:03.000Z</time>
      </trkpt>
      <trkpt lat="49.0583" lon="1.58365">
        <ele>79.673561096191</ele>
        <time>2016-09-25T08:09:05.000Z</time>
      </trkpt>
      <trkpt lat="49.05833" lon="1.58365">
        <ele>79.974807739258</ele>
        <time>2016-09-25T08:09:08.000Z</time>
      </trkpt>
      <trkpt lat="49.05838" lon="1.58365">
        <ele>80.378746032715</ele>
        <time>2016-09-25T08:09:11.000Z</time>
      </trkpt>
      <trkpt lat="49.0584" lon="1.58366">
        <ele>80.802284240723</ele>
        <time>2016-09-25T08:09:13.000Z</time>
      </trkpt>
      <trkpt lat="49.05843" lon="1.58367">
        <ele>81.238136291504</ele>
        <time>2016-09-25T08:09:15.000Z</time>
      </trkpt>
      <trkpt lat="49.05844" lon="1.58368">
        <ele>81.673126220703</ele>
        <time>2016-09-25T08:09:17.000Z</time>
      </trkpt>
      <trkpt lat="49.05848" lon="1.58368">
        <ele>82.157043457031</ele>
        <time>2016-09-25T08:09:20.000Z</time>
      </trkpt>
      <trkpt lat="49.0585" lon="1.58369">
        <ele>82.572204589844</ele>
        <time>2016-09-25T08:09:22.000Z</time>
      </trkpt>
      <trkpt lat="49.05853" lon="1.58369">
        <ele>82.973754882812</ele>
        <time>2016-09-25T08:09:24.000Z</time>
      </trkpt>
      <trkpt lat="49.05854" lon="1.5837">
        <ele>83.362579345703</ele>
        <time>2016-09-25T08:09:26.000Z</time>
      </trkpt>
      <trkpt lat="49.05857" lon="1.58371">
        <ele>83.765075683594</ele>
        <time>2016-09-25T08:09:28.000Z</time>
      </trkpt>
      <trkpt lat="49.0586" lon="1.58372">
        <ele>84.166900634766</ele>
        <time>2016-09-25T08:09:31.000Z</time>
      </trkpt>
      <trkpt lat="49.05862" lon="1.58373">
        <ele>84.553558349609</ele>
        <time>2016-09-25T08:09:33.000Z</time>
      </trkpt>
      <trkpt lat="49.05864" lon="1.58374">
        <ele>84.924957275391</ele>
        <time>2016-09-25T08:09:35.000Z</time>
      </trkpt>
      <trkpt lat="49.05867" lon="1.58376">
        <ele>85.349334716797</ele>
        <time>2016-09-25T08:09:38.000Z</time>
      </trkpt>
      <trkpt lat="49.0587" lon="1.58378">
        <ele>85.796417236328</ele>
        <time>2016-09-25T08:09:41.000Z</time>
      </trkpt>
      <trkpt lat="49.05873" lon="1.5838">
        <ele>86.201232910156</ele>
        <time>2016-09-25T08:09:43.000Z</time>
      </trkpt>
      <trkpt lat="49.05875" lon="1.58381">
        <ele>86.605651855469</ele>
        <time>2016-09-25T08:09:45.000Z</time>
      </trkpt>
      <trkpt lat="49.05877" lon="1.58382">
        <ele>87.036865234375</ele>
        <time>2016-09-25T08:09:47.000Z</time>
      </trkpt>
      <trkpt lat="49.0588" lon="1.58385">
        <ele>87.436889648438</ele>
        <time>2016-09-25T08:09:50.000Z</time>
      </trkpt>
      <trkpt lat="49.05883" lon="1.58388">
        <ele>87.837249755859</ele>
        <time>2016-09-25T08:09:53.000Z</time>
      </trkpt>
      <trkpt lat="49.05885" lon="1.5839">
        <ele>88.223754882812</ele>
        <time>2016-09-25T08:09:55.000Z</time>
      </trkpt>
      <trkpt lat="49.05886" lon="1.58392">
        <ele>88.594482421875</ele>
        <time>2016-09-25T08:09:57.000Z</time>
      </trkpt>
      <trkpt lat="49.05888" lon="1.58394">
        <ele>88.936401367188</ele>
        <time>2016-09-25T08:09:59.000Z</time>
      </trkpt>
      <trkpt lat="49.05891" lon="1.58396">
        <ele>89.279449462891</ele>
        <time>2016-09-25T08:10:02.000Z</time>
      </trkpt>
      <trkpt lat="49.05893" lon="1.58399">
        <ele>89.594390869141</ele>
        <time>2016-09-25T08:10:05.000Z</time>
      </trkpt>
      <trkpt lat="49.05895" lon="1.58401">
        <ele>89.909606933594</ele>
        <time>2016-09-25T08:10:07.000Z</time>
      </trkpt>
      <trkpt lat="49.05898" lon="1.58404">
        <ele>90.277984619141</ele>
        <time>2016-09-25T08:10:10.000Z</time>
      </trkpt>
      <trkpt lat="49.05901" lon="1.58405">
        <ele>90.6611328125</ele>
        <time>2016-09-25T08:10:12.000Z</time>
      </trkpt>
      <trkpt lat="49.05902" lon="1.58406">
        <ele>91.019714355469</ele>
        <time>2016-09-25T08:10:14.000Z</time>
      </trkpt>
      <trkpt lat="49.05905" lon="1.58408">
        <ele>91.393737792969</ele>
        <time>2016-09-25T08:10:17.000Z</time>
      </trkpt>
      <trkpt lat="49.05908" lon="1.58411">
        <ele>91.794006347656</ele>
        <time>2016-09-25T08:10:20.000Z</time>
      </trkpt>
      <trkpt lat="49.0591" lon="1.58412">
        <ele>92.155700683594</ele>
        <time>2016-09-25T08:10:22.000Z</time>
      </trkpt>
      <trkpt lat="49.05912" lon="1.58415">
        <ele>92.514404296875</ele>
        <time>2016-09-25T08:10:25.000Z</time>
      </trkpt>
      <trkpt lat="49.05915" lon="1.58418">
        <ele>92.908653259277</ele>
        <time>2016-09-25T08:10:28.000Z</time>
      </trkpt>
      <trkpt lat="49.05917" lon="1.58419">
        <ele>93.303733825684</ele>
        <time>2016-09-25T08:10:30.000Z</time>
      </trkpt>
      <trkpt lat="49.05919" lon="1.58422">
        <ele>93.694595336914</ele>
        <time>2016-09-25T08:10:33.000Z</time>
      </trkpt>
      <trkpt lat="49.05922" lon="1.58426">
        <ele>94.123588562012</ele>
        <time>2016-09-25T08:10:36.000Z</time>
      </trkpt>
      <trkpt lat="49.05924" lon="1.58429">
        <ele>94.574356079102</ele>
        <time>2016-09-25T08:10:39.000Z</time>
      </trkpt>
      <trkpt lat="49.05926" lon="1.58432">
        <ele>94.988403320312</ele>
        <time>2016-09-25T08:10:41.000Z</time>
      </trkpt>
      <trkpt lat="49.05928" lon="1.58435">
        <ele>95.429481506348</ele>
        <time>2016-09-25T08:10:44.000Z</time>
      </trkpt>
      <trkpt lat="49.0593" lon="1.58438">
        <ele>95.856773376465</ele>
        <time>2016-09-25T08:10:47.000Z</time>
      </trkpt>
      <trkpt lat="49.05933" lon="1.5844">
        <ele>96.28337097168</ele>
        <time>2016-09-25T08:10:50.000Z</time>
      </trkpt>
      <trkpt lat="49.05935" lon="1.58442">
        <ele>96.696990966797</ele>
        <time>2016-09-25T08:10:52.000Z</time>
      </trkpt>
      <trkpt lat="49.05938" lon="1.58445">
        <ele>97.143028259277</ele>
        <time>2016-09-25T08:10:55.000Z</time>
      </trkpt>
      <trkpt lat="49.0594" lon="1.58447">
        <ele>97.589935302734</ele>
        <time>2016-09-25T08:10:58.000Z</time>
      </trkpt>
      <trkpt lat="49.05943" lon="1.5845">
        <ele>98.073135375977</ele>
        <time>2016-09-25T08:11:01.000Z</time>
      </trkpt>
      <trkpt lat="49.05945" lon="1.58452">
        <ele>98.531944274902</ele>
        <time>2016-09-25T08:11:03.000Z</time>
      </trkpt>
      <trkpt lat="49.05948" lon="1.58454">
        <ele>99.029319763184</ele>
        <time>2016-09-25T08:11:06.000Z</time>
      </trkpt>
      <trkpt lat="49.05951" lon="1.58458">
        <ele>99.552993774414</ele>
        <time>2016-09-25T08:11:09.000Z</time>
      </trkpt>
      <trkpt lat="49.05954" lon="1.58461">
        <ele>100.0899810791</ele>
        <time>2016-09-25T08:11:12.000Z</time>
      </trkpt>
      <trkpt lat="49.05956" lon="1.58463">
        <ele>100.5853805542</ele>
        <time>2016-09-25T08:11:14.000Z</time>
      </trkpt>
      <trkpt lat="49.05958" lon="1.58464">
        <ele>101.08939361572</ele>
        <time>2016-09-25T08:11:16.000Z</time>
      </trkpt>
      <trkpt lat="49.0596" lon="1.58466">
        <ele>101.58305358887</ele>
        <time>2016-09-25T08:11:19.000Z</time>
      </trkpt>
      <trkpt lat="49.05962" lon="1.58468">
        <ele>102.03385925293</ele>
        <time>2016-09-25T08:11:21.000Z</time>
      </trkpt>
      <trkpt lat="49.05964" lon="1.5847">
        <ele>102.45344543457</ele>
        <time>2016-09-25T08:11:23.000Z</time>
      </trkpt>
      <trkpt lat="49.05967" lon="1.58475">
        <ele>102.93139648438</ele>
        <time>2016-09-25T08:11:26.000Z</time>
      </trkpt>
      <trkpt lat="49.0597" lon="1.58478">
        <ele>103.47165679932</ele>
        <time>2016-09-25T08:11:29.000Z</time>
      </trkpt>
      <trkpt lat="49.05972" lon="1.58482">
        <ele>104.03189849854</ele>
        <time>2016-09-25T08:11:31.000Z</time>
      </trkpt>
      <trkpt lat="49.05974" lon="1.58485">
        <ele>104.59931945801</ele>
        <time>2016-09-25T08:11:33.000Z</time>
      </trkpt>
      <trkpt lat="49.05976" lon="1.58488">
        <ele>105.178565979</ele>
        <time>2016-09-25T08:11:35.000Z</time>
      </trkpt>
      <trkpt lat="49.05979" lon="1.58491">
        <ele>105.77187347412</ele>
        <time>2016-09-25T08:11:38.000Z</time>
      </trkpt>
      <trkpt lat="49.05981" lon="1.58494">
        <ele>106.31384277344</ele>
        <time>2016-09-25T08:11:40.000Z</time>
      </trkpt>
      <trkpt lat="49.05984" lon="1.58498">
        <ele>106.8883895874</ele>
        <time>2016-09-25T08:11:43.000Z</time>
      </trkpt>
      <trkpt lat="49.05986" lon="1.58501">
        <ele>107.46678161621</ele>
        <time>2016-09-25T08:11:45.000Z</time>
      </trkpt>
      <trkpt lat="49.05989" lon="1.58506">
        <ele>108.0916519165</ele>
        <time>2016-09-25T08:11:48.000Z</time>
      </trkpt>
      <trkpt lat="49.05991" lon="1.5851">
        <ele>108.69045257568</ele>
        <time>2016-09-25T08:11:51.000Z</time>
      </trkpt>
      <trkpt lat="49.05993" lon="1.58513">
        <ele>109.27033996582</ele>
        <time>2016-09-25T08:11:53.000Z</time>
      </trkpt>
      <trkpt lat="49.05994" lon="1.58517">
        <ele>109.78000640869</ele>
        <time>2016-09-25T08:11:55.000Z</time>
      </trkpt>
      <trkpt lat="49.05997" lon="1.58521">
        <ele>110.31077575684</ele>
        <time>2016-09-25T08:11:58.000Z</time>
      </trkpt>
      <trkpt lat="49.05999" lon="1.58526">
        <ele>110.80487060547</ele>
        <time>2016-09-25T08:12:01.000Z</time>
      </trkpt>
      <trkpt lat="49.06001" lon="1.58528">
        <ele>111.25120544434</ele>
        <time>2016-09-25T08:12:03.000Z</time>
      </trkpt>
      <trkpt lat="49.06004" lon="1.58533">
        <ele>111.70104980469</ele>
        <time>2016-09-25T08:12:06.000Z</time>
      </trkpt>
      <trkpt lat="49.06007" lon="1.58536">
        <ele>112.14601898193</ele>
        <time>2016-09-25T08:12:08.000Z</time>
      </trkpt>
      <trkpt lat="49.06009" lon="1.58539">
        <ele>112.54597473145</ele>
        <time>2016-09-25T08:12:10.000Z</time>
      </trkpt>
      <trkpt lat="49.06011" lon="1.58541">
        <ele>112.88514709473</ele>
        <time>2016-09-25T08:12:13.000Z</time>
      </trkpt>
      <trkpt lat="49.06013" lon="1.58547">
        <ele>113.24289703369</ele>
        <time>2016-09-25T08:12:16.000Z</time>
      </trkpt>
      <trkpt lat="49.06014" lon="1.58551">
        <ele>113.55726623535</ele>
        <time>2016-09-25T08:12:18.000Z</time>
      </trkpt>
      <trkpt lat="49.06016" lon="1.58556">
        <ele>113.85832214355</ele>
        <time>2016-09-25T08:12:21.000Z</time>
      </trkpt>
      <trkpt lat="49.06017" lon="1.58559">
        <ele>114.13600921631</ele>
        <time>2016-09-25T08:12:23.000Z</time>
      </trkpt>
      <trkpt lat="49.06021" lon="1.58564">
        <ele>114.46784973145</ele>
        <time>2016-09-25T08:12:26.000Z</time>
      </trkpt>
      <trkpt lat="49.06023" lon="1.58567">
        <ele>114.76247406006</ele>
        <time>2016-09-25T08:12:28.000Z</time>
      </trkpt>
      <trkpt lat="49.06025" lon="1.58569">
        <ele>115.07328033447</ele>
        <time>2016-09-25T08:12:30.000Z</time>
      </trkpt>
      <trkpt lat="49.06028" lon="1.58571">
        <ele>115.38171386719</ele>
        <time>2016-09-25T08:12:32.000Z</time>
      </trkpt>
      <trkpt lat="49.06033" lon="1.58574">
        <ele>115.75059509277</ele>
        <time>2016-09-25T08:12:35.000Z</time>
      </trkpt>
      <trkpt lat="49.06035" lon="1.58577">
        <ele>116.0685043335</ele>
        <time>2016-09-25T08:12:37.000Z</time>
      </trkpt>
      <trkpt lat="49.06037" lon="1.58581">
        <ele>116.39311218262</ele>
        <time>2016-09-25T08:12:39.000Z</time>
      </trkpt>
      <trkpt lat="49.06038" lon="1.58585">
        <ele>116.71067810059</ele>
        <time>2016-09-25T08:12:41.000Z</time>
      </trkpt>
      <trkpt lat="49.0604" lon="1.58591">
        <ele>117.02349853516</ele>
        <time>2016-09-25T08:12:44.000Z</time>
      </trkpt>
      <trkpt lat="49.06044" lon="1.58595">
        <ele>117.31352233887</ele>
        <time>2016-09-25T08:12:47.000Z</time>
      </trkpt>
      <trkpt lat="49.06046" lon="1.586">
        <ele>117.60765075684</ele>
        <time>2016-09-25T08:12:49.000Z</time>
      </trkpt>
      <trkpt lat="49.06049" lon="1.58605">
        <ele>117.93255615234</ele>
        <time>2016-09-25T08:12:52.000Z</time>
      </trkpt>
      <trkpt lat="49.06054" lon="1.5861">
        <ele>118.31634521484</ele>
        <time>2016-09-25T08:12:55.000Z</time>
      </trkpt>
      <trkpt lat="49.06058" lon="1.58612">
        <ele>118.71618652344</ele>
        <time>2016-09-25T08:12:57.000Z</time>
      </trkpt>
      <trkpt lat="49.06064" lon="1.58613">
        <ele>119.14453125</ele>
        <time>2016-09-25T08:13:00.000Z</time>
      </trkpt>
      <trkpt lat="49.06068" lon="1.58616">
        <ele>119.60327148438</ele>
        <time>2016-09-25T08:13:03.000Z</time>
      </trkpt>
      <trkpt lat="49.06071" lon="1.58616">
        <ele>120.02630615234</ele>
        <time>2016-09-25T08:13:05.000Z</time>
      </trkpt>
      <trkpt lat="49.06074" lon="1.58615">
        <ele>120.38989257812</ele>
        <time>2016-09-25T08:13:07.000Z</time>
      </trkpt>
      <trkpt lat="49.06078" lon="1.58615">
        <ele>120.73181152344</ele>
        <time>2016-09-25T08:13:10.000Z</time>
      </trkpt>
      <trkpt lat="49.06078" lon="1.58615">
        <ele>120.73181152344</ele>
        <time>2016-09-25T08:13:30.000Z</time>
      </trkpt>
      <trkpt lat="49.06081" lon="1.58613">
        <ele>121.01318359375</ele>
        <time>2016-09-25T08:13:51.000Z</time>
      </trkpt>
      <trkpt lat="49.06081" lon="1.58612">
        <ele>121.20648193359</ele>
        <time>2016-09-25T08:13:56.000Z</time>
      </trkpt>
      <trkpt lat="49.06083" lon="1.5861">
        <ele>121.3701171875</ele>
        <time>2016-09-25T08:14:13.000Z</time>
      </trkpt>
      <trkpt lat="49.06081" lon="1.58613">
        <ele>121.46618652344</ele>
        <time>2016-09-25T08:14:27.000Z</time>
      </trkpt>
      <trkpt lat="49.06081" lon="1.58616">
        <ele>121.54217529297</ele>
        <time>2016-09-25T08:14:40.000Z</time>
      </trkpt>
      <trkpt lat="49.06081" lon="1.58618">
        <ele>121.56280517578</ele>
        <time>2016-09-25T08:14:43.000Z</time>
      </trkpt>
      <trkpt lat="49.06079" lon="1.58619">
        <ele>121.5693359375</ele>
        <time>2016-09-25T08:14:47.000Z</time>
      </trkpt>
      <trkpt lat="49.06078" lon="1.58618">
        <ele>121.53448486328</ele>
        <time>2016-09-25T08:14:50.000Z</time>
      </trkpt>
      <trkpt lat="49.0608" lon="1.58616">
        <ele>121.54528808594</ele>
        <time>2016-09-25T08:14:53.000Z</time>
      </trkpt>
      <trkpt lat="49.06083" lon="1.58614">
        <ele>121.55596923828</ele>
        <time>2016-09-25T08:14:58.000Z</time>
      </trkpt>
      <trkpt lat="49.06084" lon="1.58612">
        <ele>121.57759857178</ele>
        <time>2016-09-25T08:15:03.000Z</time>
      </trkpt>
      <trkpt lat="49.06086" lon="1.58612">
        <ele>121.63137054443</ele>
        <time>2016-09-25T08:15:06.000Z</time>
      </trkpt>
      <trkpt lat="49.06087" lon="1.58612">
        <ele>121.71768951416</ele>
        <time>2016-09-25T08:15:11.000Z</time>
      </trkpt>
      <trkpt lat="49.06088" lon="1.5861">
        <ele>121.77695465088</ele>
        <time>2016-09-25T08:15:13.000Z</time>
      </trkpt>
      <trkpt lat="49.06087" lon="1.58608">
        <ele>121.78840637207</ele>
        <time>2016-09-25T08:15:16.000Z</time>
      </trkpt>
      <trkpt lat="49.06086" lon="1.58609">
        <ele>121.79130554199</ele>
        <time>2016-09-25T08:15:19.000Z</time>
      </trkpt>
      <trkpt lat="49.06085" lon="1.58608">
        <ele>121.76782226562</ele>
        <time>2016-09-25T08:15:24.000Z</time>
      </trkpt>
      <trkpt lat="49.06084" lon="1.58609">
        <ele>121.72857666016</ele>
        <time>2016-09-25T08:15:30.000Z</time>
      </trkpt>
      <trkpt lat="49.06083" lon="1.5861">
        <ele>121.68598937988</ele>
        <time>2016-09-25T08:15:32.000Z</time>
      </trkpt>
      <trkpt lat="49.06081" lon="1.58616">
        <ele>121.66483306885</ele>
        <time>2016-09-25T08:15:39.000Z</time>
      </trkpt>
      <trkpt lat="49.06078" lon="1.58621">
        <ele>121.61679840088</ele>
        <time>2016-09-25T08:15:48.000Z</time>
      </trkpt>
      <trkpt lat="49.0608" lon="1.58617">
        <ele>121.59272766113</ele>
        <time>2016-09-25T08:15:55.000Z</time>
      </trkpt>
      <trkpt lat="49.06084" lon="1.58613">
        <ele>121.60986328125</ele>
        <time>2016-09-25T08:16:09.000Z</time>
      </trkpt>
      <trkpt lat="49.06084" lon="1.58613">
        <ele>121.60986328125</ele>
        <time>2016-09-25T08:16:29.000Z</time>
      </trkpt>
      <trkpt lat="49.06087" lon="1.5861">
        <ele>121.64566802979</ele>
        <time>2016-09-25T08:16:32.000Z</time>
      </trkpt>
      <trkpt lat="49.06086" lon="1.5861">
        <ele>121.66668701172</ele>
        <time>2016-09-25T08:16:34.000Z</time>
      </trkpt>
      <trkpt lat="49.06084" lon="1.58609">
        <ele>121.70101165771</ele>
        <time>2016-09-25T08:16:36.000Z</time>
      </trkpt>
      <trkpt lat="49.06082" lon="1.5861">
        <ele>121.69968414307</ele>
        <time>2016-09-25T08:16:50.000Z</time>
      </trkpt>
      <trkpt lat="49.06083" lon="1.58611">
        <ele>121.67568206787</ele>
        <time>2016-09-25T08:17:01.000Z</time>
      </trkpt>
      <trkpt lat="49.06087" lon="1.5862">
        <ele>121.728515625</ele>
        <time>2016-09-25T08:17:04.000Z</time>
      </trkpt>
      <trkpt lat="49.06091" lon="1.58633">
        <ele>121.87512207031</ele>
        <time>2016-09-25T08:17:07.000Z</time>
      </trkpt>
      <trkpt lat="49.06091" lon="1.58644">
        <ele>122.09602355957</ele>
        <time>2016-09-25T08:17:10.000Z</time>
      </trkpt>
      <trkpt lat="49.06092" lon="1.58655">
        <ele>122.39791107178</ele>
        <time>2016-09-25T08:17:13.000Z</time>
      </trkpt>
      <trkpt lat="49.06095" lon="1.5867">
        <ele>122.76235198975</ele>
        <time>2016-09-25T08:17:16.000Z</time>
      </trkpt>
      <trkpt lat="49.06099" lon="1.58687">
        <ele>123.10174560547</ele>
        <time>2016-09-25T08:17:19.000Z</time>
      </trkpt>
      <trkpt lat="49.06103" lon="1.58698">
        <ele>123.40309143066</ele>
        <time>2016-09-25T08:17:21.000Z</time>
      </trkpt>
      <trkpt lat="49.06108" lon="1.58715">
        <ele>123.70875549316</ele>
        <time>2016-09-25T08:17:24.000Z</time>
      </trkpt>
      <trkpt lat="49.06114" lon="1.58736">
        <ele>124.02052307129</ele>
        <time>2016-09-25T08:17:27.000Z</time>
      </trkpt>
      <trkpt lat="49.06117" lon="1.58748">
        <ele>124.29313659668</ele>
        <time>2016-09-25T08:17:29.000Z</time>
      </trkpt>
      <trkpt lat="49.06118" lon="1.58761">
        <ele>124.51792144775</ele>
        <time>2016-09-25T08:17:31.000Z</time>
      </trkpt>
      <trkpt lat="49.06123" lon="1.58772">
        <ele>124.71718597412</ele>
        <time>2016-09-25T08:17:34.000Z</time>
      </trkpt>
      <trkpt lat="49.06129" lon="1.58789">
        <ele>124.86038970947</ele>
        <time>2016-09-25T08:17:37.000Z</time>
      </trkpt>
      <trkpt lat="49.06134" lon="1.58798">
        <ele>124.93039703369</ele>
        <time>2016-09-25T08:17:39.000Z</time>
      </trkpt>
      <trkpt lat="49.06141" lon="1.58826">
        <ele>124.90657806396</ele>
        <time>2016-09-25T08:17:42.000Z</time>
      </trkpt>
      <trkpt lat="49.06145" lon="1.58843">
        <ele>124.81081390381</ele>
        <time>2016-09-25T08:17:44.000Z</time>
      </trkpt>
      <trkpt lat="49.06148" lon="1.58858">
        <ele>124.64323425293</ele>
        <time>2016-09-25T08:17:46.000Z</time>
      </trkpt>
      <trkpt lat="49.06161" lon="1.58885">
        <ele>124.34427642822</ele>
        <time>2016-09-25T08:17:49.000Z</time>
      </trkpt>
      <trkpt lat="49.06167" lon="1.58906">
        <ele>123.96572113037</ele>
        <time>2016-09-25T08:17:52.000Z</time>
      </trkpt>
      <trkpt lat="49.06172" lon="1.58924">
        <ele>123.45194244385</ele>
        <time>2016-09-25T08:17:54.000Z</time>
      </trkpt>
      <trkpt lat="49.06179" lon="1.58949">
        <ele>122.71296691895</ele>
        <time>2016-09-25T08:17:57.000Z</time>
      </trkpt>
      <trkpt lat="49.06186" lon="1.58968">
        <ele>121.81153869629</ele>
        <time>2016-09-25T08:18:00.000Z</time>
      </trkpt>
      <trkpt lat="49.06195" lon="1.58991">
        <ele>120.77717590332</ele>
        <time>2016-09-25T08:18:03.000Z</time>
      </trkpt>
      <trkpt lat="49.06203" lon="1.59015">
        <ele>119.75964355469</ele>
        <time>2016-09-25T08:18:06.000Z</time>
      </trkpt>
      <trkpt lat="49.06208" lon="1.59029">
        <ele>118.99660491943</ele>
        <time>2016-09-25T08:18:08.000Z</time>
      </trkpt>
      <trkpt lat="49.06212" lon="1.59042">
        <ele>118.58280181885</ele>
        <time>2016-09-25T08:18:10.000Z</time>
      </trkpt>
      <trkpt lat="49.06219" lon="1.59063">
        <ele>118.53526306152</ele>
        <time>2016-09-25T08:18:13.000Z</time>
      </trkpt>
      <trkpt lat="49.06225" lon="1.59076">
        <ele>118.85639953613</ele>
        <time>2016-09-25T08:18:15.000Z</time>
      </trkpt>
      <trkpt lat="49.06229" lon="1.5909">
        <ele>119.36491394043</ele>
        <time>2016-09-25T08:18:18.000Z</time>
      </trkpt>
      <trkpt lat="49.06233" lon="1.59101">
        <ele>119.8690032959</ele>
        <time>2016-09-25T08:18:20.000Z</time>
      </trkpt>
      <trkpt lat="49.06237" lon="1.59116">
        <ele>120.41243743896</ele>
        <time>2016-09-25T08:18:23.000Z</time>
      </trkpt>
      <trkpt lat="49.06242" lon="1.59124">
        <ele>120.8600692749</ele>
        <time>2016-09-25T08:18:25.000Z</time>
      </trkpt>
      <trkpt lat="49.06248" lon="1.59135">
        <ele>121.30334472656</ele>
        <time>2016-09-25T08:18:28.000Z</time>
      </trkpt>
      <trkpt lat="49.06252" lon="1.59144">
        <ele>121.66123962402</ele>
        <time>2016-09-25T08:18:30.000Z</time>
      </trkpt>
      <trkpt lat="49.06258" lon="1.59163">
        <ele>122.01839447021</ele>
        <time>2016-09-25T08:18:33.000Z</time>
      </trkpt>
      <trkpt lat="49.06262" lon="1.59177">
        <ele>122.19918060303</ele>
        <time>2016-09-25T08:18:35.000Z</time>
      </trkpt>
      <trkpt lat="49.06269" lon="1.59192">
        <ele>122.1297454834</ele>
        <time>2016-09-25T08:18:38.000Z</time>
      </trkpt>
      <trkpt lat="49.06274" lon="1.59202">
        <ele>121.85307312012</ele>
        <time>2016-09-25T08:18:40.000Z</time>
      </trkpt>
      <trkpt lat="49.06278" lon="1.59214">
        <ele>121.46675109863</ele>
        <time>2016-09-25T08:18:42.000Z</time>
      </trkpt>
      <trkpt lat="49.06285" lon="1.5923">
        <ele>120.90510559082</ele>
        <time>2016-09-25T08:18:45.000Z</time>
      </trkpt>
      <trkpt lat="49.06292" lon="1.59242">
        <ele>120.32649993896</ele>
        <time>2016-09-25T08:18:47.000Z</time>
      </trkpt>
      <trkpt lat="49.06298" lon="1.59254">
        <ele>119.87949371338</ele>
        <time>2016-09-25T08:18:49.000Z</time>
      </trkpt>
      <trkpt lat="49.06308" lon="1.59268">
        <ele>119.45178222656</ele>
        <time>2016-09-25T08:18:52.000Z</time>
      </trkpt>
      <trkpt lat="49.06315" lon="1.59278">
        <ele>119.07492828369</ele>
        <time>2016-09-25T08:18:55.000Z</time>
      </trkpt>
      <trkpt lat="49.0632" lon="1.59287">
        <ele>118.82112121582</ele>
        <time>2016-09-25T08:18:57.000Z</time>
      </trkpt>
      <trkpt lat="49.06327" lon="1.59301">
        <ele>118.69018554688</ele>
        <time>2016-09-25T08:19:00.000Z</time>
      </trkpt>
      <trkpt lat="49.06332" lon="1.59309">
        <ele>118.65361022949</ele>
        <time>2016-09-25T08:19:02.000Z</time>
      </trkpt>
      <trkpt lat="49.06337" lon="1.59316">
        <ele>118.7107925415</ele>
        <time>2016-09-25T08:19:04.000Z</time>
      </trkpt>
      <trkpt lat="49.06343" lon="1.59328">
        <ele>118.82657623291</ele>
        <time>2016-09-25T08:19:07.000Z</time>
      </trkpt>
      <trkpt lat="49.0635" lon="1.59339">
        <ele>118.96236419678</ele>
        <time>2016-09-25T08:19:10.000Z</time>
      </trkpt>
      <trkpt lat="49.06355" lon="1.59349">
        <ele>119.084815979</ele>
        <time>2016-09-25T08:19:12.000Z</time>
      </trkpt>
      <trkpt lat="49.06361" lon="1.59359">
        <ele>119.22465515137</ele>
        <time>2016-09-25T08:19:14.000Z</time>
      </trkpt>
      <trkpt lat="49.06368" lon="1.59373">
        <ele>119.45078277588</ele>
        <time>2016-09-25T08:19:17.000Z</time>
      </trkpt>
      <trkpt lat="49.06374" lon="1.59389">
        <ele>119.79811859131</ele>
        <time>2016-09-25T08:19:20.000Z</time>
      </trkpt>
      <trkpt lat="49.06378" lon="1.59398">
        <ele>120.23610687256</ele>
        <time>2016-09-25T08:19:23.000Z</time>
      </trkpt>
      <trkpt lat="49.06384" lon="1.59413">
        <ele>120.8377532959</ele>
        <time>2016-09-25T08:19:26.000Z</time>
      </trkpt>
      <trkpt lat="49.0639" lon="1.59424">
        <ele>121.4794921875</ele>
        <time>2016-09-25T08:19:29.000Z</time>
      </trkpt>
      <trkpt lat="49.06395" lon="1.59431">
        <ele>122.05690765381</ele>
        <time>2016-09-25T08:19:31.000Z</time>
      </trkpt>
      <trkpt lat="49.06402" lon="1.59442">
        <ele>122.54742431641</ele>
        <time>2016-09-25T08:19:34.000Z</time>
      </trkpt>
      <trkpt lat="49.06408" lon="1.5945">
        <ele>122.97760009766</ele>
        <time>2016-09-25T08:19:36.000Z</time>
      </trkpt>
      <trkpt lat="49.06414" lon="1.5946">
        <ele>123.29985046387</ele>
        <time>2016-09-25T08:19:39.000Z</time>
      </trkpt>
      <trkpt lat="49.0642" lon="1.59467">
        <ele>123.53161621094</ele>
        <time>2016-09-25T08:19:41.000Z</time>
      </trkpt>
      <trkpt lat="49.06426" lon="1.59475">
        <ele>123.66422271729</ele>
        <time>2016-09-25T08:19:43.000Z</time>
      </trkpt>
      <trkpt lat="49.06433" lon="1.59489">
        <ele>123.73183441162</ele>
        <time>2016-09-25T08:19:46.000Z</time>
      </trkpt>
      <trkpt lat="49.0644" lon="1.59501">
        <ele>123.73342132568</ele>
        <time>2016-09-25T08:19:49.000Z</time>
      </trkpt>
      <trkpt lat="49.06445" lon="1.59507">
        <ele>123.58103179932</ele>
        <time>2016-09-25T08:19:51.000Z</time>
      </trkpt>
      <trkpt lat="49.06453" lon="1.59517">
        <ele>123.33030700684</ele>
        <time>2016-09-25T08:19:54.000Z</time>
      </trkpt>
      <trkpt lat="49.06459" lon="1.59524">
        <ele>123.10251617432</ele>
        <time>2016-09-25T08:19:56.000Z</time>
      </trkpt>
      <trkpt lat="49.06465" lon="1.59533">
        <ele>122.86218261719</ele>
        <time>2016-09-25T08:19:58.000Z</time>
      </trkpt>
      <trkpt lat="49.06472" lon="1.59548">
        <ele>122.67453765869</ele>
        <time>2016-09-25T08:20:01.000Z</time>
      </trkpt>
      <trkpt lat="49.0648" lon="1.59562">
        <ele>122.6661529541</ele>
        <time>2016-09-25T08:20:04.000Z</time>
      </trkpt>
      <trkpt lat="49.06486" lon="1.59571">
        <ele>122.8602142334</ele>
        <time>2016-09-25T08:20:06.000Z</time>
      </trkpt>
      <trkpt lat="49.06496" lon="1.59582">
        <ele>123.31009674072</ele>
        <time>2016-09-25T08:20:09.000Z</time>
      </trkpt>
      <trkpt lat="49.06506" lon="1.59593">
        <ele>123.6877822876</ele>
        <time>2016-09-25T08:20:12.000Z</time>
      </trkpt>
      <trkpt lat="49.06515" lon="1.59605">
        <ele>123.83354187012</ele>
        <time>2016-09-25T08:20:15.000Z</time>
      </trkpt>
      <trkpt lat="49.06522" lon="1.5962">
        <ele>123.76898193359</ele>
        <time>2016-09-25T08:20:18.000Z</time>
      </trkpt>
      <trkpt lat="49.06532" lon="1.59631">
        <ele>123.44466400146</ele>
        <time>2016-09-25T08:20:21.000Z</time>
      </trkpt>
      <trkpt lat="49.06538" lon="1.5964">
        <ele>122.84261322021</ele>
        <time>2016-09-25T08:20:23.000Z</time>
      </trkpt>
      <trkpt lat="49.06547" lon="1.59654">
        <ele>122.28187561035</ele>
        <time>2016-09-25T08:20:26.000Z</time>
      </trkpt>
      <trkpt lat="49.06558" lon="1.59673">
        <ele>121.78603363037</ele>
        <time>2016-09-25T08:20:29.000Z</time>
      </trkpt>
      <trkpt lat="49.06575" lon="1.59697">
        <ele>121.07238769531</ele>
        <time>2016-09-25T08:20:32.000Z</time>
      </trkpt>
      <trkpt lat="49.06588" lon="1.5971">
        <ele>120.3924331665</ele>
        <time>2016-09-25T08:20:34.000Z</time>
      </trkpt>
      <trkpt lat="49.06609" lon="1.59739">
        <ele>119.66469573975</ele>
        <time>2016-09-25T08:20:37.000Z</time>
      </trkpt>
      <trkpt lat="49.06625" lon="1.59763">
        <ele>118.87508392334</ele>
        <time>2016-09-25T08:20:40.000Z</time>
      </trkpt>
      <trkpt lat="49.06635" lon="1.59778">
        <ele>118.14498138428</ele>
        <time>2016-09-25T08:20:42.000Z</time>
      </trkpt>
      <trkpt lat="49.06647" lon="1.59794">
        <ele>117.80735015869</ele>
        <time>2016-09-25T08:20:45.000Z</time>
      </trkpt>
      <trkpt lat="49.06664" lon="1.59817">
        <ele>117.912940979</ele>
        <time>2016-09-25T08:20:48.000Z</time>
      </trkpt>
      <trkpt lat="49.06675" lon="1.59828">
        <ele>118.0177154541</ele>
        <time>2016-09-25T08:20:50.000Z</time>
      </trkpt>
      <trkpt lat="49.06685" lon="1.59839">
        <ele>117.91275787354</ele>
        <time>2016-09-25T08:20:52.000Z</time>
      </trkpt>
      <trkpt lat="49.06696" lon="1.59851">
        <ele>117.48936462402</ele>
        <time>2016-09-25T08:20:55.000Z</time>
      </trkpt>
      <trkpt lat="49.06707" lon="1.59865">
        <ele>116.67485046387</ele>
        <time>2016-09-25T08:20:58.000Z</time>
      </trkpt>
      <trkpt lat="49.06718" lon="1.59877">
        <ele>115.25068664551</ele>
        <time>2016-09-25T08:21:01.000Z</time>
      </trkpt>
      <trkpt lat="49.06725" lon="1.59886">
        <ele>113.77836608887</ele>
        <time>2016-09-25T08:21:03.000Z</time>
      </trkpt>
      <trkpt lat="49.06737" lon="1.59898">
        <ele>112.36865234375</ele>
        <time>2016-09-25T08:21:06.000Z</time>
      </trkpt>
      <trkpt lat="49.06746" lon="1.59908">
        <ele>111.19749450684</ele>
        <time>2016-09-25T08:21:08.000Z</time>
      </trkpt>
      <trkpt lat="49.06759" lon="1.59925">
        <ele>110.01650238037</ele>
        <time>2016-09-25T08:21:11.000Z</time>
      </trkpt>
      <trkpt lat="49.06769" lon="1.59936">
        <ele>108.84629058838</ele>
        <time>2016-09-25T08:21:13.000Z</time>
      </trkpt>
      <trkpt lat="49.06778" lon="1.59946">
        <ele>107.61135101318</ele>
        <time>2016-09-25T08:21:15.000Z</time>
      </trkpt>
      <trkpt lat="49.06793" lon="1.59966">
        <ele>106.35754394531</ele>
        <time>2016-09-25T08:21:18.000Z</time>
      </trkpt>
      <trkpt lat="49.06806" lon="1.59989">
        <ele>105.12907409668</ele>
        <time>2016-09-25T08:21:21.000Z</time>
      </trkpt>
      <trkpt lat="49.06818" lon="1.60014">
        <ele>104.0896987915</ele>
        <time>2016-09-25T08:21:24.000Z</time>
      </trkpt>
      <trkpt lat="49.06827" lon="1.60032">
        <ele>103.20560455322</ele>
        <time>2016-09-25T08:21:26.000Z</time>
      </trkpt>
      <trkpt lat="49.06841" lon="1.6006">
        <ele>102.35746765137</ele>
        <time>2016-09-25T08:21:29.000Z</time>
      </trkpt>
      <trkpt lat="49.06851" lon="1.60077">
        <ele>101.64503479004</ele>
        <time>2016-09-25T08:21:32.000Z</time>
      </trkpt>
      <trkpt lat="49.06855" lon="1.60082">
        <ele>101.0118560791</ele>
        <time>2016-09-25T08:21:34.000Z</time>
      </trkpt>
      <trkpt lat="49.06857" lon="1.60089">
        <ele>100.46435546875</ele>
        <time>2016-09-25T08:21:36.000Z</time>
      </trkpt>
      <trkpt lat="49.06854" lon="1.60093">
        <ele>100.03477478027</ele>
        <time>2016-09-25T08:21:39.000Z</time>
      </trkpt>
      <trkpt lat="49.06852" lon="1.60098">
        <ele>99.775573730469</ele>
        <time>2016-09-25T08:21:41.000Z</time>
      </trkpt>
      <trkpt lat="49.0685" lon="1.60105">
        <ele>99.599281311035</ele>
        <time>2016-09-25T08:21:43.000Z</time>
      </trkpt>
      <trkpt lat="49.06849" lon="1.60114">
        <ele>99.391387939453</ele>
        <time>2016-09-25T08:21:45.000Z</time>
      </trkpt>
      <trkpt lat="49.06849" lon="1.60122">
        <ele>99.169136047363</ele>
        <time>2016-09-25T08:21:48.000Z</time>
      </trkpt>
      <trkpt lat="49.0685" lon="1.60128">
        <ele>98.900604248047</ele>
        <time>2016-09-25T08:21:51.000Z</time>
      </trkpt>
      <trkpt lat="49.06853" lon="1.60134">
        <ele>98.603858947754</ele>
        <time>2016-09-25T08:21:54.000Z</time>
      </trkpt>
      <trkpt lat="49.06857" lon="1.60136">
        <ele>98.343910217285</ele>
        <time>2016-09-25T08:21:57.000Z</time>
      </trkpt>
      <trkpt lat="49.06859" lon="1.60139">
        <ele>98.13468170166</ele>
        <time>2016-09-25T08:22:00.000Z</time>
      </trkpt>
      <trkpt lat="49.06854" lon="1.60141">
        <ele>97.973861694336</ele>
        <time>2016-09-25T08:22:03.000Z</time>
      </trkpt>
      <trkpt lat="49.06851" lon="1.60138">
        <ele>97.884063720703</ele>
        <time>2016-09-25T08:22:05.000Z</time>
      </trkpt>
      <trkpt lat="49.06851" lon="1.6013">
        <ele>97.91227722168</ele>
        <time>2016-09-25T08:22:08.000Z</time>
      </trkpt>
      <trkpt lat="49.06851" lon="1.60124">
        <ele>98.009902954102</ele>
        <time>2016-09-25T08:22:11.000Z</time>
      </trkpt>
      <trkpt lat="49.0685" lon="1.60118">
        <ele>98.184577941895</ele>
        <time>2016-09-25T08:22:14.000Z</time>
      </trkpt>
      <trkpt lat="49.06849" lon="1.6011">
        <ele>98.449012756348</ele>
        <time>2016-09-25T08:22:16.000Z</time>
      </trkpt>
      <trkpt lat="49.06844" lon="1.60109">
        <ele>98.730117797852</ele>
        <time>2016-09-25T08:22:19.000Z</time>
      </trkpt>
      <trkpt lat="49.06843" lon="1.60114">
        <ele>98.897331237793</ele>
        <time>2016-09-25T08:22:21.000Z</time>
      </trkpt>
      <trkpt lat="49.06845" lon="1.60119">
        <ele>98.94743347168</ele>
        <time>2016-09-25T08:22:24.000Z</time>
      </trkpt>
      <trkpt lat="49.06846" lon="1.6012">
        <ele>98.934204101562</ele>
        <time>2016-09-25T08:22:27.000Z</time>
      </trkpt>
      <trkpt lat="49.06847" lon="1.60122">
        <ele>98.82967376709</ele>
        <time>2016-09-25T08:22:34.000Z</time>
      </trkpt>
      <trkpt lat="49.06847" lon="1.60124">
        <ele>98.671875</ele>
        <time>2016-09-25T08:22:36.000Z</time>
      </trkpt>
      <trkpt lat="49.0685" lon="1.60123">
        <ele>98.564758300781</ele>
        <time>2016-09-25T08:22:39.000Z</time>
      </trkpt>
      <trkpt lat="49.06852" lon="1.60113">
        <ele>98.60139465332</ele>
        <time>2016-09-25T08:22:42.000Z</time>
      </trkpt>
      <trkpt lat="49.06857" lon="1.60099">
        <ele>98.728408813477</ele>
        <time>2016-09-25T08:22:45.000Z</time>
      </trkpt>
      <trkpt lat="49.06873" lon="1.60087">
        <ele>98.828918457031</ele>
        <time>2016-09-25T08:22:48.000Z</time>
      </trkpt>
      <trkpt lat="49.0689" lon="1.60072">
        <ele>98.749282836914</ele>
        <time>2016-09-25T08:22:51.000Z</time>
      </trkpt>
      <trkpt lat="49.06915" lon="1.6005">
        <ele>98.237106323242</ele>
        <time>2016-09-25T08:22:54.000Z</time>
      </trkpt>
      <trkpt lat="49.06945" lon="1.60022">
        <ele>96.767272949219</ele>
        <time>2016-09-25T08:22:57.000Z</time>
      </trkpt>
      <trkpt lat="49.06979" lon="1.59991">
        <ele>94.121276855469</ele>
        <time>2016-09-25T08:23:00.000Z</time>
      </trkpt>
      <trkpt lat="49.07002" lon="1.59962">
        <ele>90.708457946777</ele>
        <time>2016-09-25T08:23:02.000Z</time>
      </trkpt>
      <trkpt lat="49.07039" lon="1.59925">
        <ele>86.505249023438</ele>
        <time>2016-09-25T08:23:05.000Z</time>
      </trkpt>
      <trkpt lat="49.07064" lon="1.59899">
        <ele>82.052589416504</ele>
        <time>2016-09-25T08:23:07.000Z</time>
      </trkpt>
      <trkpt lat="49.071" lon="1.59863">
        <ele>77.486083984375</ele>
        <time>2016-09-25T08:23:10.000Z</time>
      </trkpt>
      <trkpt lat="49.07129" lon="1.59833">
        <ele>73.434020996094</ele>
        <time>2016-09-25T08:23:13.000Z</time>
      </trkpt>
      <trkpt lat="49.07159" lon="1.59804">
        <ele>69.759460449219</ele>
        <time>2016-09-25T08:23:16.000Z</time>
      </trkpt>
      <trkpt lat="49.07188" lon="1.59776">
        <ele>66.791427612305</ele>
        <time>2016-09-25T08:23:19.000Z</time>
      </trkpt>
      <trkpt lat="49.07216" lon="1.59747">
        <ele>64.319000244141</ele>
        <time>2016-09-25T08:23:22.000Z</time>
      </trkpt>
      <trkpt lat="49.07246" lon="1.59721">
        <ele>62.51558303833</ele>
        <time>2016-09-25T08:23:25.000Z</time>
      </trkpt>
      <trkpt lat="49.07264" lon="1.59707">
        <ele>60.995037078857</ele>
        <time>2016-09-25T08:23:27.000Z</time>
      </trkpt>
      <trkpt lat="49.07289" lon="1.59686">
        <ele>59.512798309326</ele>
        <time>2016-09-25T08:23:30.000Z</time>
      </trkpt>
      <trkpt lat="49.07312" lon="1.59664">
        <ele>58.006031036377</ele>
        <time>2016-09-25T08:23:33.000Z</time>
      </trkpt>
      <trkpt lat="49.07328" lon="1.59649">
        <ele>56.458915710449</ele>
        <time>2016-09-25T08:23:35.000Z</time>
      </trkpt>
      <trkpt lat="49.07347" lon="1.59634">
        <ele>54.935260772705</ele>
        <time>2016-09-25T08:23:37.000Z</time>
      </trkpt>
      <trkpt lat="49.07362" lon="1.5962">
        <ele>53.45711517334</ele>
        <time>2016-09-25T08:23:39.000Z</time>
      </trkpt>
      <trkpt lat="49.07377" lon="1.59604">
        <ele>52.175426483154</ele>
        <time>2016-09-25T08:23:41.000Z</time>
      </trkpt>
      <trkpt lat="49.07401" lon="1.59579">
        <ele>50.939929962158</ele>
        <time>2016-09-25T08:23:44.000Z</time>
      </trkpt>
      <trkpt lat="49.07417" lon="1.59565">
        <ele>49.786224365234</ele>
        <time>2016-09-25T08:23:46.000Z</time>
      </trkpt>
      <trkpt lat="49.07439" lon="1.59542">
        <ele>48.690391540527</ele>
        <time>2016-09-25T08:23:49.000Z</time>
      </trkpt>
      <trkpt lat="49.0746" lon="1.5952">
        <ele>47.641105651855</ele>
        <time>2016-09-25T08:23:52.000Z</time>
      </trkpt>
      <trkpt lat="49.07478" lon="1.59496">
        <ele>46.604835510254</ele>
        <time>2016-09-25T08:23:55.000Z</time>
      </trkpt>
      <trkpt lat="49.07492" lon="1.59483">
        <ele>45.601211547852</ele>
        <time>2016-09-25T08:23:57.000Z</time>
      </trkpt>
      <trkpt lat="49.07503" lon="1.59471">
        <ele>44.535823822021</ele>
        <time>2016-09-25T08:23:59.000Z</time>
      </trkpt>
      <trkpt lat="49.07523" lon="1.59453">
        <ele>43.406929016113</ele>
        <time>2016-09-25T08:24:02.000Z</time>
      </trkpt>
      <trkpt lat="49.07536" lon="1.5944">
        <ele>42.297790527344</ele>
        <time>2016-09-25T08:24:04.000Z</time>
      </trkpt>
      <trkpt lat="49.07555" lon="1.59424">
        <ele>41.16153717041</ele>
        <time>2016-09-25T08:24:07.000Z</time>
      </trkpt>
      <trkpt lat="49.07568" lon="1.59409">
        <ele>40.097450256348</ele>
        <time>2016-09-25T08:24:09.000Z</time>
      </trkpt>
      <trkpt lat="49.07579" lon="1.59391">
        <ele>39.044456481934</ele>
        <time>2016-09-25T08:24:12.000Z</time>
      </trkpt>
      <trkpt lat="49.07577" lon="1.59397">
        <ele>38.352733612061</ele>
        <time>2016-09-25T08:24:15.000Z</time>
      </trkpt>
      <trkpt lat="49.07579" lon="1.59401">
        <ele>37.862567901611</ele>
        <time>2016-09-25T08:24:17.000Z</time>
      </trkpt>
      <trkpt lat="49.07579" lon="1.59403">
        <ele>37.609088897705</ele>
        <time>2016-09-25T08:24:20.000Z</time>
      </trkpt>
      <trkpt lat="49.07579" lon="1.59408">
        <ele>37.537254333496</ele>
        <time>2016-09-25T08:24:24.000Z</time>
      </trkpt>
      <trkpt lat="49.07581" lon="1.59409">
        <ele>37.651355743408</ele>
        <time>2016-09-25T08:24:26.000Z</time>
      </trkpt>
      <trkpt lat="49.0759" lon="1.59403">
        <ele>37.593933105469</ele>
        <time>2016-09-25T08:24:29.000Z</time>
      </trkpt>
      <trkpt lat="49.07597" lon="1.59396">
        <ele>37.410160064697</ele>
        <time>2016-09-25T08:24:31.000Z</time>
      </trkpt>
      <trkpt lat="49.07605" lon="1.59385">
        <ele>37.063419342041</ele>
        <time>2016-09-25T08:24:34.000Z</time>
      </trkpt>
      <trkpt lat="49.07613" lon="1.59381">
        <ele>36.59387588501</ele>
        <time>2016-09-25T08:24:36.000Z</time>
      </trkpt>
      <trkpt lat="49.07622" lon="1.59376">
        <ele>36.019634246826</ele>
        <time>2016-09-25T08:24:39.000Z</time>
      </trkpt>
      <trkpt lat="49.07626" lon="1.59369">
        <ele>35.483047485352</ele>
        <time>2016-09-25T08:24:41.000Z</time>
      </trkpt>
      <trkpt lat="49.07632" lon="1.59365">
        <ele>34.986034393311</ele>
        <time>2016-09-25T08:24:43.000Z</time>
      </trkpt>
      <trkpt lat="49.0764" lon="1.59359">
        <ele>34.541358947754</ele>
        <time>2016-09-25T08:24:46.000Z</time>
      </trkpt>
      <trkpt lat="49.07645" lon="1.59356">
        <ele>34.133647918701</ele>
        <time>2016-09-25T08:24:48.000Z</time>
      </trkpt>
      <trkpt lat="49.07655" lon="1.59348">
        <ele>33.714073181152</ele>
        <time>2016-09-25T08:24:51.000Z</time>
      </trkpt>
      <trkpt lat="49.07663" lon="1.59342">
        <ele>33.278911590576</ele>
        <time>2016-09-25T08:24:54.000Z</time>
      </trkpt>
      <trkpt lat="49.07671" lon="1.59337">
        <ele>32.808654785156</ele>
        <time>2016-09-25T08:24:57.000Z</time>
      </trkpt>
      <trkpt lat="49.07676" lon="1.59332">
        <ele>32.329933166504</ele>
        <time>2016-09-25T08:24:59.000Z</time>
      </trkpt>
      <trkpt lat="49.07683" lon="1.59324">
        <ele>31.758020401001</ele>
        <time>2016-09-25T08:25:02.000Z</time>
      </trkpt>
      <trkpt lat="49.07687" lon="1.59319">
        <ele>31.217071533203</ele>
        <time>2016-09-25T08:25:04.000Z</time>
      </trkpt>
      <trkpt lat="49.07695" lon="1.59313">
        <ele>30.637481689453</ele>
        <time>2016-09-25T08:25:07.000Z</time>
      </trkpt>
      <trkpt lat="49.07698" lon="1.59309">
        <ele>30.091979980469</ele>
        <time>2016-09-25T08:25:09.000Z</time>
      </trkpt>
      <trkpt lat="49.07701" lon="1.59304">
        <ele>29.591165542603</ele>
        <time>2016-09-25T08:25:11.000Z</time>
      </trkpt>
      <trkpt lat="49.07707" lon="1.59292">
        <ele>29.10703086853</ele>
        <time>2016-09-25T08:25:14.000Z</time>
      </trkpt>
      <trkpt lat="49.07711" lon="1.59284">
        <ele>28.618413925171</ele>
        <time>2016-09-25T08:25:16.000Z</time>
      </trkpt>
      <trkpt lat="49.07717" lon="1.59275">
        <ele>28.15771484375</ele>
        <time>2016-09-25T08:25:19.000Z</time>
      </trkpt>
      <trkpt lat="49.07719" lon="1.59268">
        <ele>27.715442657471</ele>
        <time>2016-09-25T08:25:21.000Z</time>
      </trkpt>
      <trkpt lat="49.07715" lon="1.59252">
        <ele>27.30376625061</ele>
        <time>2016-09-25T08:25:24.000Z</time>
      </trkpt>
      <trkpt lat="49.0771" lon="1.5924">
        <ele>27.008911132812</ele>
        <time>2016-09-25T08:25:26.000Z</time>
      </trkpt>
      <trkpt lat="49.07702" lon="1.59221">
        <ele>26.758769989014</ele>
        <time>2016-09-25T08:25:29.000Z</time>
      </trkpt>
      <trkpt lat="49.07697" lon="1.59202">
        <ele>26.534366607666</ele>
        <time>2016-09-25T08:25:32.000Z</time>
      </trkpt>
      <trkpt lat="49.07695" lon="1.59191">
        <ele>26.311391830444</ele>
        <time>2016-09-25T08:25:34.000Z</time>
      </trkpt>
      <trkpt lat="49.077" lon="1.59175">
        <ele>25.9736328125</ele>
        <time>2016-09-25T08:25:37.000Z</time>
      </trkpt>
      <trkpt lat="49.0771" lon="1.5916">
        <ele>25.512029647827</ele>
        <time>2016-09-25T08:25:40.000Z</time>
      </trkpt>
      <trkpt lat="49.07722" lon="1.59143">
        <ele>24.954921722412</ele>
        <time>2016-09-25T08:25:43.000Z</time>
      </trkpt>
      <trkpt lat="49.07732" lon="1.59127">
        <ele>24.36870765686</ele>
        <time>2016-09-25T08:25:46.000Z</time>
      </trkpt>
      <trkpt lat="49.0774" lon="1.59116">
        <ele>23.750173568726</ele>
        <time>2016-09-25T08:25:48.000Z</time>
      </trkpt>
      <trkpt lat="49.07746" lon="1.59107">
        <ele>23.219764709473</ele>
        <time>2016-09-25T08:25:50.000Z</time>
      </trkpt>
      <trkpt lat="49.07758" lon="1.59093">
        <ele>22.851497650146</ele>
        <time>2016-09-25T08:25:53.000Z</time>
      </trkpt>
      <trkpt lat="49.07766" lon="1.5908">
        <ele>22.6732006073</ele>
        <time>2016-09-25T08:25:55.000Z</time>
      </trkpt>
      <trkpt lat="49.07776" lon="1.59063">
        <ele>22.612710952759</ele>
        <time>2016-09-25T08:25:58.000Z</time>
      </trkpt>
      <trkpt lat="49.07786" lon="1.59046">
        <ele>22.621877670288</ele>
        <time>2016-09-25T08:26:01.000Z</time>
      </trkpt>
      <trkpt lat="49.07796" lon="1.59031">
        <ele>22.646366119385</ele>
        <time>2016-09-25T08:26:04.000Z</time>
      </trkpt>
      <trkpt lat="49.07803" lon="1.59019">
        <ele>22.610897064209</ele>
        <time>2016-09-25T08:26:06.000Z</time>
      </trkpt>
      <trkpt lat="49.07811" lon="1.59008">
        <ele>22.473472595215</ele>
        <time>2016-09-25T08:26:08.000Z</time>
      </trkpt>
      <trkpt lat="49.07819" lon="1.58991">
        <ele>22.327482223511</ele>
        <time>2016-09-25T08:26:11.000Z</time>
      </trkpt>
      <trkpt lat="49.07829" lon="1.58976">
        <ele>22.289981842041</ele>
        <time>2016-09-25T08:26:14.000Z</time>
      </trkpt>
      <trkpt lat="49.07838" lon="1.58962">
        <ele>22.394598007202</ele>
        <time>2016-09-25T08:26:17.000Z</time>
      </trkpt>
      <trkpt lat="49.07845" lon="1.58951">
        <ele>22.634464263916</ele>
        <time>2016-09-25T08:26:19.000Z</time>
      </trkpt>
      <trkpt lat="49.07856" lon="1.58933">
        <ele>23.065629959106</ele>
        <time>2016-09-25T08:26:22.000Z</time>
      </trkpt>
      <trkpt lat="49.07866" lon="1.58914">
        <ele>23.616542816162</ele>
        <time>2016-09-25T08:26:25.000Z</time>
      </trkpt>
      <trkpt lat="49.07877" lon="1.58898">
        <ele>24.168375015259</ele>
        <time>2016-09-25T08:26:28.000Z</time>
      </trkpt>
      <trkpt lat="49.07884" lon="1.58886">
        <ele>24.675453186035</ele>
        <time>2016-09-25T08:26:30.000Z</time>
      </trkpt>
      <trkpt lat="49.07895" lon="1.5887">
        <ele>25.179162979126</ele>
        <time>2016-09-25T08:26:33.000Z</time>
      </trkpt>
      <trkpt lat="49.07901" lon="1.58859">
        <ele>25.605194091797</ele>
        <time>2016-09-25T08:26:35.000Z</time>
      </trkpt>
      <trkpt lat="49.07912" lon="1.58843">
        <ele>25.996490478516</ele>
        <time>2016-09-25T08:26:38.000Z</time>
      </trkpt>
      <trkpt lat="49.07924" lon="1.58824">
        <ele>26.247013092041</ele>
        <time>2016-09-25T08:26:41.000Z</time>
      </trkpt>
      <trkpt lat="49.07932" lon="1.58815">
        <ele>26.341106414795</ele>
        <time>2016-09-25T08:26:43.000Z</time>
      </trkpt>
      <trkpt lat="49.07941" lon="1.58809">
        <ele>26.245920181274</ele>
        <time>2016-09-25T08:26:45.000Z</time>
      </trkpt>
      <trkpt lat="49.07949" lon="1.58808">
        <ele>26.052013397217</ele>
        <time>2016-09-25T08:26:47.000Z</time>
      </trkpt>
      <trkpt lat="49.07962" lon="1.58803">
        <ele>25.651275634766</ele>
        <time>2016-09-25T08:26:50.000Z</time>
      </trkpt>
      <trkpt lat="49.0797" lon="1.58797">
        <ele>25.189426422119</ele>
        <time>2016-09-25T08:26:52.000Z</time>
      </trkpt>
      <trkpt lat="49.0798" lon="1.5879">
        <ele>24.68328666687</ele>
        <time>2016-09-25T08:26:54.000Z</time>
      </trkpt>
      <trkpt lat="49.07995" lon="1.58782">
        <ele>24.059900283813</ele>
        <time>2016-09-25T08:26:57.000Z</time>
      </trkpt>
      <trkpt lat="49.08" lon="1.58773">
        <ele>23.322605133057</ele>
        <time>2016-09-25T08:26:59.000Z</time>
      </trkpt>
      <trkpt lat="49.08018" lon="1.58757">
        <ele>22.423015594482</ele>
        <time>2016-09-25T08:27:02.000Z</time>
      </trkpt>
      <trkpt lat="49.08029" lon="1.58748">
        <ele>21.511280059814</ele>
        <time>2016-09-25T08:27:04.000Z</time>
      </trkpt>
      <trkpt lat="49.08039" lon="1.5874">
        <ele>20.735208511353</ele>
        <time>2016-09-25T08:27:06.000Z</time>
      </trkpt>
      <trkpt lat="49.08054" lon="1.5873">
        <ele>20.178461074829</ele>
        <time>2016-09-25T08:27:09.000Z</time>
      </trkpt>
      <trkpt lat="49.08064" lon="1.58724">
        <ele>19.789577484131</ele>
        <time>2016-09-25T08:27:11.000Z</time>
      </trkpt>
      <trkpt lat="49.08072" lon="1.58718">
        <ele>19.697401046753</ele>
        <time>2016-09-25T08:27:13.000Z</time>
      </trkpt>
      <trkpt lat="49.08082" lon="1.5871">
        <ele>19.756076812744</ele>
        <time>2016-09-25T08:27:16.000Z</time>
      </trkpt>
      <trkpt lat="49.08088" lon="1.58708">
        <ele>19.845430374146</ele>
        <time>2016-09-25T08:27:18.000Z</time>
      </trkpt>
      <trkpt lat="49.08095" lon="1.58701">
        <ele>19.98811340332</ele>
        <time>2016-09-25T08:27:20.000Z</time>
      </trkpt>
      <trkpt lat="49.08105" lon="1.58693">
        <ele>20.1849193573</ele>
        <time>2016-09-25T08:27:22.000Z</time>
      </trkpt>
      <trkpt lat="49.08119" lon="1.58681">
        <ele>20.456491470337</ele>
        <time>2016-09-25T08:27:25.000Z</time>
      </trkpt>
      <trkpt lat="49.0813" lon="1.58672">
        <ele>20.756969451904</ele>
        <time>2016-09-25T08:27:27.000Z</time>
      </trkpt>
      <trkpt lat="49.0814" lon="1.58665">
        <ele>21.076648712158</ele>
        <time>2016-09-25T08:27:29.000Z</time>
      </trkpt>
      <trkpt lat="49.08149" lon="1.58658">
        <ele>21.365442276001</ele>
        <time>2016-09-25T08:27:31.000Z</time>
      </trkpt>
      <trkpt lat="49.08163" lon="1.5865">
        <ele>21.617986679077</ele>
        <time>2016-09-25T08:27:34.000Z</time>
      </trkpt>
      <trkpt lat="49.08177" lon="1.58639">
        <ele>21.853261947632</ele>
        <time>2016-09-25T08:27:37.000Z</time>
      </trkpt>
      <trkpt lat="49.08188" lon="1.58627">
        <ele>22.09049987793</ele>
        <time>2016-09-25T08:27:40.000Z</time>
      </trkpt>
      <trkpt lat="49.08198" lon="1.58616">
        <ele>22.334196090698</ele>
        <time>2016-09-25T08:27:43.000Z</time>
      </trkpt>
      <trkpt lat="49.08204" lon="1.58608">
        <ele>22.578243255615</ele>
        <time>2016-09-25T08:27:45.000Z</time>
      </trkpt>
      <trkpt lat="49.08213" lon="1.58594">
        <ele>22.820281982422</ele>
        <time>2016-09-25T08:27:48.000Z</time>
      </trkpt>
      <trkpt lat="49.08223" lon="1.58583">
        <ele>23.02318572998</ele>
        <time>2016-09-25T08:27:51.000Z</time>
      </trkpt>
      <trkpt lat="49.08232" lon="1.58571">
        <ele>23.230503082275</ele>
        <time>2016-09-25T08:27:54.000Z</time>
      </trkpt>
      <trkpt lat="49.08238" lon="1.58564">
        <ele>23.432334899902</ele>
        <time>2016-09-25T08:27:56.000Z</time>
      </trkpt>
      <trkpt lat="49.08248" lon="1.58555">
        <ele>23.682285308838</ele>
        <time>2016-09-25T08:27:59.000Z</time>
      </trkpt>
      <trkpt lat="49.08254" lon="1.58549">
        <ele>23.995691299438</ele>
        <time>2016-09-25T08:28:01.000Z</time>
      </trkpt>
      <trkpt lat="49.08261" lon="1.58545">
        <ele>24.3874168396</ele>
        <time>2016-09-25T08:28:03.000Z</time>
      </trkpt>
      <trkpt lat="49.08271" lon="1.58539">
        <ele>24.887559890747</ele>
        <time>2016-09-25T08:28:06.000Z</time>
      </trkpt>
      <trkpt lat="49.08276" lon="1.58535">
        <ele>25.436563491821</ele>
        <time>2016-09-25T08:28:08.000Z</time>
      </trkpt>
      <trkpt lat="49.08284" lon="1.58532">
        <ele>26.036947250366</ele>
        <time>2016-09-25T08:28:11.000Z</time>
      </trkpt>
      <trkpt lat="49.08288" lon="1.58531">
        <ele>26.613656997681</ele>
        <time>2016-09-25T08:28:13.000Z</time>
      </trkpt>
      <trkpt lat="49.08295" lon="1.5853">
        <ele>27.199365615845</ele>
        <time>2016-09-25T08:28:16.000Z</time>
      </trkpt>
      <trkpt lat="49.08302" lon="1.58528">
        <ele>27.731801986694</ele>
        <time>2016-09-25T08:28:19.000Z</time>
      </trkpt>
      <trkpt lat="49.08307" lon="1.58527">
        <ele>28.252466201782</ele>
        <time>2016-09-25T08:28:21.000Z</time>
      </trkpt>
      <trkpt lat="49.08312" lon="1.58525">
        <ele>28.73323059082</ele>
        <time>2016-09-25T08:28:23.000Z</time>
      </trkpt>
      <trkpt lat="49.08318" lon="1.58523">
        <ele>29.2419090271</ele>
        <time>2016-09-25T08:28:25.000Z</time>
      </trkpt>
      <trkpt lat="49.08325" lon="1.58517">
        <ele>29.781225204468</ele>
        <time>2016-09-25T08:28:28.000Z</time>
      </trkpt>
      <trkpt lat="49.0833" lon="1.58513">
        <ele>30.297109603882</ele>
        <time>2016-09-25T08:28:30.000Z</time>
      </trkpt>
      <trkpt lat="49.08338" lon="1.58509">
        <ele>30.969192504883</ele>
        <time>2016-09-25T08:28:33.000Z</time>
      </trkpt>
      <trkpt lat="49.08345" lon="1.58506">
        <ele>31.850957870483</ele>
        <time>2016-09-25T08:28:36.000Z</time>
      </trkpt>
      <trkpt lat="49.08353" lon="1.58502">
        <ele>32.914554595947</ele>
        <time>2016-09-25T08:28:39.000Z</time>
      </trkpt>
      <trkpt lat="49.08358" lon="1.58499">
        <ele>34.008644104004</ele>
        <time>2016-09-25T08:28:41.000Z</time>
      </trkpt>
      <trkpt lat="49.08363" lon="1.58495">
        <ele>35.175113677979</ele>
        <time>2016-09-25T08:28:43.000Z</time>
      </trkpt>
      <trkpt lat="49.08368" lon="1.58492">
        <ele>36.262393951416</ele>
        <time>2016-09-25T08:28:45.000Z</time>
      </trkpt>
      <trkpt lat="49.08374" lon="1.58485">
        <ele>37.252338409424</ele>
        <time>2016-09-25T08:28:48.000Z</time>
      </trkpt>
      <trkpt lat="49.08379" lon="1.58477">
        <ele>38.06468963623</ele>
        <time>2016-09-25T08:28:51.000Z</time>
      </trkpt>
      <trkpt lat="49.08384" lon="1.58472">
        <ele>38.77222442627</ele>
        <time>2016-09-25T08:28:53.000Z</time>
      </trkpt>
      <trkpt lat="49.08389" lon="1.58467">
        <ele>39.415229797363</ele>
        <time>2016-09-25T08:28:56.000Z</time>
      </trkpt>
      <trkpt lat="49.08395" lon="1.58462">
        <ele>39.979461669922</ele>
        <time>2016-09-25T08:28:59.000Z</time>
      </trkpt>
      <trkpt lat="49.08398" lon="1.58457">
        <ele>40.364875793457</ele>
        <time>2016-09-25T08:29:01.000Z</time>
      </trkpt>
      <trkpt lat="49.08403" lon="1.58454">
        <ele>40.680671691895</ele>
        <time>2016-09-25T08:29:03.000Z</time>
      </trkpt>
      <trkpt lat="49.08406" lon="1.5845">
        <ele>40.925983428955</ele>
        <time>2016-09-25T08:29:05.000Z</time>
      </trkpt>
      <trkpt lat="49.08411" lon="1.58443">
        <ele>41.032722473145</ele>
        <time>2016-09-25T08:29:08.000Z</time>
      </trkpt>
      <trkpt lat="49.08415" lon="1.58434">
        <ele>40.96215057373</ele>
        <time>2016-09-25T08:29:11.000Z</time>
      </trkpt>
      <trkpt lat="49.08421" lon="1.58422">
        <ele>40.805995941162</ele>
        <time>2016-09-25T08:29:14.000Z</time>
      </trkpt>
      <trkpt lat="49.08424" lon="1.58414">
        <ele>40.639213562012</ele>
        <time>2016-09-25T08:29:16.000Z</time>
      </trkpt>
      <trkpt lat="49.08427" lon="1.584">
        <ele>40.560913085938</ele>
        <time>2016-09-25T08:29:19.000Z</time>
      </trkpt>
      <trkpt lat="49.0843" lon="1.58391">
        <ele>40.587768554688</ele>
        <time>2016-09-25T08:29:21.000Z</time>
      </trkpt>
      <trkpt lat="49.08432" lon="1.58383">
        <ele>40.753101348877</ele>
        <time>2016-09-25T08:29:23.000Z</time>
      </trkpt>
      <trkpt lat="49.08435" lon="1.5837">
        <ele>41.046356201172</ele>
        <time>2016-09-25T08:29:26.000Z</time>
      </trkpt>
      <trkpt lat="49.08437" lon="1.58361">
        <ele>41.352832794189</ele>
        <time>2016-09-25T08:29:28.000Z</time>
      </trkpt>
      <trkpt lat="49.08438" lon="1.58352">
        <ele>41.553642272949</ele>
        <time>2016-09-25T08:29:30.000Z</time>
      </trkpt>
      <trkpt lat="49.08437" lon="1.58339">
        <ele>41.587108612061</ele>
        <time>2016-09-25T08:29:33.000Z</time>
      </trkpt>
      <trkpt lat="49.08432" lon="1.58328">
        <ele>41.46603012085</ele>
        <time>2016-09-25T08:29:36.000Z</time>
      </trkpt>
      <trkpt lat="49.08428" lon="1.58322">
        <ele>41.249794006348</ele>
        <time>2016-09-25T08:29:38.000Z</time>
      </trkpt>
      <trkpt lat="49.08421" lon="1.58313">
        <ele>40.93758392334</ele>
        <time>2016-09-25T08:29:41.000Z</time>
      </trkpt>
      <trkpt lat="49.08415" lon="1.58307">
        <ele>40.640670776367</ele>
        <time>2016-09-25T08:29:43.000Z</time>
      </trkpt>
      <trkpt lat="49.08408" lon="1.58297">
        <ele>40.666633605957</ele>
        <time>2016-09-25T08:29:46.000Z</time>
      </trkpt>
      <trkpt lat="49.084" lon="1.58288">
        <ele>41.034320831299</ele>
        <time>2016-09-25T08:29:49.000Z</time>
      </trkpt>
      <trkpt lat="49.08393" lon="1.58281">
        <ele>41.637599945068</ele>
        <time>2016-09-25T08:29:52.000Z</time>
      </trkpt>
      <trkpt lat="49.0839" lon="1.58279">
        <ele>42.384902954102</ele>
        <time>2016-09-25T08:29:54.000Z</time>
      </trkpt>
      <trkpt lat="49.08384" lon="1.58276">
        <ele>43.223609924316</ele>
        <time>2016-09-25T08:29:57.000Z</time>
      </trkpt>
      <trkpt lat="49.08379" lon="1.58275">
        <ele>43.901107788086</ele>
        <time>2016-09-25T08:29:59.000Z</time>
      </trkpt>
      <trkpt lat="49.08374" lon="1.58276">
        <ele>44.388305664062</ele>
        <time>2016-09-25T08:30:02.000Z</time>
      </trkpt>
      <trkpt lat="49.08371" lon="1.58278">
        <ele>44.680938720703</ele>
        <time>2016-09-25T08:30:04.000Z</time>
      </trkpt>
      <trkpt lat="49.08368" lon="1.5828">
        <ele>44.890434265137</ele>
        <time>2016-09-25T08:30:06.000Z</time>
      </trkpt>
      <trkpt lat="49.08366" lon="1.58281">
        <ele>44.9912109375</ele>
        <time>2016-09-25T08:30:08.000Z</time>
      </trkpt>
      <trkpt lat="49.08363" lon="1.58282">
        <ele>45.023296356201</ele>
        <time>2016-09-25T08:30:10.000Z</time>
      </trkpt>
      <trkpt lat="49.08357" lon="1.58284">
        <ele>45.042152404785</ele>
        <time>2016-09-25T08:30:13.000Z</time>
      </trkpt>
      <trkpt lat="49.08353" lon="1.58284">
        <ele>45.100925445557</ele>
        <time>2016-09-25T08:30:15.000Z</time>
      </trkpt>
      <trkpt lat="49.0835" lon="1.58285">
        <ele>45.164875030518</ele>
        <time>2016-09-25T08:30:18.000Z</time>
      </trkpt>
      <trkpt lat="49.08347" lon="1.58285">
        <ele>45.285415649414</ele>
        <time>2016-09-25T08:30:21.000Z</time>
      </trkpt>
      <trkpt lat="49.08347" lon="1.5828">
        <ele>45.508281707764</ele>
        <time>2016-09-25T08:30:24.000Z</time>
      </trkpt>
      <trkpt lat="49.0835" lon="1.58276">
        <ele>45.748638153076</ele>
        <time>2016-09-25T08:30:27.000Z</time>
      </trkpt>
      <trkpt lat="49.08355" lon="1.58272">
        <ele>45.973274230957</ele>
        <time>2016-09-25T08:30:30.000Z</time>
      </trkpt>
      <trkpt lat="49.08359" lon="1.58268">
        <ele>46.241817474365</ele>
        <time>2016-09-25T08:30:33.000Z</time>
      </trkpt>
      <trkpt lat="49.08361" lon="1.58264">
        <ele>46.514450073242</ele>
        <time>2016-09-25T08:30:35.000Z</time>
      </trkpt>
      <trkpt lat="49.08364" lon="1.58258">
        <ele>46.770133972168</ele>
        <time>2016-09-25T08:30:38.000Z</time>
      </trkpt>
      <trkpt lat="49.08366" lon="1.58254">
        <ele>47.039680480957</ele>
        <time>2016-09-25T08:30:40.000Z</time>
      </trkpt>
      <trkpt lat="49.08369" lon="1.58247">
        <ele>47.369926452637</ele>
        <time>2016-09-25T08:30:43.000Z</time>
      </trkpt>
      <trkpt lat="49.0837" lon="1.58243">
        <ele>47.732410430908</ele>
        <time>2016-09-25T08:30:45.000Z</time>
      </trkpt>
      <trkpt lat="49.08374" lon="1.58235">
        <ele>48.155933380127</ele>
        <time>2016-09-25T08:30:48.000Z</time>
      </trkpt>
      <trkpt lat="49.08375" lon="1.58231">
        <ele>48.562236785889</ele>
        <time>2016-09-25T08:30:50.000Z</time>
      </trkpt>
      <trkpt lat="49.08376" lon="1.58228">
        <ele>48.97469329834</ele>
        <time>2016-09-25T08:30:52.000Z</time>
      </trkpt>
      <trkpt lat="49.08376" lon="1.58224">
        <ele>49.362831115723</ele>
        <time>2016-09-25T08:30:55.000Z</time>
      </trkpt>
      <trkpt lat="49.08377" lon="1.58223">
        <ele>49.67845916748</ele>
        <time>2016-09-25T08:30:57.000Z</time>
      </trkpt>
      <trkpt lat="49.08378" lon="1.58219">
        <ele>49.972709655762</ele>
        <time>2016-09-25T08:31:00.000Z</time>
      </trkpt>
      <trkpt lat="49.08379" lon="1.58214">
        <ele>50.28959274292</ele>
        <time>2016-09-25T08:31:02.000Z</time>
      </trkpt>
      <trkpt lat="49.08381" lon="1.58208">
        <ele>50.656684875488</ele>
        <time>2016-09-25T08:31:05.000Z</time>
      </trkpt>
      <trkpt lat="49.08382" lon="1.58204">
        <ele>51.022758483887</ele>
        <time>2016-09-25T08:31:07.000Z</time>
      </trkpt>
      <trkpt lat="49.08384" lon="1.58198">
        <ele>51.497180938721</ele>
        <time>2016-09-25T08:31:10.000Z</time>
      </trkpt>
      <trkpt lat="49.08384" lon="1.58195">
        <ele>51.937553405762</ele>
        <time>2016-09-25T08:31:12.000Z</time>
      </trkpt>
      <trkpt lat="49.08384" lon="1.58192">
        <ele>52.353424072266</ele>
        <time>2016-09-25T08:31:14.000Z</time>
      </trkpt>
      <trkpt lat="49.08384" lon="1.58188">
        <ele>52.752880096436</ele>
        <time>2016-09-25T08:31:17.000Z</time>
      </trkpt>
      <trkpt lat="49.08384" lon="1.58184">
        <ele>53.166999816895</ele>
        <time>2016-09-25T08:31:19.000Z</time>
      </trkpt>
      <trkpt lat="49.08384" lon="1.58179">
        <ele>53.570274353027</ele>
        <time>2016-09-25T08:31:22.000Z</time>
      </trkpt>
      <trkpt lat="49.08382" lon="1.58175">
        <ele>54.010021209717</ele>
        <time>2016-09-25T08:31:24.000Z</time>
      </trkpt>
      <trkpt lat="49.08381" lon="1.58171">
        <ele>54.463207244873</ele>
        <time>2016-09-25T08:31:26.000Z</time>
      </trkpt>
      <trkpt lat="49.08379" lon="1.58166">
        <ele>54.94820022583</ele>
        <time>2016-09-25T08:31:29.000Z</time>
      </trkpt>
      <trkpt lat="49.08376" lon="1.58163">
        <ele>55.407905578613</ele>
        <time>2016-09-25T08:31:31.000Z</time>
      </trkpt>
      <trkpt lat="49.08374" lon="1.5816">
        <ele>55.831871032715</ele>
        <time>2016-09-25T08:31:33.000Z</time>
      </trkpt>
      <trkpt lat="49.08372" lon="1.58154">
        <ele>56.267230987549</ele>
        <time>2016-09-25T08:31:36.000Z</time>
      </trkpt>
      <trkpt lat="49.08373" lon="1.5815">
        <ele>56.687316894531</ele>
        <time>2016-09-25T08:31:38.000Z</time>
      </trkpt>
      <trkpt lat="49.08374" lon="1.58143">
        <ele>57.084533691406</ele>
        <time>2016-09-25T08:31:41.000Z</time>
      </trkpt>
      <trkpt lat="49.08375" lon="1.58139">
        <ele>57.493072509766</ele>
        <time>2016-09-25T08:31:43.000Z</time>
      </trkpt>
      <trkpt lat="49.08374" lon="1.58133">
        <ele>57.937805175781</ele>
        <time>2016-09-25T08:31:46.000Z</time>
      </trkpt>
      <trkpt lat="49.08372" lon="1.58129">
        <ele>58.362060546875</ele>
        <time>2016-09-25T08:31:49.000Z</time>
      </trkpt>
      <trkpt lat="49.08371" lon="1.58125">
        <ele>58.798858642578</ele>
        <time>2016-09-25T08:31:52.000Z</time>
      </trkpt>
      <trkpt lat="49.0837" lon="1.58119">
        <ele>59.230255126953</ele>
        <time>2016-09-25T08:31:55.000Z</time>
      </trkpt>
      <trkpt lat="49.08369" lon="1.58113">
        <ele>59.68994140625</ele>
        <time>2016-09-25T08:31:58.000Z</time>
      </trkpt>
      <trkpt lat="49.08368" lon="1.58109">
        <ele>60.120422363281</ele>
        <time>2016-09-25T08:32:00.000Z</time>
      </trkpt>
      <trkpt lat="49.08368" lon="1.58103">
        <ele>60.583038330078</ele>
        <time>2016-09-25T08:32:03.000Z</time>
      </trkpt>
      <trkpt lat="49.08366" lon="1.58096">
        <ele>61.098083496094</ele>
        <time>2016-09-25T08:32:06.000Z</time>
      </trkpt>
      <trkpt lat="49.08365" lon="1.5809">
        <ele>61.599853515625</ele>
        <time>2016-09-25T08:32:09.000Z</time>
      </trkpt>
      <trkpt lat="49.08364" lon="1.58086">
        <ele>62.076416015625</ele>
        <time>2016-09-25T08:32:11.000Z</time>
      </trkpt>
      <trkpt lat="49.08363" lon="1.58078">
        <ele>62.591899871826</ele>
        <time>2016-09-25T08:32:14.000Z</time>
      </trkpt>
      <trkpt lat="49.08364" lon="1.58071">
        <ele>63.06982421875</ele>
        <time>2016-09-25T08:32:16.000Z</time>
      </trkpt>
      <trkpt lat="49.08363" lon="1.58065">
        <ele>63.498023986816</ele>
        <time>2016-09-25T08:32:18.000Z</time>
      </trkpt>
      <trkpt lat="49.08363" lon="1.58056">
        <ele>63.935962677002</ele>
        <time>2016-09-25T08:32:21.000Z</time>
      </trkpt>
      <trkpt lat="49.08363" lon="1.58052">
        <ele>64.346725463867</ele>
        <time>2016-09-25T08:32:23.000Z</time>
      </trkpt>
      <trkpt lat="49.08364" lon="1.58043">
        <ele>64.740036010742</ele>
        <time>2016-09-25T08:32:26.000Z</time>
      </trkpt>
      <trkpt lat="49.08366" lon="1.58035">
        <ele>65.152778625488</ele>
        <time>2016-09-25T08:32:29.000Z</time>
      </trkpt>
      <trkpt lat="49.08368" lon="1.58027">
        <ele>65.57551574707</ele>
        <time>2016-09-25T08:32:32.000Z</time>
      </trkpt>
      <trkpt lat="49.0837" lon="1.58022">
        <ele>65.954544067383</ele>
        <time>2016-09-25T08:32:34.000Z</time>
      </trkpt>
      <trkpt lat="49.08371" lon="1.58017">
        <ele>66.34447479248</ele>
        <time>2016-09-25T08:32:36.000Z</time>
      </trkpt>
      <trkpt lat="49.08372" lon="1.5801">
        <ele>66.724807739258</ele>
        <time>2016-09-25T08:32:39.000Z</time>
      </trkpt>
      <trkpt lat="49.08374" lon="1.58002">
        <ele>67.10270690918</ele>
        <time>2016-09-25T08:32:42.000Z</time>
      </trkpt>
      <trkpt lat="49.08375" lon="1.57997">
        <ele>67.45588684082</ele>
        <time>2016-09-25T08:32:44.000Z</time>
      </trkpt>
      <trkpt lat="49.08375" lon="1.5799">
        <ele>67.873565673828</ele>
        <time>2016-09-25T08:32:47.000Z</time>
      </trkpt>
      <trkpt lat="49.08375" lon="1.57983">
        <ele>68.342025756836</ele>
        <time>2016-09-25T08:32:50.000Z</time>
      </trkpt>
      <trkpt lat="49.08373" lon="1.57978">
        <ele>68.80549621582</ele>
        <time>2016-09-25T08:32:52.000Z</time>
      </trkpt>
      <trkpt lat="49.08371" lon="1.57972">
        <ele>69.260063171387</ele>
        <time>2016-09-25T08:32:54.000Z</time>
      </trkpt>
      <trkpt lat="49.0837" lon="1.57965">
        <ele>69.770210266113</ele>
        <time>2016-09-25T08:32:57.000Z</time>
      </trkpt>
      <trkpt lat="49.08369" lon="1.57958">
        <ele>70.269790649414</ele>
        <time>2016-09-25T08:33:00.000Z</time>
      </trkpt>
      <trkpt lat="49.08367" lon="1.57952">
        <ele>70.762222290039</ele>
        <time>2016-09-25T08:33:03.000Z</time>
      </trkpt>
      <trkpt lat="49.08367" lon="1.57948">
        <ele>71.235488891602</ele>
        <time>2016-09-25T08:33:05.000Z</time>
      </trkpt>
      <trkpt lat="49.08368" lon="1.57944">
        <ele>71.689086914062</ele>
        <time>2016-09-25T08:33:07.000Z</time>
      </trkpt>
      <trkpt lat="49.08368" lon="1.57936">
        <ele>72.139137268066</ele>
        <time>2016-09-25T08:33:10.000Z</time>
      </trkpt>
      <trkpt lat="49.08368" lon="1.5793">
        <ele>72.575187683105</ele>
        <time>2016-09-25T08:33:12.000Z</time>
      </trkpt>
      <trkpt lat="49.08369" lon="1.57928">
        <ele>72.958236694336</ele>
        <time>2016-09-25T08:33:14.000Z</time>
      </trkpt>
      <trkpt lat="49.08371" lon="1.57923">
        <ele>73.3466796875</ele>
        <time>2016-09-25T08:33:17.000Z</time>
      </trkpt>
      <trkpt lat="49.08375" lon="1.57918">
        <ele>73.738624572754</ele>
        <time>2016-09-25T08:33:20.000Z</time>
      </trkpt>
      <trkpt lat="49.08376" lon="1.57914">
        <ele>74.077598571777</ele>
        <time>2016-09-25T08:33:22.000Z</time>
      </trkpt>
      <trkpt lat="49.08377" lon="1.57907">
        <ele>74.44645690918</ele>
        <time>2016-09-25T08:33:25.000Z</time>
      </trkpt>
      <trkpt lat="49.08375" lon="1.57902">
        <ele>74.863174438477</ele>
        <time>2016-09-25T08:33:28.000Z</time>
      </trkpt>
      <trkpt lat="49.08374" lon="1.57897">
        <ele>75.310317993164</ele>
        <time>2016-09-25T08:33:31.000Z</time>
      </trkpt>
      <trkpt lat="49.08374" lon="1.57893">
        <ele>75.752563476562</ele>
        <time>2016-09-25T08:33:33.000Z</time>
      </trkpt>
      <trkpt lat="49.08374" lon="1.57889">
        <ele>76.209312438965</ele>
        <time>2016-09-25T08:33:36.000Z</time>
      </trkpt>
      <trkpt lat="49.08375" lon="1.57884">
        <ele>76.633750915527</ele>
        <time>2016-09-25T08:33:39.000Z</time>
      </trkpt>
      <trkpt lat="49.08376" lon="1.57878">
        <ele>77.06867980957</ele>
        <time>2016-09-25T08:33:42.000Z</time>
      </trkpt>
      <trkpt lat="49.08376" lon="1.57874">
        <ele>77.473098754883</ele>
        <time>2016-09-25T08:33:44.000Z</time>
      </trkpt>
      <trkpt lat="49.08377" lon="1.57869">
        <ele>77.910362243652</ele>
        <time>2016-09-25T08:33:47.000Z</time>
      </trkpt>
      <trkpt lat="49.08378" lon="1.57865">
        <ele>78.337135314941</ele>
        <time>2016-09-25T08:33:49.000Z</time>
      </trkpt>
      <trkpt lat="49.08379" lon="1.57861">
        <ele>78.741500854492</ele>
        <time>2016-09-25T08:33:51.000Z</time>
      </trkpt>
      <trkpt lat="49.0838" lon="1.57856">
        <ele>79.141052246094</ele>
        <time>2016-09-25T08:33:54.000Z</time>
      </trkpt>
      <trkpt lat="49.08381" lon="1.57852">
        <ele>79.541053771973</ele>
        <time>2016-09-25T08:33:56.000Z</time>
      </trkpt>
      <trkpt lat="49.08381" lon="1.57846">
        <ele>79.95329284668</ele>
        <time>2016-09-25T08:33:59.000Z</time>
      </trkpt>
      <trkpt lat="49.08382" lon="1.57843">
        <ele>80.357009887695</ele>
        <time>2016-09-25T08:34:01.000Z</time>
      </trkpt>
      <trkpt lat="49.08382" lon="1.57839">
        <ele>80.758911132812</ele>
        <time>2016-09-25T08:34:03.000Z</time>
      </trkpt>
      <trkpt lat="49.08384" lon="1.57835">
        <ele>81.131378173828</ele>
        <time>2016-09-25T08:34:05.000Z</time>
      </trkpt>
      <trkpt lat="49.08384" lon="1.57831">
        <ele>81.521774291992</ele>
        <time>2016-09-25T08:34:08.000Z</time>
      </trkpt>
      <trkpt lat="49.08385" lon="1.57827">
        <ele>81.87670135498</ele>
        <time>2016-09-25T08:34:10.000Z</time>
      </trkpt>
      <trkpt lat="49.08387" lon="1.57823">
        <ele>82.24967956543</ele>
        <time>2016-09-25T08:34:12.000Z</time>
      </trkpt>
      <trkpt lat="49.08388" lon="1.57817">
        <ele>82.660430908203</ele>
        <time>2016-09-25T08:34:15.000Z</time>
      </trkpt>
      <trkpt lat="49.08389" lon="1.57813">
        <ele>83.07763671875</ele>
        <time>2016-09-25T08:34:17.000Z</time>
      </trkpt>
      <trkpt lat="49.08391" lon="1.57808">
        <ele>83.506103515625</ele>
        <time>2016-09-25T08:34:20.000Z</time>
      </trkpt>
      <trkpt lat="49.08393" lon="1.57805">
        <ele>83.91943359375</ele>
        <time>2016-09-25T08:34:22.000Z</time>
      </trkpt>
      <trkpt lat="49.08395" lon="1.57802">
        <ele>84.31591796875</ele>
        <time>2016-09-25T08:34:24.000Z</time>
      </trkpt>
      <trkpt lat="49.08397" lon="1.57798">
        <ele>84.68505859375</ele>
        <time>2016-09-25T08:34:27.000Z</time>
      </trkpt>
      <trkpt lat="49.08399" lon="1.57794">
        <ele>85.052978515625</ele>
        <time>2016-09-25T08:34:30.000Z</time>
      </trkpt>
      <trkpt lat="49.08401" lon="1.57789">
        <ele>85.427978515625</ele>
        <time>2016-09-25T08:34:33.000Z</time>
      </trkpt>
      <trkpt lat="49.08402" lon="1.57784">
        <ele>85.82763671875</ele>
        <time>2016-09-25T08:34:35.000Z</time>
      </trkpt>
      <trkpt lat="49.08404" lon="1.57779">
        <ele>86.27880859375</ele>
        <time>2016-09-25T08:34:38.000Z</time>
      </trkpt>
      <trkpt lat="49.08406" lon="1.57775">
        <ele>86.73046875</ele>
        <time>2016-09-25T08:34:40.000Z</time>
      </trkpt>
      <trkpt lat="49.08408" lon="1.57768">
        <ele>87.2275390625</ele>
        <time>2016-09-25T08:34:43.000Z</time>
      </trkpt>
      <trkpt lat="49.08409" lon="1.57764">
        <ele>87.700439453125</ele>
        <time>2016-09-25T08:34:46.000Z</time>
      </trkpt>
      <trkpt lat="49.0841" lon="1.57761">
        <ele>88.151123046875</ele>
        <time>2016-09-25T08:34:48.000Z</time>
      </trkpt>
      <trkpt lat="49.08412" lon="1.57755">
        <ele>88.595703125</ele>
        <time>2016-09-25T08:34:51.000Z</time>
      </trkpt>
      <trkpt lat="49.08414" lon="1.57752">
        <ele>89.03369140625</ele>
        <time>2016-09-25T08:34:53.000Z</time>
      </trkpt>
      <trkpt lat="49.08415" lon="1.57748">
        <ele>89.42179107666</ele>
        <time>2016-09-25T08:34:55.000Z</time>
      </trkpt>
      <trkpt lat="49.08417" lon="1.57742">
        <ele>89.830833435059</ele>
        <time>2016-09-25T08:34:58.000Z</time>
      </trkpt>
      <trkpt lat="49.08419" lon="1.57735">
        <ele>90.270202636719</ele>
        <time>2016-09-25T08:35:01.000Z</time>
      </trkpt>
      <trkpt lat="49.0842" lon="1.57731">
        <ele>90.665863037109</ele>
        <time>2016-09-25T08:35:03.000Z</time>
      </trkpt>
      <trkpt lat="49.08421" lon="1.57725">
        <ele>91.072250366211</ele>
        <time>2016-09-25T08:35:06.000Z</time>
      </trkpt>
      <trkpt lat="49.08422" lon="1.57721">
        <ele>91.465576171875</ele>
        <time>2016-09-25T08:35:08.000Z</time>
      </trkpt>
      <trkpt lat="49.08424" lon="1.57715">
        <ele>91.853828430176</ele>
        <time>2016-09-25T08:35:11.000Z</time>
      </trkpt>
      <trkpt lat="49.08426" lon="1.57706">
        <ele>92.267654418945</ele>
        <time>2016-09-25T08:35:14.000Z</time>
      </trkpt>
      <trkpt lat="49.08426" lon="1.57702">
        <ele>92.687705993652</ele>
        <time>2016-09-25T08:35:16.000Z</time>
      </trkpt>
      <trkpt lat="49.08427" lon="1.57696">
        <ele>93.103553771973</ele>
        <time>2016-09-25T08:35:19.000Z</time>
      </trkpt>
      <trkpt lat="49.08429" lon="1.57693">
        <ele>93.504867553711</ele>
        <time>2016-09-25T08:35:21.000Z</time>
      </trkpt>
      <trkpt lat="49.0843" lon="1.57688">
        <ele>93.870056152344</ele>
        <time>2016-09-25T08:35:24.000Z</time>
      </trkpt>
      <trkpt lat="49.08431" lon="1.57685">
        <ele>94.161598205566</ele>
        <time>2016-09-25T08:35:26.000Z</time>
      </trkpt>
      <trkpt lat="49.08433" lon="1.5768">
        <ele>94.439903259277</ele>
        <time>2016-09-25T08:35:29.000Z</time>
      </trkpt>
      <trkpt lat="49.08434" lon="1.57675">
        <ele>94.711654663086</ele>
        <time>2016-09-25T08:35:32.000Z</time>
      </trkpt>
      <trkpt lat="49.08435" lon="1.57668">
        <ele>95.035568237305</ele>
        <time>2016-09-25T08:35:35.000Z</time>
      </trkpt>
      <trkpt lat="49.08435" lon="1.57661">
        <ele>95.425567626953</ele>
        <time>2016-09-25T08:35:38.000Z</time>
      </trkpt>
      <trkpt lat="49.08435" lon="1.57658">
        <ele>95.843643188477</ele>
        <time>2016-09-25T08:35:40.000Z</time>
      </trkpt>
      <trkpt lat="49.08436" lon="1.57653">
        <ele>96.288192749023</ele>
        <time>2016-09-25T08:35:43.000Z</time>
      </trkpt>
      <trkpt lat="49.08437" lon="1.57649">
        <ele>96.728897094727</ele>
        <time>2016-09-25T08:35:45.000Z</time>
      </trkpt>
      <trkpt lat="49.08437" lon="1.57646">
        <ele>97.143478393555</ele>
        <time>2016-09-25T08:35:47.000Z</time>
      </trkpt>
      <trkpt lat="49.08437" lon="1.57642">
        <ele>97.492752075195</ele>
        <time>2016-09-25T08:35:49.000Z</time>
      </trkpt>
      <trkpt lat="49.08438" lon="1.57639">
        <ele>97.834274291992</ele>
        <time>2016-09-25T08:35:52.000Z</time>
      </trkpt>
      <trkpt lat="49.08438" lon="1.57635">
        <ele>98.17350769043</ele>
        <time>2016-09-25T08:35:53.000Z</time>
      </trkpt>
      <trkpt lat="49.08438" lon="1.57628">
        <ele>98.569259643555</ele>
        <time>2016-09-25T08:35:56.000Z</time>
      </trkpt>
      <trkpt lat="49.08438" lon="1.57624">
        <ele>98.980895996094</ele>
        <time>2016-09-25T08:35:58.000Z</time>
      </trkpt>
      <trkpt lat="49.08438" lon="1.57618">
        <ele>99.451858520508</ele>
        <time>2016-09-25T08:36:01.000Z</time>
      </trkpt>
      <trkpt lat="49.08438" lon="1.57613">
        <ele>99.94750213623</ele>
        <time>2016-09-25T08:36:03.000Z</time>
      </trkpt>
      <trkpt lat="49.08438" lon="1.57609">
        <ele>100.45226287842</ele>
        <time>2016-09-25T08:36:05.000Z</time>
      </trkpt>
      <trkpt lat="49.08438" lon="1.57605">
        <ele>100.91412353516</ele>
        <time>2016-09-25T08:36:07.000Z</time>
      </trkpt>
      <trkpt lat="49.08439" lon="1.57599">
        <ele>101.3973236084</ele>
        <time>2016-09-25T08:36:10.000Z</time>
      </trkpt>
      <trkpt lat="49.08439" lon="1.57592">
        <ele>101.89784240723</ele>
        <time>2016-09-25T08:36:13.000Z</time>
      </trkpt>
      <trkpt lat="49.08441" lon="1.57586">
        <ele>102.38795471191</ele>
        <time>2016-09-25T08:36:16.000Z</time>
      </trkpt>
      <trkpt lat="49.08442" lon="1.57584">
        <ele>102.8191986084</ele>
        <time>2016-09-25T08:36:18.000Z</time>
      </trkpt>
      <trkpt lat="49.08443" lon="1.57578">
        <ele>103.24113464355</ele>
        <time>2016-09-25T08:36:21.000Z</time>
      </trkpt>
      <trkpt lat="49.08443" lon="1.57574">
        <ele>103.63954162598</ele>
        <time>2016-09-25T08:36:23.000Z</time>
      </trkpt>
      <trkpt lat="49.08443" lon="1.57569">
        <ele>103.98815917969</ele>
        <time>2016-09-25T08:36:25.000Z</time>
      </trkpt>
      <trkpt lat="49.08444" lon="1.57565">
        <ele>104.32985687256</ele>
        <time>2016-09-25T08:36:27.000Z</time>
      </trkpt>
      <trkpt lat="49.08444" lon="1.57559">
        <ele>104.76147460938</ele>
        <time>2016-09-25T08:36:30.000Z</time>
      </trkpt>
      <trkpt lat="49.08445" lon="1.57552">
        <ele>105.23323059082</ele>
        <time>2016-09-25T08:36:33.000Z</time>
      </trkpt>
      <trkpt lat="49.08446" lon="1.57546">
        <ele>105.73062896729</ele>
        <time>2016-09-25T08:36:36.000Z</time>
      </trkpt>
      <trkpt lat="49.08446" lon="1.5754">
        <ele>106.2438583374</ele>
        <time>2016-09-25T08:36:39.000Z</time>
      </trkpt>
      <trkpt lat="49.08447" lon="1.57535">
        <ele>106.75222015381</ele>
        <time>2016-09-25T08:36:41.000Z</time>
      </trkpt>
      <trkpt lat="49.08448" lon="1.57529">
        <ele>107.24131011963</ele>
        <time>2016-09-25T08:36:44.000Z</time>
      </trkpt>
      <trkpt lat="49.08448" lon="1.57525">
        <ele>107.67607116699</ele>
        <time>2016-09-25T08:36:46.000Z</time>
      </trkpt>
      <trkpt lat="49.08449" lon="1.57518">
        <ele>108.12577819824</ele>
        <time>2016-09-25T08:36:49.000Z</time>
      </trkpt>
      <trkpt lat="49.08449" lon="1.57513">
        <ele>108.56304931641</ele>
        <time>2016-09-25T08:36:51.000Z</time>
      </trkpt>
      <trkpt lat="49.08449" lon="1.57507">
        <ele>109.04648590088</ele>
        <time>2016-09-25T08:36:54.000Z</time>
      </trkpt>
      <trkpt lat="49.0845" lon="1.57501">
        <ele>109.52632141113</ele>
        <time>2016-09-25T08:36:57.000Z</time>
      </trkpt>
      <trkpt lat="49.0845" lon="1.57496">
        <ele>109.99929046631</ele>
        <time>2016-09-25T08:36:59.000Z</time>
      </trkpt>
      <trkpt lat="49.0845" lon="1.5749">
        <ele>110.41788482666</ele>
        <time>2016-09-25T08:37:02.000Z</time>
      </trkpt>
      <trkpt lat="49.0845" lon="1.57486">
        <ele>110.77774810791</ele>
        <time>2016-09-25T08:37:04.000Z</time>
      </trkpt>
      <trkpt lat="49.08451" lon="1.5748">
        <ele>111.09749603271</ele>
        <time>2016-09-25T08:37:07.000Z</time>
      </trkpt>
      <trkpt lat="49.08451" lon="1.57473">
        <ele>111.38917541504</ele>
        <time>2016-09-25T08:37:10.000Z</time>
      </trkpt>
      <trkpt lat="49.08452" lon="1.57465">
        <ele>111.70355224609</ele>
        <time>2016-09-25T08:37:13.000Z</time>
      </trkpt>
      <trkpt lat="49.08451" lon="1.57457">
        <ele>112.06027984619</ele>
        <time>2016-09-25T08:37:16.000Z</time>
      </trkpt>
      <trkpt lat="49.08451" lon="1.57449">
        <ele>112.48016357422</ele>
        <time>2016-09-25T08:37:19.000Z</time>
      </trkpt>
      <trkpt lat="49.08451" lon="1.57445">
        <ele>112.87131500244</ele>
        <time>2016-09-25T08:37:21.000Z</time>
      </trkpt>
      <trkpt lat="49.08451" lon="1.5744">
        <ele>113.24558258057</ele>
        <time>2016-09-25T08:37:23.000Z</time>
      </trkpt>
      <trkpt lat="49.08453" lon="1.57433">
        <ele>113.59692382812</ele>
        <time>2016-09-25T08:37:26.000Z</time>
      </trkpt>
      <trkpt lat="49.08454" lon="1.57425">
        <ele>113.90675354004</ele>
        <time>2016-09-25T08:37:29.000Z</time>
      </trkpt>
      <trkpt lat="49.08455" lon="1.57418">
        <ele>114.16618347168</ele>
        <time>2016-09-25T08:37:32.000Z</time>
      </trkpt>
      <trkpt lat="49.08457" lon="1.57414">
        <ele>114.38600158691</ele>
        <time>2016-09-25T08:37:34.000Z</time>
      </trkpt>
      <trkpt lat="49.08458" lon="1.57408">
        <ele>114.57752990723</ele>
        <time>2016-09-25T08:37:36.000Z</time>
      </trkpt>
      <trkpt lat="49.08458" lon="1.574">
        <ele>114.75815582275</ele>
        <time>2016-09-25T08:37:39.000Z</time>
      </trkpt>
      <trkpt lat="49.08459" lon="1.57396">
        <ele>114.8726348877</ele>
        <time>2016-09-25T08:37:41.000Z</time>
      </trkpt>
      <trkpt lat="49.0846" lon="1.57389">
        <ele>114.959815979</ele>
        <time>2016-09-25T08:37:44.000Z</time>
      </trkpt>
      <trkpt lat="49.08461" lon="1.57382">
        <ele>115.07043457031</ele>
        <time>2016-09-25T08:37:47.000Z</time>
      </trkpt>
      <trkpt lat="49.08463" lon="1.57376">
        <ele>115.17816162109</ele>
        <time>2016-09-25T08:37:50.000Z</time>
      </trkpt>
      <trkpt lat="49.08463" lon="1.5737">
        <ele>115.28700256348</ele>
        <time>2016-09-25T08:37:52.000Z</time>
      </trkpt>
      <trkpt lat="49.08461" lon="1.57362">
        <ele>115.46804046631</ele>
        <time>2016-09-25T08:37:55.000Z</time>
      </trkpt>
      <trkpt lat="49.0846" lon="1.57353">
        <ele>115.69360351562</ele>
        <time>2016-09-25T08:37:58.000Z</time>
      </trkpt>
      <trkpt lat="49.0846" lon="1.57347">
        <ele>115.93733978271</ele>
        <time>2016-09-25T08:38:01.000Z</time>
      </trkpt>
      <trkpt lat="49.08459" lon="1.5734">
        <ele>116.21501159668</ele>
        <time>2016-09-25T08:38:04.000Z</time>
      </trkpt>
      <trkpt lat="49.08458" lon="1.57334">
        <ele>116.50527191162</ele>
        <time>2016-09-25T08:38:06.000Z</time>
      </trkpt>
      <trkpt lat="49.08455" lon="1.57324">
        <ele>116.80400085449</ele>
        <time>2016-09-25T08:38:09.000Z</time>
      </trkpt>
      <trkpt lat="49.08454" lon="1.57315">
        <ele>117.11454772949</ele>
        <time>2016-09-25T08:38:12.000Z</time>
      </trkpt>
      <trkpt lat="49.08453" lon="1.57306">
        <ele>117.44795227051</ele>
        <time>2016-09-25T08:38:15.000Z</time>
      </trkpt>
      <trkpt lat="49.08451" lon="1.573">
        <ele>117.77575683594</ele>
        <time>2016-09-25T08:38:17.000Z</time>
      </trkpt>
      <trkpt lat="49.08447" lon="1.57289">
        <ele>118.14250183105</ele>
        <time>2016-09-25T08:38:20.000Z</time>
      </trkpt>
      <trkpt lat="49.08443" lon="1.57277">
        <ele>118.50661468506</ele>
        <time>2016-09-25T08:38:23.000Z</time>
      </trkpt>
      <trkpt lat="49.0844" lon="1.57265">
        <ele>118.86631774902</ele>
        <time>2016-09-25T08:38:26.000Z</time>
      </trkpt>
      <trkpt lat="49.08438" lon="1.57257">
        <ele>119.19937896729</ele>
        <time>2016-09-25T08:38:28.000Z</time>
      </trkpt>
      <trkpt lat="49.08436" lon="1.57249">
        <ele>119.52282714844</ele>
        <time>2016-09-25T08:38:30.000Z</time>
      </trkpt>
      <trkpt lat="49.08434" lon="1.57238">
        <ele>119.83674621582</ele>
        <time>2016-09-25T08:38:33.000Z</time>
      </trkpt>
      <trkpt lat="49.08432" lon="1.57231">
        <ele>120.12202453613</ele>
        <time>2016-09-25T08:38:35.000Z</time>
      </trkpt>
      <trkpt lat="49.0843" lon="1.57223">
        <ele>120.38820648193</ele>
        <time>2016-09-25T08:38:37.000Z</time>
      </trkpt>
      <trkpt lat="49.08429" lon="1.57213">
        <ele>120.69130706787</ele>
        <time>2016-09-25T08:38:40.000Z</time>
      </trkpt>
      <trkpt lat="49.08427" lon="1.57202">
        <ele>121.03051757812</ele>
        <time>2016-09-25T08:38:43.000Z</time>
      </trkpt>
      <trkpt lat="49.08426" lon="1.57191">
        <ele>121.36486816406</ele>
        <time>2016-09-25T08:38:46.000Z</time>
      </trkpt>
      <trkpt lat="49.08424" lon="1.57185">
        <ele>121.69555664062</ele>
        <time>2016-09-25T08:38:48.000Z</time>
      </trkpt>
      <trkpt lat="49.08423" lon="1.57178">
        <ele>122.02101898193</ele>
        <time>2016-09-25T08:38:50.000Z</time>
      </trkpt>
      <trkpt lat="49.08421" lon="1.57168">
        <ele>122.34128570557</ele>
        <time>2016-09-25T08:38:53.000Z</time>
      </trkpt>
      <trkpt lat="49.08419" lon="1.57161">
        <ele>122.59738922119</ele>
        <time>2016-09-25T08:38:55.000Z</time>
      </trkpt>
      <trkpt lat="49.08418" lon="1.57153">
        <ele>122.7759552002</ele>
        <time>2016-09-25T08:38:57.000Z</time>
      </trkpt>
      <trkpt lat="49.08415" lon="1.57141">
        <ele>122.90209960938</ele>
        <time>2016-09-25T08:39:00.000Z</time>
      </trkpt>
      <trkpt lat="49.08413" lon="1.57129">
        <ele>122.97782897949</ele>
        <time>2016-09-25T08:39:03.000Z</time>
      </trkpt>
      <trkpt lat="49.08412" lon="1.57117">
        <ele>122.97714996338</ele>
        <time>2016-09-25T08:39:06.000Z</time>
      </trkpt>
      <trkpt lat="49.0841" lon="1.57104">
        <ele>122.96171569824</ele>
        <time>2016-09-25T08:39:09.000Z</time>
      </trkpt>
      <trkpt lat="49.08409" lon="1.57095">
        <ele>122.943359375</ele>
        <time>2016-09-25T08:39:11.000Z</time>
      </trkpt>
      <trkpt lat="49.08407" lon="1.57083">
        <ele>122.92555999756</ele>
        <time>2016-09-25T08:39:14.000Z</time>
      </trkpt>
      <trkpt lat="49.08406" lon="1.57074">
        <ele>122.92704772949</ele>
        <time>2016-09-25T08:39:16.000Z</time>
      </trkpt>
      <trkpt lat="49.08405" lon="1.57062">
        <ele>122.95346832275</ele>
        <time>2016-09-25T08:39:19.000Z</time>
      </trkpt>
      <trkpt lat="49.08402" lon="1.57049">
        <ele>123.00118255615</ele>
        <time>2016-09-25T08:39:22.000Z</time>
      </trkpt>
      <trkpt lat="49.084" lon="1.57037">
        <ele>123.07026672363</ele>
        <time>2016-09-25T08:39:25.000Z</time>
      </trkpt>
      <trkpt lat="49.08398" lon="1.57025">
        <ele>123.15554046631</ele>
        <time>2016-09-25T08:39:28.000Z</time>
      </trkpt>
      <trkpt lat="49.08396" lon="1.57017">
        <ele>123.23152160645</ele>
        <time>2016-09-25T08:39:30.000Z</time>
      </trkpt>
      <trkpt lat="49.08394" lon="1.57004">
        <ele>123.30029296875</ele>
        <time>2016-09-25T08:39:33.000Z</time>
      </trkpt>
      <trkpt lat="49.08392" lon="1.56991">
        <ele>123.36019134521</ele>
        <time>2016-09-25T08:39:36.000Z</time>
      </trkpt>
      <trkpt lat="49.0839" lon="1.56978">
        <ele>123.41520690918</ele>
        <time>2016-09-25T08:39:39.000Z</time>
      </trkpt>
      <trkpt lat="49.08389" lon="1.56969">
        <ele>123.46849060059</ele>
        <time>2016-09-25T08:39:41.000Z</time>
      </trkpt>
      <trkpt lat="49.08388" lon="1.5696">
        <ele>123.52614593506</ele>
        <time>2016-09-25T08:39:43.000Z</time>
      </trkpt>
      <trkpt lat="49.08386" lon="1.56948">
        <ele>123.58721923828</ele>
        <time>2016-09-25T08:39:46.000Z</time>
      </trkpt>
      <trkpt lat="49.08384" lon="1.5694">
        <ele>123.6521987915</ele>
        <time>2016-09-25T08:39:48.000Z</time>
      </trkpt>
      <trkpt lat="49.08382" lon="1.56926">
        <ele>123.72843933105</ele>
        <time>2016-09-25T08:39:51.000Z</time>
      </trkpt>
      <trkpt lat="49.08381" lon="1.56918">
        <ele>123.80892181396</ele>
        <time>2016-09-25T08:39:53.000Z</time>
      </trkpt>
      <trkpt lat="49.08379" lon="1.56908">
        <ele>123.91664886475</ele>
        <time>2016-09-25T08:39:56.000Z</time>
      </trkpt>
      <trkpt lat="49.08378" lon="1.56902">
        <ele>124.02976989746</ele>
        <time>2016-09-25T08:39:58.000Z</time>
      </trkpt>
      <trkpt lat="49.08377" lon="1.56896">
        <ele>124.14971923828</ele>
        <time>2016-09-25T08:40:00.000Z</time>
      </trkpt>
      <trkpt lat="49.08376" lon="1.56892">
        <ele>124.25830078125</ele>
        <time>2016-09-25T08:40:03.000Z</time>
      </trkpt>
      <trkpt lat="49.08376" lon="1.56894">
        <ele>124.3468170166</ele>
        <time>2016-09-25T08:40:07.000Z</time>
      </trkpt>
      <trkpt lat="49.08376" lon="1.56894">
        <ele>124.3468170166</ele>
        <time>2016-09-25T08:40:27.000Z</time>
      </trkpt>
      <trkpt lat="49.08377" lon="1.56895">
        <ele>124.39208984375</ele>
        <time>2016-09-25T08:40:52.000Z</time>
      </trkpt>
      <trkpt lat="49.08377" lon="1.56893">
        <ele>124.42308044434</ele>
        <time>2016-09-25T08:41:11.000Z</time>
      </trkpt>
      <trkpt lat="49.08376" lon="1.5689">
        <ele>124.44364929199</ele>
        <time>2016-09-25T08:41:30.000Z</time>
      </trkpt>
      <trkpt lat="49.08377" lon="1.5689">
        <ele>124.45467376709</ele>
        <time>2016-09-25T08:41:33.000Z</time>
      </trkpt>
      <trkpt lat="49.08377" lon="1.5689">
        <ele>124.45467376709</ele>
        <time>2016-09-25T08:41:53.000Z</time>
      </trkpt>
      <trkpt lat="49.08376" lon="1.56888">
        <ele>124.47462463379</ele>
        <time>2016-09-25T08:41:58.000Z</time>
      </trkpt>
      <trkpt lat="49.08376" lon="1.56888">
        <ele>124.47462463379</ele>
        <time>2016-09-25T08:42:18.000Z</time>
      </trkpt>
      <trkpt lat="49.08375" lon="1.56887">
        <ele>124.50156402588</ele>
        <time>2016-09-25T08:42:31.000Z</time>
      </trkpt>
      <trkpt lat="49.08376" lon="1.56889">
        <ele>124.51487731934</ele>
        <time>2016-09-25T08:42:36.000Z</time>
      </trkpt>
      <trkpt lat="49.08376" lon="1.56893">
        <ele>124.5057144165</ele>
        <time>2016-09-25T08:42:52.000Z</time>
      </trkpt>
      <trkpt lat="49.08378" lon="1.5689">
        <ele>124.50484466553</ele>
        <time>2016-09-25T08:43:11.000Z</time>
      </trkpt>
      <trkpt lat="49.08376" lon="1.56888">
        <ele>124.50532531738</ele>
        <time>2016-09-25T08:43:14.000Z</time>
      </trkpt>
      <trkpt lat="49.08372" lon="1.56883">
        <ele>124.51005554199</ele>
        <time>2016-09-25T08:43:17.000Z</time>
      </trkpt>
      <trkpt lat="49.0837" lon="1.56875">
        <ele>124.54079437256</ele>
        <time>2016-09-25T08:43:19.000Z</time>
      </trkpt>
      <trkpt lat="49.08366" lon="1.56861">
        <ele>124.61036682129</ele>
        <time>2016-09-25T08:43:22.000Z</time>
      </trkpt>
      <trkpt lat="49.08365" lon="1.56853">
        <ele>124.68469238281</ele>
        <time>2016-09-25T08:43:24.000Z</time>
      </trkpt>
      <trkpt lat="49.08363" lon="1.56844">
        <ele>124.76686096191</ele>
        <time>2016-09-25T08:43:26.000Z</time>
      </trkpt>
      <trkpt lat="49.08361" lon="1.56829">
        <ele>124.8575592041</ele>
        <time>2016-09-25T08:43:29.000Z</time>
      </trkpt>
      <trkpt lat="49.08356" lon="1.56811">
        <ele>124.91735839844</ele>
        <time>2016-09-25T08:43:32.000Z</time>
      </trkpt>
      <trkpt lat="49.08353" lon="1.56792">
        <ele>124.95027923584</ele>
        <time>2016-09-25T08:43:35.000Z</time>
      </trkpt>
      <trkpt lat="49.08352" lon="1.56773">
        <ele>124.97525787354</ele>
        <time>2016-09-25T08:43:38.000Z</time>
      </trkpt>
      <trkpt lat="49.0835" lon="1.56761">
        <ele>124.98111724854</ele>
        <time>2016-09-25T08:43:40.000Z</time>
      </trkpt>
      <trkpt lat="49.0835" lon="1.56741">
        <ele>124.96913909912</ele>
        <time>2016-09-25T08:43:43.000Z</time>
      </trkpt>
      <trkpt lat="49.08348" lon="1.56729">
        <ele>124.94342041016</ele>
        <time>2016-09-25T08:43:45.000Z</time>
      </trkpt>
      <trkpt lat="49.08348" lon="1.56718">
        <ele>124.91013336182</ele>
        <time>2016-09-25T08:43:47.000Z</time>
      </trkpt>
      <trkpt lat="49.08345" lon="1.56703">
        <ele>124.84006500244</ele>
        <time>2016-09-25T08:43:50.000Z</time>
      </trkpt>
      <trkpt lat="49.08341" lon="1.56684">
        <ele>124.72371673584</ele>
        <time>2016-09-25T08:43:53.000Z</time>
      </trkpt>
      <trkpt lat="49.08338" lon="1.56665">
        <ele>124.58824157715</ele>
        <time>2016-09-25T08:43:56.000Z</time>
      </trkpt>
      <trkpt lat="49.08334" lon="1.56646">
        <ele>124.57855224609</ele>
        <time>2016-09-25T08:43:59.000Z</time>
      </trkpt>
      <trkpt lat="49.08332" lon="1.56634">
        <ele>124.65229797363</ele>
        <time>2016-09-25T08:44:01.000Z</time>
      </trkpt>
      <trkpt lat="49.0833" lon="1.56622">
        <ele>124.82595062256</ele>
        <time>2016-09-25T08:44:03.000Z</time>
      </trkpt>
      <trkpt lat="49.08327" lon="1.56604">
        <ele>125.15079498291</ele>
        <time>2016-09-25T08:44:06.000Z</time>
      </trkpt>
      <trkpt lat="49.08325" lon="1.56592">
        <ele>125.55550384521</ele>
        <time>2016-09-25T08:44:08.000Z</time>
      </trkpt>
      <trkpt lat="49.08322" lon="1.5658">
        <ele>125.89161682129</ele>
        <time>2016-09-25T08:44:10.000Z</time>
      </trkpt>
      <trkpt lat="49.08318" lon="1.56563">
        <ele>126.14208984375</ele>
        <time>2016-09-25T08:44:13.000Z</time>
      </trkpt>
      <trkpt lat="49.08315" lon="1.56545">
        <ele>126.32531738281</ele>
        <time>2016-09-25T08:44:16.000Z</time>
      </trkpt>
      <trkpt lat="49.08314" lon="1.56534">
        <ele>126.41744232178</ele>
        <time>2016-09-25T08:44:18.000Z</time>
      </trkpt>
      <trkpt lat="49.08311" lon="1.56517">
        <ele>126.47138977051</ele>
        <time>2016-09-25T08:44:21.000Z</time>
      </trkpt>
      <trkpt lat="49.0831" lon="1.56504">
        <ele>126.51328277588</ele>
        <time>2016-09-25T08:44:23.000Z</time>
      </trkpt>
      <trkpt lat="49.08308" lon="1.56484">
        <ele>126.82012939453</ele>
        <time>2016-09-25T08:44:26.000Z</time>
      </trkpt>
      <trkpt lat="49.08303" lon="1.56465">
        <ele>127.42085266113</ele>
        <time>2016-09-25T08:44:29.000Z</time>
      </trkpt>
      <trkpt lat="49.083" lon="1.56453">
        <ele>128.20877075195</ele>
        <time>2016-09-25T08:44:31.000Z</time>
      </trkpt>
      <trkpt lat="49.08298" lon="1.56437">
        <ele>129.24481201172</ele>
        <time>2016-09-25T08:44:34.000Z</time>
      </trkpt>
      <trkpt lat="49.08302" lon="1.56428">
        <ele>130.39929199219</ele>
        <time>2016-09-25T08:44:36.000Z</time>
      </trkpt>
      <trkpt lat="49.08314" lon="1.56422">
        <ele>131.37728881836</ele>
        <time>2016-09-25T08:44:39.000Z</time>
      </trkpt>
      <trkpt lat="49.08326" lon="1.56418">
        <ele>132.09053039551</ele>
        <time>2016-09-25T08:44:42.000Z</time>
      </trkpt>
      <trkpt lat="49.08335" lon="1.56414">
        <ele>132.62808227539</ele>
        <time>2016-09-25T08:44:44.000Z</time>
      </trkpt>
      <trkpt lat="49.08348" lon="1.56411">
        <ele>132.88238525391</ele>
        <time>2016-09-25T08:44:47.000Z</time>
      </trkpt>
      <trkpt lat="49.08358" lon="1.56406">
        <ele>133.00984191895</ele>
        <time>2016-09-25T08:44:49.000Z</time>
      </trkpt>
      <trkpt lat="49.08371" lon="1.56398">
        <ele>133.10664367676</ele>
        <time>2016-09-25T08:44:52.000Z</time>
      </trkpt>
      <trkpt lat="49.08381" lon="1.56393">
        <ele>133.19442749023</ele>
        <time>2016-09-25T08:44:54.000Z</time>
      </trkpt>
      <trkpt lat="49.0839" lon="1.56388">
        <ele>133.2896270752</ele>
        <time>2016-09-25T08:44:56.000Z</time>
      </trkpt>
      <trkpt lat="49.08403" lon="1.56381">
        <ele>133.44993591309</ele>
        <time>2016-09-25T08:44:59.000Z</time>
      </trkpt>
      <trkpt lat="49.08414" lon="1.56377">
        <ele>133.61996459961</ele>
        <time>2016-09-25T08:45:02.000Z</time>
      </trkpt>
      <trkpt lat="49.08422" lon="1.56371">
        <ele>133.73928833008</ele>
        <time>2016-09-25T08:45:04.000Z</time>
      </trkpt>
      <trkpt lat="49.08434" lon="1.56367">
        <ele>133.73051452637</ele>
        <time>2016-09-25T08:45:07.000Z</time>
      </trkpt>
      <trkpt lat="49.08448" lon="1.56363">
        <ele>133.54840087891</ele>
        <time>2016-09-25T08:45:10.000Z</time>
      </trkpt>
      <trkpt lat="49.0846" lon="1.56358">
        <ele>133.18334960938</ele>
        <time>2016-09-25T08:45:13.000Z</time>
      </trkpt>
      <trkpt lat="49.08468" lon="1.56355">
        <ele>132.69064331055</ele>
        <time>2016-09-25T08:45:15.000Z</time>
      </trkpt>
      <trkpt lat="49.08474" lon="1.56353">
        <ele>132.12197875977</ele>
        <time>2016-09-25T08:45:17.000Z</time>
      </trkpt>
      <trkpt lat="49.08478" lon="1.56342">
        <ele>131.63664245605</ele>
        <time>2016-09-25T08:45:20.000Z</time>
      </trkpt>
      <trkpt lat="49.08477" lon="1.56331">
        <ele>131.35020446777</ele>
        <time>2016-09-25T08:45:23.000Z</time>
      </trkpt>
      <trkpt lat="49.08474" lon="1.56323">
        <ele>131.22946166992</ele>
        <time>2016-09-25T08:45:25.000Z</time>
      </trkpt>
      <trkpt lat="49.08468" lon="1.5631">
        <ele>131.32766723633</ele>
        <time>2016-09-25T08:45:28.000Z</time>
      </trkpt>
      <trkpt lat="49.08464" lon="1.56302">
        <ele>131.59538269043</ele>
        <time>2016-09-25T08:45:30.000Z</time>
      </trkpt>
      <trkpt lat="49.0846" lon="1.56293">
        <ele>131.95886230469</ele>
        <time>2016-09-25T08:45:32.000Z</time>
      </trkpt>
      <trkpt lat="49.08458" lon="1.56285">
        <ele>132.3224029541</ele>
        <time>2016-09-25T08:45:34.000Z</time>
      </trkpt>
      <trkpt lat="49.08455" lon="1.56269">
        <ele>132.71047973633</ele>
        <time>2016-09-25T08:45:37.000Z</time>
      </trkpt>
      <trkpt lat="49.08452" lon="1.56255">
        <ele>133.07400512695</ele>
        <time>2016-09-25T08:45:40.000Z</time>
      </trkpt>
      <trkpt lat="49.08451" lon="1.56245">
        <ele>133.3727722168</ele>
        <time>2016-09-25T08:45:42.000Z</time>
      </trkpt>
      <trkpt lat="49.08448" lon="1.56229">
        <ele>133.63003540039</ele>
        <time>2016-09-25T08:45:45.000Z</time>
      </trkpt>
      <trkpt lat="49.08445" lon="1.56213">
        <ele>133.89381408691</ele>
        <time>2016-09-25T08:45:48.000Z</time>
      </trkpt>
      <trkpt lat="49.08443" lon="1.56201">
        <ele>134.10983276367</ele>
        <time>2016-09-25T08:45:50.000Z</time>
      </trkpt>
      <trkpt lat="49.08441" lon="1.56189">
        <ele>134.26303100586</ele>
        <time>2016-09-25T08:45:52.000Z</time>
      </trkpt>
      <trkpt lat="49.08438" lon="1.56172">
        <ele>134.4242401123</ele>
        <time>2016-09-25T08:45:55.000Z</time>
      </trkpt>
      <trkpt lat="49.08437" lon="1.56156">
        <ele>134.49659729004</ele>
        <time>2016-09-25T08:45:58.000Z</time>
      </trkpt>
      <trkpt lat="49.08433" lon="1.5614">
        <ele>134.46650695801</ele>
        <time>2016-09-25T08:46:01.000Z</time>
      </trkpt>
      <trkpt lat="49.0843" lon="1.56125">
        <ele>134.36688232422</ele>
        <time>2016-09-25T08:46:04.000Z</time>
      </trkpt>
      <trkpt lat="49.08424" lon="1.56111">
        <ele>134.21955871582</ele>
        <time>2016-09-25T08:46:07.000Z</time>
      </trkpt>
      <trkpt lat="49.08422" lon="1.56102">
        <ele>133.98002624512</ele>
        <time>2016-09-25T08:46:09.000Z</time>
      </trkpt>
      <trkpt lat="49.08418" lon="1.56088">
        <ele>133.71913146973</ele>
        <time>2016-09-25T08:46:12.000Z</time>
      </trkpt>
      <trkpt lat="49.08415" lon="1.56075">
        <ele>133.4485168457</ele>
        <time>2016-09-25T08:46:15.000Z</time>
      </trkpt>
      <trkpt lat="49.08413" lon="1.56065">
        <ele>133.20458984375</ele>
        <time>2016-09-25T08:46:17.000Z</time>
      </trkpt>
      <trkpt lat="49.08408" lon="1.56056">
        <ele>133.04684448242</ele>
        <time>2016-09-25T08:46:19.000Z</time>
      </trkpt>
      <trkpt lat="49.08401" lon="1.56048">
        <ele>133.0319519043</ele>
        <time>2016-09-25T08:46:21.000Z</time>
      </trkpt>
      <trkpt lat="49.08393" lon="1.56035">
        <ele>133.20764160156</ele>
        <time>2016-09-25T08:46:24.000Z</time>
      </trkpt>
      <trkpt lat="49.08386" lon="1.56021">
        <ele>133.49491882324</ele>
        <time>2016-09-25T08:46:27.000Z</time>
      </trkpt>
      <trkpt lat="49.08381" lon="1.56006">
        <ele>133.84683227539</ele>
        <time>2016-09-25T08:46:30.000Z</time>
      </trkpt>
      <trkpt lat="49.08378" lon="1.55996">
        <ele>134.15478515625</ele>
        <time>2016-09-25T08:46:32.000Z</time>
      </trkpt>
      <trkpt lat="49.08377" lon="1.55979">
        <ele>134.35362243652</ele>
        <time>2016-09-25T08:46:35.000Z</time>
      </trkpt>
      <trkpt lat="49.08376" lon="1.55967">
        <ele>134.42152404785</ele>
        <time>2016-09-25T08:46:37.000Z</time>
      </trkpt>
      <trkpt lat="49.08372" lon="1.55949">
        <ele>134.42163085938</ele>
        <time>2016-09-25T08:46:40.000Z</time>
      </trkpt>
      <trkpt lat="49.08369" lon="1.55938">
        <ele>134.38998413086</ele>
        <time>2016-09-25T08:46:42.000Z</time>
      </trkpt>
      <trkpt lat="49.08364" lon="1.55922">
        <ele>134.32772827148</ele>
        <time>2016-09-25T08:46:45.000Z</time>
      </trkpt>
      <trkpt lat="49.08361" lon="1.55911">
        <ele>134.30905151367</ele>
        <time>2016-09-25T08:46:47.000Z</time>
      </trkpt>
      <trkpt lat="49.08358" lon="1.55894">
        <ele>134.36161804199</ele>
        <time>2016-09-25T08:46:50.000Z</time>
      </trkpt>
      <trkpt lat="49.08355" lon="1.55881">
        <ele>134.45915222168</ele>
        <time>2016-09-25T08:46:52.000Z</time>
      </trkpt>
      <trkpt lat="49.08352" lon="1.55868">
        <ele>134.59646606445</ele>
        <time>2016-09-25T08:46:54.000Z</time>
      </trkpt>
      <trkpt lat="49.08349" lon="1.55849">
        <ele>134.79077148438</ele>
        <time>2016-09-25T08:46:57.000Z</time>
      </trkpt>
      <trkpt lat="49.08345" lon="1.55832">
        <ele>135.00952148438</ele>
        <time>2016-09-25T08:47:00.000Z</time>
      </trkpt>
      <trkpt lat="49.08344" lon="1.55814">
        <ele>135.2253112793</ele>
        <time>2016-09-25T08:47:03.000Z</time>
      </trkpt>
      <trkpt lat="49.08342" lon="1.55796">
        <ele>135.46098327637</ele>
        <time>2016-09-25T08:47:06.000Z</time>
      </trkpt>
      <trkpt lat="49.0834" lon="1.55779">
        <ele>135.71186828613</ele>
        <time>2016-09-25T08:47:09.000Z</time>
      </trkpt>
      <trkpt lat="49.08339" lon="1.55768">
        <ele>135.95878601074</ele>
        <time>2016-09-25T08:47:11.000Z</time>
      </trkpt>
      <trkpt lat="49.08338" lon="1.5575">
        <ele>136.21864318848</ele>
        <time>2016-09-25T08:47:14.000Z</time>
      </trkpt>
      <trkpt lat="49.08337" lon="1.55737">
        <ele>136.44094848633</ele>
        <time>2016-09-25T08:47:16.000Z</time>
      </trkpt>
      <trkpt lat="49.08334" lon="1.55719">
        <ele>136.63673400879</ele>
        <time>2016-09-25T08:47:19.000Z</time>
      </trkpt>
      <trkpt lat="49.08334" lon="1.55706">
        <ele>136.7790222168</ele>
        <time>2016-09-25T08:47:21.000Z</time>
      </trkpt>
      <trkpt lat="49.08336" lon="1.55689">
        <ele>136.8583984375</ele>
        <time>2016-09-25T08:47:24.000Z</time>
      </trkpt>
      <trkpt lat="49.08339" lon="1.55679">
        <ele>136.84375</ele>
        <time>2016-09-25T08:47:26.000Z</time>
      </trkpt>
      <trkpt lat="49.08342" lon="1.55669">
        <ele>136.78515625</ele>
        <time>2016-09-25T08:47:28.000Z</time>
      </trkpt>
      <trkpt lat="49.08346" lon="1.55655">
        <ele>136.66763305664</ele>
        <time>2016-09-25T08:47:31.000Z</time>
      </trkpt>
      <trkpt lat="49.08347" lon="1.55638">
        <ele>136.56881713867</ele>
        <time>2016-09-25T08:47:34.000Z</time>
      </trkpt>
      <trkpt lat="49.08348" lon="1.55627">
        <ele>136.5055847168</ele>
        <time>2016-09-25T08:47:36.000Z</time>
      </trkpt>
      <trkpt lat="49.08351" lon="1.55611">
        <ele>136.46406555176</ele>
        <time>2016-09-25T08:47:39.000Z</time>
      </trkpt>
      <trkpt lat="49.08355" lon="1.55595">
        <ele>136.43576049805</ele>
        <time>2016-09-25T08:47:42.000Z</time>
      </trkpt>
      <trkpt lat="49.08356" lon="1.55576">
        <ele>136.44970703125</ele>
        <time>2016-09-25T08:47:45.000Z</time>
      </trkpt>
      <trkpt lat="49.08355" lon="1.55562">
        <ele>136.46903991699</ele>
        <time>2016-09-25T08:47:48.000Z</time>
      </trkpt>
      <trkpt lat="49.08353" lon="1.55551">
        <ele>136.51104736328</ele>
        <time>2016-09-25T08:47:50.000Z</time>
      </trkpt>
      <trkpt lat="49.08352" lon="1.55541">
        <ele>136.59188842773</ele>
        <time>2016-09-25T08:47:52.000Z</time>
      </trkpt>
      <trkpt lat="49.08353" lon="1.55527">
        <ele>136.70024108887</ele>
        <time>2016-09-25T08:47:55.000Z</time>
      </trkpt>
      <trkpt lat="49.08352" lon="1.55515">
        <ele>136.81761169434</ele>
        <time>2016-09-25T08:47:57.000Z</time>
      </trkpt>
      <trkpt lat="49.08347" lon="1.55497">
        <ele>136.9716796875</ele>
        <time>2016-09-25T08:48:00.000Z</time>
      </trkpt>
      <trkpt lat="49.08339" lon="1.55478">
        <ele>137.12301635742</ele>
        <time>2016-09-25T08:48:03.000Z</time>
      </trkpt>
      <trkpt lat="49.08333" lon="1.5546">
        <ele>137.25648498535</ele>
        <time>2016-09-25T08:48:06.000Z</time>
      </trkpt>
      <trkpt lat="49.08329" lon="1.55442">
        <ele>137.38174438477</ele>
        <time>2016-09-25T08:48:09.000Z</time>
      </trkpt>
      <trkpt lat="49.08324" lon="1.55425">
        <ele>137.50228881836</ele>
        <time>2016-09-25T08:48:12.000Z</time>
      </trkpt>
      <trkpt lat="49.08319" lon="1.55407">
        <ele>137.60348510742</ele>
        <time>2016-09-25T08:48:15.000Z</time>
      </trkpt>
      <trkpt lat="49.08318" lon="1.55394">
        <ele>137.6930847168</ele>
        <time>2016-09-25T08:48:17.000Z</time>
      </trkpt>
      <trkpt lat="49.08317" lon="1.55382">
        <ele>137.78398132324</ele>
        <time>2016-09-25T08:48:19.000Z</time>
      </trkpt>
      <trkpt lat="49.08317" lon="1.55363">
        <ele>137.87651062012</ele>
        <time>2016-09-25T08:48:22.000Z</time>
      </trkpt>
      <trkpt lat="49.08317" lon="1.55351">
        <ele>137.947265625</ele>
        <time>2016-09-25T08:48:24.000Z</time>
      </trkpt>
      <trkpt lat="49.08318" lon="1.55339">
        <ele>137.966796875</ele>
        <time>2016-09-25T08:48:26.000Z</time>
      </trkpt>
      <trkpt lat="49.08321" lon="1.55322">
        <ele>137.94229125977</ele>
        <time>2016-09-25T08:48:29.000Z</time>
      </trkpt>
      <trkpt lat="49.08325" lon="1.55304">
        <ele>137.90194702148</ele>
        <time>2016-09-25T08:48:32.000Z</time>
      </trkpt>
      <trkpt lat="49.08328" lon="1.55292">
        <ele>137.85256958008</ele>
        <time>2016-09-25T08:48:34.000Z</time>
      </trkpt>
      <trkpt lat="49.0833" lon="1.5528">
        <ele>137.81787109375</ele>
        <time>2016-09-25T08:48:36.000Z</time>
      </trkpt>
      <trkpt lat="49.08333" lon="1.55263">
        <ele>137.80082702637</ele>
        <time>2016-09-25T08:48:39.000Z</time>
      </trkpt>
      <trkpt lat="49.08336" lon="1.55253">
        <ele>137.79951477051</ele>
        <time>2016-09-25T08:48:41.000Z</time>
      </trkpt>
      <trkpt lat="49.08339" lon="1.55243">
        <ele>137.80534362793</ele>
        <time>2016-09-25T08:48:43.000Z</time>
      </trkpt>
      <trkpt lat="49.08343" lon="1.55228">
        <ele>137.84364318848</ele>
        <time>2016-09-25T08:48:46.000Z</time>
      </trkpt>
      <trkpt lat="49.08345" lon="1.55218">
        <ele>137.89529418945</ele>
        <time>2016-09-25T08:48:48.000Z</time>
      </trkpt>
      <trkpt lat="49.08347" lon="1.55208">
        <ele>137.96339416504</ele>
        <time>2016-09-25T08:48:50.000Z</time>
      </trkpt>
      <trkpt lat="49.0835" lon="1.55192">
        <ele>138.07330322266</ele>
        <time>2016-09-25T08:48:53.000Z</time>
      </trkpt>
      <trkpt lat="49.08352" lon="1.55174">
        <ele>138.25720214844</ele>
        <time>2016-09-25T08:48:56.000Z</time>
      </trkpt>
      <trkpt lat="49.08352" lon="1.55156">
        <ele>138.41955566406</ele>
        <time>2016-09-25T08:48:59.000Z</time>
      </trkpt>
      <trkpt lat="49.08352" lon="1.55145">
        <ele>138.54658508301</ele>
        <time>2016-09-25T08:49:01.000Z</time>
      </trkpt>
      <trkpt lat="49.08349" lon="1.55125">
        <ele>138.6389465332</ele>
        <time>2016-09-25T08:49:04.000Z</time>
      </trkpt>
      <trkpt lat="49.08348" lon="1.55112">
        <ele>138.67636108398</ele>
        <time>2016-09-25T08:49:06.000Z</time>
      </trkpt>
      <trkpt lat="49.08346" lon="1.55092">
        <ele>138.62350463867</ele>
        <time>2016-09-25T08:49:09.000Z</time>
      </trkpt>
      <trkpt lat="49.08346" lon="1.55071">
        <ele>138.49533081055</ele>
        <time>2016-09-25T08:49:12.000Z</time>
      </trkpt>
      <trkpt lat="49.08345" lon="1.55058">
        <ele>138.32670593262</ele>
        <time>2016-09-25T08:49:14.000Z</time>
      </trkpt>
      <trkpt lat="49.08345" lon="1.55039">
        <ele>138.09143066406</ele>
        <time>2016-09-25T08:49:17.000Z</time>
      </trkpt>
      <trkpt lat="49.08344" lon="1.5502">
        <ele>137.79385375977</ele>
        <time>2016-09-25T08:49:20.000Z</time>
      </trkpt>
      <trkpt lat="49.08345" lon="1.55007">
        <ele>137.44909667969</ele>
        <time>2016-09-25T08:49:22.000Z</time>
      </trkpt>
      <trkpt lat="49.08344" lon="1.54993">
        <ele>137.14669799805</ele>
        <time>2016-09-25T08:49:24.000Z</time>
      </trkpt>
      <trkpt lat="49.08342" lon="1.54974">
        <ele>136.91157531738</ele>
        <time>2016-09-25T08:49:27.000Z</time>
      </trkpt>
      <trkpt lat="49.08338" lon="1.54956">
        <ele>136.78567504883</ele>
        <time>2016-09-25T08:49:30.000Z</time>
      </trkpt>
      <trkpt lat="49.08336" lon="1.54941">
        <ele>136.75372314453</ele>
        <time>2016-09-25T08:49:33.000Z</time>
      </trkpt>
      <trkpt lat="49.08334" lon="1.54929">
        <ele>136.80078125</ele>
        <time>2016-09-25T08:49:35.000Z</time>
      </trkpt>
      <trkpt lat="49.08328" lon="1.54908">
        <ele>136.84075927734</ele>
        <time>2016-09-25T08:49:38.000Z</time>
      </trkpt>
      <trkpt lat="49.08326" lon="1.5489">
        <ele>136.78923034668</ele>
        <time>2016-09-25T08:49:41.000Z</time>
      </trkpt>
      <trkpt lat="49.08324" lon="1.54873">
        <ele>136.63235473633</ele>
        <time>2016-09-25T08:49:44.000Z</time>
      </trkpt>
      <trkpt lat="49.08323" lon="1.54862">
        <ele>136.4192199707</ele>
        <time>2016-09-25T08:49:46.000Z</time>
      </trkpt>
      <trkpt lat="49.08313" lon="1.54857">
        <ele>136.20846557617</ele>
        <time>2016-09-25T08:49:49.000Z</time>
      </trkpt>
      <trkpt lat="49.08305" lon="1.54859">
        <ele>136.06745910645</ele>
        <time>2016-09-25T08:49:51.000Z</time>
      </trkpt>
      <trkpt lat="49.08297" lon="1.54859">
        <ele>136.02731323242</ele>
        <time>2016-09-25T08:49:53.000Z</time>
      </trkpt>
      <trkpt lat="49.08294" lon="1.54847">
        <ele>136.03811645508</ele>
        <time>2016-09-25T08:49:56.000Z</time>
      </trkpt>
      <trkpt lat="49.08294" lon="1.54832">
        <ele>136.05795288086</ele>
        <time>2016-09-25T08:49:58.000Z</time>
      </trkpt>
      <trkpt lat="49.08288" lon="1.54809">
        <ele>136.13064575195</ele>
        <time>2016-09-25T08:50:01.000Z</time>
      </trkpt>
      <trkpt lat="49.08287" lon="1.54794">
        <ele>136.19595336914</ele>
        <time>2016-09-25T08:50:03.000Z</time>
      </trkpt>
      <trkpt lat="49.08285" lon="1.54781">
        <ele>136.27383422852</ele>
        <time>2016-09-25T08:50:05.000Z</time>
      </trkpt>
      <trkpt lat="49.08284" lon="1.54769">
        <ele>136.40341186523</ele>
        <time>2016-09-25T08:50:07.000Z</time>
      </trkpt>
      <trkpt lat="49.08281" lon="1.54755">
        <ele>136.63746643066</ele>
        <time>2016-09-25T08:50:10.000Z</time>
      </trkpt>
      <trkpt lat="49.08281" lon="1.54745">
        <ele>136.81759643555</ele>
        <time>2016-09-25T08:50:13.000Z</time>
      </trkpt>
      <trkpt lat="49.0828" lon="1.54732">
        <ele>137.0200958252</ele>
        <time>2016-09-25T08:50:16.000Z</time>
      </trkpt>
      <trkpt lat="49.08278" lon="1.54714">
        <ele>137.24404907227</ele>
        <time>2016-09-25T08:50:19.000Z</time>
      </trkpt>
      <trkpt lat="49.08278" lon="1.547">
        <ele>137.47149658203</ele>
        <time>2016-09-25T08:50:21.000Z</time>
      </trkpt>
      <trkpt lat="49.08278" lon="1.54687">
        <ele>137.66848754883</ele>
        <time>2016-09-25T08:50:23.000Z</time>
      </trkpt>
      <trkpt lat="49.08277" lon="1.54669">
        <ele>137.90060424805</ele>
        <time>2016-09-25T08:50:26.000Z</time>
      </trkpt>
      <trkpt lat="49.08279" lon="1.54661">
        <ele>138.08322143555</ele>
        <time>2016-09-25T08:50:28.000Z</time>
      </trkpt>
      <trkpt lat="49.0828" lon="1.54657">
        <ele>138.21481323242</ele>
        <time>2016-09-25T08:50:31.000Z</time>
      </trkpt>
      <trkpt lat="49.08278" lon="1.54655">
        <ele>138.33985900879</ele>
        <time>2016-09-25T08:50:40.000Z</time>
      </trkpt>
      <trkpt lat="49.08279" lon="1.54655">
        <ele>138.41673278809</ele>
        <time>2016-09-25T08:50:43.000Z</time>
      </trkpt>
      <trkpt lat="49.08279" lon="1.54656">
        <ele>138.4443359375</ele>
        <time>2016-09-25T08:50:46.000Z</time>
      </trkpt>
      <trkpt lat="49.08278" lon="1.54655">
        <ele>138.48881530762</ele>
        <time>2016-09-25T08:50:49.000Z</time>
      </trkpt>
      <trkpt lat="49.08278" lon="1.54653">
        <ele>138.53596496582</ele>
        <time>2016-09-25T08:50:51.000Z</time>
      </trkpt>
      <trkpt lat="49.08277" lon="1.54651">
        <ele>138.56842041016</ele>
        <time>2016-09-25T08:51:01.000Z</time>
      </trkpt>
      <trkpt lat="49.08278" lon="1.5465">
        <ele>138.60188293457</ele>
        <time>2016-09-25T08:51:04.000Z</time>
      </trkpt>
      <trkpt lat="49.08275" lon="1.54652">
        <ele>138.669921875</ele>
        <time>2016-09-25T08:51:13.000Z</time>
      </trkpt>
      <trkpt lat="49.08275" lon="1.54652">
        <ele>138.669921875</ele>
        <time>2016-09-25T08:51:33.000Z</time>
      </trkpt>
      <trkpt lat="49.08272" lon="1.54657">
        <ele>138.73446655273</ele>
        <time>2016-09-25T08:51:34.000Z</time>
      </trkpt>
      <trkpt lat="49.08272" lon="1.54657">
        <ele>138.73446655273</ele>
        <time>2016-09-25T08:51:54.000Z</time>
      </trkpt>
      <trkpt lat="49.08272" lon="1.54655">
        <ele>138.79270935059</ele>
        <time>2016-09-25T08:52:05.000Z</time>
      </trkpt>
      <trkpt lat="49.08273" lon="1.54654">
        <ele>138.83358764648</ele>
        <time>2016-09-25T08:52:07.000Z</time>
      </trkpt>
      <trkpt lat="49.08274" lon="1.5465">
        <ele>138.89059448242</ele>
        <time>2016-09-25T08:52:24.000Z</time>
      </trkpt>
      <trkpt lat="49.08274" lon="1.5465">
        <ele>138.89059448242</ele>
        <time>2016-09-25T08:52:44.000Z</time>
      </trkpt>
      <trkpt lat="49.08275" lon="1.54651">
        <ele>138.89340209961</ele>
        <time>2016-09-25T08:52:47.000Z</time>
      </trkpt>
      <trkpt lat="49.08275" lon="1.54653">
        <ele>138.87435913086</ele>
        <time>2016-09-25T08:52:49.000Z</time>
      </trkpt>
      <trkpt lat="49.08275" lon="1.54653">
        <ele>138.87435913086</ele>
        <time>2016-09-25T08:53:09.000Z</time>
      </trkpt>
      <trkpt lat="49.08278" lon="1.54652">
        <ele>138.81335449219</ele>
        <time>2016-09-25T08:53:17.000Z</time>
      </trkpt>
      <trkpt lat="49.08278" lon="1.54652">
        <ele>138.81335449219</ele>
        <time>2016-09-25T08:53:37.000Z</time>
      </trkpt>
      <trkpt lat="49.08281" lon="1.5465">
        <ele>138.73739624023</ele>
        <time>2016-09-25T08:54:26.000Z</time>
      </trkpt>
      <trkpt lat="49.08279" lon="1.54648">
        <ele>138.67276000977</ele>
        <time>2016-09-25T08:54:29.000Z</time>
      </trkpt>
      <trkpt lat="49.08275" lon="1.54643">
        <ele>138.70664978027</ele>
        <time>2016-09-25T08:54:32.000Z</time>
      </trkpt>
      <trkpt lat="49.08266" lon="1.54636">
        <ele>138.87847900391</ele>
        <time>2016-09-25T08:54:35.000Z</time>
      </trkpt>
      <trkpt lat="49.0826" lon="1.5463">
        <ele>139.20654296875</ele>
        <time>2016-09-25T08:54:38.000Z</time>
      </trkpt>
      <trkpt lat="49.0825" lon="1.54619">
        <ele>139.73129272461</ele>
        <time>2016-09-25T08:54:41.000Z</time>
      </trkpt>
      <trkpt lat="49.08241" lon="1.54607">
        <ele>140.31930541992</ele>
        <time>2016-09-25T08:54:44.000Z</time>
      </trkpt>
      <trkpt lat="49.08235" lon="1.54599">
        <ele>140.88627624512</ele>
        <time>2016-09-25T08:54:46.000Z</time>
      </trkpt>
      <trkpt lat="49.08225" lon="1.54581">
        <ele>141.41027832031</ele>
        <time>2016-09-25T08:54:49.000Z</time>
      </trkpt>
      <trkpt lat="49.08218" lon="1.5457">
        <ele>141.81576538086</ele>
        <time>2016-09-25T08:54:52.000Z</time>
      </trkpt>
      <trkpt lat="49.08212" lon="1.54558">
        <ele>142.04838562012</ele>
        <time>2016-09-25T08:54:54.000Z</time>
      </trkpt>
      <trkpt lat="49.08212" lon="1.54542">
        <ele>142.1741027832</ele>
        <time>2016-09-25T08:54:56.000Z</time>
      </trkpt>
      <trkpt lat="49.08199" lon="1.54517">
        <ele>142.26713562012</ele>
        <time>2016-09-25T08:54:59.000Z</time>
      </trkpt>
      <trkpt lat="49.08184" lon="1.54502">
        <ele>142.33090209961</ele>
        <time>2016-09-25T08:55:01.000Z</time>
      </trkpt>
      <trkpt lat="49.08176" lon="1.54488">
        <ele>142.42842102051</ele>
        <time>2016-09-25T08:55:03.000Z</time>
      </trkpt>
      <trkpt lat="49.08162" lon="1.54465">
        <ele>142.52165222168</ele>
        <time>2016-09-25T08:55:06.000Z</time>
      </trkpt>
      <trkpt lat="49.08154" lon="1.54449">
        <ele>142.56159973145</ele>
        <time>2016-09-25T08:55:08.000Z</time>
      </trkpt>
      <trkpt lat="49.08143" lon="1.54417">
        <ele>142.52926635742</ele>
        <time>2016-09-25T08:55:11.000Z</time>
      </trkpt>
      <trkpt lat="49.08131" lon="1.54401">
        <ele>142.30795288086</ele>
        <time>2016-09-25T08:55:13.000Z</time>
      </trkpt>
      <trkpt lat="49.08126" lon="1.54381">
        <ele>141.97689819336</ele>
        <time>2016-09-25T08:55:15.000Z</time>
      </trkpt>
      <trkpt lat="49.08104" lon="1.54363">
        <ele>141.50804138184</ele>
        <time>2016-09-25T08:55:18.000Z</time>
      </trkpt>
      <trkpt lat="49.08084" lon="1.54356">
        <ele>141.03511047363</ele>
        <time>2016-09-25T08:55:20.000Z</time>
      </trkpt>
      <trkpt lat="49.0803" lon="1.54336">
        <ele>140.35177612305</ele>
        <time>2016-09-25T08:55:24.000Z</time>
      </trkpt>
      <trkpt lat="49.08008" lon="1.54337">
        <ele>139.70028686523</ele>
        <time>2016-09-25T08:55:26.000Z</time>
      </trkpt>
      <trkpt lat="49.07985" lon="1.54337">
        <ele>139.01792907715</ele>
        <time>2016-09-25T08:55:29.000Z</time>
      </trkpt>
      <trkpt lat="49.07978" lon="1.54324">
        <ele>138.3358001709</ele>
        <time>2016-09-25T08:55:31.000Z</time>
      </trkpt>
      <trkpt lat="49.07986" lon="1.54314">
        <ele>137.68463134766</ele>
        <time>2016-09-25T08:55:34.000Z</time>
      </trkpt>
      <trkpt lat="49.07988" lon="1.5431">
        <ele>137.25859069824</ele>
        <time>2016-09-25T08:55:37.000Z</time>
      </trkpt>
      <trkpt lat="49.07989" lon="1.5431">
        <ele>136.92910766602</ele>
        <time>2016-09-25T08:55:40.000Z</time>
      </trkpt>
      <trkpt lat="49.07991" lon="1.54305">
        <ele>136.67614746094</ele>
        <time>2016-09-25T08:55:43.000Z</time>
      </trkpt>
      <trkpt lat="49.07996" lon="1.543">
        <ele>136.53015136719</ele>
        <time>2016-09-25T08:55:45.000Z</time>
      </trkpt>
      <trkpt lat="49.08003" lon="1.54288">
        <ele>136.37159729004</ele>
        <time>2016-09-25T08:55:48.000Z</time>
      </trkpt>
      <trkpt lat="49.08009" lon="1.5428">
        <ele>136.21917724609</ele>
        <time>2016-09-25T08:55:50.000Z</time>
      </trkpt>
      <trkpt lat="49.08015" lon="1.54267">
        <ele>136.02816772461</ele>
        <time>2016-09-25T08:55:53.000Z</time>
      </trkpt>
      <trkpt lat="49.08022" lon="1.54257">
        <ele>135.86320495605</ele>
        <time>2016-09-25T08:55:56.000Z</time>
      </trkpt>
      <trkpt lat="49.08027" lon="1.54254">
        <ele>135.7652130127</ele>
        <time>2016-09-25T08:55:58.000Z</time>
      </trkpt>
      <trkpt lat="49.08036" lon="1.54244">
        <ele>135.76197814941</ele>
        <time>2016-09-25T08:56:01.000Z</time>
      </trkpt>
      <trkpt lat="49.08044" lon="1.5423">
        <ele>135.80726623535</ele>
        <time>2016-09-25T08:56:04.000Z</time>
      </trkpt>
      <trkpt lat="49.08053" lon="1.54219">
        <ele>135.92630004883</ele>
        <time>2016-09-25T08:56:06.000Z</time>
      </trkpt>
      <trkpt lat="49.08063" lon="1.54205">
        <ele>136.06259155273</ele>
        <time>2016-09-25T08:56:09.000Z</time>
      </trkpt>
      <trkpt lat="49.0807" lon="1.542">
        <ele>136.20491027832</ele>
        <time>2016-09-25T08:56:11.000Z</time>
      </trkpt>
      <trkpt lat="49.08082" lon="1.54184">
        <ele>136.32388305664</ele>
        <time>2016-09-25T08:56:14.000Z</time>
      </trkpt>
      <trkpt lat="49.08094" lon="1.54171">
        <ele>136.44067382812</ele>
        <time>2016-09-25T08:56:17.000Z</time>
      </trkpt>
      <trkpt lat="49.08103" lon="1.54157">
        <ele>136.48930358887</ele>
        <time>2016-09-25T08:56:20.000Z</time>
      </trkpt>
      <trkpt lat="49.08109" lon="1.54151">
        <ele>136.53704833984</ele>
        <time>2016-09-25T08:56:22.000Z</time>
      </trkpt>
      <trkpt lat="49.0812" lon="1.54138">
        <ele>136.54258728027</ele>
        <time>2016-09-25T08:56:25.000Z</time>
      </trkpt>
      <trkpt lat="49.08125" lon="1.54131">
        <ele>136.53617858887</ele>
        <time>2016-09-25T08:56:27.000Z</time>
      </trkpt>
      <trkpt lat="49.08139" lon="1.54112">
        <ele>136.51065063477</ele>
        <time>2016-09-25T08:56:30.000Z</time>
      </trkpt>
      <trkpt lat="49.08146" lon="1.54104">
        <ele>136.52783203125</ele>
        <time>2016-09-25T08:56:32.000Z</time>
      </trkpt>
      <trkpt lat="49.08157" lon="1.54091">
        <ele>136.56056213379</ele>
        <time>2016-09-25T08:56:35.000Z</time>
      </trkpt>
      <trkpt lat="49.08164" lon="1.54082">
        <ele>136.60713195801</ele>
        <time>2016-09-25T08:56:37.000Z</time>
      </trkpt>
      <trkpt lat="49.08174" lon="1.54069">
        <ele>136.55653381348</ele>
        <time>2016-09-25T08:56:40.000Z</time>
      </trkpt>
      <trkpt lat="49.0818" lon="1.54061">
        <ele>136.44064331055</ele>
        <time>2016-09-25T08:56:42.000Z</time>
      </trkpt>
      <trkpt lat="49.08186" lon="1.54053">
        <ele>136.25555419922</ele>
        <time>2016-09-25T08:56:44.000Z</time>
      </trkpt>
      <trkpt lat="49.08191" lon="1.54047">
        <ele>136.00112915039</ele>
        <time>2016-09-25T08:56:46.000Z</time>
      </trkpt>
      <trkpt lat="49.08199" lon="1.5404">
        <ele>135.70100402832</ele>
        <time>2016-09-25T08:56:49.000Z</time>
      </trkpt>
      <trkpt lat="49.08208" lon="1.54033">
        <ele>135.48098754883</ele>
        <time>2016-09-25T08:56:52.000Z</time>
      </trkpt>
      <trkpt lat="49.08215" lon="1.54026">
        <ele>135.30166625977</ele>
        <time>2016-09-25T08:56:54.000Z</time>
      </trkpt>
      <trkpt lat="49.08224" lon="1.54025">
        <ele>135.24067687988</ele>
        <time>2016-09-25T08:56:56.000Z</time>
      </trkpt>
      <trkpt lat="49.08238" lon="1.54025">
        <ele>135.34825134277</ele>
        <time>2016-09-25T08:56:59.000Z</time>
      </trkpt>
      <trkpt lat="49.08252" lon="1.54022">
        <ele>135.56796264648</ele>
        <time>2016-09-25T08:57:02.000Z</time>
      </trkpt>
      <trkpt lat="49.08264" lon="1.54018">
        <ele>135.8228302002</ele>
        <time>2016-09-25T08:57:05.000Z</time>
      </trkpt>
      <trkpt lat="49.08272" lon="1.54015">
        <ele>136.11018371582</ele>
        <time>2016-09-25T08:57:07.000Z</time>
      </trkpt>
      <trkpt lat="49.08285" lon="1.54014">
        <ele>136.38928222656</ele>
        <time>2016-09-25T08:57:10.000Z</time>
      </trkpt>
      <trkpt lat="49.08293" lon="1.54012">
        <ele>136.56713867188</ele>
        <time>2016-09-25T08:57:12.000Z</time>
      </trkpt>
      <trkpt lat="49.083" lon="1.54011">
        <ele>136.67959594727</ele>
        <time>2016-09-25T08:57:14.000Z</time>
      </trkpt>
      <trkpt lat="49.08315" lon="1.54007">
        <ele>136.8031463623</ele>
        <time>2016-09-25T08:57:17.000Z</time>
      </trkpt>
      <trkpt lat="49.08326" lon="1.54005">
        <ele>136.94694519043</ele>
        <time>2016-09-25T08:57:20.000Z</time>
      </trkpt>
      <trkpt lat="49.08337" lon="1.54003">
        <ele>137.07006835938</ele>
        <time>2016-09-25T08:57:22.000Z</time>
      </trkpt>
      <trkpt lat="49.08351" lon="1.53999">
        <ele>137.21438598633</ele>
        <time>2016-09-25T08:57:25.000Z</time>
      </trkpt>
      <trkpt lat="49.08359" lon="1.53997">
        <ele>137.35508728027</ele>
        <time>2016-09-25T08:57:27.000Z</time>
      </trkpt>
      <trkpt lat="49.0837" lon="1.53993">
        <ele>137.47061157227</ele>
        <time>2016-09-25T08:57:30.000Z</time>
      </trkpt>
      <trkpt lat="49.08375" lon="1.53993">
        <ele>137.60118103027</ele>
        <time>2016-09-25T08:57:32.000Z</time>
      </trkpt>
      <trkpt lat="49.08384" lon="1.53993">
        <ele>137.76119995117</ele>
        <time>2016-09-25T08:57:35.000Z</time>
      </trkpt>
      <trkpt lat="49.08394" lon="1.5399">
        <ele>137.88282775879</ele>
        <time>2016-09-25T08:57:38.000Z</time>
      </trkpt>
      <trkpt lat="49.08401" lon="1.53988">
        <ele>138.00372314453</ele>
        <time>2016-09-25T08:57:40.000Z</time>
      </trkpt>
      <trkpt lat="49.08409" lon="1.53982">
        <ele>138.03875732422</ele>
        <time>2016-09-25T08:57:43.000Z</time>
      </trkpt>
      <trkpt lat="49.08413" lon="1.5397">
        <ele>137.79513549805</ele>
        <time>2016-09-25T08:57:45.000Z</time>
      </trkpt>
      <trkpt lat="49.08414" lon="1.53952">
        <ele>137.1117401123</ele>
        <time>2016-09-25T08:57:47.000Z</time>
      </trkpt>
      <trkpt lat="49.08417" lon="1.53937">
        <ele>136.12673950195</ele>
        <time>2016-09-25T08:57:49.000Z</time>
      </trkpt>
      <trkpt lat="49.0842" lon="1.5392">
        <ele>134.75616455078</ele>
        <time>2016-09-25T08:57:52.000Z</time>
      </trkpt>
      <trkpt lat="49.08418" lon="1.53895">
        <ele>133.18577575684</ele>
        <time>2016-09-25T08:57:55.000Z</time>
      </trkpt>
      <trkpt lat="49.08414" lon="1.5388">
        <ele>131.70858764648</ele>
        <time>2016-09-25T08:57:57.000Z</time>
      </trkpt>
      <trkpt lat="49.08407" lon="1.53855">
        <ele>130.3850402832</ele>
        <time>2016-09-25T08:58:00.000Z</time>
      </trkpt>
      <trkpt lat="49.08401" lon="1.53835">
        <ele>129.18807983398</ele>
        <time>2016-09-25T08:58:02.000Z</time>
      </trkpt>
      <trkpt lat="49.08389" lon="1.53798">
        <ele>128.01791381836</ele>
        <time>2016-09-25T08:58:05.000Z</time>
      </trkpt>
      <trkpt lat="49.08382" lon="1.53776">
        <ele>126.9044342041</ele>
        <time>2016-09-25T08:58:07.000Z</time>
      </trkpt>
      <trkpt lat="49.08362" lon="1.53743">
        <ele>125.65631103516</ele>
        <time>2016-09-25T08:58:10.000Z</time>
      </trkpt>
      <trkpt lat="49.08343" lon="1.53716">
        <ele>124.58355712891</ele>
        <time>2016-09-25T08:58:13.000Z</time>
      </trkpt>
      <trkpt lat="49.08337" lon="1.537">
        <ele>123.62552642822</ele>
        <time>2016-09-25T08:58:15.000Z</time>
      </trkpt>
      <trkpt lat="49.08335" lon="1.53688">
        <ele>122.9815826416</ele>
        <time>2016-09-25T08:58:17.000Z</time>
      </trkpt>
      <trkpt lat="49.08333" lon="1.53681">
        <ele>122.5433807373</ele>
        <time>2016-09-25T08:58:19.000Z</time>
      </trkpt>
      <trkpt lat="49.08328" lon="1.53671">
        <ele>122.42834472656</ele>
        <time>2016-09-25T08:58:22.000Z</time>
      </trkpt>
      <trkpt lat="49.08326" lon="1.53659">
        <ele>122.32277679443</ele>
        <time>2016-09-25T08:58:24.000Z</time>
      </trkpt>
      <trkpt lat="49.08321" lon="1.53648">
        <ele>122.24322509766</ele>
        <time>2016-09-25T08:58:26.000Z</time>
      </trkpt>
      <trkpt lat="49.08315" lon="1.5364">
        <ele>122.20859527588</ele>
        <time>2016-09-25T08:58:29.000Z</time>
      </trkpt>
      <trkpt lat="49.08313" lon="1.53636">
        <ele>122.19079589844</ele>
        <time>2016-09-25T08:58:31.000Z</time>
      </trkpt>
      <trkpt lat="49.08311" lon="1.53632">
        <ele>122.11006164551</ele>
        <time>2016-09-25T08:58:33.000Z</time>
      </trkpt>
      <trkpt lat="49.08306" lon="1.53625">
        <ele>122.06593322754</ele>
        <time>2016-09-25T08:58:36.000Z</time>
      </trkpt>
      <trkpt lat="49.08304" lon="1.53619">
        <ele>122.00539398193</ele>
        <time>2016-09-25T08:58:38.000Z</time>
      </trkpt>
      <trkpt lat="49.08303" lon="1.53609">
        <ele>121.84545898438</ele>
        <time>2016-09-25T08:58:40.000Z</time>
      </trkpt>
      <trkpt lat="49.08303" lon="1.53601">
        <ele>121.62148284912</ele>
        <time>2016-09-25T08:58:42.000Z</time>
      </trkpt>
      <trkpt lat="49.08306" lon="1.53599">
        <ele>121.36324310303</ele>
        <time>2016-09-25T08:58:45.000Z</time>
      </trkpt>
      <trkpt lat="49.08307" lon="1.53597">
        <ele>121.08518981934</ele>
        <time>2016-09-25T08:58:47.000Z</time>
      </trkpt>
      <trkpt lat="49.08309" lon="1.53594">
        <ele>120.80285644531</ele>
        <time>2016-09-25T08:58:50.000Z</time>
      </trkpt>
      <trkpt lat="49.08309" lon="1.53592">
        <ele>120.59030914307</ele>
        <time>2016-09-25T08:58:53.000Z</time>
      </trkpt>
      <trkpt lat="49.08308" lon="1.5359">
        <ele>120.43450927734</ele>
        <time>2016-09-25T08:58:55.000Z</time>
      </trkpt>
      <trkpt lat="49.08308" lon="1.53589">
        <ele>120.32810211182</ele>
        <time>2016-09-25T08:58:58.000Z</time>
      </trkpt>
      <trkpt lat="49.08308" lon="1.53588">
        <ele>120.23109436035</ele>
        <time>2016-09-25T08:59:00.000Z</time>
      </trkpt>
      <trkpt lat="49.08309" lon="1.53581">
        <ele>120.102394104</ele>
        <time>2016-09-25T08:59:03.000Z</time>
      </trkpt>
      <trkpt lat="49.08309" lon="1.53568">
        <ele>119.78483581543</ele>
        <time>2016-09-25T08:59:06.000Z</time>
      </trkpt>
      <trkpt lat="49.08307" lon="1.5354">
        <ele>119.05131530762</ele>
        <time>2016-09-25T08:59:09.000Z</time>
      </trkpt>
      <trkpt lat="49.08306" lon="1.53522">
        <ele>118.0290145874</ele>
        <time>2016-09-25T08:59:11.000Z</time>
      </trkpt>
      <trkpt lat="49.08298" lon="1.53507">
        <ele>116.75776672363</ele>
        <time>2016-09-25T08:59:13.000Z</time>
      </trkpt>
      <trkpt lat="49.08289" lon="1.53477">
        <ele>115.02989196777</ele>
        <time>2016-09-25T08:59:16.000Z</time>
      </trkpt>
      <trkpt lat="49.08285" lon="1.53459">
        <ele>113.12968444824</ele>
        <time>2016-09-25T08:59:18.000Z</time>
      </trkpt>
      <trkpt lat="49.08282" lon="1.5343">
        <ele>111.0537109375</ele>
        <time>2016-09-25T08:59:21.000Z</time>
      </trkpt>
      <trkpt lat="49.08274" lon="1.53402">
        <ele>108.75907897949</ele>
        <time>2016-09-25T08:59:24.000Z</time>
      </trkpt>
      <trkpt lat="49.08266" lon="1.53386">
        <ele>106.46657562256</ele>
        <time>2016-09-25T08:59:26.000Z</time>
      </trkpt>
      <trkpt lat="49.08257" lon="1.53369">
        <ele>104.27602386475</ele>
        <time>2016-09-25T08:59:28.000Z</time>
      </trkpt>
      <trkpt lat="49.08235" lon="1.53352">
        <ele>101.68905639648</ele>
        <time>2016-09-25T08:59:31.000Z</time>
      </trkpt>
      <trkpt lat="49.08218" lon="1.53344">
        <ele>99.073257446289</ele>
        <time>2016-09-25T08:59:33.000Z</time>
      </trkpt>
      <trkpt lat="49.0819" lon="1.53336">
        <ele>95.832824707031</ele>
        <time>2016-09-25T08:59:36.000Z</time>
      </trkpt>
      <trkpt lat="49.0816" lon="1.53325">
        <ele>91.986434936523</ele>
        <time>2016-09-25T08:59:39.000Z</time>
      </trkpt>
      <trkpt lat="49.08145" lon="1.53317">
        <ele>88.422256469727</ele>
        <time>2016-09-25T08:59:41.000Z</time>
      </trkpt>
      <trkpt lat="49.0813" lon="1.5331">
        <ele>85.440116882324</ele>
        <time>2016-09-25T08:59:43.000Z</time>
      </trkpt>
      <trkpt lat="49.08108" lon="1.53302">
        <ele>82.718383789062</ele>
        <time>2016-09-25T08:59:46.000Z</time>
      </trkpt>
      <trkpt lat="49.08095" lon="1.53298">
        <ele>80.881271362305</ele>
        <time>2016-09-25T08:59:48.000Z</time>
      </trkpt>
      <trkpt lat="49.0808" lon="1.53293">
        <ele>79.661361694336</ele>
        <time>2016-09-25T08:59:50.000Z</time>
      </trkpt>
      <trkpt lat="49.08067" lon="1.5328">
        <ele>78.509292602539</ele>
        <time>2016-09-25T08:59:53.000Z</time>
      </trkpt>
      <trkpt lat="49.08065" lon="1.53269">
        <ele>77.478187561035</ele>
        <time>2016-09-25T08:59:55.000Z</time>
      </trkpt>
      <trkpt lat="49.08061" lon="1.53255">
        <ele>76.698226928711</ele>
        <time>2016-09-25T08:59:58.000Z</time>
      </trkpt>
      <trkpt lat="49.08052" lon="1.53247">
        <ele>76.05069732666</ele>
        <time>2016-09-25T09:00:01.000Z</time>
      </trkpt>
      <trkpt lat="49.08049" lon="1.53234">
        <ele>75.780799865723</ele>
        <time>2016-09-25T09:00:04.000Z</time>
      </trkpt>
      <trkpt lat="49.08045" lon="1.53226">
        <ele>75.609397888184</ele>
        <time>2016-09-25T09:00:06.000Z</time>
      </trkpt>
      <trkpt lat="49.08043" lon="1.53218">
        <ele>75.541000366211</ele>
        <time>2016-09-25T09:00:08.000Z</time>
      </trkpt>
      <trkpt lat="49.0804" lon="1.53209">
        <ele>75.616989135742</ele>
        <time>2016-09-25T09:00:10.000Z</time>
      </trkpt>
      <trkpt lat="49.08035" lon="1.53196">
        <ele>75.763259887695</ele>
        <time>2016-09-25T09:00:13.000Z</time>
      </trkpt>
      <trkpt lat="49.08031" lon="1.53186">
        <ele>75.707153320312</ele>
        <time>2016-09-25T09:00:15.000Z</time>
      </trkpt>
      <trkpt lat="49.08027" lon="1.53176">
        <ele>75.531723022461</ele>
        <time>2016-09-25T09:00:17.000Z</time>
      </trkpt>
      <trkpt lat="49.08021" lon="1.53159">
        <ele>75.268814086914</ele>
        <time>2016-09-25T09:00:20.000Z</time>
      </trkpt>
      <trkpt lat="49.08017" lon="1.53143">
        <ele>75.06925201416</ele>
        <time>2016-09-25T09:00:22.000Z</time>
      </trkpt>
      <trkpt lat="49.08012" lon="1.53126">
        <ele>74.992515563965</ele>
        <time>2016-09-25T09:00:24.000Z</time>
      </trkpt>
      <trkpt lat="49.08007" lon="1.5311">
        <ele>75.009147644043</ele>
        <time>2016-09-25T09:00:26.000Z</time>
      </trkpt>
      <trkpt lat="49.08001" lon="1.53091">
        <ele>75.191078186035</ele>
        <time>2016-09-25T09:00:28.000Z</time>
      </trkpt>
      <trkpt lat="49.07992" lon="1.53062">
        <ele>75.399963378906</ele>
        <time>2016-09-25T09:00:31.000Z</time>
      </trkpt>
      <trkpt lat="49.07982" lon="1.53041">
        <ele>75.259201049805</ele>
        <time>2016-09-25T09:00:34.000Z</time>
      </trkpt>
      <trkpt lat="49.07975" lon="1.53021">
        <ele>74.855041503906</ele>
        <time>2016-09-25T09:00:37.000Z</time>
      </trkpt>
      <trkpt lat="49.07971" lon="1.5301">
        <ele>74.33935546875</ele>
        <time>2016-09-25T09:00:39.000Z</time>
      </trkpt>
      <trkpt lat="49.07965" lon="1.52992">
        <ele>73.656478881836</ele>
        <time>2016-09-25T09:00:42.000Z</time>
      </trkpt>
      <trkpt lat="49.07962" lon="1.52983">
        <ele>72.96898651123</ele>
        <time>2016-09-25T09:00:45.000Z</time>
      </trkpt>
      <trkpt lat="49.07958" lon="1.52976">
        <ele>72.411643981934</ele>
        <time>2016-09-25T09:00:47.000Z</time>
      </trkpt>
      <trkpt lat="49.07959" lon="1.52979">
        <ele>72.063980102539</ele>
        <time>2016-09-25T09:00:50.000Z</time>
      </trkpt>
      <trkpt lat="49.07959" lon="1.52982">
        <ele>71.784942626953</ele>
        <time>2016-09-25T09:00:52.000Z</time>
      </trkpt>
      <trkpt lat="49.07961" lon="1.52992">
        <ele>71.506881713867</ele>
        <time>2016-09-25T09:00:55.000Z</time>
      </trkpt>
      <trkpt lat="49.07964" lon="1.53">
        <ele>71.313194274902</ele>
        <time>2016-09-25T09:00:58.000Z</time>
      </trkpt>
      <trkpt lat="49.07966" lon="1.53002">
        <ele>71.381896972656</ele>
        <time>2016-09-25T09:01:00.000Z</time>
      </trkpt>
      <trkpt lat="49.07972" lon="1.53003">
        <ele>71.778915405273</ele>
        <time>2016-09-25T09:01:03.000Z</time>
      </trkpt>
      <trkpt lat="49.07977" lon="1.53003">
        <ele>72.496376037598</ele>
        <time>2016-09-25T09:01:05.000Z</time>
      </trkpt>
      <trkpt lat="49.07982" lon="1.53003">
        <ele>73.610466003418</ele>
        <time>2016-09-25T09:01:08.000Z</time>
      </trkpt>
      <trkpt lat="49.07985" lon="1.53004">
        <ele>74.852462768555</ele>
        <time>2016-09-25T09:01:11.000Z</time>
      </trkpt>
      <trkpt lat="49.07988" lon="1.53007">
        <ele>76.10066986084</ele>
        <time>2016-09-25T09:01:14.000Z</time>
      </trkpt>
      <trkpt lat="49.0799" lon="1.53008">
        <ele>77.096099853516</ele>
        <time>2016-09-25T09:01:16.000Z</time>
      </trkpt>
      <trkpt lat="49.07994" lon="1.5301">
        <ele>77.996360778809</ele>
        <time>2016-09-25T09:01:19.000Z</time>
      </trkpt>
      <trkpt lat="49.07995" lon="1.53009">
        <ele>78.68399810791</ele>
        <time>2016-09-25T09:01:30.000Z</time>
      </trkpt>
      <trkpt lat="49.07998" lon="1.53009">
        <ele>79.343307495117</ele>
        <time>2016-09-25T09:01:32.000Z</time>
      </trkpt>
      <trkpt lat="49.07999" lon="1.53009">
        <ele>79.963340759277</ele>
        <time>2016-09-25T09:01:34.000Z</time>
      </trkpt>
      <trkpt lat="49.08002" lon="1.5301">
        <ele>80.660499572754</ele>
        <time>2016-09-25T09:01:37.000Z</time>
      </trkpt>
      <trkpt lat="49.08004" lon="1.53011">
        <ele>81.220962524414</ele>
        <time>2016-09-25T09:01:39.000Z</time>
      </trkpt>
      <trkpt lat="49.08005" lon="1.53012">
        <ele>81.727882385254</ele>
        <time>2016-09-25T09:01:42.000Z</time>
      </trkpt>
      <trkpt lat="49.08007" lon="1.5301">
        <ele>82.26188659668</ele>
        <time>2016-09-25T09:02:00.000Z</time>
      </trkpt>
      <trkpt lat="49.08009" lon="1.53011">
        <ele>82.823310852051</ele>
        <time>2016-09-25T09:02:03.000Z</time>
      </trkpt>
      <trkpt lat="49.08009" lon="1.53013">
        <ele>83.187110900879</ele>
        <time>2016-09-25T09:02:06.000Z</time>
      </trkpt>
      <trkpt lat="49.0801" lon="1.53015">
        <ele>83.51146697998</ele>
        <time>2016-09-25T09:02:08.000Z</time>
      </trkpt>
      <trkpt lat="49.08012" lon="1.53015">
        <ele>83.917602539062</ele>
        <time>2016-09-25T09:02:11.000Z</time>
      </trkpt>
      <trkpt lat="49.08014" lon="1.53016">
        <ele>84.264305114746</ele>
        <time>2016-09-25T09:02:13.000Z</time>
      </trkpt>
      <trkpt lat="49.08017" lon="1.53016">
        <ele>84.617286682129</ele>
        <time>2016-09-25T09:02:16.000Z</time>
      </trkpt>
      <trkpt lat="49.08019" lon="1.53017">
        <ele>85.096206665039</ele>
        <time>2016-09-25T09:02:18.000Z</time>
      </trkpt>
      <trkpt lat="49.08019" lon="1.53017">
        <ele>85.096206665039</ele>
        <time>2016-09-25T09:02:38.000Z</time>
      </trkpt>
      <trkpt lat="49.08023" lon="1.53015">
        <ele>85.848045349121</ele>
        <time>2016-09-25T09:02:39.000Z</time>
      </trkpt>
      <trkpt lat="49.08024" lon="1.53016">
        <ele>86.525619506836</ele>
        <time>2016-09-25T09:02:41.000Z</time>
      </trkpt>
      <trkpt lat="49.08026" lon="1.53017">
        <ele>87.170066833496</ele>
        <time>2016-09-25T09:02:43.000Z</time>
      </trkpt>
      <trkpt lat="49.08028" lon="1.53018">
        <ele>87.819900512695</ele>
        <time>2016-09-25T09:02:46.000Z</time>
      </trkpt>
      <trkpt lat="49.0803" lon="1.53017">
        <ele>88.438278198242</ele>
        <time>2016-09-25T09:02:48.000Z</time>
      </trkpt>
      <trkpt lat="49.08031" lon="1.53018">
        <ele>88.868270874023</ele>
        <time>2016-09-25T09:02:51.000Z</time>
      </trkpt>
      <trkpt lat="49.08033" lon="1.53019">
        <ele>89.339416503906</ele>
        <time>2016-09-25T09:02:53.000Z</time>
      </trkpt>
      <trkpt lat="49.08035" lon="1.5302">
        <ele>89.814605712891</ele>
        <time>2016-09-25T09:02:55.000Z</time>
      </trkpt>
      <trkpt lat="49.08036" lon="1.5302">
        <ele>90.238609313965</ele>
        <time>2016-09-25T09:02:58.000Z</time>
      </trkpt>
      <trkpt lat="49.08037" lon="1.53021">
        <ele>90.624313354492</ele>
        <time>2016-09-25T09:03:00.000Z</time>
      </trkpt>
      <trkpt lat="49.08038" lon="1.53022">
        <ele>90.95866394043</ele>
        <time>2016-09-25T09:03:03.000Z</time>
      </trkpt>
      <trkpt lat="49.08039" lon="1.53023">
        <ele>91.267211914062</ele>
        <time>2016-09-25T09:03:05.000Z</time>
      </trkpt>
      <trkpt lat="49.08041" lon="1.53024">
        <ele>91.569900512695</ele>
        <time>2016-09-25T09:03:08.000Z</time>
      </trkpt>
      <trkpt lat="49.08042" lon="1.53025">
        <ele>91.817939758301</ele>
        <time>2016-09-25T09:03:10.000Z</time>
      </trkpt>
      <trkpt lat="49.08042" lon="1.53025">
        <ele>91.817939758301</ele>
        <time>2016-09-25T09:03:30.000Z</time>
      </trkpt>
      <trkpt lat="49.08044" lon="1.53024">
        <ele>92.170974731445</ele>
        <time>2016-09-25T09:03:38.000Z</time>
      </trkpt>
      <trkpt lat="49.08046" lon="1.53025">
        <ele>92.565124511719</ele>
        <time>2016-09-25T09:03:41.000Z</time>
      </trkpt>
      <trkpt lat="49.08047" lon="1.53026">
        <ele>92.995712280273</ele>
        <time>2016-09-25T09:03:43.000Z</time>
      </trkpt>
      <trkpt lat="49.08049" lon="1.53026">
        <ele>93.402908325195</ele>
        <time>2016-09-25T09:03:45.000Z</time>
      </trkpt>
      <trkpt lat="49.08051" lon="1.53027">
        <ele>93.904830932617</ele>
        <time>2016-09-25T09:03:47.000Z</time>
      </trkpt>
      <trkpt lat="49.08054" lon="1.53028">
        <ele>94.388687133789</ele>
        <time>2016-09-25T09:03:50.000Z</time>
      </trkpt>
      <trkpt lat="49.08057" lon="1.5303">
        <ele>94.904556274414</ele>
        <time>2016-09-25T09:03:53.000Z</time>
      </trkpt>
      <trkpt lat="49.08059" lon="1.53032">
        <ele>95.438888549805</ele>
        <time>2016-09-25T09:03:56.000Z</time>
      </trkpt>
      <trkpt lat="49.0806" lon="1.53034">
        <ele>95.927154541016</ele>
        <time>2016-09-25T09:03:58.000Z</time>
      </trkpt>
      <trkpt lat="49.08062" lon="1.53035">
        <ele>96.35791015625</ele>
        <time>2016-09-25T09:04:00.000Z</time>
      </trkpt>
      <trkpt lat="49.08064" lon="1.53036">
        <ele>96.791137695312</ele>
        <time>2016-09-25T09:04:03.000Z</time>
      </trkpt>
      <trkpt lat="49.08066" lon="1.53036">
        <ele>97.179176330566</ele>
        <time>2016-09-25T09:04:05.000Z</time>
      </trkpt>
      <trkpt lat="49.08069" lon="1.53037">
        <ele>97.668853759766</ele>
        <time>2016-09-25T09:04:08.000Z</time>
      </trkpt>
      <trkpt lat="49.08069" lon="1.53037">
        <ele>97.668853759766</ele>
        <time>2016-09-25T09:04:28.000Z</time>
      </trkpt>
      <trkpt lat="49.08072" lon="1.53035">
        <ele>98.328475952148</ele>
        <time>2016-09-25T09:04:43.000Z</time>
      </trkpt>
      <trkpt lat="49.08074" lon="1.53036">
        <ele>99.014358520508</ele>
        <time>2016-09-25T09:04:46.000Z</time>
      </trkpt>
      <trkpt lat="49.08075" lon="1.53037">
        <ele>99.620872497559</ele>
        <time>2016-09-25T09:04:48.000Z</time>
      </trkpt>
      <trkpt lat="49.08077" lon="1.53039">
        <ele>100.2357635498</ele>
        <time>2016-09-25T09:04:51.000Z</time>
      </trkpt>
      <trkpt lat="49.0808" lon="1.53042">
        <ele>100.71985626221</ele>
        <time>2016-09-25T09:04:54.000Z</time>
      </trkpt>
      <trkpt lat="49.08081" lon="1.53042">
        <ele>101.10929870605</ele>
        <time>2016-09-25T09:04:56.000Z</time>
      </trkpt>
      <trkpt lat="49.08083" lon="1.53043">
        <ele>101.49967193604</ele>
        <time>2016-09-25T09:04:59.000Z</time>
      </trkpt>
      <trkpt lat="49.08084" lon="1.53044">
        <ele>101.86799621582</ele>
        <time>2016-09-25T09:05:01.000Z</time>
      </trkpt>
      <trkpt lat="49.08087" lon="1.53044">
        <ele>102.2560043335</ele>
        <time>2016-09-25T09:05:04.000Z</time>
      </trkpt>
      <trkpt lat="49.0809" lon="1.53044">
        <ele>102.68322753906</ele>
        <time>2016-09-25T09:05:07.000Z</time>
      </trkpt>
      <trkpt lat="49.08092" lon="1.53045">
        <ele>103.09366607666</ele>
        <time>2016-09-25T09:05:10.000Z</time>
      </trkpt>
      <trkpt lat="49.08093" lon="1.53046">
        <ele>103.4549407959</ele>
        <time>2016-09-25T09:05:12.000Z</time>
      </trkpt>
      <trkpt lat="49.08095" lon="1.53046">
        <ele>103.85134124756</ele>
        <time>2016-09-25T09:05:14.000Z</time>
      </trkpt>
      <trkpt lat="49.08095" lon="1.53046">
        <ele>103.85134124756</ele>
        <time>2016-09-25T09:05:34.000Z</time>
      </trkpt>
      <trkpt lat="49.08096" lon="1.53047">
        <ele>104.16146087646</ele>
        <time>2016-09-25T09:05:57.000Z</time>
      </trkpt>
      <trkpt lat="49.08097" lon="1.5305">
        <ele>104.34873199463</ele>
        <time>2016-09-25T09:06:00.000Z</time>
      </trkpt>
      <trkpt lat="49.08099" lon="1.53051">
        <ele>104.50063323975</ele>
        <time>2016-09-25T09:06:03.000Z</time>
      </trkpt>
      <trkpt lat="49.08101" lon="1.53053">
        <ele>104.67057037354</ele>
        <time>2016-09-25T09:06:06.000Z</time>
      </trkpt>
      <trkpt lat="49.08101" lon="1.53053">
        <ele>104.80637359619</ele>
        <time>2016-09-25T09:06:08.000Z</time>
      </trkpt>
      <trkpt lat="49.08103" lon="1.53054">
        <ele>104.9702911377</ele>
        <time>2016-09-25T09:06:11.000Z</time>
      </trkpt>
      <trkpt lat="49.08104" lon="1.53055">
        <ele>105.16571044922</ele>
        <time>2016-09-25T09:06:13.000Z</time>
      </trkpt>
      <trkpt lat="49.08105" lon="1.53056">
        <ele>105.37916564941</ele>
        <time>2016-09-25T09:06:16.000Z</time>
      </trkpt>
      <trkpt lat="49.08106" lon="1.53058">
        <ele>105.51600646973</ele>
        <time>2016-09-25T09:06:19.000Z</time>
      </trkpt>
      <trkpt lat="49.08107" lon="1.53059">
        <ele>105.6403427124</ele>
        <time>2016-09-25T09:06:21.000Z</time>
      </trkpt>
      <trkpt lat="49.0811" lon="1.53057">
        <ele>105.85479736328</ele>
        <time>2016-09-25T09:06:24.000Z</time>
      </trkpt>
      <trkpt lat="49.0811" lon="1.53057">
        <ele>106.08921813965</ele>
        <time>2016-09-25T09:06:26.000Z</time>
      </trkpt>
      <trkpt lat="49.08112" lon="1.53057">
        <ele>106.32196044922</ele>
        <time>2016-09-25T09:06:28.000Z</time>
      </trkpt>
      <trkpt lat="49.08115" lon="1.53057">
        <ele>106.70121765137</ele>
        <time>2016-09-25T09:06:31.000Z</time>
      </trkpt>
      <trkpt lat="49.08117" lon="1.53056">
        <ele>107.18139648438</ele>
        <time>2016-09-25T09:06:34.000Z</time>
      </trkpt>
      <trkpt lat="49.08118" lon="1.53057">
        <ele>107.56701660156</ele>
        <time>2016-09-25T09:06:36.000Z</time>
      </trkpt>
      <trkpt lat="49.0812" lon="1.53056">
        <ele>107.99269104004</ele>
        <time>2016-09-25T09:06:52.000Z</time>
      </trkpt>
      <trkpt lat="49.08121" lon="1.53057">
        <ele>108.40950012207</ele>
        <time>2016-09-25T09:07:10.000Z</time>
      </trkpt>
      <trkpt lat="49.08123" lon="1.53056">
        <ele>108.79121398926</ele>
        <time>2016-09-25T09:07:12.000Z</time>
      </trkpt>
      <trkpt lat="49.08125" lon="1.53055">
        <ele>109.18674468994</ele>
        <time>2016-09-25T09:07:15.000Z</time>
      </trkpt>
      <trkpt lat="49.08127" lon="1.53055">
        <ele>109.59135437012</ele>
        <time>2016-09-25T09:07:17.000Z</time>
      </trkpt>
      <trkpt lat="49.08128" lon="1.53056">
        <ele>109.95942687988</ele>
        <time>2016-09-25T09:07:20.000Z</time>
      </trkpt>
      <trkpt lat="49.0813" lon="1.53057">
        <ele>110.31699371338</ele>
        <time>2016-09-25T09:07:23.000Z</time>
      </trkpt>
      <trkpt lat="49.0813" lon="1.53059">
        <ele>110.56600189209</ele>
        <time>2016-09-25T09:07:26.000Z</time>
      </trkpt>
      <trkpt lat="49.08132" lon="1.53058">
        <ele>110.79355621338</ele>
        <time>2016-09-25T09:07:29.000Z</time>
      </trkpt>
      <trkpt lat="49.08135" lon="1.53058">
        <ele>111.10713195801</ele>
        <time>2016-09-25T09:07:32.000Z</time>
      </trkpt>
      <trkpt lat="49.08138" lon="1.53058">
        <ele>111.49119567871</ele>
        <time>2016-09-25T09:07:34.000Z</time>
      </trkpt>
      <trkpt lat="49.08142" lon="1.53059">
        <ele>112.00730133057</ele>
        <time>2016-09-25T09:07:37.000Z</time>
      </trkpt>
      <trkpt lat="49.08144" lon="1.5306">
        <ele>112.60786437988</ele>
        <time>2016-09-25T09:07:39.000Z</time>
      </trkpt>
      <trkpt lat="49.08144" lon="1.5306">
        <ele>112.60786437988</ele>
        <time>2016-09-25T09:07:59.000Z</time>
      </trkpt>
      <trkpt lat="49.08146" lon="1.5306">
        <ele>113.17004394531</ele>
        <time>2016-09-25T09:08:02.000Z</time>
      </trkpt>
      <trkpt lat="49.08147" lon="1.5306">
        <ele>113.646484375</ele>
        <time>2016-09-25T09:08:04.000Z</time>
      </trkpt>
      <trkpt lat="49.08149" lon="1.53059">
        <ele>114.10485839844</ele>
        <time>2016-09-25T09:08:06.000Z</time>
      </trkpt>
      <trkpt lat="49.08151" lon="1.53059">
        <ele>114.49572753906</ele>
        <time>2016-09-25T09:08:08.000Z</time>
      </trkpt>
      <trkpt lat="49.08155" lon="1.53058">
        <ele>115.01940917969</ele>
        <time>2016-09-25T09:08:11.000Z</time>
      </trkpt>
      <trkpt lat="49.08158" lon="1.53057">
        <ele>115.60034179688</ele>
        <time>2016-09-25T09:08:14.000Z</time>
      </trkpt>
      <trkpt lat="49.0816" lon="1.53053">
        <ele>116.26916503906</ele>
        <time>2016-09-25T09:08:16.000Z</time>
      </trkpt>
      <trkpt lat="49.08163" lon="1.53047">
        <ele>117.05619049072</ele>
        <time>2016-09-25T09:08:19.000Z</time>
      </trkpt>
      <trkpt lat="49.08165" lon="1.53043">
        <ele>117.87479400635</ele>
        <time>2016-09-25T09:08:21.000Z</time>
      </trkpt>
      <trkpt lat="49.08168" lon="1.53036">
        <ele>118.69020843506</ele>
        <time>2016-09-25T09:08:24.000Z</time>
      </trkpt>
      <trkpt lat="49.08171" lon="1.53029">
        <ele>119.53299713135</ele>
        <time>2016-09-25T09:08:27.000Z</time>
      </trkpt>
      <trkpt lat="49.08174" lon="1.53023">
        <ele>120.36283874512</ele>
        <time>2016-09-25T09:08:30.000Z</time>
      </trkpt>
      <trkpt lat="49.08176" lon="1.53018">
        <ele>121.06278991699</ele>
        <time>2016-09-25T09:08:32.000Z</time>
      </trkpt>
      <trkpt lat="49.08179" lon="1.53012">
        <ele>121.75270843506</ele>
        <time>2016-09-25T09:08:35.000Z</time>
      </trkpt>
      <trkpt lat="49.08182" lon="1.53008">
        <ele>122.31868743896</ele>
        <time>2016-09-25T09:08:37.000Z</time>
      </trkpt>
      <trkpt lat="49.08185" lon="1.53">
        <ele>122.84597015381</ele>
        <time>2016-09-25T09:08:40.000Z</time>
      </trkpt>
      <trkpt lat="49.08187" lon="1.52995">
        <ele>123.26971435547</ele>
        <time>2016-09-25T09:08:42.000Z</time>
      </trkpt>
      <trkpt lat="49.08189" lon="1.52989">
        <ele>123.62949371338</ele>
        <time>2016-09-25T09:08:44.000Z</time>
      </trkpt>
      <trkpt lat="49.08192" lon="1.5298">
        <ele>123.91013336182</ele>
        <time>2016-09-25T09:08:47.000Z</time>
      </trkpt>
      <trkpt lat="49.08195" lon="1.52972">
        <ele>124.14152526855</ele>
        <time>2016-09-25T09:08:50.000Z</time>
      </trkpt>
      <trkpt lat="49.08197" lon="1.52965">
        <ele>124.28861999512</ele>
        <time>2016-09-25T09:08:52.000Z</time>
      </trkpt>
      <trkpt lat="49.082" lon="1.52955">
        <ele>124.4326171875</ele>
        <time>2016-09-25T09:08:55.000Z</time>
      </trkpt>
      <trkpt lat="49.08203" lon="1.52948">
        <ele>124.57382965088</ele>
        <time>2016-09-25T09:08:57.000Z</time>
      </trkpt>
      <trkpt lat="49.08205" lon="1.52942">
        <ele>124.69702148438</ele>
        <time>2016-09-25T09:08:59.000Z</time>
      </trkpt>
      <trkpt lat="49.08209" lon="1.52933">
        <ele>124.81174468994</ele>
        <time>2016-09-25T09:09:02.000Z</time>
      </trkpt>
      <trkpt lat="49.08212" lon="1.52927">
        <ele>124.91230773926</ele>
        <time>2016-09-25T09:09:04.000Z</time>
      </trkpt>
      <trkpt lat="49.08214" lon="1.52921">
        <ele>124.99772644043</ele>
        <time>2016-09-25T09:09:06.000Z</time>
      </trkpt>
      <trkpt lat="49.08218" lon="1.52911">
        <ele>125.07545471191</ele>
        <time>2016-09-25T09:09:09.000Z</time>
      </trkpt>
      <trkpt lat="49.08221" lon="1.52904">
        <ele>125.13228607178</ele>
        <time>2016-09-25T09:09:11.000Z</time>
      </trkpt>
      <trkpt lat="49.08224" lon="1.52894">
        <ele>125.16646575928</ele>
        <time>2016-09-25T09:09:14.000Z</time>
      </trkpt>
      <trkpt lat="49.08227" lon="1.52887">
        <ele>125.18703460693</ele>
        <time>2016-09-25T09:09:16.000Z</time>
      </trkpt>
      <trkpt lat="49.08231" lon="1.52875">
        <ele>125.18878173828</ele>
        <time>2016-09-25T09:09:19.000Z</time>
      </trkpt>
      <trkpt lat="49.08236" lon="1.52867">
        <ele>125.18271636963</ele>
        <time>2016-09-25T09:09:22.000Z</time>
      </trkpt>
      <trkpt lat="49.08242" lon="1.52868">
        <ele>125.20185852051</ele>
        <time>2016-09-25T09:09:24.000Z</time>
      </trkpt>
      <trkpt lat="49.08252" lon="1.52876">
        <ele>125.26149749756</ele>
        <time>2016-09-25T09:09:27.000Z</time>
      </trkpt>
      <trkpt lat="49.08261" lon="1.52885">
        <ele>125.31382751465</ele>
        <time>2016-09-25T09:09:30.000Z</time>
      </trkpt>
      <trkpt lat="49.08271" lon="1.52893">
        <ele>125.35426330566</ele>
        <time>2016-09-25T09:09:33.000Z</time>
      </trkpt>
      <trkpt lat="49.08281" lon="1.52902">
        <ele>125.362449646</ele>
        <time>2016-09-25T09:09:36.000Z</time>
      </trkpt>
      <trkpt lat="49.08288" lon="1.52907">
        <ele>125.32041931152</ele>
        <time>2016-09-25T09:09:38.000Z</time>
      </trkpt>
      <trkpt lat="49.08298" lon="1.52915">
        <ele>125.19184875488</ele>
        <time>2016-09-25T09:09:41.000Z</time>
      </trkpt>
      <trkpt lat="49.08309" lon="1.52925">
        <ele>125.07889556885</ele>
        <time>2016-09-25T09:09:44.000Z</time>
      </trkpt>
      <trkpt lat="49.08316" lon="1.52931">
        <ele>125.0046005249</ele>
        <time>2016-09-25T09:09:46.000Z</time>
      </trkpt>
      <trkpt lat="49.08324" lon="1.52936">
        <ele>124.98000335693</ele>
        <time>2016-09-25T09:09:48.000Z</time>
      </trkpt>
      <trkpt lat="49.08334" lon="1.52944">
        <ele>125.02486419678</ele>
        <time>2016-09-25T09:09:51.000Z</time>
      </trkpt>
      <trkpt lat="49.08344" lon="1.52951">
        <ele>125.16346740723</ele>
        <time>2016-09-25T09:09:54.000Z</time>
      </trkpt>
      <trkpt lat="49.08355" lon="1.52961">
        <ele>125.35534667969</ele>
        <time>2016-09-25T09:09:57.000Z</time>
      </trkpt>
      <trkpt lat="49.08368" lon="1.52973">
        <ele>125.58734130859</ele>
        <time>2016-09-25T09:10:00.000Z</time>
      </trkpt>
      <trkpt lat="49.08376" lon="1.52982">
        <ele>125.83278656006</ele>
        <time>2016-09-25T09:10:03.000Z</time>
      </trkpt>
      <trkpt lat="49.08384" lon="1.52987">
        <ele>126.04209136963</ele>
        <time>2016-09-25T09:10:05.000Z</time>
      </trkpt>
      <trkpt lat="49.08392" lon="1.52995">
        <ele>126.21946716309</ele>
        <time>2016-09-25T09:10:08.000Z</time>
      </trkpt>
      <trkpt lat="49.08398" lon="1.53">
        <ele>126.33911132812</ele>
        <time>2016-09-25T09:10:10.000Z</time>
      </trkpt>
      <trkpt lat="49.08405" lon="1.53003">
        <ele>126.37940979004</ele>
        <time>2016-09-25T09:10:13.000Z</time>
      </trkpt>
      <trkpt lat="49.0841" lon="1.52999">
        <ele>126.34189605713</ele>
        <time>2016-09-25T09:10:15.000Z</time>
      </trkpt>
      <trkpt lat="49.08411" lon="1.52982">
        <ele>126.20346832275</ele>
        <time>2016-09-25T09:10:18.000Z</time>
      </trkpt>
      <trkpt lat="49.08413" lon="1.52962">
        <ele>125.94325256348</ele>
        <time>2016-09-25T09:10:21.000Z</time>
      </trkpt>
      <trkpt lat="49.08417" lon="1.52944">
        <ele>125.58323669434</ele>
        <time>2016-09-25T09:10:24.000Z</time>
      </trkpt>
      <trkpt lat="49.08421" lon="1.52932">
        <ele>125.19692230225</ele>
        <time>2016-09-25T09:10:26.000Z</time>
      </trkpt>
      <trkpt lat="49.08422" lon="1.52926">
        <ele>124.8296661377</ele>
        <time>2016-09-25T09:10:29.000Z</time>
      </trkpt>
      <trkpt lat="49.08422" lon="1.52926">
        <ele>124.8296661377</ele>
        <time>2016-09-25T09:10:49.000Z</time>
      </trkpt>
      <trkpt lat="49.08423" lon="1.52928">
        <ele>124.56381988525</ele>
        <time>2016-09-25T09:11:20.000Z</time>
      </trkpt>
      <trkpt lat="49.08424" lon="1.52928">
        <ele>124.40791320801</ele>
        <time>2016-09-25T09:11:27.000Z</time>
      </trkpt>
      <trkpt lat="49.08426" lon="1.5293">
        <ele>124.36073303223</ele>
        <time>2016-09-25T09:11:30.000Z</time>
      </trkpt>
      <trkpt lat="49.08427" lon="1.52927">
        <ele>124.3458480835</ele>
        <time>2016-09-25T09:11:33.000Z</time>
      </trkpt>
      <trkpt lat="49.08434" lon="1.52911">
        <ele>124.32829284668</ele>
        <time>2016-09-25T09:11:36.000Z</time>
      </trkpt>
      <trkpt lat="49.08441" lon="1.5289">
        <ele>124.31966400146</ele>
        <time>2016-09-25T09:11:39.000Z</time>
      </trkpt>
      <trkpt lat="49.08448" lon="1.52883">
        <ele>124.32381439209</ele>
        <time>2016-09-25T09:11:42.000Z</time>
      </trkpt>
      <trkpt lat="49.08456" lon="1.52887">
        <ele>124.33644866943</ele>
        <time>2016-09-25T09:11:44.000Z</time>
      </trkpt>
      <trkpt lat="49.08463" lon="1.52888">
        <ele>124.37890625</ele>
        <time>2016-09-25T09:11:46.000Z</time>
      </trkpt>
      <trkpt lat="49.08469" lon="1.52892">
        <ele>124.4638671875</ele>
        <time>2016-09-25T09:11:48.000Z</time>
      </trkpt>
      <trkpt lat="49.08482" lon="1.52895">
        <ele>124.5625</ele>
        <time>2016-09-25T09:11:51.000Z</time>
      </trkpt>
      <trkpt lat="49.08494" lon="1.52897">
        <ele>124.673828125</ele>
        <time>2016-09-25T09:11:54.000Z</time>
      </trkpt>
      <trkpt lat="49.08502" lon="1.52899">
        <ele>124.78190612793</ele>
        <time>2016-09-25T09:11:56.000Z</time>
      </trkpt>
      <trkpt lat="49.08517" lon="1.52902">
        <ele>124.8981552124</ele>
        <time>2016-09-25T09:11:59.000Z</time>
      </trkpt>
      <trkpt lat="49.08531" lon="1.52903">
        <ele>125.02285003662</ele>
        <time>2016-09-25T09:12:02.000Z</time>
      </trkpt>
      <trkpt lat="49.08544" lon="1.52906">
        <ele>125.14609527588</ele>
        <time>2016-09-25T09:12:05.000Z</time>
      </trkpt>
      <trkpt lat="49.08552" lon="1.52908">
        <ele>125.25883483887</ele>
        <time>2016-09-25T09:12:07.000Z</time>
      </trkpt>
      <trkpt lat="49.08565" lon="1.5291">
        <ele>125.38747406006</ele>
        <time>2016-09-25T09:12:10.000Z</time>
      </trkpt>
      <trkpt lat="49.08573" lon="1.52912">
        <ele>125.51452636719</ele>
        <time>2016-09-25T09:12:12.000Z</time>
      </trkpt>
      <trkpt lat="49.08586" lon="1.52914">
        <ele>125.67152404785</ele>
        <time>2016-09-25T09:12:15.000Z</time>
      </trkpt>
      <trkpt lat="49.08594" lon="1.52915">
        <ele>125.8879776001</ele>
        <time>2016-09-25T09:12:17.000Z</time>
      </trkpt>
      <trkpt lat="49.08603" lon="1.52916">
        <ele>126.17336273193</ele>
        <time>2016-09-25T09:12:19.000Z</time>
      </trkpt>
      <trkpt lat="49.08611" lon="1.52918">
        <ele>126.50661468506</ele>
        <time>2016-09-25T09:12:21.000Z</time>
      </trkpt>
      <trkpt lat="49.08624" lon="1.52919">
        <ele>126.94262695312</ele>
        <time>2016-09-25T09:12:24.000Z</time>
      </trkpt>
      <trkpt lat="49.08638" lon="1.52921">
        <ele>127.44604492188</ele>
        <time>2016-09-25T09:12:27.000Z</time>
      </trkpt>
      <trkpt lat="49.08652" lon="1.52923">
        <ele>127.9743270874</ele>
        <time>2016-09-25T09:12:30.000Z</time>
      </trkpt>
      <trkpt lat="49.08666" lon="1.52928">
        <ele>128.50796508789</ele>
        <time>2016-09-25T09:12:33.000Z</time>
      </trkpt>
      <trkpt lat="49.08682" lon="1.5293">
        <ele>128.83638000488</ele>
        <time>2016-09-25T09:12:36.000Z</time>
      </trkpt>
      <trkpt lat="49.08698" lon="1.52933">
        <ele>128.91357421875</ele>
        <time>2016-09-25T09:12:39.000Z</time>
      </trkpt>
      <trkpt lat="49.08715" lon="1.52936">
        <ele>128.74235534668</ele>
        <time>2016-09-25T09:12:42.000Z</time>
      </trkpt>
      <trkpt lat="49.08727" lon="1.52938">
        <ele>128.37178039551</ele>
        <time>2016-09-25T09:12:44.000Z</time>
      </trkpt>
      <trkpt lat="49.08744" lon="1.52942">
        <ele>127.77160644531</ele>
        <time>2016-09-25T09:12:47.000Z</time>
      </trkpt>
      <trkpt lat="49.08757" lon="1.52943">
        <ele>127.197265625</ele>
        <time>2016-09-25T09:12:49.000Z</time>
      </trkpt>
      <trkpt lat="49.08769" lon="1.52945">
        <ele>126.64682769775</ele>
        <time>2016-09-25T09:12:51.000Z</time>
      </trkpt>
      <trkpt lat="49.08787" lon="1.52946">
        <ele>126.08117675781</ele>
        <time>2016-09-25T09:12:54.000Z</time>
      </trkpt>
      <trkpt lat="49.08804" lon="1.52947">
        <ele>125.46697998047</ele>
        <time>2016-09-25T09:12:57.000Z</time>
      </trkpt>
      <trkpt lat="49.08821" lon="1.5295">
        <ele>124.87441253662</ele>
        <time>2016-09-25T09:13:00.000Z</time>
      </trkpt>
      <trkpt lat="49.08833" lon="1.5295">
        <ele>124.30405426025</ele>
        <time>2016-09-25T09:13:02.000Z</time>
      </trkpt>
      <trkpt lat="49.08843" lon="1.52955">
        <ele>123.89756011963</ele>
        <time>2016-09-25T09:13:04.000Z</time>
      </trkpt>
      <trkpt lat="49.08862" lon="1.52959">
        <ele>123.73020172119</ele>
        <time>2016-09-25T09:13:07.000Z</time>
      </trkpt>
      <trkpt lat="49.08871" lon="1.52964">
        <ele>123.76274108887</ele>
        <time>2016-09-25T09:13:09.000Z</time>
      </trkpt>
      <trkpt lat="49.08886" lon="1.52981">
        <ele>124.0534286499</ele>
        <time>2016-09-25T09:13:12.000Z</time>
      </trkpt>
      <trkpt lat="49.08905" lon="1.52995">
        <ele>124.55045318604</ele>
        <time>2016-09-25T09:13:15.000Z</time>
      </trkpt>
      <trkpt lat="49.08918" lon="1.53">
        <ele>125.04521179199</ele>
        <time>2016-09-25T09:13:17.000Z</time>
      </trkpt>
      <trkpt lat="49.08932" lon="1.53009">
        <ele>125.55662536621</ele>
        <time>2016-09-25T09:13:20.000Z</time>
      </trkpt>
      <trkpt lat="49.08947" lon="1.53018">
        <ele>126.11515808105</ele>
        <time>2016-09-25T09:13:23.000Z</time>
      </trkpt>
      <trkpt lat="49.08958" lon="1.53024">
        <ele>126.61293792725</ele>
        <time>2016-09-25T09:13:26.000Z</time>
      </trkpt>
      <trkpt lat="49.08971" lon="1.5303">
        <ele>127.07238769531</ele>
        <time>2016-09-25T09:13:29.000Z</time>
      </trkpt>
      <trkpt lat="49.08979" lon="1.53032">
        <ele>127.52301025391</ele>
        <time>2016-09-25T09:13:31.000Z</time>
      </trkpt>
      <trkpt lat="49.08988" lon="1.53032">
        <ele>127.90075683594</ele>
        <time>2016-09-25T09:13:33.000Z</time>
      </trkpt>
      <trkpt lat="49.09001" lon="1.53028">
        <ele>128.21141052246</ele>
        <time>2016-09-25T09:13:36.000Z</time>
      </trkpt>
      <trkpt lat="49.09013" lon="1.53031">
        <ele>128.54455566406</ele>
        <time>2016-09-25T09:13:39.000Z</time>
      </trkpt>
      <trkpt lat="49.0902" lon="1.53034">
        <ele>128.8558807373</ele>
        <time>2016-09-25T09:13:41.000Z</time>
      </trkpt>
      <trkpt lat="49.09032" lon="1.53038">
        <ele>129.22163391113</ele>
        <time>2016-09-25T09:13:44.000Z</time>
      </trkpt>
      <trkpt lat="49.09039" lon="1.5304">
        <ele>129.5983581543</ele>
        <time>2016-09-25T09:13:46.000Z</time>
      </trkpt>
      <trkpt lat="49.09047" lon="1.53045">
        <ele>129.9994354248</ele>
        <time>2016-09-25T09:13:49.000Z</time>
      </trkpt>
      <trkpt lat="49.09056" lon="1.53052">
        <ele>130.37573242188</ele>
        <time>2016-09-25T09:13:52.000Z</time>
      </trkpt>
      <trkpt lat="49.09067" lon="1.53059">
        <ele>130.75532531738</ele>
        <time>2016-09-25T09:13:55.000Z</time>
      </trkpt>
      <trkpt lat="49.09078" lon="1.53061">
        <ele>131.10153198242</ele>
        <time>2016-09-25T09:13:58.000Z</time>
      </trkpt>
      <trkpt lat="49.09086" lon="1.5306">
        <ele>131.43013000488</ele>
        <time>2016-09-25T09:14:00.000Z</time>
      </trkpt>
      <trkpt lat="49.09096" lon="1.53057">
        <ele>131.69755554199</ele>
        <time>2016-09-25T09:14:03.000Z</time>
      </trkpt>
      <trkpt lat="49.09103" lon="1.53053">
        <ele>131.89212036133</ele>
        <time>2016-09-25T09:14:05.000Z</time>
      </trkpt>
      <trkpt lat="49.09111" lon="1.53049">
        <ele>132.02314758301</ele>
        <time>2016-09-25T09:14:07.000Z</time>
      </trkpt>
      <trkpt lat="49.09122" lon="1.53046">
        <ele>132.09701538086</ele>
        <time>2016-09-25T09:14:10.000Z</time>
      </trkpt>
      <trkpt lat="49.09134" lon="1.53042">
        <ele>132.1548614502</ele>
        <time>2016-09-25T09:14:13.000Z</time>
      </trkpt>
      <trkpt lat="49.09143" lon="1.53037">
        <ele>132.22439575195</ele>
        <time>2016-09-25T09:14:16.000Z</time>
      </trkpt>
      <trkpt lat="49.0915" lon="1.53034">
        <ele>132.30249023438</ele>
        <time>2016-09-25T09:14:18.000Z</time>
      </trkpt>
      <trkpt lat="49.09161" lon="1.53029">
        <ele>132.39775085449</ele>
        <time>2016-09-25T09:14:21.000Z</time>
      </trkpt>
      <trkpt lat="49.0917" lon="1.53027">
        <ele>132.46475219727</ele>
        <time>2016-09-25T09:14:23.000Z</time>
      </trkpt>
      <trkpt lat="49.0918" lon="1.53027">
        <ele>132.43304443359</ele>
        <time>2016-09-25T09:14:26.000Z</time>
      </trkpt>
      <trkpt lat="49.09187" lon="1.53028">
        <ele>132.32067871094</ele>
        <time>2016-09-25T09:14:28.000Z</time>
      </trkpt>
      <trkpt lat="49.09198" lon="1.5303">
        <ele>132.10322570801</ele>
        <time>2016-09-25T09:14:31.000Z</time>
      </trkpt>
      <trkpt lat="49.09209" lon="1.53034">
        <ele>131.77597045898</ele>
        <time>2016-09-25T09:14:34.000Z</time>
      </trkpt>
      <trkpt lat="49.09216" lon="1.53035">
        <ele>131.4104309082</ele>
        <time>2016-09-25T09:14:36.000Z</time>
      </trkpt>
      <trkpt lat="49.09223" lon="1.53037">
        <ele>131.07455444336</ele>
        <time>2016-09-25T09:14:38.000Z</time>
      </trkpt>
      <trkpt lat="49.09233" lon="1.53039">
        <ele>130.72982788086</ele>
        <time>2016-09-25T09:14:41.000Z</time>
      </trkpt>
      <trkpt lat="49.09243" lon="1.53042">
        <ele>130.4016418457</ele>
        <time>2016-09-25T09:14:44.000Z</time>
      </trkpt>
      <trkpt lat="49.09253" lon="1.53045">
        <ele>130.12124633789</ele>
        <time>2016-09-25T09:14:47.000Z</time>
      </trkpt>
      <trkpt lat="49.0926" lon="1.53047">
        <ele>129.91136169434</ele>
        <time>2016-09-25T09:14:49.000Z</time>
      </trkpt>
      <trkpt lat="49.0927" lon="1.5305">
        <ele>129.77767944336</ele>
        <time>2016-09-25T09:14:52.000Z</time>
      </trkpt>
      <trkpt lat="49.0928" lon="1.53054">
        <ele>129.73616027832</ele>
        <time>2016-09-25T09:14:55.000Z</time>
      </trkpt>
      <trkpt lat="49.09287" lon="1.53057">
        <ele>129.77946472168</ele>
        <time>2016-09-25T09:14:57.000Z</time>
      </trkpt>
      <trkpt lat="49.09298" lon="1.5306">
        <ele>129.87348937988</ele>
        <time>2016-09-25T09:15:00.000Z</time>
      </trkpt>
      <trkpt lat="49.09309" lon="1.53064">
        <ele>129.95993041992</ele>
        <time>2016-09-25T09:15:03.000Z</time>
      </trkpt>
      <trkpt lat="49.09316" lon="1.53066">
        <ele>130.02670288086</ele>
        <time>2016-09-25T09:15:05.000Z</time>
      </trkpt>
      <trkpt lat="49.09324" lon="1.53067">
        <ele>130.07525634766</ele>
        <time>2016-09-25T09:15:07.000Z</time>
      </trkpt>
      <trkpt lat="49.09334" lon="1.5307">
        <ele>130.11329650879</ele>
        <time>2016-09-25T09:15:10.000Z</time>
      </trkpt>
      <trkpt lat="49.09346" lon="1.53074">
        <ele>130.12086486816</ele>
        <time>2016-09-25T09:15:13.000Z</time>
      </trkpt>
      <trkpt lat="49.09353" lon="1.53076">
        <ele>130.11045837402</ele>
        <time>2016-09-25T09:15:15.000Z</time>
      </trkpt>
      <trkpt lat="49.09365" lon="1.5308">
        <ele>130.08757019043</ele>
        <time>2016-09-25T09:15:18.000Z</time>
      </trkpt>
      <trkpt lat="49.09377" lon="1.53084">
        <ele>130.05897521973</ele>
        <time>2016-09-25T09:15:21.000Z</time>
      </trkpt>
      <trkpt lat="49.09385" lon="1.53086">
        <ele>130.03352355957</ele>
        <time>2016-09-25T09:15:23.000Z</time>
      </trkpt>
      <trkpt lat="49.09397" lon="1.53089">
        <ele>130.03067016602</ele>
        <time>2016-09-25T09:15:26.000Z</time>
      </trkpt>
      <trkpt lat="49.09409" lon="1.53091">
        <ele>130.04090881348</ele>
        <time>2016-09-25T09:15:29.000Z</time>
      </trkpt>
      <trkpt lat="49.09417" lon="1.53094">
        <ele>130.06381225586</ele>
        <time>2016-09-25T09:15:31.000Z</time>
      </trkpt>
      <trkpt lat="49.09429" lon="1.53101">
        <ele>130.10556030273</ele>
        <time>2016-09-25T09:15:34.000Z</time>
      </trkpt>
      <trkpt lat="49.09441" lon="1.53106">
        <ele>130.15531921387</ele>
        <time>2016-09-25T09:15:37.000Z</time>
      </trkpt>
      <trkpt lat="49.09449" lon="1.53109">
        <ele>130.20327758789</ele>
        <time>2016-09-25T09:15:39.000Z</time>
      </trkpt>
      <trkpt lat="49.0946" lon="1.53112">
        <ele>130.25338745117</ele>
        <time>2016-09-25T09:15:42.000Z</time>
      </trkpt>
      <trkpt lat="49.09468" lon="1.53115">
        <ele>130.30346679688</ele>
        <time>2016-09-25T09:15:44.000Z</time>
      </trkpt>
      <trkpt lat="49.09477" lon="1.53118">
        <ele>130.34378051758</ele>
        <time>2016-09-25T09:15:46.000Z</time>
      </trkpt>
      <trkpt lat="49.0949" lon="1.53123">
        <ele>130.38418579102</ele>
        <time>2016-09-25T09:15:49.000Z</time>
      </trkpt>
      <trkpt lat="49.09499" lon="1.53126">
        <ele>130.42590332031</ele>
        <time>2016-09-25T09:15:51.000Z</time>
      </trkpt>
      <trkpt lat="49.0951" lon="1.53131">
        <ele>130.47207641602</ele>
        <time>2016-09-25T09:15:54.000Z</time>
      </trkpt>
      <trkpt lat="49.09524" lon="1.53131">
        <ele>130.51254272461</ele>
        <time>2016-09-25T09:15:57.000Z</time>
      </trkpt>
      <trkpt lat="49.09533" lon="1.5313">
        <ele>130.54278564453</ele>
        <time>2016-09-25T09:15:59.000Z</time>
      </trkpt>
      <trkpt lat="49.09547" lon="1.5313">
        <ele>130.55815124512</ele>
        <time>2016-09-25T09:16:02.000Z</time>
      </trkpt>
      <trkpt lat="49.09562" lon="1.53126">
        <ele>130.55697631836</ele>
        <time>2016-09-25T09:16:05.000Z</time>
      </trkpt>
      <trkpt lat="49.09571" lon="1.53123">
        <ele>130.53616333008</ele>
        <time>2016-09-25T09:16:07.000Z</time>
      </trkpt>
      <trkpt lat="49.09587" lon="1.53118">
        <ele>130.48893737793</ele>
        <time>2016-09-25T09:16:10.000Z</time>
      </trkpt>
      <trkpt lat="49.09597" lon="1.53115">
        <ele>130.38580322266</ele>
        <time>2016-09-25T09:16:12.000Z</time>
      </trkpt>
      <trkpt lat="49.09613" lon="1.53112">
        <ele>130.20181274414</ele>
        <time>2016-09-25T09:16:15.000Z</time>
      </trkpt>
      <trkpt lat="49.09624" lon="1.53113">
        <ele>129.97552490234</ele>
        <time>2016-09-25T09:16:17.000Z</time>
      </trkpt>
      <trkpt lat="49.09641" lon="1.53115">
        <ele>129.67910766602</ele>
        <time>2016-09-25T09:16:20.000Z</time>
      </trkpt>
      <trkpt lat="49.09658" lon="1.53116">
        <ele>129.32699584961</ele>
        <time>2016-09-25T09:16:23.000Z</time>
      </trkpt>
      <trkpt lat="49.09677" lon="1.53113">
        <ele>128.97953796387</ele>
        <time>2016-09-25T09:16:26.000Z</time>
      </trkpt>
      <trkpt lat="49.09694" lon="1.5311">
        <ele>128.69473266602</ele>
        <time>2016-09-25T09:16:29.000Z</time>
      </trkpt>
      <trkpt lat="49.09712" lon="1.53108">
        <ele>128.44543457031</ele>
        <time>2016-09-25T09:16:32.000Z</time>
      </trkpt>
      <trkpt lat="49.09724" lon="1.53106">
        <ele>128.26377868652</ele>
        <time>2016-09-25T09:16:34.000Z</time>
      </trkpt>
      <trkpt lat="49.09743" lon="1.53104">
        <ele>128.1517791748</ele>
        <time>2016-09-25T09:16:37.000Z</time>
      </trkpt>
      <trkpt lat="49.09761" lon="1.53101">
        <ele>128.02046203613</ele>
        <time>2016-09-25T09:16:40.000Z</time>
      </trkpt>
      <trkpt lat="49.09773" lon="1.53099">
        <ele>127.83406829834</ele>
        <time>2016-09-25T09:16:42.000Z</time>
      </trkpt>
      <trkpt lat="49.09791" lon="1.53097">
        <ele>127.54339599609</ele>
        <time>2016-09-25T09:16:45.000Z</time>
      </trkpt>
      <trkpt lat="49.09809" lon="1.53096">
        <ele>127.14363098145</ele>
        <time>2016-09-25T09:16:48.000Z</time>
      </trkpt>
      <trkpt lat="49.09822" lon="1.53095">
        <ele>126.67191314697</ele>
        <time>2016-09-25T09:16:50.000Z</time>
      </trkpt>
      <trkpt lat="49.09835" lon="1.53095">
        <ele>126.1897354126</ele>
        <time>2016-09-25T09:16:52.000Z</time>
      </trkpt>
      <trkpt lat="49.09856" lon="1.53092">
        <ele>125.7071762085</ele>
        <time>2016-09-25T09:16:55.000Z</time>
      </trkpt>
      <trkpt lat="49.09871" lon="1.53092">
        <ele>125.30395507812</ele>
        <time>2016-09-25T09:16:57.000Z</time>
      </trkpt>
      <trkpt lat="49.09892" lon="1.53091">
        <ele>124.95896148682</ele>
        <time>2016-09-25T09:17:00.000Z</time>
      </trkpt>
      <trkpt lat="49.09905" lon="1.5309">
        <ele>124.6587677002</ele>
        <time>2016-09-25T09:17:02.000Z</time>
      </trkpt>
      <trkpt lat="49.09927" lon="1.53087">
        <ele>124.33715820312</ele>
        <time>2016-09-25T09:17:05.000Z</time>
      </trkpt>
      <trkpt lat="49.09948" lon="1.53084">
        <ele>123.94169616699</ele>
        <time>2016-09-25T09:17:08.000Z</time>
      </trkpt>
      <trkpt lat="49.09962" lon="1.53082">
        <ele>123.47991943359</ele>
        <time>2016-09-25T09:17:10.000Z</time>
      </trkpt>
      <trkpt lat="49.09986" lon="1.5308">
        <ele>122.90909576416</ele>
        <time>2016-09-25T09:17:13.000Z</time>
      </trkpt>
      <trkpt lat="49.10008" lon="1.53076">
        <ele>122.260887146</ele>
        <time>2016-09-25T09:17:16.000Z</time>
      </trkpt>
      <trkpt lat="49.10022" lon="1.53072">
        <ele>121.69492340088</ele>
        <time>2016-09-25T09:17:18.000Z</time>
      </trkpt>
      <trkpt lat="49.10044" lon="1.53068">
        <ele>121.2512588501</ele>
        <time>2016-09-25T09:17:21.000Z</time>
      </trkpt>
      <trkpt lat="49.10066" lon="1.53064">
        <ele>120.89485168457</ele>
        <time>2016-09-25T09:17:24.000Z</time>
      </trkpt>
      <trkpt lat="49.10085" lon="1.5306">
        <ele>120.72890472412</ele>
        <time>2016-09-25T09:17:27.000Z</time>
      </trkpt>
      <trkpt lat="49.10104" lon="1.53056">
        <ele>120.96993255615</ele>
        <time>2016-09-25T09:17:30.000Z</time>
      </trkpt>
      <trkpt lat="49.10121" lon="1.53053">
        <ele>121.4857635498</ele>
        <time>2016-09-25T09:17:33.000Z</time>
      </trkpt>
      <trkpt lat="49.10134" lon="1.53057">
        <ele>122.21773529053</ele>
        <time>2016-09-25T09:17:36.000Z</time>
      </trkpt>
      <trkpt lat="49.10141" lon="1.53063">
        <ele>123.06555175781</ele>
        <time>2016-09-25T09:17:38.000Z</time>
      </trkpt>
      <trkpt lat="49.10149" lon="1.53062">
        <ele>124.0078125</ele>
        <time>2016-09-25T09:17:41.000Z</time>
      </trkpt>
      <trkpt lat="49.10153" lon="1.53062">
        <ele>124.72755432129</ele>
        <time>2016-09-25T09:17:44.000Z</time>
      </trkpt>
      <trkpt lat="49.10152" lon="1.53061">
        <ele>125.18077087402</ele>
        <time>2016-09-25T09:17:47.000Z</time>
      </trkpt>
      <trkpt lat="49.10151" lon="1.5306">
        <ele>125.4267578125</ele>
        <time>2016-09-25T09:17:50.000Z</time>
      </trkpt>
      <trkpt lat="49.10148" lon="1.53059">
        <ele>125.52752685547</ele>
        <time>2016-09-25T09:17:52.000Z</time>
      </trkpt>
      <trkpt lat="49.10138" lon="1.53056">
        <ele>125.36396789551</ele>
        <time>2016-09-25T09:17:55.000Z</time>
      </trkpt>
      <trkpt lat="49.10133" lon="1.53056">
        <ele>125.0685043335</ele>
        <time>2016-09-25T09:17:57.000Z</time>
      </trkpt>
      <trkpt lat="49.10126" lon="1.53054">
        <ele>124.68925476074</ele>
        <time>2016-09-25T09:18:00.000Z</time>
      </trkpt>
      <trkpt lat="49.10121" lon="1.53046">
        <ele>124.27082824707</ele>
        <time>2016-09-25T09:18:02.000Z</time>
      </trkpt>
      <trkpt lat="49.10114" lon="1.53029">
        <ele>123.83950042725</ele>
        <time>2016-09-25T09:18:05.000Z</time>
      </trkpt>
      <trkpt lat="49.10109" lon="1.53018">
        <ele>123.53088378906</ele>
        <time>2016-09-25T09:18:07.000Z</time>
      </trkpt>
      <trkpt lat="49.10104" lon="1.53">
        <ele>123.27885437012</ele>
        <time>2016-09-25T09:18:10.000Z</time>
      </trkpt>
      <trkpt lat="49.10099" lon="1.52981">
        <ele>123.15183258057</ele>
        <time>2016-09-25T09:18:13.000Z</time>
      </trkpt>
      <trkpt lat="49.10095" lon="1.52961">
        <ele>123.13108062744</ele>
        <time>2016-09-25T09:18:16.000Z</time>
      </trkpt>
      <trkpt lat="49.10094" lon="1.52935">
        <ele>123.26979827881</ele>
        <time>2016-09-25T09:18:19.000Z</time>
      </trkpt>
      <trkpt lat="49.10091" lon="1.52923">
        <ele>123.47337341309</ele>
        <time>2016-09-25T09:18:21.000Z</time>
      </trkpt>
      <trkpt lat="49.10091" lon="1.52912">
        <ele>123.71563720703</ele>
        <time>2016-09-25T09:18:23.000Z</time>
      </trkpt>
      <trkpt lat="49.10086" lon="1.52897">
        <ele>123.90887451172</ele>
        <time>2016-09-25T09:18:26.000Z</time>
      </trkpt>
      <trkpt lat="49.10085" lon="1.52886">
        <ele>124.04438781738</ele>
        <time>2016-09-25T09:18:28.000Z</time>
      </trkpt>
      <trkpt lat="49.10083" lon="1.52874">
        <ele>124.07487487793</ele>
        <time>2016-09-25T09:18:30.000Z</time>
      </trkpt>
      <trkpt lat="49.10081" lon="1.52857">
        <ele>124.03942871094</ele>
        <time>2016-09-25T09:18:33.000Z</time>
      </trkpt>
      <trkpt lat="49.1008" lon="1.52826">
        <ele>123.97397613525</ele>
        <time>2016-09-25T09:18:36.000Z</time>
      </trkpt>
      <trkpt lat="49.1008" lon="1.52806">
        <ele>123.97563171387</ele>
        <time>2016-09-25T09:18:39.000Z</time>
      </trkpt>
      <trkpt lat="49.10079" lon="1.52786">
        <ele>124.0218963623</ele>
        <time>2016-09-25T09:18:42.000Z</time>
      </trkpt>
      <trkpt lat="49.10081" lon="1.52762">
        <ele>124.16568756104</ele>
        <time>2016-09-25T09:18:45.000Z</time>
      </trkpt>
      <trkpt lat="49.10084" lon="1.52739">
        <ele>124.37255859375</ele>
        <time>2016-09-25T09:18:47.000Z</time>
      </trkpt>
      <trkpt lat="49.10083" lon="1.5272">
        <ele>124.52668762207</ele>
        <time>2016-09-25T09:18:50.000Z</time>
      </trkpt>
      <trkpt lat="49.10085" lon="1.52708">
        <ele>124.6275177002</ele>
        <time>2016-09-25T09:18:52.000Z</time>
      </trkpt>
      <trkpt lat="49.10088" lon="1.52685">
        <ele>124.69703674316</ele>
        <time>2016-09-25T09:18:55.000Z</time>
      </trkpt>
      <trkpt lat="49.10096" lon="1.52648">
        <ele>124.80326080322</ele>
        <time>2016-09-25T09:18:58.000Z</time>
      </trkpt>
      <trkpt lat="49.10101" lon="1.52618">
        <ele>124.9766998291</ele>
        <time>2016-09-25T09:19:01.000Z</time>
      </trkpt>
      <trkpt lat="49.10102" lon="1.52599">
        <ele>125.23750305176</ele>
        <time>2016-09-25T09:19:03.000Z</time>
      </trkpt>
      <trkpt lat="49.10103" lon="1.52581">
        <ele>125.5558013916</ele>
        <time>2016-09-25T09:19:05.000Z</time>
      </trkpt>
      <trkpt lat="49.10108" lon="1.52554">
        <ele>126.03996276855</ele>
        <time>2016-09-25T09:19:08.000Z</time>
      </trkpt>
      <trkpt lat="49.10109" lon="1.52528">
        <ele>126.48701477051</ele>
        <time>2016-09-25T09:19:11.000Z</time>
      </trkpt>
      <trkpt lat="49.1011" lon="1.52523">
        <ele>126.85915374756</ele>
        <time>2016-09-25T09:19:13.000Z</time>
      </trkpt>
      <trkpt lat="49.10108" lon="1.52516">
        <ele>127.15969085693</ele>
        <time>2016-09-25T09:19:16.000Z</time>
      </trkpt>
      <trkpt lat="49.10107" lon="1.52514">
        <ele>127.39001464844</ele>
        <time>2016-09-25T09:19:18.000Z</time>
      </trkpt>
      <trkpt lat="49.10106" lon="1.52512">
        <ele>127.43743896484</ele>
        <time>2016-09-25T09:19:21.000Z</time>
      </trkpt>
      <trkpt lat="49.10105" lon="1.52511">
        <ele>127.38000488281</ele>
        <time>2016-09-25T09:19:23.000Z</time>
      </trkpt>
      <trkpt lat="49.10104" lon="1.52509">
        <ele>127.27285003662</ele>
        <time>2016-09-25T09:19:41.000Z</time>
      </trkpt>
      <trkpt lat="49.10104" lon="1.52511">
        <ele>127.20776367188</ele>
        <time>2016-09-25T09:19:44.000Z</time>
      </trkpt>
      <trkpt lat="49.101" lon="1.52511">
        <ele>127.06687164307</ele>
        <time>2016-09-25T09:19:56.000Z</time>
      </trkpt>
      <trkpt lat="49.101" lon="1.52511">
        <ele>127.06687164307</ele>
        <time>2016-09-25T09:20:16.000Z</time>
      </trkpt>
      <trkpt lat="49.10102" lon="1.52508">
        <ele>127.00746917725</ele>
        <time>2016-09-25T09:20:19.000Z</time>
      </trkpt>
      <trkpt lat="49.10102" lon="1.52503">
        <ele>126.95761871338</ele>
        <time>2016-09-25T09:20:21.000Z</time>
      </trkpt>
      <trkpt lat="49.10102" lon="1.52493">
        <ele>126.95806884766</ele>
        <time>2016-09-25T09:20:24.000Z</time>
      </trkpt>
      <trkpt lat="49.10102" lon="1.5248">
        <ele>126.98608398438</ele>
        <time>2016-09-25T09:20:27.000Z</time>
      </trkpt>
      <trkpt lat="49.10102" lon="1.52468">
        <ele>127.13288879395</ele>
        <time>2016-09-25T09:20:29.000Z</time>
      </trkpt>
      <trkpt lat="49.10104" lon="1.52458">
        <ele>127.25291442871</ele>
        <time>2016-09-25T09:20:31.000Z</time>
      </trkpt>
      <trkpt lat="49.10106" lon="1.52442">
        <ele>127.45762634277</ele>
        <time>2016-09-25T09:20:34.000Z</time>
      </trkpt>
      <trkpt lat="49.10112" lon="1.5237">
        <ele>127.77767181396</ele>
        <time>2016-09-25T09:20:39.000Z</time>
      </trkpt>
      <trkpt lat="49.10116" lon="1.52356">
        <ele>128.12605285645</ele>
        <time>2016-09-25T09:20:41.000Z</time>
      </trkpt>
      <trkpt lat="49.10119" lon="1.5234">
        <ele>128.48156738281</ele>
        <time>2016-09-25T09:20:44.000Z</time>
      </trkpt>
      <trkpt lat="49.10127" lon="1.52314">
        <ele>128.81814575195</ele>
        <time>2016-09-25T09:20:47.000Z</time>
      </trkpt>
      <trkpt lat="49.1013" lon="1.52296">
        <ele>129.04211425781</ele>
        <time>2016-09-25T09:20:50.000Z</time>
      </trkpt>
      <trkpt lat="49.10137" lon="1.52271">
        <ele>129.10096740723</ele>
        <time>2016-09-25T09:20:53.000Z</time>
      </trkpt>
      <trkpt lat="49.10133" lon="1.52237">
        <ele>128.90383911133</ele>
        <time>2016-09-25T09:20:56.000Z</time>
      </trkpt>
      <trkpt lat="49.10133" lon="1.5221">
        <ele>128.51815795898</ele>
        <time>2016-09-25T09:20:58.000Z</time>
      </trkpt>
      <trkpt lat="49.10129" lon="1.52178">
        <ele>127.87933349609</ele>
        <time>2016-09-25T09:21:01.000Z</time>
      </trkpt>
      <trkpt lat="49.10126" lon="1.52167">
        <ele>127.17507171631</ele>
        <time>2016-09-25T09:21:03.000Z</time>
      </trkpt>
      <trkpt lat="49.1012" lon="1.52152">
        <ele>126.35417175293</ele>
        <time>2016-09-25T09:21:06.000Z</time>
      </trkpt>
      <trkpt lat="49.10112" lon="1.52135">
        <ele>125.545753479</ele>
        <time>2016-09-25T09:21:09.000Z</time>
      </trkpt>
      <trkpt lat="49.10106" lon="1.52119">
        <ele>124.735496521</ele>
        <time>2016-09-25T09:21:12.000Z</time>
      </trkpt>
      <trkpt lat="49.10101" lon="1.52108">
        <ele>124.05519866943</ele>
        <time>2016-09-25T09:21:14.000Z</time>
      </trkpt>
      <trkpt lat="49.10096" lon="1.52095">
        <ele>123.35052490234</ele>
        <time>2016-09-25T09:21:17.000Z</time>
      </trkpt>
      <trkpt lat="49.1008" lon="1.52042">
        <ele>122.18788909912</ele>
        <time>2016-09-25T09:21:22.000Z</time>
      </trkpt>
      <trkpt lat="49.10079" lon="1.52016">
        <ele>120.93730163574</ele>
        <time>2016-09-25T09:21:25.000Z</time>
      </trkpt>
      <trkpt lat="49.10084" lon="1.52011">
        <ele>119.65321350098</ele>
        <time>2016-09-25T09:21:27.000Z</time>
      </trkpt>
      <trkpt lat="49.10086" lon="1.5201">
        <ele>118.49560546875</ele>
        <time>2016-09-25T09:21:30.000Z</time>
      </trkpt>
      <trkpt lat="49.10086" lon="1.52009">
        <ele>117.44387054443</ele>
        <time>2016-09-25T09:21:33.000Z</time>
      </trkpt>
      <trkpt lat="49.10086" lon="1.52007">
        <ele>116.96318054199</ele>
        <time>2016-09-25T09:21:37.000Z</time>
      </trkpt>
      <trkpt lat="49.10086" lon="1.52005">
        <ele>116.72584533691</ele>
        <time>2016-09-25T09:21:40.000Z</time>
      </trkpt>
      <trkpt lat="49.10085" lon="1.52004">
        <ele>116.66080474854</ele>
        <time>2016-09-25T09:21:43.000Z</time>
      </trkpt>
      <trkpt lat="49.10086" lon="1.52003">
        <ele>116.56495666504</ele>
        <time>2016-09-25T09:21:46.000Z</time>
      </trkpt>
      <trkpt lat="49.10086" lon="1.52001">
        <ele>116.48012542725</ele>
        <time>2016-09-25T09:21:49.000Z</time>
      </trkpt>
      <trkpt lat="49.10086" lon="1.52">
        <ele>116.39868164062</ele>
        <time>2016-09-25T09:21:52.000Z</time>
      </trkpt>
      <trkpt lat="49.10085" lon="1.51999">
        <ele>116.31956481934</ele>
        <time>2016-09-25T09:21:55.000Z</time>
      </trkpt>
      <trkpt lat="49.10083" lon="1.51999">
        <ele>116.25811767578</ele>
        <time>2016-09-25T09:21:58.000Z</time>
      </trkpt>
      <trkpt lat="49.1008" lon="1.51999">
        <ele>116.28935241699</ele>
        <time>2016-09-25T09:22:01.000Z</time>
      </trkpt>
      <trkpt lat="49.1008" lon="1.51998">
        <ele>116.33351135254</ele>
        <time>2016-09-25T09:22:04.000Z</time>
      </trkpt>
      <trkpt lat="49.10081" lon="1.51995">
        <ele>116.33036804199</ele>
        <time>2016-09-25T09:22:07.000Z</time>
      </trkpt>
      <trkpt lat="49.10087" lon="1.51992">
        <ele>116.3363494873</ele>
        <time>2016-09-25T09:22:10.000Z</time>
      </trkpt>
      <trkpt lat="49.1009" lon="1.5199">
        <ele>116.38669586182</ele>
        <time>2016-09-25T09:22:12.000Z</time>
      </trkpt>
      <trkpt lat="49.10092" lon="1.51987">
        <ele>116.37101745605</ele>
        <time>2016-09-25T09:22:15.000Z</time>
      </trkpt>
      <trkpt lat="49.10092" lon="1.51985">
        <ele>116.34143066406</ele>
        <time>2016-09-25T09:22:18.000Z</time>
      </trkpt>
      <trkpt lat="49.10094" lon="1.51977">
        <ele>116.36507415771</ele>
        <time>2016-09-25T09:22:21.000Z</time>
      </trkpt>
      <trkpt lat="49.10096" lon="1.51972">
        <ele>116.4197845459</ele>
        <time>2016-09-25T09:22:37.000Z</time>
      </trkpt>
      <trkpt lat="49.10097" lon="1.51971">
        <ele>116.44291687012</ele>
        <time>2016-09-25T09:22:39.000Z</time>
      </trkpt>
      <trkpt lat="49.10099" lon="1.51969">
        <ele>116.46803283691</ele>
        <time>2016-09-25T09:22:41.000Z</time>
      </trkpt>
      <trkpt lat="49.10104" lon="1.51967">
        <ele>116.58469390869</ele>
        <time>2016-09-25T09:22:44.000Z</time>
      </trkpt>
      <trkpt lat="49.10109" lon="1.51966">
        <ele>116.80068206787</ele>
        <time>2016-09-25T09:22:46.000Z</time>
      </trkpt>
      <trkpt lat="49.10119" lon="1.51962">
        <ele>117.13348388672</ele>
        <time>2016-09-25T09:22:49.000Z</time>
      </trkpt>
      <trkpt lat="49.10126" lon="1.51956">
        <ele>117.54783630371</ele>
        <time>2016-09-25T09:22:51.000Z</time>
      </trkpt>
      <trkpt lat="49.10141" lon="1.51934">
        <ele>117.99355316162</ele>
        <time>2016-09-25T09:22:54.000Z</time>
      </trkpt>
      <trkpt lat="49.10153" lon="1.51914">
        <ele>118.376121521</ele>
        <time>2016-09-25T09:22:57.000Z</time>
      </trkpt>
      <trkpt lat="49.10159" lon="1.51902">
        <ele>118.68188476562</ele>
        <time>2016-09-25T09:22:59.000Z</time>
      </trkpt>
      <trkpt lat="49.10162" lon="1.51868">
        <ele>118.67710113525</ele>
        <time>2016-09-25T09:23:02.000Z</time>
      </trkpt>
      <trkpt lat="49.10164" lon="1.5184">
        <ele>118.40350341797</ele>
        <time>2016-09-25T09:23:05.000Z</time>
      </trkpt>
      <trkpt lat="49.10163" lon="1.51822">
        <ele>117.97309875488</ele>
        <time>2016-09-25T09:23:07.000Z</time>
      </trkpt>
      <trkpt lat="49.10164" lon="1.51789">
        <ele>117.37512207031</ele>
        <time>2016-09-25T09:23:10.000Z</time>
      </trkpt>
      <trkpt lat="49.10166" lon="1.51771">
        <ele>116.68259429932</ele>
        <time>2016-09-25T09:23:12.000Z</time>
      </trkpt>
      <trkpt lat="49.10167" lon="1.51748">
        <ele>116.05849456787</ele>
        <time>2016-09-25T09:23:15.000Z</time>
      </trkpt>
      <trkpt lat="49.10173" lon="1.51719">
        <ele>115.63734436035</ele>
        <time>2016-09-25T09:23:18.000Z</time>
      </trkpt>
      <trkpt lat="49.1018" lon="1.5169">
        <ele>115.37223815918</ele>
        <time>2016-09-25T09:23:21.000Z</time>
      </trkpt>
      <trkpt lat="49.10186" lon="1.51668">
        <ele>115.30812072754</ele>
        <time>2016-09-25T09:23:24.000Z</time>
      </trkpt>
      <trkpt lat="49.10188" lon="1.51638">
        <ele>115.23780822754</ele>
        <time>2016-09-25T09:23:27.000Z</time>
      </trkpt>
      <trkpt lat="49.10185" lon="1.51598">
        <ele>115.02934265137</ele>
        <time>2016-09-25T09:23:30.000Z</time>
      </trkpt>
      <trkpt lat="49.10186" lon="1.51574">
        <ele>114.84356689453</ele>
        <time>2016-09-25T09:23:33.000Z</time>
      </trkpt>
      <trkpt lat="49.10184" lon="1.51561">
        <ele>114.63990783691</ele>
        <time>2016-09-25T09:23:35.000Z</time>
      </trkpt>
      <trkpt lat="49.10182" lon="1.51537">
        <ele>114.51997375488</ele>
        <time>2016-09-25T09:23:38.000Z</time>
      </trkpt>
      <trkpt lat="49.10182" lon="1.51522">
        <ele>114.59349060059</ele>
        <time>2016-09-25T09:23:40.000Z</time>
      </trkpt>
      <trkpt lat="49.10178" lon="1.51491">
        <ele>115.01582336426</ele>
        <time>2016-09-25T09:23:43.000Z</time>
      </trkpt>
      <trkpt lat="49.10177" lon="1.51471">
        <ele>115.51100921631</ele>
        <time>2016-09-25T09:23:46.000Z</time>
      </trkpt>
      <trkpt lat="49.10174" lon="1.51454">
        <ele>115.97373199463</ele>
        <time>2016-09-25T09:23:48.000Z</time>
      </trkpt>
      <trkpt lat="49.1017" lon="1.51435">
        <ele>116.33072662354</ele>
        <time>2016-09-25T09:23:50.000Z</time>
      </trkpt>
      <trkpt lat="49.10166" lon="1.51428">
        <ele>116.55667877197</ele>
        <time>2016-09-25T09:23:52.000Z</time>
      </trkpt>
      <trkpt lat="49.10162" lon="1.51403">
        <ele>116.88675689697</ele>
        <time>2016-09-25T09:23:55.000Z</time>
      </trkpt>
      <trkpt lat="49.10159" lon="1.51383">
        <ele>117.21871185303</ele>
        <time>2016-09-25T09:23:58.000Z</time>
      </trkpt>
      <trkpt lat="49.10152" lon="1.51377">
        <ele>117.58351898193</ele>
        <time>2016-09-25T09:24:00.000Z</time>
      </trkpt>
      <trkpt lat="49.10147" lon="1.51367">
        <ele>117.93365478516</ele>
        <time>2016-09-25T09:24:02.000Z</time>
      </trkpt>
      <trkpt lat="49.10141" lon="1.51354">
        <ele>118.29707336426</ele>
        <time>2016-09-25T09:24:05.000Z</time>
      </trkpt>
      <trkpt lat="49.10136" lon="1.51342">
        <ele>118.4020614624</ele>
        <time>2016-09-25T09:24:07.000Z</time>
      </trkpt>
      <trkpt lat="49.10126" lon="1.51327">
        <ele>118.25624847412</ele>
        <time>2016-09-25T09:24:10.000Z</time>
      </trkpt>
      <trkpt lat="49.10115" lon="1.51314">
        <ele>117.89791107178</ele>
        <time>2016-09-25T09:24:13.000Z</time>
      </trkpt>
      <trkpt lat="49.10108" lon="1.51306">
        <ele>117.41306304932</ele>
        <time>2016-09-25T09:24:15.000Z</time>
      </trkpt>
      <trkpt lat="49.10104" lon="1.51297">
        <ele>116.85298919678</ele>
        <time>2016-09-25T09:24:17.000Z</time>
      </trkpt>
      <trkpt lat="49.10093" lon="1.51282">
        <ele>116.11893463135</ele>
        <time>2016-09-25T09:24:20.000Z</time>
      </trkpt>
      <trkpt lat="49.1008" lon="1.51269">
        <ele>115.31485748291</ele>
        <time>2016-09-25T09:24:23.000Z</time>
      </trkpt>
      <trkpt lat="49.10072" lon="1.51252">
        <ele>114.62127685547</ele>
        <time>2016-09-25T09:24:26.000Z</time>
      </trkpt>
      <trkpt lat="49.10065" lon="1.5124">
        <ele>114.02978515625</ele>
        <time>2016-09-25T09:24:28.000Z</time>
      </trkpt>
      <trkpt lat="49.10054" lon="1.51212">
        <ele>113.46685791016</ele>
        <time>2016-09-25T09:24:31.000Z</time>
      </trkpt>
      <trkpt lat="49.10043" lon="1.51198">
        <ele>113.01690673828</ele>
        <time>2016-09-25T09:24:34.000Z</time>
      </trkpt>
      <trkpt lat="49.10037" lon="1.51193">
        <ele>112.70163726807</ele>
        <time>2016-09-25T09:24:36.000Z</time>
      </trkpt>
      <trkpt lat="49.10027" lon="1.51182">
        <ele>112.29899597168</ele>
        <time>2016-09-25T09:24:39.000Z</time>
      </trkpt>
      <trkpt lat="49.10018" lon="1.51169">
        <ele>111.69911193848</ele>
        <time>2016-09-25T09:24:42.000Z</time>
      </trkpt>
      <trkpt lat="49.1001" lon="1.51164">
        <ele>111.06538391113</ele>
        <time>2016-09-25T09:24:44.000Z</time>
      </trkpt>
      <trkpt lat="49.09993" lon="1.5116">
        <ele>110.4630279541</ele>
        <time>2016-09-25T09:24:47.000Z</time>
      </trkpt>
      <trkpt lat="49.09979" lon="1.51157">
        <ele>109.93654632568</ele>
        <time>2016-09-25T09:24:50.000Z</time>
      </trkpt>
      <trkpt lat="49.09974" lon="1.51149">
        <ele>109.59629058838</ele>
        <time>2016-09-25T09:24:52.000Z</time>
      </trkpt>
      <trkpt lat="49.09969" lon="1.51141">
        <ele>109.48867034912</ele>
        <time>2016-09-25T09:24:54.000Z</time>
      </trkpt>
      <trkpt lat="49.09959" lon="1.51133">
        <ele>109.47347259521</ele>
        <time>2016-09-25T09:24:57.000Z</time>
      </trkpt>
      <trkpt lat="49.09949" lon="1.51128">
        <ele>109.50380706787</ele>
        <time>2016-09-25T09:24:59.000Z</time>
      </trkpt>
      <trkpt lat="49.09945" lon="1.51118">
        <ele>109.52178955078</ele>
        <time>2016-09-25T09:25:02.000Z</time>
      </trkpt>
      <trkpt lat="49.09941" lon="1.51113">
        <ele>109.47770690918</ele>
        <time>2016-09-25T09:25:04.000Z</time>
      </trkpt>
      <trkpt lat="49.0993" lon="1.51103">
        <ele>109.32242584229</ele>
        <time>2016-09-25T09:25:07.000Z</time>
      </trkpt>
      <trkpt lat="49.09924" lon="1.51096">
        <ele>109.09989929199</ele>
        <time>2016-09-25T09:25:09.000Z</time>
      </trkpt>
      <trkpt lat="49.09914" lon="1.5109">
        <ele>108.81976318359</ele>
        <time>2016-09-25T09:25:11.000Z</time>
      </trkpt>
      <trkpt lat="49.09901" lon="1.51081">
        <ele>108.48097229004</ele>
        <time>2016-09-25T09:25:14.000Z</time>
      </trkpt>
      <trkpt lat="49.09894" lon="1.51072">
        <ele>108.20832824707</ele>
        <time>2016-09-25T09:25:16.000Z</time>
      </trkpt>
      <trkpt lat="49.09883" lon="1.51059">
        <ele>108.03232574463</ele>
        <time>2016-09-25T09:25:19.000Z</time>
      </trkpt>
      <trkpt lat="49.09877" lon="1.51052">
        <ele>107.90670013428</ele>
        <time>2016-09-25T09:25:21.000Z</time>
      </trkpt>
      <trkpt lat="49.09871" lon="1.51046">
        <ele>107.83145904541</ele>
        <time>2016-09-25T09:25:23.000Z</time>
      </trkpt>
      <trkpt lat="49.09859" lon="1.51037">
        <ele>107.71183776855</ele>
        <time>2016-09-25T09:25:26.000Z</time>
      </trkpt>
      <trkpt lat="49.09847" lon="1.51032">
        <ele>107.39176177979</ele>
        <time>2016-09-25T09:25:29.000Z</time>
      </trkpt>
      <trkpt lat="49.09841" lon="1.51029">
        <ele>106.97721862793</ele>
        <time>2016-09-25T09:25:31.000Z</time>
      </trkpt>
      <trkpt lat="49.09838" lon="1.51025">
        <ele>106.52726745605</ele>
        <time>2016-09-25T09:25:33.000Z</time>
      </trkpt>
      <trkpt lat="49.09835" lon="1.51018">
        <ele>106.06408691406</ele>
        <time>2016-09-25T09:25:35.000Z</time>
      </trkpt>
      <trkpt lat="49.0983" lon="1.51013">
        <ele>105.72204589844</ele>
        <time>2016-09-25T09:25:38.000Z</time>
      </trkpt>
      <trkpt lat="49.09828" lon="1.51012">
        <ele>105.576171875</ele>
        <time>2016-09-25T09:25:41.000Z</time>
      </trkpt>
      <trkpt lat="49.09823" lon="1.5101">
        <ele>105.59014892578</ele>
        <time>2016-09-25T09:25:56.000Z</time>
      </trkpt>
      <trkpt lat="49.09823" lon="1.5101">
        <ele>105.59014892578</ele>
        <time>2016-09-25T09:26:16.000Z</time>
      </trkpt>
      <trkpt lat="49.09822" lon="1.5101">
        <ele>105.68925476074</ele>
        <time>2016-09-25T09:26:32.000Z</time>
      </trkpt>
      <trkpt lat="49.09822" lon="1.5101">
        <ele>105.68925476074</ele>
        <time>2016-09-25T09:26:52.000Z</time>
      </trkpt>
      <trkpt lat="49.09819" lon="1.51014">
        <ele>105.90093994141</ele>
        <time>2016-09-25T09:27:17.000Z</time>
      </trkpt>
      <trkpt lat="49.09819" lon="1.51012">
        <ele>106.09830474854</ele>
        <time>2016-09-25T09:27:20.000Z</time>
      </trkpt>
      <trkpt lat="49.09818" lon="1.51008">
        <ele>106.26850891113</ele>
        <time>2016-09-25T09:27:22.000Z</time>
      </trkpt>
      <trkpt lat="49.09814" lon="1.50996">
        <ele>106.38188171387</ele>
        <time>2016-09-25T09:27:25.000Z</time>
      </trkpt>
      <trkpt lat="49.09813" lon="1.50983">
        <ele>106.47267913818</ele>
        <time>2016-09-25T09:27:28.000Z</time>
      </trkpt>
      <trkpt lat="49.09812" lon="1.50977">
        <ele>106.51025390625</ele>
        <time>2016-09-25T09:27:30.000Z</time>
      </trkpt>
      <trkpt lat="49.09813" lon="1.50979">
        <ele>106.53505706787</ele>
        <time>2016-09-25T09:27:37.000Z</time>
      </trkpt>
      <trkpt lat="49.09813" lon="1.50975">
        <ele>106.55339050293</ele>
        <time>2016-09-25T09:27:39.000Z</time>
      </trkpt>
      <trkpt lat="49.09812" lon="1.50973">
        <ele>106.5531463623</ele>
        <time>2016-09-25T09:27:41.000Z</time>
      </trkpt>
      <trkpt lat="49.09814" lon="1.50959">
        <ele>106.49504089355</ele>
        <time>2016-09-25T09:27:44.000Z</time>
      </trkpt>
      <trkpt lat="49.09815" lon="1.5095">
        <ele>106.39506530762</ele>
        <time>2016-09-25T09:27:46.000Z</time>
      </trkpt>
      <trkpt lat="49.09816" lon="1.5094">
        <ele>106.25761413574</ele>
        <time>2016-09-25T09:27:48.000Z</time>
      </trkpt>
      <trkpt lat="49.0982" lon="1.50924">
        <ele>106.02681732178</ele>
        <time>2016-09-25T09:27:51.000Z</time>
      </trkpt>
      <trkpt lat="49.09822" lon="1.50917">
        <ele>105.73801422119</ele>
        <time>2016-09-25T09:27:54.000Z</time>
      </trkpt>
      <trkpt lat="49.09824" lon="1.50912">
        <ele>105.4249420166</ele>
        <time>2016-09-25T09:27:57.000Z</time>
      </trkpt>
      <trkpt lat="49.09827" lon="1.50904">
        <ele>104.9930267334</ele>
        <time>2016-09-25T09:28:00.000Z</time>
      </trkpt>
      <trkpt lat="49.09829" lon="1.509">
        <ele>104.51625061035</ele>
        <time>2016-09-25T09:28:02.000Z</time>
      </trkpt>
      <trkpt lat="49.09834" lon="1.50885">
        <ele>103.87109375</ele>
        <time>2016-09-25T09:28:05.000Z</time>
      </trkpt>
      <trkpt lat="49.09838" lon="1.50864">
        <ele>103.14656829834</ele>
        <time>2016-09-25T09:28:08.000Z</time>
      </trkpt>
      <trkpt lat="49.09842" lon="1.50852">
        <ele>102.46849060059</ele>
        <time>2016-09-25T09:28:10.000Z</time>
      </trkpt>
      <trkpt lat="49.09846" lon="1.50839">
        <ele>101.91900634766</ele>
        <time>2016-09-25T09:28:12.000Z</time>
      </trkpt>
      <trkpt lat="49.0985" lon="1.50827">
        <ele>101.47724914551</ele>
        <time>2016-09-25T09:28:14.000Z</time>
      </trkpt>
      <trkpt lat="49.09858" lon="1.50797">
        <ele>101.31758117676</ele>
        <time>2016-09-25T09:28:17.000Z</time>
      </trkpt>
      <trkpt lat="49.09861" lon="1.50777">
        <ele>101.25294494629</ele>
        <time>2016-09-25T09:28:20.000Z</time>
      </trkpt>
      <trkpt lat="49.09863" lon="1.50758">
        <ele>101.13875579834</ele>
        <time>2016-09-25T09:28:23.000Z</time>
      </trkpt>
      <trkpt lat="49.09862" lon="1.50731">
        <ele>100.99781799316</ele>
        <time>2016-09-25T09:28:25.000Z</time>
      </trkpt>
      <trkpt lat="49.09859" lon="1.50709">
        <ele>100.80606842041</ele>
        <time>2016-09-25T09:28:27.000Z</time>
      </trkpt>
      <trkpt lat="49.09859" lon="1.50689">
        <ele>100.61171722412</ele>
        <time>2016-09-25T09:28:29.000Z</time>
      </trkpt>
      <trkpt lat="49.09862" lon="1.50656">
        <ele>100.51959228516</ele>
        <time>2016-09-25T09:28:32.000Z</time>
      </trkpt>
      <trkpt lat="49.09869" lon="1.50637">
        <ele>100.55829620361</ele>
        <time>2016-09-25T09:28:34.000Z</time>
      </trkpt>
      <trkpt lat="49.09877" lon="1.50611">
        <ele>100.60447692871</ele>
        <time>2016-09-25T09:28:37.000Z</time>
      </trkpt>
      <trkpt lat="49.09887" lon="1.50592">
        <ele>100.55824279785</ele>
        <time>2016-09-25T09:28:39.000Z</time>
      </trkpt>
      <trkpt lat="49.09898" lon="1.50566">
        <ele>100.36923980713</ele>
        <time>2016-09-25T09:28:42.000Z</time>
      </trkpt>
      <trkpt lat="49.09904" lon="1.50548">
        <ele>100.00396728516</ele>
        <time>2016-09-25T09:28:44.000Z</time>
      </trkpt>
      <trkpt lat="49.09914" lon="1.50522">
        <ele>99.253707885742</ele>
        <time>2016-09-25T09:28:47.000Z</time>
      </trkpt>
      <trkpt lat="49.09924" lon="1.50501">
        <ele>98.260391235352</ele>
        <time>2016-09-25T09:28:50.000Z</time>
      </trkpt>
      <trkpt lat="49.09931" lon="1.50494">
        <ele>97.344009399414</ele>
        <time>2016-09-25T09:28:52.000Z</time>
      </trkpt>
      <trkpt lat="49.0994" lon="1.5048">
        <ele>96.448509216309</ele>
        <time>2016-09-25T09:28:54.000Z</time>
      </trkpt>
      <trkpt lat="49.09956" lon="1.50449">
        <ele>95.140098571777</ele>
        <time>2016-09-25T09:28:57.000Z</time>
      </trkpt>
      <trkpt lat="49.0996" lon="1.50426">
        <ele>93.794631958008</ele>
        <time>2016-09-25T09:28:59.000Z</time>
      </trkpt>
      <trkpt lat="49.09964" lon="1.50383">
        <ele>91.996841430664</ele>
        <time>2016-09-25T09:29:02.000Z</time>
      </trkpt>
      <trkpt lat="49.09966" lon="1.50353">
        <ele>89.736488342285</ele>
        <time>2016-09-25T09:29:04.000Z</time>
      </trkpt>
      <trkpt lat="49.09961" lon="1.50327">
        <ele>87.429321289062</ele>
        <time>2016-09-25T09:29:06.000Z</time>
      </trkpt>
      <trkpt lat="49.09954" lon="1.50303">
        <ele>85.280555725098</ele>
        <time>2016-09-25T09:29:08.000Z</time>
      </trkpt>
      <trkpt lat="49.09943" lon="1.50267">
        <ele>82.846633911133</ele>
        <time>2016-09-25T09:29:11.000Z</time>
      </trkpt>
      <trkpt lat="49.09936" lon="1.50243">
        <ele>80.685516357422</ele>
        <time>2016-09-25T09:29:13.000Z</time>
      </trkpt>
      <trkpt lat="49.09926" lon="1.50211">
        <ele>78.591644287109</ele>
        <time>2016-09-25T09:29:16.000Z</time>
      </trkpt>
      <trkpt lat="49.09924" lon="1.50191">
        <ele>76.254875183105</ele>
        <time>2016-09-25T09:29:18.000Z</time>
      </trkpt>
      <trkpt lat="49.09922" lon="1.5018">
        <ele>74.097518920898</ele>
        <time>2016-09-25T09:29:21.000Z</time>
      </trkpt>
      <trkpt lat="49.0992" lon="1.50175">
        <ele>72.520874023438</ele>
        <time>2016-09-25T09:29:23.000Z</time>
      </trkpt>
      <trkpt lat="49.09917" lon="1.5017">
        <ele>71.381896972656</ele>
        <time>2016-09-25T09:29:26.000Z</time>
      </trkpt>
      <trkpt lat="49.09917" lon="1.50166">
        <ele>70.622665405273</ele>
        <time>2016-09-25T09:29:28.000Z</time>
      </trkpt>
      <trkpt lat="49.09919" lon="1.50172">
        <ele>70.326583862305</ele>
        <time>2016-09-25T09:29:30.000Z</time>
      </trkpt>
      <trkpt lat="49.0992" lon="1.50178">
        <ele>70.333053588867</ele>
        <time>2016-09-25T09:29:33.000Z</time>
      </trkpt>
      <trkpt lat="49.09921" lon="1.50187">
        <ele>70.591415405273</ele>
        <time>2016-09-25T09:29:36.000Z</time>
      </trkpt>
      <trkpt lat="49.09923" lon="1.50196">
        <ele>71.022872924805</ele>
        <time>2016-09-25T09:29:38.000Z</time>
      </trkpt>
      <trkpt lat="49.09925" lon="1.50207">
        <ele>71.727661132812</ele>
        <time>2016-09-25T09:29:41.000Z</time>
      </trkpt>
      <trkpt lat="49.09924" lon="1.50218">
        <ele>72.651916503906</ele>
        <time>2016-09-25T09:29:44.000Z</time>
      </trkpt>
      <trkpt lat="49.09925" lon="1.5023">
        <ele>73.709594726562</ele>
        <time>2016-09-25T09:29:47.000Z</time>
      </trkpt>
      <trkpt lat="49.09927" lon="1.50241">
        <ele>74.778381347656</ele>
        <time>2016-09-25T09:29:50.000Z</time>
      </trkpt>
      <trkpt lat="49.09929" lon="1.50247">
        <ele>75.797668457031</ele>
        <time>2016-09-25T09:29:52.000Z</time>
      </trkpt>
      <trkpt lat="49.09934" lon="1.50255">
        <ele>76.730613708496</ele>
        <time>2016-09-25T09:29:55.000Z</time>
      </trkpt>
      <trkpt lat="49.09938" lon="1.5026">
        <ele>77.37345123291</ele>
        <time>2016-09-25T09:29:57.000Z</time>
      </trkpt>
      <trkpt lat="49.09944" lon="1.50267">
        <ele>77.780609130859</ele>
        <time>2016-09-25T09:29:59.000Z</time>
      </trkpt>
      <trkpt lat="49.09949" lon="1.50272">
        <ele>77.968605041504</ele>
        <time>2016-09-25T09:30:01.000Z</time>
      </trkpt>
      <trkpt lat="49.09957" lon="1.50278">
        <ele>77.938781738281</ele>
        <time>2016-09-25T09:30:04.000Z</time>
      </trkpt>
      <trkpt lat="49.0996" lon="1.50281">
        <ele>77.724136352539</ele>
        <time>2016-09-25T09:30:06.000Z</time>
      </trkpt>
      <trkpt lat="49.09967" lon="1.50288">
        <ele>77.406272888184</ele>
        <time>2016-09-25T09:30:09.000Z</time>
      </trkpt>
      <trkpt lat="49.09973" lon="1.50295">
        <ele>76.990089416504</ele>
        <time>2016-09-25T09:30:11.000Z</time>
      </trkpt>
      <trkpt lat="49.09982" lon="1.50305">
        <ele>76.40788269043</ele>
        <time>2016-09-25T09:30:14.000Z</time>
      </trkpt>
      <trkpt lat="49.09991" lon="1.50317">
        <ele>75.71955871582</ele>
        <time>2016-09-25T09:30:17.000Z</time>
      </trkpt>
      <trkpt lat="49.1" lon="1.50329">
        <ele>74.839889526367</ele>
        <time>2016-09-25T09:30:20.000Z</time>
      </trkpt>
      <trkpt lat="49.10009" lon="1.50342">
        <ele>74.364418029785</ele>
        <time>2016-09-25T09:30:23.000Z</time>
      </trkpt>
      <trkpt lat="49.10015" lon="1.5035">
        <ele>74.182312011719</ele>
        <time>2016-09-25T09:30:25.000Z</time>
      </trkpt>
      <trkpt lat="49.10025" lon="1.50357">
        <ele>74.487747192383</ele>
        <time>2016-09-25T09:30:28.000Z</time>
      </trkpt>
      <trkpt lat="49.10031" lon="1.50359">
        <ele>75.14697265625</ele>
        <time>2016-09-25T09:30:30.000Z</time>
      </trkpt>
      <trkpt lat="49.10038" lon="1.50357">
        <ele>76.100540161133</ele>
        <time>2016-09-25T09:30:33.000Z</time>
      </trkpt>
      <trkpt lat="49.10041" lon="1.50357">
        <ele>76.782165527344</ele>
        <time>2016-09-25T09:30:36.000Z</time>
      </trkpt>
      <trkpt lat="49.10037" lon="1.50355">
        <ele>77.170471191406</ele>
        <time>2016-09-25T09:30:38.000Z</time>
      </trkpt>
      <trkpt lat="49.10033" lon="1.50349">
        <ele>77.068305969238</ele>
        <time>2016-09-25T09:30:41.000Z</time>
      </trkpt>
      <trkpt lat="49.10031" lon="1.50344">
        <ele>76.70597076416</ele>
        <time>2016-09-25T09:30:43.000Z</time>
      </trkpt>
      <trkpt lat="49.10029" lon="1.50336">
        <ele>76.106605529785</ele>
        <time>2016-09-25T09:30:46.000Z</time>
      </trkpt>
      <trkpt lat="49.10027" lon="1.50327">
        <ele>75.314582824707</ele>
        <time>2016-09-25T09:30:48.000Z</time>
      </trkpt>
      <trkpt lat="49.10009" lon="1.50292">
        <ele>73.921905517578</ele>
        <time>2016-09-25T09:30:52.000Z</time>
      </trkpt>
      <trkpt lat="49.09998" lon="1.50267">
        <ele>72.263816833496</ele>
        <time>2016-09-25T09:30:55.000Z</time>
      </trkpt>
      <trkpt lat="49.09992" lon="1.50247">
        <ele>70.597900390625</ele>
        <time>2016-09-25T09:30:57.000Z</time>
      </trkpt>
      <trkpt lat="49.0999" lon="1.50226">
        <ele>68.671363830566</ele>
        <time>2016-09-25T09:31:00.000Z</time>
      </trkpt>
      <trkpt lat="49.09992" lon="1.50191">
        <ele>66.006362915039</ele>
        <time>2016-09-25T09:31:03.000Z</time>
      </trkpt>
      <trkpt lat="49.09995" lon="1.50145">
        <ele>63.019824981689</ele>
        <time>2016-09-25T09:31:06.000Z</time>
      </trkpt>
      <trkpt lat="49.09986" lon="1.50125">
        <ele>60.386680603027</ele>
        <time>2016-09-25T09:31:08.000Z</time>
      </trkpt>
      <trkpt lat="49.09981" lon="1.50109">
        <ele>57.724559783936</ele>
        <time>2016-09-25T09:31:10.000Z</time>
      </trkpt>
      <trkpt lat="49.09972" lon="1.50075">
        <ele>55.231391906738</ele>
        <time>2016-09-25T09:31:14.000Z</time>
      </trkpt>
      <trkpt lat="49.09954" lon="1.50045">
        <ele>53.704566955566</ele>
        <time>2016-09-25T09:31:16.000Z</time>
      </trkpt>
      <trkpt lat="49.09949" lon="1.50042">
        <ele>53.135803222656</ele>
        <time>2016-09-25T09:31:18.000Z</time>
      </trkpt>
      <trkpt lat="49.09944" lon="1.5003">
        <ele>52.539527893066</ele>
        <time>2016-09-25T09:31:21.000Z</time>
      </trkpt>
      <trkpt lat="49.09936" lon="1.50021">
        <ele>51.877998352051</ele>
        <time>2016-09-25T09:31:24.000Z</time>
      </trkpt>
      <trkpt lat="49.09933" lon="1.50012">
        <ele>51.317596435547</ele>
        <time>2016-09-25T09:31:26.000Z</time>
      </trkpt>
      <trkpt lat="49.0993" lon="1.5">
        <ele>50.397331237793</ele>
        <time>2016-09-25T09:31:28.000Z</time>
      </trkpt>
      <trkpt lat="49.09925" lon="1.49985">
        <ele>49.348045349121</ele>
        <time>2016-09-25T09:31:31.000Z</time>
      </trkpt>
      <trkpt lat="49.09924" lon="1.49978">
        <ele>48.349597930908</ele>
        <time>2016-09-25T09:31:33.000Z</time>
      </trkpt>
      <trkpt lat="49.09921" lon="1.4997">
        <ele>47.434558868408</ele>
        <time>2016-09-25T09:31:35.000Z</time>
      </trkpt>
      <trkpt lat="49.09919" lon="1.49964">
        <ele>46.586692810059</ele>
        <time>2016-09-25T09:31:37.000Z</time>
      </trkpt>
      <trkpt lat="49.09915" lon="1.49948">
        <ele>45.882083892822</ele>
        <time>2016-09-25T09:31:40.000Z</time>
      </trkpt>
      <trkpt lat="49.0991" lon="1.49936">
        <ele>45.466163635254</ele>
        <time>2016-09-25T09:31:43.000Z</time>
      </trkpt>
      <trkpt lat="49.09904" lon="1.49917">
        <ele>45.209766387939</ele>
        <time>2016-09-25T09:31:46.000Z</time>
      </trkpt>
      <trkpt lat="49.09899" lon="1.49901">
        <ele>45.256092071533</ele>
        <time>2016-09-25T09:31:49.000Z</time>
      </trkpt>
      <trkpt lat="49.09896" lon="1.4989">
        <ele>45.506721496582</ele>
        <time>2016-09-25T09:31:51.000Z</time>
      </trkpt>
      <trkpt lat="49.09891" lon="1.49871">
        <ele>45.982124328613</ele>
        <time>2016-09-25T09:31:54.000Z</time>
      </trkpt>
      <trkpt lat="49.09885" lon="1.49855">
        <ele>46.387363433838</ele>
        <time>2016-09-25T09:31:57.000Z</time>
      </trkpt>
      <trkpt lat="49.09882" lon="1.49845">
        <ele>46.710132598877</ele>
        <time>2016-09-25T09:31:59.000Z</time>
      </trkpt>
      <trkpt lat="49.09878" lon="1.49829">
        <ele>46.830837249756</ele>
        <time>2016-09-25T09:32:02.000Z</time>
      </trkpt>
      <trkpt lat="49.09875" lon="1.49812">
        <ele>46.773735046387</ele>
        <time>2016-09-25T09:32:05.000Z</time>
      </trkpt>
      <trkpt lat="49.09872" lon="1.49802">
        <ele>46.583728790283</ele>
        <time>2016-09-25T09:32:07.000Z</time>
      </trkpt>
      <trkpt lat="49.09871" lon="1.49791">
        <ele>46.264446258545</ele>
        <time>2016-09-25T09:32:09.000Z</time>
      </trkpt>
      <trkpt lat="49.0987" lon="1.49773">
        <ele>45.811550140381</ele>
        <time>2016-09-25T09:32:12.000Z</time>
      </trkpt>
      <trkpt lat="49.09864" lon="1.4976">
        <ele>45.262321472168</ele>
        <time>2016-09-25T09:32:15.000Z</time>
      </trkpt>
      <trkpt lat="49.09862" lon="1.49752">
        <ele>44.709754943848</ele>
        <time>2016-09-25T09:32:17.000Z</time>
      </trkpt>
      <trkpt lat="49.09861" lon="1.49742">
        <ele>44.133735656738</ele>
        <time>2016-09-25T09:32:19.000Z</time>
      </trkpt>
      <trkpt lat="49.09857" lon="1.49727">
        <ele>43.51167678833</ele>
        <time>2016-09-25T09:32:22.000Z</time>
      </trkpt>
      <trkpt lat="49.09855" lon="1.49716">
        <ele>42.948841094971</ele>
        <time>2016-09-25T09:32:24.000Z</time>
      </trkpt>
      <trkpt lat="49.09856" lon="1.49702">
        <ele>42.4521484375</ele>
        <time>2016-09-25T09:32:27.000Z</time>
      </trkpt>
      <trkpt lat="49.09856" lon="1.49689">
        <ele>41.969844818115</ele>
        <time>2016-09-25T09:32:29.000Z</time>
      </trkpt>
      <trkpt lat="49.09856" lon="1.49666">
        <ele>41.419021606445</ele>
        <time>2016-09-25T09:32:32.000Z</time>
      </trkpt>
      <trkpt lat="49.09855" lon="1.49647">
        <ele>40.827770233154</ele>
        <time>2016-09-25T09:32:34.000Z</time>
      </trkpt>
      <trkpt lat="49.09855" lon="1.49623">
        <ele>40.111034393311</ele>
        <time>2016-09-25T09:32:37.000Z</time>
      </trkpt>
      <trkpt lat="49.09855" lon="1.4961">
        <ele>39.363014221191</ele>
        <time>2016-09-25T09:32:39.000Z</time>
      </trkpt>
      <trkpt lat="49.09856" lon="1.49586">
        <ele>38.510913848877</ele>
        <time>2016-09-25T09:32:42.000Z</time>
      </trkpt>
      <trkpt lat="49.09856" lon="1.49572">
        <ele>37.713035583496</ele>
        <time>2016-09-25T09:32:44.000Z</time>
      </trkpt>
      <trkpt lat="49.09855" lon="1.49555">
        <ele>36.970657348633</ele>
        <time>2016-09-25T09:32:46.000Z</time>
      </trkpt>
      <trkpt lat="49.09855" lon="1.4953">
        <ele>36.285785675049</ele>
        <time>2016-09-25T09:32:49.000Z</time>
      </trkpt>
      <trkpt lat="49.09856" lon="1.49509">
        <ele>35.593002319336</ele>
        <time>2016-09-25T09:32:52.000Z</time>
      </trkpt>
      <trkpt lat="49.09854" lon="1.49486">
        <ele>34.90518951416</ele>
        <time>2016-09-25T09:32:55.000Z</time>
      </trkpt>
      <trkpt lat="49.09853" lon="1.49464">
        <ele>34.117961883545</ele>
        <time>2016-09-25T09:32:57.000Z</time>
      </trkpt>
      <trkpt lat="49.09852" lon="1.4944">
        <ele>33.235816955566</ele>
        <time>2016-09-25T09:33:00.000Z</time>
      </trkpt>
      <trkpt lat="49.09853" lon="1.49428">
        <ele>32.405086517334</ele>
        <time>2016-09-25T09:33:02.000Z</time>
      </trkpt>
      <trkpt lat="49.0985" lon="1.49406">
        <ele>31.411682128906</ele>
        <time>2016-09-25T09:33:05.000Z</time>
      </trkpt>
      <trkpt lat="49.09849" lon="1.49389">
        <ele>30.306753158569</ele>
        <time>2016-09-25T09:33:07.000Z</time>
      </trkpt>
      <trkpt lat="49.09845" lon="1.49368">
        <ele>29.005031585693</ele>
        <time>2016-09-25T09:33:10.000Z</time>
      </trkpt>
      <trkpt lat="49.09842" lon="1.49356">
        <ele>27.676244735718</ele>
        <time>2016-09-25T09:33:12.000Z</time>
      </trkpt>
      <trkpt lat="49.0984" lon="1.49337">
        <ele>26.084295272827</ele>
        <time>2016-09-25T09:33:15.000Z</time>
      </trkpt>
      <trkpt lat="49.09841" lon="1.49329">
        <ele>24.708419799805</ele>
        <time>2016-09-25T09:33:17.000Z</time>
      </trkpt>
      <trkpt lat="49.09845" lon="1.49316">
        <ele>23.616764068604</ele>
        <time>2016-09-25T09:33:20.000Z</time>
      </trkpt>
      <trkpt lat="49.09846" lon="1.49309">
        <ele>22.912715911865</ele>
        <time>2016-09-25T09:33:22.000Z</time>
      </trkpt>
      <trkpt lat="49.09847" lon="1.49306">
        <ele>22.444509506226</ele>
        <time>2016-09-25T09:33:25.000Z</time>
      </trkpt>
      <trkpt lat="49.09847" lon="1.49307">
        <ele>22.345428466797</ele>
        <time>2016-09-25T09:33:31.000Z</time>
      </trkpt>
      <trkpt lat="49.09846" lon="1.49309">
        <ele>22.31635093689</ele>
        <time>2016-09-25T09:33:33.000Z</time>
      </trkpt>
      <trkpt lat="49.09845" lon="1.49314">
        <ele>22.312410354614</ele>
        <time>2016-09-25T09:33:36.000Z</time>
      </trkpt>
      <trkpt lat="49.09843" lon="1.49318">
        <ele>22.31127166748</ele>
        <time>2016-09-25T09:33:38.000Z</time>
      </trkpt>
      <trkpt lat="49.09842" lon="1.49321">
        <ele>22.314992904663</ele>
        <time>2016-09-25T09:33:40.000Z</time>
      </trkpt>
      <trkpt lat="49.09842" lon="1.49325">
        <ele>22.334796905518</ele>
        <time>2016-09-25T09:33:43.000Z</time>
      </trkpt>
      <trkpt lat="49.09841" lon="1.49328">
        <ele>22.360683441162</ele>
        <time>2016-09-25T09:33:45.000Z</time>
      </trkpt>
      <trkpt lat="49.09841" lon="1.49329">
        <ele>22.379547119141</ele>
        <time>2016-09-25T09:33:48.000Z</time>
      </trkpt>
      <trkpt lat="49.0984" lon="1.49328">
        <ele>22.384365081787</ele>
        <time>2016-09-25T09:33:57.000Z</time>
      </trkpt>
      <trkpt lat="49.09842" lon="1.49323">
        <ele>22.39368057251</ele>
        <time>2016-09-25T09:34:00.000Z</time>
      </trkpt>
      <trkpt lat="49.09847" lon="1.49313">
        <ele>22.402797698975</ele>
        <time>2016-09-25T09:34:03.000Z</time>
      </trkpt>
      <trkpt lat="49.09849" lon="1.49275">
        <ele>22.235912322998</ele>
        <time>2016-09-25T09:34:07.000Z</time>
      </trkpt>
      <trkpt lat="49.09851" lon="1.49251">
        <ele>21.972217559814</ele>
        <time>2016-09-25T09:34:10.000Z</time>
      </trkpt>
      <trkpt lat="49.09852" lon="1.49237">
        <ele>21.701471328735</ele>
        <time>2016-09-25T09:34:12.000Z</time>
      </trkpt>
      <trkpt lat="49.09852" lon="1.49226">
        <ele>21.407922744751</ele>
        <time>2016-09-25T09:34:14.000Z</time>
      </trkpt>
      <trkpt lat="49.09853" lon="1.49206">
        <ele>21.079904556274</ele>
        <time>2016-09-25T09:34:17.000Z</time>
      </trkpt>
      <trkpt lat="49.09848" lon="1.49184">
        <ele>20.807605743408</ele>
        <time>2016-09-25T09:34:20.000Z</time>
      </trkpt>
      <trkpt lat="49.09847" lon="1.49171">
        <ele>20.587007522583</ele>
        <time>2016-09-25T09:34:22.000Z</time>
      </trkpt>
      <trkpt lat="49.09846" lon="1.4916">
        <ele>20.345052719116</ele>
        <time>2016-09-25T09:34:24.000Z</time>
      </trkpt>
      <trkpt lat="49.09847" lon="1.49145">
        <ele>20.099424362183</ele>
        <time>2016-09-25T09:34:27.000Z</time>
      </trkpt>
      <trkpt lat="49.09846" lon="1.49136">
        <ele>19.826162338257</ele>
        <time>2016-09-25T09:34:30.000Z</time>
      </trkpt>
      <trkpt lat="49.09842" lon="1.49132">
        <ele>19.609144210815</ele>
        <time>2016-09-25T09:34:33.000Z</time>
      </trkpt>
      <trkpt lat="49.09837" lon="1.4913">
        <ele>19.354190826416</ele>
        <time>2016-09-25T09:34:35.000Z</time>
      </trkpt>
      <trkpt lat="49.0983" lon="1.49126">
        <ele>19.09238243103</ele>
        <time>2016-09-25T09:34:37.000Z</time>
      </trkpt>
      <trkpt lat="49.09817" lon="1.49113">
        <ele>18.803380966187</ele>
        <time>2016-09-25T09:34:40.000Z</time>
      </trkpt>
      <trkpt lat="49.09809" lon="1.49101">
        <ele>18.532903671265</ele>
        <time>2016-09-25T09:34:42.000Z</time>
      </trkpt>
      <trkpt lat="49.098" lon="1.49093">
        <ele>18.311782836914</ele>
        <time>2016-09-25T09:34:44.000Z</time>
      </trkpt>
      <trkpt lat="49.09789" lon="1.49079">
        <ele>18.173316955566</ele>
        <time>2016-09-25T09:34:47.000Z</time>
      </trkpt>
      <trkpt lat="49.09781" lon="1.49068">
        <ele>18.124315261841</ele>
        <time>2016-09-25T09:34:49.000Z</time>
      </trkpt>
      <trkpt lat="49.0977" lon="1.49058">
        <ele>18.174224853516</ele>
        <time>2016-09-25T09:34:51.000Z</time>
      </trkpt>
      <trkpt lat="49.09764" lon="1.49046">
        <ele>18.306171417236</ele>
        <time>2016-09-25T09:34:53.000Z</time>
      </trkpt>
      <trkpt lat="49.09751" lon="1.4903">
        <ele>18.554256439209</ele>
        <time>2016-09-25T09:34:56.000Z</time>
      </trkpt>
      <trkpt lat="49.09743" lon="1.49017">
        <ele>18.797681808472</ele>
        <time>2016-09-25T09:34:58.000Z</time>
      </trkpt>
      <trkpt lat="49.09734" lon="1.49001">
        <ele>18.994646072388</ele>
        <time>2016-09-25T09:35:01.000Z</time>
      </trkpt>
      <trkpt lat="49.09725" lon="1.48986">
        <ele>19.073795318604</ele>
        <time>2016-09-25T09:35:04.000Z</time>
      </trkpt>
      <trkpt lat="49.09717" lon="1.48969">
        <ele>19.024564743042</ele>
        <time>2016-09-25T09:35:07.000Z</time>
      </trkpt>
      <trkpt lat="49.09722" lon="1.48954">
        <ele>18.935131072998</ele>
        <time>2016-09-25T09:35:10.000Z</time>
      </trkpt>
      <trkpt lat="49.09736" lon="1.48949">
        <ele>19.031433105469</ele>
        <time>2016-09-25T09:35:13.000Z</time>
      </trkpt>
      <trkpt lat="49.09753" lon="1.48942">
        <ele>19.31683921814</ele>
        <time>2016-09-25T09:35:16.000Z</time>
      </trkpt>
      <trkpt lat="49.09773" lon="1.48937">
        <ele>19.626277923584</ele>
        <time>2016-09-25T09:35:19.000Z</time>
      </trkpt>
      <trkpt lat="49.09793" lon="1.48925">
        <ele>19.990491867065</ele>
        <time>2016-09-25T09:35:22.000Z</time>
      </trkpt>
      <trkpt lat="49.09811" lon="1.48912">
        <ele>20.283344268799</ele>
        <time>2016-09-25T09:35:25.000Z</time>
      </trkpt>
      <trkpt lat="49.0982" lon="1.48899">
        <ele>20.387104034424</ele>
        <time>2016-09-25T09:35:27.000Z</time>
      </trkpt>
      <trkpt lat="49.09825" lon="1.48882">
        <ele>20.335622787476</ele>
        <time>2016-09-25T09:35:29.000Z</time>
      </trkpt>
      <trkpt lat="49.09832" lon="1.48862">
        <ele>20.381965637207</ele>
        <time>2016-09-25T09:35:32.000Z</time>
      </trkpt>
      <trkpt lat="49.09837" lon="1.48848">
        <ele>20.464374542236</ele>
        <time>2016-09-25T09:35:34.000Z</time>
      </trkpt>
      <trkpt lat="49.09844" lon="1.48831">
        <ele>20.545793533325</ele>
        <time>2016-09-25T09:35:37.000Z</time>
      </trkpt>
      <trkpt lat="49.09853" lon="1.48811">
        <ele>20.487981796265</ele>
        <time>2016-09-25T09:35:40.000Z</time>
      </trkpt>
      <trkpt lat="49.09856" lon="1.48797">
        <ele>20.336107254028</ele>
        <time>2016-09-25T09:35:42.000Z</time>
      </trkpt>
      <trkpt lat="49.09861" lon="1.48787">
        <ele>20.087003707886</ele>
        <time>2016-09-25T09:35:44.000Z</time>
      </trkpt>
      <trkpt lat="49.09864" lon="1.48776">
        <ele>19.781923294067</ele>
        <time>2016-09-25T09:35:47.000Z</time>
      </trkpt>
      <trkpt lat="49.09859" lon="1.48779">
        <ele>19.490571975708</ele>
        <time>2016-09-25T09:35:50.000Z</time>
      </trkpt>
      <trkpt lat="49.09861" lon="1.48778">
        <ele>19.336853027344</ele>
        <time>2016-09-25T09:35:53.000Z</time>
      </trkpt>
      <trkpt lat="49.09862" lon="1.48778">
        <ele>19.259357452393</ele>
        <time>2016-09-25T09:35:55.000Z</time>
      </trkpt>
      <trkpt lat="49.09862" lon="1.48776">
        <ele>19.219421386719</ele>
        <time>2016-09-25T09:36:05.000Z</time>
      </trkpt>
      <trkpt lat="49.09863" lon="1.48773">
        <ele>19.205209732056</ele>
        <time>2016-09-25T09:36:11.000Z</time>
      </trkpt>
      <trkpt lat="49.09862" lon="1.48774">
        <ele>19.191869735718</ele>
        <time>2016-09-25T09:36:16.000Z</time>
      </trkpt>
      <trkpt lat="49.09862" lon="1.48773">
        <ele>19.177070617676</ele>
        <time>2016-09-25T09:36:26.000Z</time>
      </trkpt>
      <trkpt lat="49.09858" lon="1.48775">
        <ele>19.158405303955</ele>
        <time>2016-09-25T09:36:46.000Z</time>
      </trkpt>
      <trkpt lat="49.09856" lon="1.48775">
        <ele>19.139738082886</ele>
        <time>2016-09-25T09:36:51.000Z</time>
      </trkpt>
      <trkpt lat="49.09856" lon="1.48775">
        <ele>19.139738082886</ele>
        <time>2016-09-25T09:36:59.000Z</time>
      </trkpt>
    </trkseg>
  </trk>
</gpx>